<?xml version='1.0' encoding='UTF-8'?><gpx version="1.1" creator="JPX - https://github.com/jenetics/jpx" xmlns="http://www.topografix.com/GPX/1/1"><trk><trkseg><trkpt lat="43.0285364" lon="13.2668848"><ele>757.0</ele><time>2026-04-29T14:21:59.917Z</time></trkpt><trkpt lat="43.0285409" lon="13.2666876"><ele>757.0</ele><time>2026-04-29T14:22:00.921Z</time></trkpt><trkpt lat="43.0285372" lon="13.2665218"><ele>757.0</ele><time>2026-04-29T14:22:01.895Z</time></trkpt><trkpt lat="43.0285309" lon="13.2663835"><ele>757.0</ele><time>2026-04-29T14:22:02.928Z</time></trkpt><trkpt lat="43.0285121" lon="13.2662754"><ele>757.0</ele><time>2026-04-29T14:22:03.942Z</time></trkpt><trkpt lat="43.0284903" lon="13.266177"><ele>758.0</ele><time>2026-04-29T14:22:04.91Z</time></trkpt><trkpt lat="43.0284499" lon="13.2661015"><ele>759.0</ele><time>2026-04-29T14:22:05.93Z</time></trkpt><trkpt lat="43.0283978" lon="13.2660247"><ele>760.0</ele><time>2026-04-29T14:22:06.906Z</time></trkpt><trkpt lat="43.0283313" lon="13.2659438"><ele>761.0</ele><time>2026-04-29T14:22:07.898Z</time></trkpt><trkpt lat="43.0282727" lon="13.2658633"><ele>762.0</ele><time>2026-04-29T14:22:08.927Z</time></trkpt><trkpt lat="43.028234" lon="13.2657818"><ele>763.0</ele><time>2026-04-29T14:22:09.936Z</time></trkpt><trkpt lat="43.0282107" lon="13.2656906"><ele>763.8571428571429</ele><time>2026-04-29T14:22:10.893Z</time></trkpt><trkpt lat="43.0281923" lon="13.2655969"><ele>764.7142857142858</ele><time>2026-04-29T14:22:11.892Z</time></trkpt><trkpt lat="43.0281803" lon="13.2655094"><ele>765.5714285714286</ele><time>2026-04-29T14:22:12.941Z</time></trkpt><trkpt lat="43.0282013" lon="13.2653774"><ele>766.4285714285714</ele><time>2026-04-29T14:22:14.893Z</time></trkpt><trkpt lat="43.0282393" lon="13.265293"><ele>767.2857142857143</ele><time>2026-04-29T14:22:15.931Z</time></trkpt><trkpt lat="43.0282725" lon="13.2652047"><ele>768.1428571428571</ele><time>2026-04-29T14:22:16.944Z</time></trkpt><trkpt lat="43.0282917" lon="13.2651224"><ele>769.0</ele><time>2026-04-29T14:22:17.892Z</time></trkpt><trkpt lat="43.0283055" lon="13.2649602"><ele>770.0</ele><time>2026-04-29T14:22:19.9Z</time></trkpt><trkpt lat="43.0283286" lon="13.2648119"><ele>771.0</ele><time>2026-04-29T14:22:21.998Z</time></trkpt><trkpt lat="43.0283558" lon="13.2646531"><ele>772.0</ele><time>2026-04-29T14:22:23.902Z</time></trkpt><trkpt lat="43.0283714" lon="13.2645695"><ele>773.0</ele><time>2026-04-29T14:22:24.94Z</time></trkpt><trkpt lat="43.0283957" lon="13.2644272"><ele>774.0</ele><time>2026-04-29T14:22:26.942Z</time></trkpt><trkpt lat="43.0284087" lon="13.2642781"><ele>776.1666666666666</ele><time>2026-04-29T14:22:28.948Z</time></trkpt><trkpt lat="43.0284084" lon="13.2641868"><ele>778.3333333333333</ele><time>2026-04-29T14:22:29.942Z</time></trkpt><trkpt lat="43.0284035" lon="13.2640952"><ele>780.5</ele><time>2026-04-29T14:22:30.926Z</time></trkpt><trkpt lat="43.0283908" lon="13.2639855"><ele>782.6666666666666</ele><time>2026-04-29T14:22:31.941Z</time></trkpt><trkpt lat="43.0283711" lon="13.2638468"><ele>784.8333333333333</ele><time>2026-04-29T14:22:32.928Z</time></trkpt><trkpt lat="43.0283634" lon="13.26367"><ele>787.0</ele><time>2026-04-29T14:22:33.941Z</time></trkpt><trkpt lat="43.0283606" lon="13.2635282"><ele>787.1666666666666</ele><time>2026-04-29T14:22:34.941Z</time></trkpt><trkpt lat="43.0283459" lon="13.263405"><ele>787.3333333333333</ele><time>2026-04-29T14:22:35.897Z</time></trkpt><trkpt lat="43.0283447" lon="13.2632859"><ele>787.5</ele><time>2026-04-29T14:22:36.93Z</time></trkpt><trkpt lat="43.0283467" lon="13.2631589"><ele>787.6666666666667</ele><time>2026-04-29T14:22:37.881Z</time></trkpt><trkpt lat="43.0283494" lon="13.2630429"><ele>787.8333333333334</ele><time>2026-04-29T14:22:38.931Z</time></trkpt><trkpt lat="43.0283545" lon="13.2629371"><ele>788.0</ele><time>2026-04-29T14:22:39.917Z</time></trkpt><trkpt lat="43.0283669" lon="13.2627614"><ele>787.1666666666667</ele><time>2026-04-29T14:22:41.925Z</time></trkpt><trkpt lat="43.0283705" lon="13.2626613"><ele>786.3333333333334</ele><time>2026-04-29T14:22:42.926Z</time></trkpt><trkpt lat="43.0283714" lon="13.2625438"><ele>785.5</ele><time>2026-04-29T14:22:43.933Z</time></trkpt><trkpt lat="43.0283584" lon="13.2624251"><ele>784.6666666666667</ele><time>2026-04-29T14:22:44.909Z</time></trkpt><trkpt lat="43.0283323" lon="13.2623012"><ele>783.8333333333334</ele><time>2026-04-29T14:22:45.903Z</time></trkpt><trkpt lat="43.0283034" lon="13.2621725"><ele>783.0</ele><time>2026-04-29T14:22:46.908Z</time></trkpt><trkpt lat="43.0282805" lon="13.2620612"><ele>782.8333333333334</ele><time>2026-04-29T14:22:47.906Z</time></trkpt><trkpt lat="43.0282634" lon="13.2619525"><ele>782.6666666666667</ele><time>2026-04-29T14:22:48.931Z</time></trkpt><trkpt lat="43.0282535" lon="13.2618395"><ele>782.5</ele><time>2026-04-29T14:22:49.914Z</time></trkpt><trkpt lat="43.0282747" lon="13.2617187"><ele>782.3333333333334</ele><time>2026-04-29T14:22:50.933Z</time></trkpt><trkpt lat="43.0283036" lon="13.2615958"><ele>782.1666666666667</ele><time>2026-04-29T14:22:51.927Z</time></trkpt><trkpt lat="43.0283415" lon="13.2614842"><ele>782.0</ele><time>2026-04-29T14:22:52.935Z</time></trkpt><trkpt lat="43.028375" lon="13.2613797"><ele>782.8333333333334</ele><time>2026-04-29T14:22:53.998Z</time></trkpt><trkpt lat="43.0283768" lon="13.2612837"><ele>783.6666666666667</ele><time>2026-04-29T14:22:54.94Z</time></trkpt><trkpt lat="43.0283846" lon="13.2611959"><ele>784.5</ele><time>2026-04-29T14:22:55.936Z</time></trkpt><trkpt lat="43.0283802" lon="13.2610507"><ele>785.3333333333333</ele><time>2026-04-29T14:22:57.901Z</time></trkpt><trkpt lat="43.0284076" lon="13.2609377"><ele>786.1666666666666</ele><time>2026-04-29T14:22:59.934Z</time></trkpt><trkpt lat="43.0284445" lon="13.2608"><ele>787.0</ele><time>2026-04-29T14:23:01.931Z</time></trkpt><trkpt lat="43.0284778" lon="13.2606634"><ele>788.4000000000001</ele><time>2026-04-29T14:23:03.915Z</time></trkpt><trkpt lat="43.028508" lon="13.2605336"><ele>789.8000000000001</ele><time>2026-04-29T14:23:05.894Z</time></trkpt><trkpt lat="43.0285278" lon="13.2603905"><ele>791.2</ele><time>2026-04-29T14:23:07.948Z</time></trkpt><trkpt lat="43.0285598" lon="13.2602425"><ele>792.6</ele><time>2026-04-29T14:23:09.943Z</time></trkpt><trkpt lat="43.0285889" lon="13.2601119"><ele>794.0</ele><time>2026-04-29T14:23:11.941Z</time></trkpt><trkpt lat="43.0286048" lon="13.2599527"><ele>794.0000000000001</ele><time>2026-04-29T14:23:13.903Z</time></trkpt><trkpt lat="43.0286187" lon="13.2598499"><ele>794.0</ele><time>2026-04-29T14:23:14.94Z</time></trkpt><trkpt lat="43.0286419" lon="13.2597219"><ele>794.0</ele><time>2026-04-29T14:23:15.909Z</time></trkpt><trkpt lat="43.028668" lon="13.2596065"><ele>794.0</ele><time>2026-04-29T14:23:16.906Z</time></trkpt><trkpt lat="43.0286927" lon="13.2594935"><ele>794.0000000000001</ele><time>2026-04-29T14:23:17.919Z</time></trkpt><trkpt lat="43.0287082" lon="13.2594035"><ele>794.0</ele><time>2026-04-29T14:23:18.917Z</time></trkpt><trkpt lat="43.0287101" lon="13.2593164"><ele>794.5000000000001</ele><time>2026-04-29T14:23:19.915Z</time></trkpt><trkpt lat="43.0287113" lon="13.2592057"><ele>795.0</ele><time>2026-04-29T14:23:20.895Z</time></trkpt><trkpt lat="43.0287155" lon="13.2590984"><ele>795.5</ele><time>2026-04-29T14:23:21.913Z</time></trkpt><trkpt lat="43.0287225" lon="13.2589955"><ele>796.0</ele><time>2026-04-29T14:23:22.932Z</time></trkpt><trkpt lat="43.0286976" lon="13.258858"><ele>796.5000000000001</ele><time>2026-04-29T14:23:24.931Z</time></trkpt><trkpt lat="43.0286198" lon="13.2587801"><ele>797.0</ele><time>2026-04-29T14:23:26.932Z</time></trkpt><trkpt lat="43.0285205" lon="13.2587321"><ele>797.4000000000001</ele><time>2026-04-29T14:23:28.933Z</time></trkpt><trkpt lat="43.0284081" lon="13.2586704"><ele>797.8000000000001</ele><time>2026-04-29T14:23:30.917Z</time></trkpt><trkpt lat="43.0283332" lon="13.2586502"><ele>798.2</ele><time>2026-04-29T14:23:32.929Z</time></trkpt><trkpt lat="43.0282454" lon="13.2586495"><ele>798.6</ele><time>2026-04-29T14:23:34.88Z</time></trkpt><trkpt lat="43.0281608" lon="13.258587"><ele>799.0</ele><time>2026-04-29T14:23:36.901Z</time></trkpt><trkpt lat="43.028089" lon="13.2584934"><ele>798.9999999999999</ele><time>2026-04-29T14:23:38.944Z</time></trkpt><trkpt lat="43.0280449" lon="13.2583583"><ele>799.0</ele><time>2026-04-29T14:23:40.943Z</time></trkpt><trkpt lat="43.028008" lon="13.2581981"><ele>799.0</ele><time>2026-04-29T14:23:42.913Z</time></trkpt><trkpt lat="43.0279856" lon="13.2581108"><ele>799.0</ele><time>2026-04-29T14:23:43.937Z</time></trkpt><trkpt lat="43.0279816" lon="13.2580155"><ele>798.9999999999999</ele><time>2026-04-29T14:23:44.889Z</time></trkpt><trkpt lat="43.0279798" lon="13.2579146"><ele>799.0</ele><time>2026-04-29T14:23:45.927Z</time></trkpt><trkpt lat="43.0279772" lon="13.2578233"><ele>799.6</ele><time>2026-04-29T14:23:46.932Z</time></trkpt><trkpt lat="43.0279731" lon="13.2576766"><ele>800.2</ele><time>2026-04-29T14:23:48.949Z</time></trkpt><trkpt lat="43.0279918" lon="13.2575143"><ele>800.8000000000001</ele><time>2026-04-29T14:23:50.891Z</time></trkpt><trkpt lat="43.0280227" lon="13.2573952"><ele>801.4000000000001</ele><time>2026-04-29T14:23:52.916Z</time></trkpt><trkpt lat="43.0280612" lon="13.2572925"><ele>802.0</ele><time>2026-04-29T14:23:54.893Z</time></trkpt><trkpt lat="43.0281274" lon="13.2571416"><ele>800.8</ele><time>2026-04-29T14:24:19.969Z</time></trkpt><trkpt lat="43.0281754" lon="13.2570856"><ele>799.6</ele><time>2026-04-29T14:24:21.925Z</time></trkpt><trkpt lat="43.0282779" lon="13.2570432"><ele>798.4</ele><time>2026-04-29T14:24:23.887Z</time></trkpt><trkpt lat="43.0283902" lon="13.2569746"><ele>797.1999999999999</ele><time>2026-04-29T14:24:25.951Z</time></trkpt><trkpt lat="43.0285028" lon="13.2569247"><ele>796.0</ele><time>2026-04-29T14:24:27.909Z</time></trkpt><trkpt lat="43.0286004" lon="13.2568687"><ele>796.0</ele><time>2026-04-29T14:24:29.925Z</time></trkpt><trkpt lat="43.0287194" lon="13.2568261"><ele>796.0</ele><time>2026-04-29T14:24:31.925Z</time></trkpt><trkpt lat="43.0287966" lon="13.2567833"><ele>796.0</ele><time>2026-04-29T14:24:33.934Z</time></trkpt><trkpt lat="43.0288485" lon="13.256683"><ele>796.0</ele><time>2026-04-29T14:24:36.918Z</time></trkpt><trkpt lat="43.0288334" lon="13.2565389"><ele>796.0</ele><time>2026-04-29T14:24:38.936Z</time></trkpt><trkpt lat="43.0288337" lon="13.2564517"><ele>797.9999999999999</ele><time>2026-04-29T14:24:39.893Z</time></trkpt><trkpt lat="43.0288401" lon="13.2563484"><ele>800.0</ele><time>2026-04-29T14:24:41.971Z</time></trkpt><trkpt lat="43.0288692" lon="13.2562407"><ele>802.0</ele><time>2026-04-29T14:24:44.929Z</time></trkpt><trkpt lat="43.0289052" lon="13.2561475"><ele>804.0</ele><time>2026-04-29T14:24:46.932Z</time></trkpt><trkpt lat="43.0289376" lon="13.2560729"><ele>805.9999999999999</ele><time>2026-04-29T14:24:48.964Z</time></trkpt><trkpt lat="43.0289798" lon="13.2559909"><ele>808.0</ele><time>2026-04-29T14:24:50.931Z</time></trkpt><trkpt lat="43.0290126" lon="13.2558916"><ele>808.0</ele><time>2026-04-29T14:24:52.916Z</time></trkpt><trkpt lat="43.0290341" lon="13.2557678"><ele>808.0</ele><time>2026-04-29T14:24:54.931Z</time></trkpt><trkpt lat="43.0290822" lon="13.2556332"><ele>808.0</ele><time>2026-04-29T14:24:56.959Z</time></trkpt><trkpt lat="43.0291658" lon="13.2555203"><ele>808.0</ele><time>2026-04-29T14:24:58.953Z</time></trkpt><trkpt lat="43.0292439" lon="13.2554628"><ele>808.0</ele><time>2026-04-29T14:25:00.9Z</time></trkpt><trkpt lat="43.0293091" lon="13.255411"><ele>803.6666666666666</ele><time>2026-04-29T14:25:03.914Z</time></trkpt><trkpt lat="43.0293585" lon="13.2553026"><ele>799.3333333333333</ele><time>2026-04-29T14:25:07.894Z</time></trkpt><trkpt lat="43.0293888" lon="13.2552078"><ele>795.0</ele><time>2026-04-29T14:25:09.955Z</time></trkpt><trkpt lat="43.0294216" lon="13.2551239"><ele>790.6666666666667</ele><time>2026-04-29T14:25:11.947Z</time></trkpt><trkpt lat="43.0294559" lon="13.2550044"><ele>786.3333333333334</ele><time>2026-04-29T14:25:13.893Z</time></trkpt><trkpt lat="43.0294718" lon="13.2548871"><ele>782.0</ele><time>2026-04-29T14:25:15.878Z</time></trkpt><trkpt lat="43.0294864" lon="13.2547721"><ele>781.1666666666667</ele><time>2026-04-29T14:25:18.917Z</time></trkpt><trkpt lat="43.0294743" lon="13.254673"><ele>780.3333333333334</ele><time>2026-04-29T14:25:20.896Z</time></trkpt><trkpt lat="43.0294763" lon="13.2545168"><ele>779.5</ele><time>2026-04-29T14:25:22.938Z</time></trkpt><trkpt lat="43.02949" lon="13.2544094"><ele>778.6666666666667</ele><time>2026-04-29T14:25:23.964Z</time></trkpt><trkpt lat="43.0294964" lon="13.2543145"><ele>777.8333333333334</ele><time>2026-04-29T14:25:25.886Z</time></trkpt><trkpt lat="43.0294797" lon="13.2541886"><ele>777.0</ele><time>2026-04-29T14:25:27.894Z</time></trkpt><trkpt lat="43.0294368" lon="13.2540955"><ele>777.0</ele><time>2026-04-29T14:25:28.918Z</time></trkpt><trkpt lat="43.0294133" lon="13.2540152"><ele>777.0</ele><time>2026-04-29T14:25:29.891Z</time></trkpt><trkpt lat="43.0293775" lon="13.2538657"><ele>777.0</ele><time>2026-04-29T14:25:31.903Z</time></trkpt><trkpt lat="43.0293584" lon="13.2537772"><ele>777.0</ele><time>2026-04-29T14:25:32.911Z</time></trkpt><trkpt lat="43.0292941" lon="13.2536436"><ele>777.0</ele><time>2026-04-29T14:25:34.914Z</time></trkpt><trkpt lat="43.0292359" lon="13.2535865"><ele>777.0</ele><time>2026-04-29T14:25:35.898Z</time></trkpt><trkpt lat="43.0291806" lon="13.2534303"><ele>777.0</ele><time>2026-04-29T14:25:36.908Z</time></trkpt><trkpt lat="43.0291253" lon="13.2533497"><ele>777.0</ele><time>2026-04-29T14:25:37.907Z</time></trkpt><trkpt lat="43.0290664" lon="13.2532996"><ele>777.0</ele><time>2026-04-29T14:25:38.907Z</time></trkpt><trkpt lat="43.0290005" lon="13.2532573"><ele>777.0</ele><time>2026-04-29T14:25:39.911Z</time></trkpt><trkpt lat="43.02894" lon="13.2532317"><ele>777.0</ele><time>2026-04-29T14:25:40.887Z</time></trkpt><trkpt lat="43.0288683" lon="13.2531897"><ele>777.0</ele><time>2026-04-29T14:25:42.91Z</time></trkpt><trkpt lat="43.0288072" lon="13.2531484"><ele>777.0</ele><time>2026-04-29T14:25:45.886Z</time></trkpt><trkpt lat="43.0287478" lon="13.2530794"><ele>777.0</ele><time>2026-04-29T14:25:48.916Z</time></trkpt><trkpt lat="43.02879" lon="13.2528506"><ele>777.0</ele><time>2026-04-29T14:26:00.92Z</time></trkpt><trkpt lat="43.0288467" lon="13.2527926"><ele>777.0</ele><time>2026-04-29T14:26:02.904Z</time></trkpt><trkpt lat="43.0288865" lon="13.2527131"><ele>777.0</ele><time>2026-04-29T14:26:06.918Z</time></trkpt><trkpt lat="43.0289525" lon="13.2526235"><ele>777.0</ele><time>2026-04-29T14:26:11.906Z</time></trkpt><trkpt lat="43.029" lon="13.2525591"><ele>777.0</ele><time>2026-04-29T14:26:14.907Z</time></trkpt><trkpt lat="43.0290432" lon="13.2524851"><ele>777.0</ele><time>2026-04-29T14:26:15.898Z</time></trkpt><trkpt lat="43.0290991" lon="13.2523995"><ele>777.0</ele><time>2026-04-29T14:26:16.907Z</time></trkpt><trkpt lat="43.029145" lon="13.2523145"><ele>777.0</ele><time>2026-04-29T14:26:18.932Z</time></trkpt><trkpt lat="43.0292078" lon="13.2522089"><ele>777.0</ele><time>2026-04-29T14:26:20.921Z</time></trkpt><trkpt lat="43.0292688" lon="13.2521272"><ele>777.0</ele><time>2026-04-29T14:26:21.908Z</time></trkpt><trkpt lat="43.0293054" lon="13.2520568"><ele>770.1666666666666</ele><time>2026-04-29T14:26:22.902Z</time></trkpt><trkpt lat="43.0293423" lon="13.2519432"><ele>763.3333333333334</ele><time>2026-04-29T14:26:24.907Z</time></trkpt><trkpt lat="43.0293676" lon="13.2518368"><ele>756.5</ele><time>2026-04-29T14:26:26.91Z</time></trkpt><trkpt lat="43.029412" lon="13.2517233"><ele>749.6666666666667</ele><time>2026-04-29T14:26:28.921Z</time></trkpt><trkpt lat="43.0294637" lon="13.2516266"><ele>742.8333333333334</ele><time>2026-04-29T14:26:29.947Z</time></trkpt><trkpt lat="43.0294966" lon="13.251548"><ele>736.0</ele><time>2026-04-29T14:26:30.903Z</time></trkpt><trkpt lat="43.0295239" lon="13.2514693"><ele>739.5999999999999</ele><time>2026-04-29T14:26:31.935Z</time></trkpt><trkpt lat="43.0295691" lon="13.2513421"><ele>743.2</ele><time>2026-04-29T14:26:33.903Z</time></trkpt><trkpt lat="43.0296451" lon="13.2511884"><ele>746.8</ele><time>2026-04-29T14:26:34.896Z</time></trkpt><trkpt lat="43.0297" lon="13.2511133"><ele>750.4000000000001</ele><time>2026-04-29T14:26:36.913Z</time></trkpt><trkpt lat="43.0297484" lon="13.2510034"><ele>754.0</ele><time>2026-04-29T14:26:38.915Z</time></trkpt><trkpt lat="43.0298098" lon="13.2509471"><ele>754.0</ele><time>2026-04-29T14:26:39.906Z</time></trkpt><trkpt lat="43.0298949" lon="13.2508641"><ele>754.0</ele><time>2026-04-29T14:26:41.891Z</time></trkpt><trkpt lat="43.0299562" lon="13.2508069"><ele>754.0</ele><time>2026-04-29T14:26:43.886Z</time></trkpt><trkpt lat="43.030014" lon="13.2507334"><ele>754.0</ele><time>2026-04-29T14:26:45.89Z</time></trkpt><trkpt lat="43.03007" lon="13.2506833"><ele>754.0</ele><time>2026-04-29T14:26:47.92Z</time></trkpt><trkpt lat="43.0301361" lon="13.2505357"><ele>746.6</ele><time>2026-04-29T14:26:49.908Z</time></trkpt><trkpt lat="43.0302096" lon="13.2503998"><ele>739.2</ele><time>2026-04-29T14:26:51.917Z</time></trkpt><trkpt lat="43.0302674" lon="13.2502281"><ele>731.8000000000001</ele><time>2026-04-29T14:26:54.921Z</time></trkpt><trkpt lat="43.0302994" lon="13.2501436"><ele>724.4000000000001</ele><time>2026-04-29T14:26:56.931Z</time></trkpt><trkpt lat="43.0303278" lon="13.25006"><ele>717.0</ele><time>2026-04-29T14:26:58.91Z</time></trkpt><trkpt lat="43.030404" lon="13.2499658"><ele>717.0</ele><time>2026-04-29T14:27:00.934Z</time></trkpt><trkpt lat="43.0304302" lon="13.249885"><ele>717.0</ele><time>2026-04-29T14:27:02.898Z</time></trkpt><trkpt lat="43.0304732" lon="13.2497843"><ele>717.0</ele><time>2026-04-29T14:27:04.908Z</time></trkpt><trkpt lat="43.0304887" lon="13.2496876"><ele>717.0</ele><time>2026-04-29T14:27:06.905Z</time></trkpt><trkpt lat="43.0305603" lon="13.2496417"><ele>717.0</ele><time>2026-04-29T14:27:07.906Z</time></trkpt><trkpt lat="43.0306261" lon="13.2495229"><ele>717.0</ele><time>2026-04-29T14:27:09.915Z</time></trkpt><trkpt lat="43.0306685" lon="13.2494309"><ele>719.6</ele><time>2026-04-29T14:27:12.925Z</time></trkpt><trkpt lat="43.0307332" lon="13.2493974"><ele>722.2</ele><time>2026-04-29T14:27:14.898Z</time></trkpt><trkpt lat="43.0308081" lon="13.2494041"><ele>724.8</ele><time>2026-04-29T14:27:17.908Z</time></trkpt><trkpt lat="43.0309701" lon="13.249399"><ele>727.4</ele><time>2026-04-29T14:27:47.921Z</time></trkpt><trkpt lat="43.0310488" lon="13.2494918"><ele>730.0</ele><time>2026-04-29T14:27:55.932Z</time></trkpt><trkpt lat="43.031083" lon="13.2495802"><ele>719.8</ele><time>2026-04-29T14:27:56.88Z</time></trkpt><trkpt lat="43.0311129" lon="13.2497016"><ele>709.6</ele><time>2026-04-29T14:27:57.922Z</time></trkpt><trkpt lat="43.03116" lon="13.2498097"><ele>699.4000000000001</ele><time>2026-04-29T14:27:58.931Z</time></trkpt><trkpt lat="43.0312212" lon="13.2499157"><ele>689.2</ele><time>2026-04-29T14:27:59.924Z</time></trkpt><trkpt lat="43.0313155" lon="13.2499962"><ele>679.0</ele><time>2026-04-29T14:28:00.918Z</time></trkpt><trkpt lat="43.031446" lon="13.2500975"><ele>679.75</ele><time>2026-04-29T14:28:01.929Z</time></trkpt><trkpt lat="43.0315812" lon="13.2502055"><ele>680.5</ele><time>2026-04-29T14:28:02.881Z</time></trkpt><trkpt lat="43.0316958" lon="13.2502888"><ele>681.25</ele><time>2026-04-29T14:28:03.869Z</time></trkpt><trkpt lat="43.0317901" lon="13.2503687"><ele>682.0</ele><time>2026-04-29T14:28:04.864Z</time></trkpt><trkpt lat="43.0318766" lon="13.2504523"><ele>682.0</ele><time>2026-04-29T14:28:05.886Z</time></trkpt><trkpt lat="43.0319399" lon="13.2505646"><ele>682.0</ele><time>2026-04-29T14:28:06.878Z</time></trkpt><trkpt lat="43.0320221" lon="13.2507219"><ele>682.0</ele><time>2026-04-29T14:28:07.914Z</time></trkpt><trkpt lat="43.0320792" lon="13.2509191"><ele>682.0</ele><time>2026-04-29T14:28:08.915Z</time></trkpt><trkpt lat="43.0321221" lon="13.2511013"><ele>678.4000000000001</ele><time>2026-04-29T14:28:09.92Z</time></trkpt><trkpt lat="43.0321601" lon="13.2512492"><ele>674.8000000000001</ele><time>2026-04-29T14:28:10.898Z</time></trkpt><trkpt lat="43.0322109" lon="13.2513783"><ele>671.2</ele><time>2026-04-29T14:28:11.881Z</time></trkpt><trkpt lat="43.0322668" lon="13.2514957"><ele>667.6</ele><time>2026-04-29T14:28:12.932Z</time></trkpt><trkpt lat="43.0323141" lon="13.2515708"><ele>664.0</ele><time>2026-04-29T14:28:13.926Z</time></trkpt><trkpt lat="43.0323535" lon="13.251638"><ele>664.6666666666667</ele><time>2026-04-29T14:28:14.913Z</time></trkpt><trkpt lat="43.0324856" lon="13.2516878"><ele>665.3333333333334</ele><time>2026-04-29T14:28:16.89Z</time></trkpt><trkpt lat="43.0325533" lon="13.2517068"><ele>666.0</ele><time>2026-04-29T14:28:17.926Z</time></trkpt><trkpt lat="43.0326151" lon="13.2517428"><ele>666.6666666666666</ele><time>2026-04-29T14:28:18.904Z</time></trkpt><trkpt lat="43.0326735" lon="13.2518184"><ele>667.3333333333333</ele><time>2026-04-29T14:28:19.913Z</time></trkpt><trkpt lat="43.0327035" lon="13.2519164"><ele>668.0</ele><time>2026-04-29T14:28:20.909Z</time></trkpt><trkpt lat="43.0327228" lon="13.2520467"><ele>668.0</ele><time>2026-04-29T14:28:21.879Z</time></trkpt><trkpt lat="43.0327429" lon="13.2522044"><ele>668.0</ele><time>2026-04-29T14:28:22.91Z</time></trkpt><trkpt lat="43.0327517" lon="13.2523748"><ele>668.0</ele><time>2026-04-29T14:28:23.925Z</time></trkpt><trkpt lat="43.0327691" lon="13.2525194"><ele>668.0</ele><time>2026-04-29T14:28:24.91Z</time></trkpt><trkpt lat="43.0328064" lon="13.2526488"><ele>665.0</ele><time>2026-04-29T14:28:25.896Z</time></trkpt><trkpt lat="43.0328686" lon="13.252778"><ele>662.0</ele><time>2026-04-29T14:28:26.886Z</time></trkpt><trkpt lat="43.0329675" lon="13.2529073"><ele>659.0</ele><time>2026-04-29T14:28:27.904Z</time></trkpt><trkpt lat="43.0330631" lon="13.2530388"><ele>656.0</ele><time>2026-04-29T14:28:28.913Z</time></trkpt><trkpt lat="43.0331318" lon="13.2531845"><ele>656.5</ele><time>2026-04-29T14:28:29.909Z</time></trkpt><trkpt lat="43.0331894" lon="13.2533072"><ele>657.0</ele><time>2026-04-29T14:28:30.906Z</time></trkpt><trkpt lat="43.0332322" lon="13.253403"><ele>657.5</ele><time>2026-04-29T14:28:31.883Z</time></trkpt><trkpt lat="43.0332643" lon="13.2534813"><ele>658.0</ele><time>2026-04-29T14:28:32.909Z</time></trkpt><trkpt lat="43.0333072" lon="13.2535689"><ele>658.5</ele><time>2026-04-29T14:28:34.946Z</time></trkpt><trkpt lat="43.0333818" lon="13.2535346"><ele>659.0</ele><time>2026-04-29T14:28:37.904Z</time></trkpt><trkpt lat="43.0334688" lon="13.2534365"><ele>659.0</ele><time>2026-04-29T14:28:39.93Z</time></trkpt><trkpt lat="43.0335444" lon="13.2533748"><ele>659.0</ele><time>2026-04-29T14:28:40.907Z</time></trkpt><trkpt lat="43.0336297" lon="13.2533046"><ele>659.0</ele><time>2026-04-29T14:28:41.891Z</time></trkpt><trkpt lat="43.0337186" lon="13.2532297"><ele>659.0</ele><time>2026-04-29T14:28:42.924Z</time></trkpt><trkpt lat="43.0337986" lon="13.2531547"><ele>659.0</ele><time>2026-04-29T14:28:43.915Z</time></trkpt><trkpt lat="43.0338895" lon="13.2530827"><ele>663.0</ele><time>2026-04-29T14:28:44.93Z</time></trkpt><trkpt lat="43.033988" lon="13.2530003"><ele>667.0</ele><time>2026-04-29T14:28:45.961Z</time></trkpt><trkpt lat="43.0340975" lon="13.2529044"><ele>671.0</ele><time>2026-04-29T14:28:46.888Z</time></trkpt><trkpt lat="43.0342121" lon="13.2528037"><ele>675.0</ele><time>2026-04-29T14:28:47.916Z</time></trkpt><trkpt lat="43.0343059" lon="13.2527138"><ele>676.5</ele><time>2026-04-29T14:28:48.893Z</time></trkpt><trkpt lat="43.0343802" lon="13.2526418"><ele>678.0</ele><time>2026-04-29T14:28:49.906Z</time></trkpt><trkpt lat="43.0344532" lon="13.2525719"><ele>679.5</ele><time>2026-04-29T14:28:50.949Z</time></trkpt><trkpt lat="43.0345224" lon="13.2525133"><ele>681.0</ele><time>2026-04-29T14:28:51.888Z</time></trkpt><trkpt lat="43.0345969" lon="13.2524651"><ele>682.5</ele><time>2026-04-29T14:28:52.914Z</time></trkpt><trkpt lat="43.0346784" lon="13.2524418"><ele>684.0</ele><time>2026-04-29T14:28:53.91Z</time></trkpt><trkpt lat="43.0347567" lon="13.2524285"><ele>684.0</ele><time>2026-04-29T14:28:54.91Z</time></trkpt><trkpt lat="43.034833" lon="13.2524244"><ele>684.0</ele><time>2026-04-29T14:28:55.897Z</time></trkpt><trkpt lat="43.0349151" lon="13.252429"><ele>684.0</ele><time>2026-04-29T14:28:56.92Z</time></trkpt><trkpt lat="43.0349938" lon="13.2524828"><ele>684.0</ele><time>2026-04-29T14:28:57.904Z</time></trkpt><trkpt lat="43.0350741" lon="13.2525521"><ele>684.0</ele><time>2026-04-29T14:28:59.905Z</time></trkpt><trkpt lat="43.035126" lon="13.2526864"><ele>688.1666666666666</ele><time>2026-04-29T14:29:01.91Z</time></trkpt><trkpt lat="43.0351649" lon="13.252804"><ele>692.3333333333334</ele><time>2026-04-29T14:29:02.935Z</time></trkpt><trkpt lat="43.0352079" lon="13.2528898"><ele>696.5</ele><time>2026-04-29T14:29:04.91Z</time></trkpt><trkpt lat="43.0352603" lon="13.2528202"><ele>700.6666666666667</ele><time>2026-04-29T14:29:08.884Z</time></trkpt><trkpt lat="43.0353427" lon="13.2527221"><ele>704.8333333333334</ele><time>2026-04-29T14:29:12.902Z</time></trkpt><trkpt lat="43.0354208" lon="13.2527855"><ele>709.0</ele><time>2026-04-29T14:29:14.918Z</time></trkpt><trkpt lat="43.0355281" lon="13.2528266"><ele>709.0</ele><time>2026-04-29T14:29:16.921Z</time></trkpt><trkpt lat="43.0356123" lon="13.2528435"><ele>709.0</ele><time>2026-04-29T14:29:18.9Z</time></trkpt><trkpt lat="43.0356802" lon="13.252957"><ele>709.0</ele><time>2026-04-29T14:29:20.923Z</time></trkpt><trkpt lat="43.0357328" lon="13.2530446"><ele>709.0</ele><time>2026-04-29T14:29:21.906Z</time></trkpt><trkpt lat="43.0357694" lon="13.2531365"><ele>709.0</ele><time>2026-04-29T14:29:22.897Z</time></trkpt><trkpt lat="43.0358012" lon="13.2532344"><ele>709.0</ele><time>2026-04-29T14:29:24.911Z</time></trkpt><trkpt lat="43.0358398" lon="13.2533076"><ele>713.3333333333334</ele><time>2026-04-29T14:29:26.905Z</time></trkpt><trkpt lat="43.0359066" lon="13.253365"><ele>717.6666666666667</ele><time>2026-04-29T14:29:28.954Z</time></trkpt><trkpt lat="43.0359804" lon="13.2533395"><ele>722.0</ele><time>2026-04-29T14:29:31.92Z</time></trkpt><trkpt lat="43.0360535" lon="13.2533426"><ele>726.3333333333334</ele><time>2026-04-29T14:29:33.91Z</time></trkpt><trkpt lat="43.0361065" lon="13.2533908"><ele>730.6666666666666</ele><time>2026-04-29T14:29:35.896Z</time></trkpt><trkpt lat="43.036167" lon="13.2532964"><ele>735.0</ele><time>2026-04-29T14:29:40.875Z</time></trkpt><trkpt lat="43.0362432" lon="13.2532507"><ele>735.0</ele><time>2026-04-29T14:29:42.917Z</time></trkpt><trkpt lat="43.0363097" lon="13.2532596"><ele>735.0</ele><time>2026-04-29T14:29:44.93Z</time></trkpt><trkpt lat="43.0363701" lon="13.2532292"><ele>735.0</ele><time>2026-04-29T14:29:47.929Z</time></trkpt><trkpt lat="43.036382" lon="13.2531172"><ele>735.0</ele><time>2026-04-29T14:29:50.891Z</time></trkpt><trkpt lat="43.0363857" lon="13.2530132"><ele>735.0</ele><time>2026-04-29T14:29:53.917Z</time></trkpt><trkpt lat="43.0363952" lon="13.2528995"><ele>735.0</ele><time>2026-04-29T14:29:55.92Z</time></trkpt><trkpt lat="43.0363893" lon="13.2527758"><ele>737.0</ele><time>2026-04-29T14:29:57.892Z</time></trkpt><trkpt lat="43.0363773" lon="13.2526632"><ele>739.0</ele><time>2026-04-29T14:29:59.905Z</time></trkpt><trkpt lat="43.0363757" lon="13.252558"><ele>741.0</ele><time>2026-04-29T14:30:01.943Z</time></trkpt><trkpt lat="43.0363852" lon="13.2524498"><ele>743.0</ele><time>2026-04-29T14:30:03.901Z</time></trkpt><trkpt lat="43.0363808" lon="13.2523309"><ele>745.0</ele><time>2026-04-29T14:30:05.919Z</time></trkpt><trkpt lat="43.0363918" lon="13.2522388"><ele>747.0</ele><time>2026-04-29T14:30:06.922Z</time></trkpt><trkpt lat="43.0364063" lon="13.2521264"><ele>748.1428571428571</ele><time>2026-04-29T14:30:07.912Z</time></trkpt><trkpt lat="43.036415" lon="13.25203"><ele>749.2857142857142</ele><time>2026-04-29T14:30:08.909Z</time></trkpt><trkpt lat="43.0364164" lon="13.2519307"><ele>750.4285714285713</ele><time>2026-04-29T14:30:09.925Z</time></trkpt><trkpt lat="43.0364128" lon="13.2518247"><ele>751.5714285714286</ele><time>2026-04-29T14:30:10.901Z</time></trkpt><trkpt lat="43.0364069" lon="13.2517327"><ele>752.7142857142858</ele><time>2026-04-29T14:30:11.905Z</time></trkpt><trkpt lat="43.0364002" lon="13.2516458"><ele>753.8571428571428</ele><time>2026-04-29T14:30:12.898Z</time></trkpt><trkpt lat="43.0364108" lon="13.2515417"><ele>755.0</ele><time>2026-04-29T14:30:14.948Z</time></trkpt><trkpt lat="43.036518" lon="13.2515873"><ele>755.0</ele><time>2026-04-29T14:31:01.928Z</time></trkpt><trkpt lat="43.036561" lon="13.2516998"><ele>755.0</ele><time>2026-04-29T14:31:03.925Z</time></trkpt><trkpt lat="43.0365899" lon="13.2517796"><ele>755.0</ele><time>2026-04-29T14:31:04.903Z</time></trkpt><trkpt lat="43.0366226" lon="13.2518698"><ele>755.0</ele><time>2026-04-29T14:31:05.914Z</time></trkpt><trkpt lat="43.0366649" lon="13.2520009"><ele>755.0</ele><time>2026-04-29T14:31:06.903Z</time></trkpt><trkpt lat="43.0367095" lon="13.2521729"><ele>761.75</ele><time>2026-04-29T14:31:07.899Z</time></trkpt><trkpt lat="43.0367553" lon="13.2523495"><ele>768.5</ele><time>2026-04-29T14:31:08.904Z</time></trkpt><trkpt lat="43.0368263" lon="13.2525155"><ele>775.25</ele><time>2026-04-29T14:31:09.916Z</time></trkpt><trkpt lat="43.0369026" lon="13.2526874"><ele>782.0</ele><time>2026-04-29T14:31:10.908Z</time></trkpt><trkpt lat="43.0369796" lon="13.2528622"><ele>782.0</ele><time>2026-04-29T14:31:11.911Z</time></trkpt><trkpt lat="43.0370404" lon="13.2530197"><ele>782.0</ele><time>2026-04-29T14:31:12.928Z</time></trkpt><trkpt lat="43.0370928" lon="13.2531664"><ele>782.0</ele><time>2026-04-29T14:31:13.933Z</time></trkpt><trkpt lat="43.0371482" lon="13.2533208"><ele>782.0</ele><time>2026-04-29T14:31:14.91Z</time></trkpt><trkpt lat="43.0371984" lon="13.2534786"><ele>779.75</ele><time>2026-04-29T14:31:15.948Z</time></trkpt><trkpt lat="43.0372455" lon="13.2536508"><ele>777.5</ele><time>2026-04-29T14:31:16.938Z</time></trkpt><trkpt lat="43.037291" lon="13.2538125"><ele>775.25</ele><time>2026-04-29T14:31:17.932Z</time></trkpt><trkpt lat="43.0373325" lon="13.2539672"><ele>773.0</ele><time>2026-04-29T14:31:18.934Z</time></trkpt><trkpt lat="43.0373699" lon="13.2541099"><ele>771.5000000000001</ele><time>2026-04-29T14:31:19.932Z</time></trkpt><trkpt lat="43.0374026" lon="13.254229"><ele>770.0</ele><time>2026-04-29T14:31:20.921Z</time></trkpt><trkpt lat="43.0374336" lon="13.2543185"><ele>768.5</ele><time>2026-04-29T14:31:21.964Z</time></trkpt><trkpt lat="43.0374997" lon="13.2543818"><ele>767.0</ele><time>2026-04-29T14:31:22.929Z</time></trkpt><trkpt lat="43.0375787" lon="13.2544209"><ele>765.5</ele><time>2026-04-29T14:31:23.937Z</time></trkpt><trkpt lat="43.0376594" lon="13.2544619"><ele>764.0</ele><time>2026-04-29T14:31:24.932Z</time></trkpt><trkpt lat="43.0377917" lon="13.2544835"><ele>769.5</ele><time>2026-04-29T14:31:25.937Z</time></trkpt><trkpt lat="43.0379298" lon="13.2545173"><ele>775.0</ele><time>2026-04-29T14:31:26.941Z</time></trkpt><trkpt lat="43.038064" lon="13.2545484"><ele>780.5</ele><time>2026-04-29T14:31:27.886Z</time></trkpt><trkpt lat="43.0381977" lon="13.2545798"><ele>786.0</ele><time>2026-04-29T14:31:28.893Z</time></trkpt><trkpt lat="43.0383285" lon="13.254611"><ele>788.0</ele><time>2026-04-29T14:31:29.929Z</time></trkpt><trkpt lat="43.0384516" lon="13.2546354"><ele>790.0</ele><time>2026-04-29T14:31:30.932Z</time></trkpt><trkpt lat="43.0385693" lon="13.2546437"><ele>792.0</ele><time>2026-04-29T14:31:31.908Z</time></trkpt><trkpt lat="43.0386767" lon="13.2546305"><ele>794.0</ele><time>2026-04-29T14:31:32.931Z</time></trkpt><trkpt lat="43.0387789" lon="13.2546178"><ele>794.0</ele><time>2026-04-29T14:31:33.915Z</time></trkpt><trkpt lat="43.0388764" lon="13.2545775"><ele>794.0</ele><time>2026-04-29T14:31:34.927Z</time></trkpt><trkpt lat="43.0389807" lon="13.2545185"><ele>794.0</ele><time>2026-04-29T14:31:35.876Z</time></trkpt><trkpt lat="43.0390914" lon="13.2544452"><ele>794.0</ele><time>2026-04-29T14:31:36.903Z</time></trkpt><trkpt lat="43.0392236" lon="13.2542859"><ele>795.5</ele><time>2026-04-29T14:31:37.9Z</time></trkpt><trkpt lat="43.0393412" lon="13.2541427"><ele>797.0</ele><time>2026-04-29T14:31:38.929Z</time></trkpt><trkpt lat="43.0394617" lon="13.2540333"><ele>798.5</ele><time>2026-04-29T14:31:39.935Z</time></trkpt><trkpt lat="43.0395739" lon="13.2539298"><ele>800.0</ele><time>2026-04-29T14:31:40.925Z</time></trkpt><trkpt lat="43.0396896" lon="13.2538585"><ele>800.0</ele><time>2026-04-29T14:31:41.884Z</time></trkpt><trkpt lat="43.0398365" lon="13.2538305"><ele>800.0</ele><time>2026-04-29T14:31:42.893Z</time></trkpt><trkpt lat="43.0399846" lon="13.253808"><ele>800.0</ele><time>2026-04-29T14:31:43.919Z</time></trkpt><trkpt lat="43.0401292" lon="13.2537757"><ele>800.0</ele><time>2026-04-29T14:31:44.945Z</time></trkpt><trkpt lat="43.0402738" lon="13.2537278"><ele>797.5</ele><time>2026-04-29T14:31:45.918Z</time></trkpt><trkpt lat="43.0404149" lon="13.253666"><ele>795.0</ele><time>2026-04-29T14:31:46.917Z</time></trkpt><trkpt lat="43.040541" lon="13.2536011"><ele>792.5</ele><time>2026-04-29T14:31:47.938Z</time></trkpt><trkpt lat="43.040661" lon="13.2535267"><ele>790.0</ele><time>2026-04-29T14:31:48.952Z</time></trkpt><trkpt lat="43.0407741" lon="13.2534517"><ele>791.5</ele><time>2026-04-29T14:31:49.889Z</time></trkpt><trkpt lat="43.0408723" lon="13.2533699"><ele>793.0</ele><time>2026-04-29T14:31:50.925Z</time></trkpt><trkpt lat="43.0409596" lon="13.2532747"><ele>794.5</ele><time>2026-04-29T14:31:51.923Z</time></trkpt><trkpt lat="43.0410488" lon="13.2531768"><ele>796.0</ele><time>2026-04-29T14:31:52.921Z</time></trkpt><trkpt lat="43.0411281" lon="13.2530722"><ele>796.0</ele><time>2026-04-29T14:31:53.932Z</time></trkpt><trkpt lat="43.0412013" lon="13.2529622"><ele>796.0</ele><time>2026-04-29T14:31:54.942Z</time></trkpt><trkpt lat="43.0412648" lon="13.2528558"><ele>796.0</ele><time>2026-04-29T14:31:55.94Z</time></trkpt><trkpt lat="43.0413264" lon="13.2527605"><ele>796.0</ele><time>2026-04-29T14:31:56.933Z</time></trkpt><trkpt lat="43.041387" lon="13.2526801"><ele>796.0</ele><time>2026-04-29T14:31:57.885Z</time></trkpt><trkpt lat="43.0414571" lon="13.2526348"><ele>795.9999999999999</ele><time>2026-04-29T14:31:58.941Z</time></trkpt><trkpt lat="43.0415246" lon="13.2525897"><ele>796.0</ele><time>2026-04-29T14:31:59.928Z</time></trkpt><trkpt lat="43.0415874" lon="13.2525598"><ele>796.0</ele><time>2026-04-29T14:32:00.927Z</time></trkpt><trkpt lat="43.0416699" lon="13.2524919"><ele>796.0</ele><time>2026-04-29T14:32:01.918Z</time></trkpt><trkpt lat="43.0417555" lon="13.2524259"><ele>795.9999999999999</ele><time>2026-04-29T14:32:02.886Z</time></trkpt><trkpt lat="43.0418125" lon="13.2523481"><ele>796.0</ele><time>2026-04-29T14:32:03.89Z</time></trkpt><trkpt lat="43.041882" lon="13.2522955"><ele>796.9999999999999</ele><time>2026-04-29T14:32:04.914Z</time></trkpt><trkpt lat="43.041974" lon="13.2522734"><ele>798.0</ele><time>2026-04-29T14:32:05.907Z</time></trkpt><trkpt lat="43.0420671" lon="13.2522598"><ele>799.0</ele><time>2026-04-29T14:32:06.885Z</time></trkpt><trkpt lat="43.0421482" lon="13.2522331"><ele>800.0</ele><time>2026-04-29T14:32:07.871Z</time></trkpt><trkpt lat="43.0422213" lon="13.2521783"><ele>800.9999999999999</ele><time>2026-04-29T14:32:08.921Z</time></trkpt><trkpt lat="43.0422945" lon="13.2521263"><ele>802.0</ele><time>2026-04-29T14:32:09.881Z</time></trkpt><trkpt lat="43.042352" lon="13.2520107"><ele>802.0</ele><time>2026-04-29T14:32:10.933Z</time></trkpt><trkpt lat="43.0424043" lon="13.251874"><ele>802.0</ele><time>2026-04-29T14:32:11.945Z</time></trkpt><trkpt lat="43.0424459" lon="13.2517005"><ele>802.0</ele><time>2026-04-29T14:32:12.884Z</time></trkpt><trkpt lat="43.0425131" lon="13.2515371"><ele>802.0</ele><time>2026-04-29T14:32:13.913Z</time></trkpt><trkpt lat="43.0426108" lon="13.2514066"><ele>803.8333333333333</ele><time>2026-04-29T14:32:14.943Z</time></trkpt><trkpt lat="43.0427062" lon="13.2513065"><ele>805.6666666666666</ele><time>2026-04-29T14:32:15.991Z</time></trkpt><trkpt lat="43.042768" lon="13.2512101"><ele>807.5</ele><time>2026-04-29T14:32:16.937Z</time></trkpt><trkpt lat="43.0428165" lon="13.2511349"><ele>809.3333333333333</ele><time>2026-04-29T14:32:17.883Z</time></trkpt><trkpt lat="43.0428692" lon="13.2510821"><ele>811.1666666666666</ele><time>2026-04-29T14:32:18.939Z</time></trkpt><trkpt lat="43.0429329" lon="13.2510461"><ele>813.0</ele><time>2026-04-29T14:32:19.924Z</time></trkpt><trkpt lat="43.0430218" lon="13.2510416"><ele>813.0</ele><time>2026-04-29T14:32:20.937Z</time></trkpt><trkpt lat="43.0431231" lon="13.2510706"><ele>813.0</ele><time>2026-04-29T14:32:21.93Z</time></trkpt><trkpt lat="43.0432315" lon="13.2511007"><ele>813.0</ele><time>2026-04-29T14:32:22.888Z</time></trkpt><trkpt lat="43.043344" lon="13.2511343"><ele>813.0</ele><time>2026-04-29T14:32:23.92Z</time></trkpt><trkpt lat="43.0434707" lon="13.251133"><ele>811.0</ele><time>2026-04-29T14:32:24.929Z</time></trkpt><trkpt lat="43.0436387" lon="13.2510998"><ele>809.0</ele><time>2026-04-29T14:32:25.936Z</time></trkpt><trkpt lat="43.0437926" lon="13.2510618"><ele>807.0</ele><time>2026-04-29T14:32:26.935Z</time></trkpt><trkpt lat="43.0439408" lon="13.2510627"><ele>807.0</ele><time>2026-04-29T14:32:27.897Z</time></trkpt><trkpt lat="43.0440747" lon="13.2510482"><ele>807.0</ele><time>2026-04-29T14:32:28.949Z</time></trkpt><trkpt lat="43.0442001" lon="13.2510331"><ele>807.0</ele><time>2026-04-29T14:32:29.929Z</time></trkpt><trkpt lat="43.0443014" lon="13.2509732"><ele>807.0</ele><time>2026-04-29T14:32:30.878Z</time></trkpt><trkpt lat="43.0443781" lon="13.2509071"><ele>808.2</ele><time>2026-04-29T14:32:31.918Z</time></trkpt><trkpt lat="43.0444479" lon="13.250838"><ele>809.4000000000001</ele><time>2026-04-29T14:32:32.891Z</time></trkpt><trkpt lat="43.0444987" lon="13.2507632"><ele>810.5999999999999</ele><time>2026-04-29T14:32:33.929Z</time></trkpt><trkpt lat="43.0445498" lon="13.2506589"><ele>811.8</ele><time>2026-04-29T14:32:34.968Z</time></trkpt><trkpt lat="43.044602" lon="13.2505361"><ele>813.0</ele><time>2026-04-29T14:32:35.93Z</time></trkpt><trkpt lat="43.0446445" lon="13.2503829"><ele>813.0</ele><time>2026-04-29T14:32:36.947Z</time></trkpt><trkpt lat="43.0446479" lon="13.2501963"><ele>813.0</ele><time>2026-04-29T14:32:37.9Z</time></trkpt><trkpt lat="43.0446578" lon="13.2500278"><ele>813.0</ele><time>2026-04-29T14:32:38.907Z</time></trkpt><trkpt lat="43.0446928" lon="13.2498845"><ele>813.0</ele><time>2026-04-29T14:32:39.918Z</time></trkpt><trkpt lat="43.0447475" lon="13.2497584"><ele>816.75</ele><time>2026-04-29T14:32:40.92Z</time></trkpt><trkpt lat="43.0448271" lon="13.2496552"><ele>820.5</ele><time>2026-04-29T14:32:41.874Z</time></trkpt><trkpt lat="43.0449282" lon="13.2495753"><ele>824.25</ele><time>2026-04-29T14:32:42.886Z</time></trkpt><trkpt lat="43.0450261" lon="13.2494936"><ele>828.0</ele><time>2026-04-29T14:32:43.921Z</time></trkpt><trkpt lat="43.0451327" lon="13.2494276"><ele>818.5</ele><time>2026-04-29T14:32:44.914Z</time></trkpt><trkpt lat="43.0452236" lon="13.2493315"><ele>809.0</ele><time>2026-04-29T14:32:45.878Z</time></trkpt><trkpt lat="43.0453094" lon="13.2492327"><ele>799.5</ele><time>2026-04-29T14:32:46.931Z</time></trkpt><trkpt lat="43.0453853" lon="13.2491094"><ele>790.0</ele><time>2026-04-29T14:32:47.922Z</time></trkpt><trkpt lat="43.0454756" lon="13.248962"><ele>793.4</ele><time>2026-04-29T14:32:48.893Z</time></trkpt><trkpt lat="43.0455429" lon="13.2488107"><ele>796.8</ele><time>2026-04-29T14:32:49.927Z</time></trkpt><trkpt lat="43.0456102" lon="13.2486878"><ele>800.2</ele><time>2026-04-29T14:32:50.94Z</time></trkpt><trkpt lat="43.045672" lon="13.2485761"><ele>803.6</ele><time>2026-04-29T14:32:51.92Z</time></trkpt><trkpt lat="43.0457291" lon="13.2484666"><ele>807.0</ele><time>2026-04-29T14:32:52.919Z</time></trkpt><trkpt lat="43.0457802" lon="13.2483702"><ele>803.6666666666666</ele><time>2026-04-29T14:32:53.912Z</time></trkpt><trkpt lat="43.0458247" lon="13.2482782"><ele>800.3333333333333</ele><time>2026-04-29T14:32:54.91Z</time></trkpt><trkpt lat="43.0458709" lon="13.2481931"><ele>797.0</ele><time>2026-04-29T14:32:55.914Z</time></trkpt><trkpt lat="43.0459198" lon="13.2481035"><ele>793.6666666666666</ele><time>2026-04-29T14:32:56.98Z</time></trkpt><trkpt lat="43.045978" lon="13.2480029"><ele>790.3333333333333</ele><time>2026-04-29T14:32:57.92Z</time></trkpt><trkpt lat="43.04604" lon="13.2478918"><ele>787.0</ele><time>2026-04-29T14:32:58.91Z</time></trkpt><trkpt lat="43.0460961" lon="13.2477977"><ele>786.9999999999999</ele><time>2026-04-29T14:32:59.911Z</time></trkpt><trkpt lat="43.0461497" lon="13.247705"><ele>787.0</ele><time>2026-04-29T14:33:00.919Z</time></trkpt><trkpt lat="43.0461963" lon="13.2476138"><ele>787.0</ele><time>2026-04-29T14:33:01.929Z</time></trkpt><trkpt lat="43.0462363" lon="13.2475159"><ele>787.0</ele><time>2026-04-29T14:33:02.884Z</time></trkpt><trkpt lat="43.0462771" lon="13.2474241"><ele>786.9999999999999</ele><time>2026-04-29T14:33:03.911Z</time></trkpt><trkpt lat="43.0463081" lon="13.2473482"><ele>787.0</ele><time>2026-04-29T14:33:04.906Z</time></trkpt><trkpt lat="43.046342" lon="13.2472754"><ele>787.4999999999999</ele><time>2026-04-29T14:33:05.922Z</time></trkpt><trkpt lat="43.0463919" lon="13.2472132"><ele>788.0</ele><time>2026-04-29T14:33:06.91Z</time></trkpt><trkpt lat="43.046466" lon="13.2471702"><ele>788.5</ele><time>2026-04-29T14:33:07.898Z</time></trkpt><trkpt lat="43.0465492" lon="13.2471367"><ele>789.0</ele><time>2026-04-29T14:33:08.909Z</time></trkpt><trkpt lat="43.0466181" lon="13.2471092"><ele>789.4999999999999</ele><time>2026-04-29T14:33:09.906Z</time></trkpt><trkpt lat="43.046706" lon="13.247053"><ele>790.0</ele><time>2026-04-29T14:33:11.912Z</time></trkpt><trkpt lat="43.0466452" lon="13.2470093"><ele>791.8333333333333</ele><time>2026-04-29T14:33:17.877Z</time></trkpt><trkpt lat="43.0465736" lon="13.2469112"><ele>793.6666666666666</ele><time>2026-04-29T14:33:19.927Z</time></trkpt><trkpt lat="43.0465463" lon="13.2468297"><ele>795.5</ele><time>2026-04-29T14:33:20.919Z</time></trkpt><trkpt lat="43.0465119" lon="13.2467472"><ele>797.3333333333333</ele><time>2026-04-29T14:33:21.916Z</time></trkpt><trkpt lat="43.0465084" lon="13.2465911"><ele>799.1666666666666</ele><time>2026-04-29T14:33:23.895Z</time></trkpt><trkpt lat="43.0465514" lon="13.2464697"><ele>801.0</ele><time>2026-04-29T14:33:24.919Z</time></trkpt><trkpt lat="43.0465984" lon="13.2463544"><ele>803.0</ele><time>2026-04-29T14:33:25.904Z</time></trkpt><trkpt lat="43.0466832" lon="13.2462401"><ele>805.0</ele><time>2026-04-29T14:33:26.898Z</time></trkpt><trkpt lat="43.046778" lon="13.2461154"><ele>807.0</ele><time>2026-04-29T14:33:27.916Z</time></trkpt><trkpt lat="43.0468652" lon="13.2459927"><ele>809.0</ele><time>2026-04-29T14:33:28.883Z</time></trkpt><trkpt lat="43.0469418" lon="13.2459215"><ele>809.0000000000001</ele><time>2026-04-29T14:33:29.88Z</time></trkpt><trkpt lat="43.0470369" lon="13.2459134"><ele>809.0</ele><time>2026-04-29T14:33:30.873Z</time></trkpt><trkpt lat="43.0471185" lon="13.2458722"><ele>809.0</ele><time>2026-04-29T14:33:31.891Z</time></trkpt><trkpt lat="43.0471773" lon="13.2457931"><ele>809.0</ele><time>2026-04-29T14:33:32.913Z</time></trkpt><trkpt lat="43.0472276" lon="13.2457199"><ele>809.0000000000001</ele><time>2026-04-29T14:33:33.897Z</time></trkpt><trkpt lat="43.0472919" lon="13.2456805"><ele>809.0</ele><time>2026-04-29T14:33:34.917Z</time></trkpt><trkpt lat="43.0473911" lon="13.2456764"><ele>811.0</ele><time>2026-04-29T14:33:35.94Z</time></trkpt><trkpt lat="43.0474931" lon="13.2457108"><ele>813.0</ele><time>2026-04-29T14:33:36.866Z</time></trkpt><trkpt lat="43.0476255" lon="13.2457781"><ele>815.0</ele><time>2026-04-29T14:33:37.913Z</time></trkpt><trkpt lat="43.0477442" lon="13.2458771"><ele>817.0</ele><time>2026-04-29T14:33:38.876Z</time></trkpt><trkpt lat="43.0478436" lon="13.245989"><ele>817.0</ele><time>2026-04-29T14:33:39.913Z</time></trkpt><trkpt lat="43.0479133" lon="13.2461172"><ele>817.0</ele><time>2026-04-29T14:33:40.917Z</time></trkpt><trkpt lat="43.0479671" lon="13.2462346"><ele>817.0</ele><time>2026-04-29T14:33:41.892Z</time></trkpt><trkpt lat="43.0480147" lon="13.2463254"><ele>817.0</ele><time>2026-04-29T14:33:42.918Z</time></trkpt><trkpt lat="43.0480595" lon="13.2464168"><ele>817.0</ele><time>2026-04-29T14:33:43.884Z</time></trkpt><trkpt lat="43.048109" lon="13.2464849"><ele>815.9999999999999</ele><time>2026-04-29T14:33:44.891Z</time></trkpt><trkpt lat="43.0481792" lon="13.2465271"><ele>815.0</ele><time>2026-04-29T14:33:45.935Z</time></trkpt><trkpt lat="43.0482642" lon="13.2465663"><ele>814.0</ele><time>2026-04-29T14:33:46.96Z</time></trkpt><trkpt lat="43.0483409" lon="13.2466007"><ele>813.0</ele><time>2026-04-29T14:33:47.923Z</time></trkpt><trkpt lat="43.0484012" lon="13.2466278"><ele>811.9999999999999</ele><time>2026-04-29T14:33:48.875Z</time></trkpt><trkpt lat="43.0484686" lon="13.2466691"><ele>811.0</ele><time>2026-04-29T14:33:50.937Z</time></trkpt><trkpt lat="43.0485427" lon="13.2467451"><ele>811.0</ele><time>2026-04-29T14:33:52.925Z</time></trkpt><trkpt lat="43.0485875" lon="13.2468441"><ele>811.0</ele><time>2026-04-29T14:33:54.927Z</time></trkpt><trkpt lat="43.0485999" lon="13.2469603"><ele>811.0</ele><time>2026-04-29T14:33:57.922Z</time></trkpt><trkpt lat="43.048643" lon="13.2470583"><ele>811.0</ele><time>2026-04-29T14:34:00.898Z</time></trkpt><trkpt lat="43.0487115" lon="13.2471136"><ele>811.0</ele><time>2026-04-29T14:34:02.882Z</time></trkpt><trkpt lat="43.0488333" lon="13.2471843"><ele>811.0</ele><time>2026-04-29T14:34:04.918Z</time></trkpt><trkpt lat="43.0489354" lon="13.247218"><ele>811.0</ele><time>2026-04-29T14:34:06.941Z</time></trkpt><trkpt lat="43.049028" lon="13.2472104"><ele>811.0</ele><time>2026-04-29T14:34:08.902Z</time></trkpt><trkpt lat="43.0491648" lon="13.2472049"><ele>811.0</ele><time>2026-04-29T14:34:10.92Z</time></trkpt><trkpt lat="43.0492549" lon="13.247274"><ele>811.0</ele><time>2026-04-29T14:34:12.958Z</time></trkpt><trkpt lat="43.0492606" lon="13.247409"><ele>805.5</ele><time>2026-04-29T14:34:14.933Z</time></trkpt><trkpt lat="43.049296" lon="13.2475078"><ele>800.0</ele><time>2026-04-29T14:34:16.897Z</time></trkpt><trkpt lat="43.0493839" lon="13.2475618"><ele>794.5</ele><time>2026-04-29T14:34:18.902Z</time></trkpt><trkpt lat="43.0495911" lon="13.2474743"><ele>789.0</ele><time>2026-04-29T14:34:22.885Z</time></trkpt><trkpt lat="43.0496412" lon="13.2474142"><ele>789.0</ele><time>2026-04-29T14:34:23.892Z</time></trkpt><trkpt lat="43.0496941" lon="13.2473413"><ele>789.0</ele><time>2026-04-29T14:34:24.939Z</time></trkpt><trkpt lat="43.0497589" lon="13.2472695"><ele>789.0</ele><time>2026-04-29T14:34:25.945Z</time></trkpt><trkpt lat="43.0498584" lon="13.2471877"><ele>789.0</ele><time>2026-04-29T14:34:26.914Z</time></trkpt><trkpt lat="43.0499731" lon="13.247148"><ele>789.0</ele><time>2026-04-29T14:34:27.905Z</time></trkpt><trkpt lat="43.0500902" lon="13.2471055"><ele>794.6666666666667</ele><time>2026-04-29T14:34:28.934Z</time></trkpt><trkpt lat="43.0502188" lon="13.2470486"><ele>800.3333333333334</ele><time>2026-04-29T14:34:29.91Z</time></trkpt><trkpt lat="43.0503704" lon="13.2469962"><ele>806.0</ele><time>2026-04-29T14:34:30.911Z</time></trkpt><trkpt lat="43.0505264" lon="13.2469364"><ele>806.0</ele><time>2026-04-29T14:34:31.908Z</time></trkpt><trkpt lat="43.0506843" lon="13.2468549"><ele>806.0</ele><time>2026-04-29T14:34:32.927Z</time></trkpt><trkpt lat="43.0508608" lon="13.2467711"><ele>806.0</ele><time>2026-04-29T14:34:33.913Z</time></trkpt><trkpt lat="43.0509826" lon="13.246681"><ele>808.0</ele><time>2026-04-29T14:34:34.921Z</time></trkpt><trkpt lat="43.0511069" lon="13.2465825"><ele>810.0</ele><time>2026-04-29T14:34:35.912Z</time></trkpt><trkpt lat="43.0511975" lon="13.2464864"><ele>812.0</ele><time>2026-04-29T14:34:36.924Z</time></trkpt><trkpt lat="43.0512782" lon="13.2463818"><ele>814.0</ele><time>2026-04-29T14:34:37.924Z</time></trkpt><trkpt lat="43.0515605" lon="13.2462438"><ele>810.0</ele><time>2026-04-29T14:34:38.943Z</time></trkpt><trkpt lat="43.0516996" lon="13.2460799"><ele>806.0</ele><time>2026-04-29T14:34:39.937Z</time></trkpt><trkpt lat="43.0518051" lon="13.2459111"><ele>802.0</ele><time>2026-04-29T14:34:40.95Z</time></trkpt><trkpt lat="43.0519138" lon="13.2457101"><ele>808.0</ele><time>2026-04-29T14:34:41.971Z</time></trkpt><trkpt lat="43.052028" lon="13.2454594"><ele>814.0</ele><time>2026-04-29T14:34:42.929Z</time></trkpt><trkpt lat="43.0521164" lon="13.2451574"><ele>814.0</ele><time>2026-04-29T14:34:43.913Z</time></trkpt><trkpt lat="43.052192" lon="13.2448715"><ele>814.0</ele><time>2026-04-29T14:34:44.916Z</time></trkpt><trkpt lat="43.0522934" lon="13.244566"><ele>815.6666666666666</ele><time>2026-04-29T14:34:45.936Z</time></trkpt><trkpt lat="43.052364" lon="13.2443291"><ele>817.3333333333333</ele><time>2026-04-29T14:34:46.912Z</time></trkpt><trkpt lat="43.0524255" lon="13.2441204"><ele>819.0</ele><time>2026-04-29T14:34:47.917Z</time></trkpt><trkpt lat="43.05247" lon="13.2439618"><ele>816.1666666666666</ele><time>2026-04-29T14:34:48.918Z</time></trkpt><trkpt lat="43.0525151" lon="13.2438618"><ele>813.3333333333333</ele><time>2026-04-29T14:34:49.913Z</time></trkpt><trkpt lat="43.05257" lon="13.2437777"><ele>810.5</ele><time>2026-04-29T14:34:51.922Z</time></trkpt><trkpt lat="43.0526467" lon="13.2437623"><ele>807.6666666666666</ele><time>2026-04-29T14:34:53.997Z</time></trkpt><trkpt lat="43.0527555" lon="13.2437445"><ele>804.8333333333333</ele><time>2026-04-29T14:34:55.94Z</time></trkpt><trkpt lat="43.0528391" lon="13.243726"><ele>802.0</ele><time>2026-04-29T14:34:56.924Z</time></trkpt><trkpt lat="43.0529394" lon="13.2437184"><ele>802.0</ele><time>2026-04-29T14:34:57.921Z</time></trkpt><trkpt lat="43.0530301" lon="13.2437068"><ele>802.0</ele><time>2026-04-29T14:34:58.928Z</time></trkpt><trkpt lat="43.0531106" lon="13.2437099"><ele>802.0</ele><time>2026-04-29T14:34:59.902Z</time></trkpt><trkpt lat="43.0532083" lon="13.2437408"><ele>802.0</ele><time>2026-04-29T14:35:00.933Z</time></trkpt><trkpt lat="43.0533065" lon="13.2437769"><ele>802.0</ele><time>2026-04-29T14:35:01.968Z</time></trkpt><trkpt lat="43.0533924" lon="13.2438245"><ele>802.1666666666666</ele><time>2026-04-29T14:35:02.949Z</time></trkpt><trkpt lat="43.0534733" lon="13.2438685"><ele>802.3333333333333</ele><time>2026-04-29T14:35:03.944Z</time></trkpt><trkpt lat="43.0535483" lon="13.2439198"><ele>802.5</ele><time>2026-04-29T14:35:04.899Z</time></trkpt><trkpt lat="43.0536248" lon="13.243982"><ele>802.6666666666667</ele><time>2026-04-29T14:35:05.938Z</time></trkpt><trkpt lat="43.0537023" lon="13.2440452"><ele>802.8333333333334</ele><time>2026-04-29T14:35:06.931Z</time></trkpt><trkpt lat="43.0537573" lon="13.2441175"><ele>803.0</ele><time>2026-04-29T14:35:07.921Z</time></trkpt><trkpt lat="43.0538383" lon="13.2442688"><ele>803.5</ele><time>2026-04-29T14:35:09.897Z</time></trkpt><trkpt lat="43.053913" lon="13.2443965"><ele>804.0</ele><time>2026-04-29T14:35:10.986Z</time></trkpt><trkpt lat="43.0540142" lon="13.244538"><ele>804.5</ele><time>2026-04-29T14:35:11.923Z</time></trkpt><trkpt lat="43.0541002" lon="13.2446756"><ele>805.0</ele><time>2026-04-29T14:35:12.961Z</time></trkpt><trkpt lat="43.0541659" lon="13.2448172"><ele>805.1666666666666</ele><time>2026-04-29T14:35:13.91Z</time></trkpt><trkpt lat="43.05422" lon="13.2449317"><ele>805.3333333333333</ele><time>2026-04-29T14:35:14.879Z</time></trkpt><trkpt lat="43.0542743" lon="13.2450249"><ele>805.5</ele><time>2026-04-29T14:35:15.897Z</time></trkpt><trkpt lat="43.0543168" lon="13.2451011"><ele>805.6666666666667</ele><time>2026-04-29T14:35:16.989Z</time></trkpt><trkpt lat="43.0543783" lon="13.245172"><ele>805.8333333333334</ele><time>2026-04-29T14:35:17.947Z</time></trkpt><trkpt lat="43.054432" lon="13.2452479"><ele>806.0</ele><time>2026-04-29T14:35:18.933Z</time></trkpt><trkpt lat="43.0544772" lon="13.2453486"><ele>806.0</ele><time>2026-04-29T14:35:19.929Z</time></trkpt><trkpt lat="43.0545124" lon="13.2454536"><ele>806.0</ele><time>2026-04-29T14:35:20.903Z</time></trkpt><trkpt lat="43.054534" lon="13.2455574"><ele>806.0</ele><time>2026-04-29T14:35:21.92Z</time></trkpt><trkpt lat="43.0545698" lon="13.2456706"><ele>806.0</ele><time>2026-04-29T14:35:22.919Z</time></trkpt><trkpt lat="43.0546148" lon="13.2458083"><ele>806.0</ele><time>2026-04-29T14:35:23.927Z</time></trkpt><trkpt lat="43.0546454" lon="13.2459448"><ele>806.1666666666667</ele><time>2026-04-29T14:35:24.89Z</time></trkpt><trkpt lat="43.0546657" lon="13.2460563"><ele>806.3333333333334</ele><time>2026-04-29T14:35:25.918Z</time></trkpt><trkpt lat="43.0546965" lon="13.2461484"><ele>806.5</ele><time>2026-04-29T14:35:26.911Z</time></trkpt><trkpt lat="43.0547303" lon="13.2462438"><ele>806.6666666666667</ele><time>2026-04-29T14:35:27.907Z</time></trkpt><trkpt lat="43.0547574" lon="13.2463494"><ele>806.8333333333334</ele><time>2026-04-29T14:35:28.918Z</time></trkpt><trkpt lat="43.0547868" lon="13.2464372"><ele>807.0</ele><time>2026-04-29T14:35:29.915Z</time></trkpt><trkpt lat="43.0548167" lon="13.2465214"><ele>807.0000000000001</ele><time>2026-04-29T14:35:30.924Z</time></trkpt><trkpt lat="43.0548453" lon="13.2466099"><ele>807.0</ele><time>2026-04-29T14:35:31.911Z</time></trkpt><trkpt lat="43.054897" lon="13.2466607"><ele>807.0</ele><time>2026-04-29T14:35:32.913Z</time></trkpt><trkpt lat="43.05495" lon="13.2467093"><ele>807.0</ele><time>2026-04-29T14:35:33.911Z</time></trkpt><trkpt lat="43.0550027" lon="13.246761"><ele>807.0</ele><time>2026-04-29T14:35:34.887Z</time></trkpt><trkpt lat="43.0550612" lon="13.2468561"><ele>807.0000000000001</ele><time>2026-04-29T14:35:36.908Z</time></trkpt><trkpt lat="43.0551553" lon="13.2468697"><ele>807.0</ele><time>2026-04-29T14:35:38.899Z</time></trkpt><trkpt lat="43.0552732" lon="13.2469598"><ele>811.1666666666666</ele><time>2026-04-29T14:35:43.929Z</time></trkpt><trkpt lat="43.0552301" lon="13.2471179"><ele>815.3333333333333</ele><time>2026-04-29T14:35:45.914Z</time></trkpt><trkpt lat="43.0552132" lon="13.2472244"><ele>819.5</ele><time>2026-04-29T14:35:46.906Z</time></trkpt><trkpt lat="43.0552216" lon="13.2473224"><ele>823.6666666666666</ele><time>2026-04-29T14:35:47.932Z</time></trkpt><trkpt lat="43.0552264" lon="13.2474569"><ele>827.8333333333333</ele><time>2026-04-29T14:35:49.89Z</time></trkpt><trkpt lat="43.0551856" lon="13.2475318"><ele>832.0</ele><time>2026-04-29T14:35:50.921Z</time></trkpt><trkpt lat="43.0551479" lon="13.2477193"><ele>832.2</ele><time>2026-04-29T14:35:51.904Z</time></trkpt><trkpt lat="43.0551058" lon="13.2479006"><ele>832.4000000000001</ele><time>2026-04-29T14:35:52.912Z</time></trkpt><trkpt lat="43.0550871" lon="13.2480218"><ele>832.5999999999999</ele><time>2026-04-29T14:35:53.906Z</time></trkpt><trkpt lat="43.0550551" lon="13.2481313"><ele>832.8</ele><time>2026-04-29T14:35:54.887Z</time></trkpt><trkpt lat="43.0550368" lon="13.2482456"><ele>833.0</ele><time>2026-04-29T14:35:55.951Z</time></trkpt><trkpt lat="43.0550347" lon="13.2483593"><ele>833.0</ele><time>2026-04-29T14:35:56.927Z</time></trkpt><trkpt lat="43.0550216" lon="13.248511"><ele>833.0</ele><time>2026-04-29T14:35:57.929Z</time></trkpt><trkpt lat="43.0550014" lon="13.2486583"><ele>833.0</ele><time>2026-04-29T14:35:58.907Z</time></trkpt><trkpt lat="43.0549806" lon="13.2487717"><ele>833.0</ele><time>2026-04-29T14:35:59.88Z</time></trkpt><trkpt lat="43.0549646" lon="13.2488807"><ele>833.0</ele><time>2026-04-29T14:36:00.91Z</time></trkpt><trkpt lat="43.0549553" lon="13.2489951"><ele>825.8</ele><time>2026-04-29T14:36:01.908Z</time></trkpt><trkpt lat="43.0549433" lon="13.2491328"><ele>818.5999999999999</ele><time>2026-04-29T14:36:02.913Z</time></trkpt><trkpt lat="43.0549244" lon="13.2492842"><ele>811.4000000000001</ele><time>2026-04-29T14:36:03.916Z</time></trkpt><trkpt lat="43.0548999" lon="13.2494401"><ele>804.2</ele><time>2026-04-29T14:36:04.877Z</time></trkpt><trkpt lat="43.0548749" lon="13.2495635"><ele>797.0</ele><time>2026-04-29T14:36:05.908Z</time></trkpt><trkpt lat="43.0548595" lon="13.2496778"><ele>797.0000000000001</ele><time>2026-04-29T14:36:06.908Z</time></trkpt><trkpt lat="43.0548465" lon="13.249782"><ele>797.0</ele><time>2026-04-29T14:36:07.906Z</time></trkpt><trkpt lat="43.0548315" lon="13.2498755"><ele>797.0</ele><time>2026-04-29T14:36:08.909Z</time></trkpt><trkpt lat="43.0548166" lon="13.2500448"><ele>797.0</ele><time>2026-04-29T14:36:10.904Z</time></trkpt><trkpt lat="43.0548296" lon="13.2501296"><ele>797.0000000000001</ele><time>2026-04-29T14:36:11.909Z</time></trkpt><trkpt lat="43.0548452" lon="13.2502174"><ele>797.0</ele><time>2026-04-29T14:36:12.925Z</time></trkpt><trkpt lat="43.0548602" lon="13.2503172"><ele>795.6666666666667</ele><time>2026-04-29T14:36:13.921Z</time></trkpt><trkpt lat="43.0548652" lon="13.2504201"><ele>794.3333333333334</ele><time>2026-04-29T14:36:14.884Z</time></trkpt><trkpt lat="43.0548793" lon="13.2505065"><ele>793.0</ele><time>2026-04-29T14:36:15.933Z</time></trkpt><trkpt lat="43.0549093" lon="13.2506818"><ele>791.6666666666667</ele><time>2026-04-29T14:36:17.905Z</time></trkpt><trkpt lat="43.0549258" lon="13.2507745"><ele>790.3333333333334</ele><time>2026-04-29T14:36:18.923Z</time></trkpt><trkpt lat="43.0549259" lon="13.2508701"><ele>789.0</ele><time>2026-04-29T14:36:19.895Z</time></trkpt><trkpt lat="43.0549225" lon="13.2509603"><ele>790.2</ele><time>2026-04-29T14:36:20.92Z</time></trkpt><trkpt lat="43.0549202" lon="13.2511217"><ele>791.4000000000001</ele><time>2026-04-29T14:36:22.915Z</time></trkpt><trkpt lat="43.054928" lon="13.2512919"><ele>792.6</ele><time>2026-04-29T14:36:24.909Z</time></trkpt><trkpt lat="43.0549599" lon="13.2514059"><ele>793.8</ele><time>2026-04-29T14:36:25.88Z</time></trkpt><trkpt lat="43.0549845" lon="13.2515078"><ele>795.0</ele><time>2026-04-29T14:36:26.928Z</time></trkpt><trkpt lat="43.0550169" lon="13.2515998"><ele>795.0</ele><time>2026-04-29T14:36:27.917Z</time></trkpt><trkpt lat="43.0550526" lon="13.2516817"><ele>795.0</ele><time>2026-04-29T14:36:28.931Z</time></trkpt><trkpt lat="43.0551103" lon="13.2518563"><ele>795.0</ele><time>2026-04-29T14:36:30.943Z</time></trkpt><trkpt lat="43.0551335" lon="13.2519623"><ele>795.0</ele><time>2026-04-29T14:36:31.938Z</time></trkpt><trkpt lat="43.0551597" lon="13.252076"><ele>795.0</ele><time>2026-04-29T14:36:32.926Z</time></trkpt><trkpt lat="43.0551904" lon="13.25217"><ele>795.0</ele><time>2026-04-29T14:36:33.907Z</time></trkpt><trkpt lat="43.0552221" lon="13.2522528"><ele>795.0</ele><time>2026-04-29T14:36:34.908Z</time></trkpt><trkpt lat="43.0552589" lon="13.2523395"><ele>795.0</ele><time>2026-04-29T14:36:35.925Z</time></trkpt><trkpt lat="43.0553138" lon="13.2524292"><ele>795.0</ele><time>2026-04-29T14:36:36.92Z</time></trkpt><trkpt lat="43.0553654" lon="13.2525238"><ele>795.0</ele><time>2026-04-29T14:36:37.941Z</time></trkpt><trkpt lat="43.0554092" lon="13.2526111"><ele>795.0</ele><time>2026-04-29T14:36:38.936Z</time></trkpt><trkpt lat="43.055435" lon="13.2527032"><ele>790.4</ele><time>2026-04-29T14:36:39.911Z</time></trkpt><trkpt lat="43.0554884" lon="13.2528786"><ele>785.8</ele><time>2026-04-29T14:36:41.958Z</time></trkpt><trkpt lat="43.055536" lon="13.2529685"><ele>781.2</ele><time>2026-04-29T14:36:42.921Z</time></trkpt><trkpt lat="43.0555945" lon="13.2530988"><ele>776.6</ele><time>2026-04-29T14:36:44.9Z</time></trkpt><trkpt lat="43.0556437" lon="13.2531882"><ele>772.0</ele><time>2026-04-29T14:36:45.875Z</time></trkpt><trkpt lat="43.0556776" lon="13.2533043"><ele>772.6666666666666</ele><time>2026-04-29T14:36:46.906Z</time></trkpt><trkpt lat="43.0556966" lon="13.253398"><ele>773.3333333333333</ele><time>2026-04-29T14:36:47.896Z</time></trkpt><trkpt lat="43.0557536" lon="13.25356"><ele>774.0</ele><time>2026-04-29T14:36:49.909Z</time></trkpt><trkpt lat="43.0557854" lon="13.2536444"><ele>774.6666666666667</ele><time>2026-04-29T14:36:50.921Z</time></trkpt><trkpt lat="43.0558146" lon="13.2537315"><ele>775.3333333333334</ele><time>2026-04-29T14:36:51.892Z</time></trkpt><trkpt lat="43.0558366" lon="13.2538173"><ele>776.0</ele><time>2026-04-29T14:36:52.887Z</time></trkpt><trkpt lat="43.0558593" lon="13.2539022"><ele>770.1999999999999</ele><time>2026-04-29T14:36:53.88Z</time></trkpt><trkpt lat="43.0559091" lon="13.2540518"><ele>764.4</ele><time>2026-04-29T14:36:55.898Z</time></trkpt><trkpt lat="43.0559525" lon="13.2541919"><ele>758.6</ele><time>2026-04-29T14:36:57.914Z</time></trkpt><trkpt lat="43.0559805" lon="13.2543235"><ele>752.8</ele><time>2026-04-29T14:36:59.882Z</time></trkpt><trkpt lat="43.0560136" lon="13.2544216"><ele>747.0</ele><time>2026-04-29T14:37:01.924Z</time></trkpt><trkpt lat="43.0560605" lon="13.2545263"><ele>747.0</ele><time>2026-04-29T14:37:04.953Z</time></trkpt><trkpt lat="43.0560374" lon="13.2546159"><ele>747.0</ele><time>2026-04-29T14:37:07.956Z</time></trkpt><trkpt lat="43.0560724" lon="13.2547304"><ele>747.0</ele><time>2026-04-29T14:37:10.941Z</time></trkpt><trkpt lat="43.0561488" lon="13.2547279"><ele>747.0</ele><time>2026-04-29T14:37:12.942Z</time></trkpt><trkpt lat="43.0562603" lon="13.2547439"><ele>747.0</ele><time>2026-04-29T14:37:14.917Z</time></trkpt><trkpt lat="43.0563466" lon="13.2547631"><ele>747.0</ele><time>2026-04-29T14:37:16.92Z</time></trkpt><trkpt lat="43.056414" lon="13.2547966"><ele>741.0</ele><time>2026-04-29T14:37:18.922Z</time></trkpt><trkpt lat="43.0564677" lon="13.2548861"><ele>735.0</ele><time>2026-04-29T14:37:20.901Z</time></trkpt><trkpt lat="43.0565351" lon="13.2550578"><ele>729.0</ele><time>2026-04-29T14:37:22.909Z</time></trkpt><trkpt lat="43.0565396" lon="13.2551448"><ele>723.0</ele><time>2026-04-29T14:37:23.93Z</time></trkpt><trkpt lat="43.0565468" lon="13.2552316"><ele>717.0</ele><time>2026-04-29T14:37:24.942Z</time></trkpt><trkpt lat="43.0565717" lon="13.2553264"><ele>711.0</ele><time>2026-04-29T14:37:25.933Z</time></trkpt><trkpt lat="43.056604" lon="13.2554206"><ele>709.5999999999999</ele><time>2026-04-29T14:37:26.896Z</time></trkpt><trkpt lat="43.0566542" lon="13.255511"><ele>708.2</ele><time>2026-04-29T14:37:27.917Z</time></trkpt><trkpt lat="43.0567071" lon="13.2556521"><ele>706.8</ele><time>2026-04-29T14:37:28.894Z</time></trkpt><trkpt lat="43.0567516" lon="13.2557792"><ele>705.4000000000001</ele><time>2026-04-29T14:37:29.923Z</time></trkpt><trkpt lat="43.0567948" lon="13.2558934"><ele>704.0</ele><time>2026-04-29T14:37:30.907Z</time></trkpt><trkpt lat="43.056828" lon="13.2560048"><ele>704.0</ele><time>2026-04-29T14:37:31.923Z</time></trkpt><trkpt lat="43.0568793" lon="13.2560993"><ele>704.0</ele><time>2026-04-29T14:37:32.924Z</time></trkpt><trkpt lat="43.0569329" lon="13.2561797"><ele>704.0</ele><time>2026-04-29T14:37:33.941Z</time></trkpt><trkpt lat="43.0570118" lon="13.2562729"><ele>704.0</ele><time>2026-04-29T14:37:35.923Z</time></trkpt><trkpt lat="43.05709" lon="13.2563884"><ele>704.0</ele><time>2026-04-29T14:37:37.908Z</time></trkpt><trkpt lat="43.0571459" lon="13.2565184"><ele>698.4000000000001</ele><time>2026-04-29T14:37:39.911Z</time></trkpt><trkpt lat="43.0571925" lon="13.256656"><ele>692.8</ele><time>2026-04-29T14:37:41.9Z</time></trkpt><trkpt lat="43.057204" lon="13.2567411"><ele>687.2</ele><time>2026-04-29T14:37:42.909Z</time></trkpt><trkpt lat="43.0572099" lon="13.2568888"><ele>681.5999999999999</ele><time>2026-04-29T14:37:44.916Z</time></trkpt><trkpt lat="43.0572251" lon="13.2570212"><ele>676.0</ele><time>2026-04-29T14:37:46.907Z</time></trkpt><trkpt lat="43.0572286" lon="13.2571333"><ele>676.0</ele><time>2026-04-29T14:37:48.926Z</time></trkpt><trkpt lat="43.0572787" lon="13.2572149"><ele>676.0</ele><time>2026-04-29T14:37:50.914Z</time></trkpt><trkpt lat="43.0573633" lon="13.2572981"><ele>676.0</ele><time>2026-04-29T14:37:52.916Z</time></trkpt><trkpt lat="43.0574721" lon="13.2574391"><ele>676.0</ele><time>2026-04-29T14:37:54.973Z</time></trkpt><trkpt lat="43.0575415" lon="13.257535"><ele>676.0</ele><time>2026-04-29T14:37:55.889Z</time></trkpt><trkpt lat="43.0576228" lon="13.2576468"><ele>676.0</ele><time>2026-04-29T14:37:56.92Z</time></trkpt><trkpt lat="43.0577102" lon="13.2577675"><ele>676.0</ele><time>2026-04-29T14:37:57.923Z</time></trkpt><trkpt lat="43.0578132" lon="13.257908"><ele>676.0</ele><time>2026-04-29T14:37:58.94Z</time></trkpt><trkpt lat="43.0579376" lon="13.2580777"><ele>676.0</ele><time>2026-04-29T14:37:59.941Z</time></trkpt><trkpt lat="43.0580619" lon="13.2582415"><ele>676.25</ele><time>2026-04-29T14:38:00.877Z</time></trkpt><trkpt lat="43.0581741" lon="13.2583677"><ele>676.5</ele><time>2026-04-29T14:38:01.945Z</time></trkpt><trkpt lat="43.0582869" lon="13.2584967"><ele>676.75</ele><time>2026-04-29T14:38:02.919Z</time></trkpt><trkpt lat="43.0584083" lon="13.2585886"><ele>677.0</ele><time>2026-04-29T14:38:03.929Z</time></trkpt><trkpt lat="43.0585461" lon="13.2586932"><ele>677.0</ele><time>2026-04-29T14:38:04.949Z</time></trkpt><trkpt lat="43.0586853" lon="13.2587828"><ele>677.0</ele><time>2026-04-29T14:38:05.914Z</time></trkpt><trkpt lat="43.0588074" lon="13.2588569"><ele>677.0</ele><time>2026-04-29T14:38:06.926Z</time></trkpt><trkpt lat="43.058911" lon="13.2589007"><ele>677.0</ele><time>2026-04-29T14:38:07.954Z</time></trkpt><trkpt lat="43.0590097" lon="13.2589439"><ele>677.8</ele><time>2026-04-29T14:38:08.916Z</time></trkpt><trkpt lat="43.0591093" lon="13.2589669"><ele>678.6</ele><time>2026-04-29T14:38:09.953Z</time></trkpt><trkpt lat="43.0592063" lon="13.2589884"><ele>679.4</ele><time>2026-04-29T14:38:10.891Z</time></trkpt><trkpt lat="43.0592972" lon="13.2590047"><ele>680.1999999999999</ele><time>2026-04-29T14:38:11.982Z</time></trkpt><trkpt lat="43.0593952" lon="13.2590179"><ele>681.0</ele><time>2026-04-29T14:38:12.939Z</time></trkpt><trkpt lat="43.0594985" lon="13.2590311"><ele>681.0</ele><time>2026-04-29T14:38:13.933Z</time></trkpt><trkpt lat="43.0596169" lon="13.2590404"><ele>681.0</ele><time>2026-04-29T14:38:14.931Z</time></trkpt><trkpt lat="43.0597447" lon="13.2590557"><ele>681.0</ele><time>2026-04-29T14:38:15.883Z</time></trkpt><trkpt lat="43.0598684" lon="13.259075"><ele>681.0</ele><time>2026-04-29T14:38:16.887Z</time></trkpt><trkpt lat="43.059987" lon="13.2590916"><ele>680.1999999999999</ele><time>2026-04-29T14:38:17.935Z</time></trkpt><trkpt lat="43.0601063" lon="13.2590974"><ele>679.4</ele><time>2026-04-29T14:38:18.924Z</time></trkpt><trkpt lat="43.0602146" lon="13.2591021"><ele>678.6</ele><time>2026-04-29T14:38:19.881Z</time></trkpt><trkpt lat="43.0603188" lon="13.2591014"><ele>677.8</ele><time>2026-04-29T14:38:20.9Z</time></trkpt><trkpt lat="43.0604261" lon="13.259094"><ele>677.0</ele><time>2026-04-29T14:38:21.92Z</time></trkpt><trkpt lat="43.060535" lon="13.2590859"><ele>677.0</ele><time>2026-04-29T14:38:22.946Z</time></trkpt><trkpt lat="43.0606564" lon="13.2590447"><ele>677.0</ele><time>2026-04-29T14:38:23.913Z</time></trkpt><trkpt lat="43.0607845" lon="13.2589905"><ele>677.0</ele><time>2026-04-29T14:38:24.908Z</time></trkpt><trkpt lat="43.060911" lon="13.2589381"><ele>677.0</ele><time>2026-04-29T14:38:25.884Z</time></trkpt><trkpt lat="43.0610393" lon="13.2588793"><ele>678.0</ele><time>2026-04-29T14:38:26.919Z</time></trkpt><trkpt lat="43.0611777" lon="13.2588113"><ele>679.0</ele><time>2026-04-29T14:38:27.914Z</time></trkpt><trkpt lat="43.0613209" lon="13.2587224"><ele>680.0</ele><time>2026-04-29T14:38:28.916Z</time></trkpt><trkpt lat="43.0614732" lon="13.2586332"><ele>675.0</ele><time>2026-04-29T14:38:29.93Z</time></trkpt><trkpt lat="43.0616282" lon="13.258554"><ele>670.0</ele><time>2026-04-29T14:38:30.888Z</time></trkpt><trkpt lat="43.0617756" lon="13.2584819"><ele>665.0</ele><time>2026-04-29T14:38:31.899Z</time></trkpt><trkpt lat="43.0619233" lon="13.2584244"><ele>665.0</ele><time>2026-04-29T14:38:32.926Z</time></trkpt><trkpt lat="43.0621202" lon="13.25838"><ele>665.0</ele><time>2026-04-29T14:38:33.914Z</time></trkpt><trkpt lat="43.0623115" lon="13.2583593"><ele>665.0</ele><time>2026-04-29T14:38:34.939Z</time></trkpt><trkpt lat="43.0624774" lon="13.258356"><ele>662.3333333333333</ele><time>2026-04-29T14:38:35.921Z</time></trkpt><trkpt lat="43.0626564" lon="13.2583771"><ele>659.6666666666666</ele><time>2026-04-29T14:38:36.92Z</time></trkpt><trkpt lat="43.0628336" lon="13.2584145"><ele>657.0</ele><time>2026-04-29T14:38:37.929Z</time></trkpt><trkpt lat="43.0630012" lon="13.2584408"><ele>657.0</ele><time>2026-04-29T14:38:38.953Z</time></trkpt><trkpt lat="43.0631624" lon="13.2584719"><ele>657.0</ele><time>2026-04-29T14:38:39.927Z</time></trkpt><trkpt lat="43.063306" lon="13.2584952"><ele>657.0</ele><time>2026-04-29T14:38:40.931Z</time></trkpt><trkpt lat="43.063437" lon="13.2585147"><ele>657.0</ele><time>2026-04-29T14:38:41.921Z</time></trkpt><trkpt lat="43.0635489" lon="13.2585294"><ele>656.6</ele><time>2026-04-29T14:38:42.908Z</time></trkpt><trkpt lat="43.0636421" lon="13.2585469"><ele>656.2</ele><time>2026-04-29T14:38:43.936Z</time></trkpt><trkpt lat="43.0637212" lon="13.258565"><ele>655.8</ele><time>2026-04-29T14:38:44.942Z</time></trkpt><trkpt lat="43.0637925" lon="13.2585839"><ele>655.4</ele><time>2026-04-29T14:38:45.921Z</time></trkpt><trkpt lat="43.0638967" lon="13.2586082"><ele>655.0</ele><time>2026-04-29T14:38:47.906Z</time></trkpt><trkpt lat="43.0640335" lon="13.258599"><ele>654.5</ele><time>2026-04-29T14:38:49.934Z</time></trkpt><trkpt lat="43.0641482" lon="13.2585609"><ele>654.0</ele><time>2026-04-29T14:38:50.89Z</time></trkpt><trkpt lat="43.0642811" lon="13.2585004"><ele>653.5</ele><time>2026-04-29T14:38:51.881Z</time></trkpt><trkpt lat="43.0644077" lon="13.258453"><ele>653.0</ele><time>2026-04-29T14:38:52.925Z</time></trkpt><trkpt lat="43.0645106" lon="13.25843"><ele>653.0</ele><time>2026-04-29T14:38:53.905Z</time></trkpt><trkpt lat="43.0646146" lon="13.2584172"><ele>653.0</ele><time>2026-04-29T14:38:54.928Z</time></trkpt><trkpt lat="43.0646913" lon="13.258378"><ele>653.0</ele><time>2026-04-29T14:38:55.921Z</time></trkpt><trkpt lat="43.0647798" lon="13.2583175"><ele>653.0</ele><time>2026-04-29T14:38:56.881Z</time></trkpt><trkpt lat="43.0648914" lon="13.2582512"><ele>653.0</ele><time>2026-04-29T14:38:57.94Z</time></trkpt><trkpt lat="43.0650267" lon="13.2581673"><ele>657.4</ele><time>2026-04-29T14:38:58.883Z</time></trkpt><trkpt lat="43.0651616" lon="13.2580997"><ele>661.8</ele><time>2026-04-29T14:38:59.928Z</time></trkpt><trkpt lat="43.0652652" lon="13.2580577"><ele>666.2</ele><time>2026-04-29T14:39:00.924Z</time></trkpt><trkpt lat="43.065344" lon="13.2580192"><ele>670.6</ele><time>2026-04-29T14:39:01.888Z</time></trkpt><trkpt lat="43.0654177" lon="13.2579929"><ele>675.0</ele><time>2026-04-29T14:39:02.918Z</time></trkpt><trkpt lat="43.065535" lon="13.2579851"><ele>675.0</ele><time>2026-04-29T14:39:03.911Z</time></trkpt><trkpt lat="43.0656523" lon="13.2580097"><ele>675.0</ele><time>2026-04-29T14:39:04.919Z</time></trkpt><trkpt lat="43.0657324" lon="13.2580492"><ele>675.0</ele><time>2026-04-29T14:39:05.922Z</time></trkpt><trkpt lat="43.0658233" lon="13.2580953"><ele>675.0</ele><time>2026-04-29T14:39:06.886Z</time></trkpt><trkpt lat="43.0659294" lon="13.2581122"><ele>675.0</ele><time>2026-04-29T14:39:07.933Z</time></trkpt><trkpt lat="43.0660347" lon="13.258121"><ele>668.6</ele><time>2026-04-29T14:39:08.913Z</time></trkpt><trkpt lat="43.0661424" lon="13.2581366"><ele>662.2</ele><time>2026-04-29T14:39:09.907Z</time></trkpt><trkpt lat="43.0662432" lon="13.2581349"><ele>655.8</ele><time>2026-04-29T14:39:10.908Z</time></trkpt><trkpt lat="43.066341" lon="13.2581276"><ele>649.4</ele><time>2026-04-29T14:39:11.877Z</time></trkpt><trkpt lat="43.0664329" lon="13.2581449"><ele>643.0</ele><time>2026-04-29T14:39:12.913Z</time></trkpt><trkpt lat="43.0665429" lon="13.2581791"><ele>643.5999999999999</ele><time>2026-04-29T14:39:13.922Z</time></trkpt><trkpt lat="43.0666413" lon="13.2581856"><ele>644.1999999999999</ele><time>2026-04-29T14:39:14.947Z</time></trkpt><trkpt lat="43.0667214" lon="13.2582036"><ele>644.8</ele><time>2026-04-29T14:39:15.918Z</time></trkpt><trkpt lat="43.0668201" lon="13.2581992"><ele>645.4</ele><time>2026-04-29T14:39:16.893Z</time></trkpt><trkpt lat="43.0669605" lon="13.2582138"><ele>646.0</ele><time>2026-04-29T14:39:19.902Z</time></trkpt><trkpt lat="43.067034" lon="13.2581912"><ele>646.0</ele><time>2026-04-29T14:39:20.963Z</time></trkpt><trkpt lat="43.0671083" lon="13.2581915"><ele>646.0</ele><time>2026-04-29T14:39:21.875Z</time></trkpt><trkpt lat="43.0672026" lon="13.2581735"><ele>646.0</ele><time>2026-04-29T14:39:22.922Z</time></trkpt><trkpt lat="43.0672763" lon="13.2581731"><ele>646.0</ele><time>2026-04-29T14:39:23.933Z</time></trkpt><trkpt lat="43.0673993" lon="13.2581818"><ele>646.0</ele><time>2026-04-29T14:39:25.919Z</time></trkpt><trkpt lat="43.0675088" lon="13.2581799"><ele>645.5999999999999</ele><time>2026-04-29T14:39:27.909Z</time></trkpt><trkpt lat="43.0676172" lon="13.2581949"><ele>645.2</ele><time>2026-04-29T14:39:29.911Z</time></trkpt><trkpt lat="43.0677031" lon="13.2581896"><ele>644.8</ele><time>2026-04-29T14:39:31.91Z</time></trkpt><trkpt lat="43.0677984" lon="13.2581678"><ele>644.4000000000001</ele><time>2026-04-29T14:39:34.886Z</time></trkpt><trkpt lat="43.0678932" lon="13.2581391"><ele>644.0</ele><time>2026-04-29T14:39:36.875Z</time></trkpt><trkpt lat="43.0679931" lon="13.2581261"><ele>644.0</ele><time>2026-04-29T14:39:38.989Z</time></trkpt><trkpt lat="43.0680752" lon="13.2581173"><ele>644.0</ele><time>2026-04-29T14:39:40.869Z</time></trkpt><trkpt lat="43.0681624" lon="13.2581142"><ele>644.0</ele><time>2026-04-29T14:39:42.871Z</time></trkpt><trkpt lat="43.0682651" lon="13.2581254"><ele>644.0</ele><time>2026-04-29T14:39:45.884Z</time></trkpt><trkpt lat="43.0684232" lon="13.258149"><ele>644.0</ele><time>2026-04-29T14:39:49.922Z</time></trkpt><trkpt lat="43.0682903" lon="13.2582454"><ele>644.0</ele><time>2026-04-29T14:39:56.882Z</time></trkpt><trkpt lat="43.0682228" lon="13.258334"><ele>644.0</ele><time>2026-04-29T14:39:58.9Z</time></trkpt><trkpt lat="43.068259" lon="13.2584136"><ele>644.0</ele><time>2026-04-29T14:40:00.917Z</time></trkpt><trkpt lat="43.0683779" lon="13.2584519"><ele>644.0</ele><time>2026-04-29T14:40:02.883Z</time></trkpt><trkpt lat="43.0684431" lon="13.2584682"><ele>644.0</ele><time>2026-04-29T14:40:03.924Z</time></trkpt><trkpt lat="43.0685736" lon="13.2584815"><ele>641.0</ele><time>2026-04-29T14:40:05.924Z</time></trkpt><trkpt lat="43.0686385" lon="13.2584893"><ele>638.0</ele><time>2026-04-29T14:40:06.907Z</time></trkpt><trkpt lat="43.0687184" lon="13.2585072"><ele>635.0</ele><time>2026-04-29T14:40:07.931Z</time></trkpt><trkpt lat="43.0688032" lon="13.2585441"><ele>632.0</ele><time>2026-04-29T14:40:08.923Z</time></trkpt><trkpt lat="43.0689096" lon="13.2585579"><ele>629.0</ele><time>2026-04-29T14:40:09.895Z</time></trkpt><trkpt lat="43.0690139" lon="13.2585707"><ele>626.0</ele><time>2026-04-29T14:40:10.882Z</time></trkpt><trkpt lat="43.0691004" lon="13.2585804"><ele>624.5</ele><time>2026-04-29T14:40:11.931Z</time></trkpt><trkpt lat="43.0691856" lon="13.2585915"><ele>623.0</ele><time>2026-04-29T14:40:12.887Z</time></trkpt><trkpt lat="43.0693255" lon="13.2586235"><ele>621.5</ele><time>2026-04-29T14:40:13.915Z</time></trkpt><trkpt lat="43.0694597" lon="13.2586452"><ele>620.0</ele><time>2026-04-29T14:40:14.911Z</time></trkpt><trkpt lat="43.0695629" lon="13.2586777"><ele>620.0</ele><time>2026-04-29T14:40:15.887Z</time></trkpt><trkpt lat="43.0696885" lon="13.258705"><ele>620.0</ele><time>2026-04-29T14:40:16.991Z</time></trkpt><trkpt lat="43.0697976" lon="13.2587293"><ele>620.0</ele><time>2026-04-29T14:40:17.91Z</time></trkpt><trkpt lat="43.0699225" lon="13.2587446"><ele>620.0</ele><time>2026-04-29T14:40:18.913Z</time></trkpt><trkpt lat="43.0700292" lon="13.2587738"><ele>618.0</ele><time>2026-04-29T14:40:19.913Z</time></trkpt><trkpt lat="43.0701269" lon="13.258792"><ele>616.0</ele><time>2026-04-29T14:40:20.932Z</time></trkpt><trkpt lat="43.0702238" lon="13.2588072"><ele>614.0</ele><time>2026-04-29T14:40:21.934Z</time></trkpt><trkpt lat="43.070316" lon="13.2588291"><ele>612.0</ele><time>2026-04-29T14:40:22.912Z</time></trkpt><trkpt lat="43.0704007" lon="13.2588493"><ele>610.0</ele><time>2026-04-29T14:40:23.921Z</time></trkpt><trkpt lat="43.0704931" lon="13.2588586"><ele>610.0</ele><time>2026-04-29T14:40:24.925Z</time></trkpt><trkpt lat="43.0705951" lon="13.2588362"><ele>610.0</ele><time>2026-04-29T14:40:25.932Z</time></trkpt><trkpt lat="43.0707031" lon="13.2588202"><ele>610.0</ele><time>2026-04-29T14:40:26.963Z</time></trkpt><trkpt lat="43.0707811" lon="13.2588161"><ele>610.0</ele><time>2026-04-29T14:40:27.985Z</time></trkpt><trkpt lat="43.0708655" lon="13.258806"><ele>610.0</ele><time>2026-04-29T14:40:28.896Z</time></trkpt><trkpt lat="43.0709359" lon="13.2588261"><ele>610.0</ele><time>2026-04-29T14:40:29.916Z</time></trkpt><trkpt lat="43.0709837" lon="13.258915"><ele>601.5</ele><time>2026-04-29T14:40:31.924Z</time></trkpt><trkpt lat="43.0710549" lon="13.2591009"><ele>593.0</ele><time>2026-04-29T14:40:38.879Z</time></trkpt><trkpt lat="43.071118" lon="13.259123"><ele>584.5</ele><time>2026-04-29T14:40:42.908Z</time></trkpt><trkpt lat="43.0712425" lon="13.2591457"><ele>576.0</ele><time>2026-04-29T14:40:45.92Z</time></trkpt><trkpt lat="43.0715093" lon="13.2591347"><ele>576.0</ele><time>2026-04-29T14:40:53.927Z</time></trkpt><trkpt lat="43.0715751" lon="13.2591442"><ele>576.0</ele><time>2026-04-29T14:40:54.899Z</time></trkpt><trkpt lat="43.0716482" lon="13.25915"><ele>576.0</ele><time>2026-04-29T14:40:55.937Z</time></trkpt><trkpt lat="43.0717322" lon="13.259154"><ele>576.0</ele><time>2026-04-29T14:40:56.904Z</time></trkpt><trkpt lat="43.0718039" lon="13.2591636"><ele>576.0</ele><time>2026-04-29T14:40:57.924Z</time></trkpt><trkpt lat="43.0719934" lon="13.2591705"><ele>570.6666666666666</ele><time>2026-04-29T14:41:05.918Z</time></trkpt><trkpt lat="43.0720832" lon="13.2592093"><ele>565.3333333333333</ele><time>2026-04-29T14:41:08.934Z</time></trkpt><trkpt lat="43.072311" lon="13.259209"><ele>560.0</ele><time>2026-04-29T14:41:15.921Z</time></trkpt><trkpt lat="43.0726464" lon="13.2590425"><ele>557.0</ele><time>2026-04-29T14:41:34.931Z</time></trkpt><trkpt lat="43.0727354" lon="13.2590466"><ele>554.0</ele><time>2026-04-29T14:41:37.878Z</time></trkpt><trkpt lat="43.0728607" lon="13.2590752"><ele>551.0</ele><time>2026-04-29T14:41:38.934Z</time></trkpt><trkpt lat="43.0729596" lon="13.2590855"><ele>548.0</ele><time>2026-04-29T14:41:39.911Z</time></trkpt><trkpt lat="43.0731517" lon="13.2591181"><ele>532.0</ele><time>2026-04-29T14:41:41.891Z</time></trkpt><trkpt lat="43.0751225" lon="13.2586944"><ele>519.0</ele><time>2026-04-29T14:41:52.927Z</time></trkpt><trkpt lat="43.0757795" lon="13.2585821"><ele>519.0</ele><time>2026-04-29T14:41:53.937Z</time></trkpt><trkpt lat="43.0760434" lon="13.2585382"><ele>519.0</ele><time>2026-04-29T14:41:54.907Z</time></trkpt><trkpt lat="43.0762652" lon="13.2584764"><ele>519.0</ele><time>2026-04-29T14:41:55.919Z</time></trkpt><trkpt lat="43.0764367" lon="13.2583588"><ele>519.0</ele><time>2026-04-29T14:41:56.942Z</time></trkpt><trkpt lat="43.0765941" lon="13.258188"><ele>519.0</ele><time>2026-04-29T14:41:57.92Z</time></trkpt><trkpt lat="43.0766594" lon="13.2580157"><ele>516.0</ele><time>2026-04-29T14:41:58.9Z</time></trkpt><trkpt lat="43.0767167" lon="13.2578186"><ele>513.0</ele><time>2026-04-29T14:41:59.921Z</time></trkpt><trkpt lat="43.0767689" lon="13.2576315"><ele>510.0</ele><time>2026-04-29T14:42:00.894Z</time></trkpt><trkpt lat="43.0768078" lon="13.2574675"><ele>507.0</ele><time>2026-04-29T14:42:01.886Z</time></trkpt><trkpt lat="43.0768322" lon="13.2572869"><ele>500.75</ele><time>2026-04-29T14:42:02.935Z</time></trkpt><trkpt lat="43.076828" lon="13.2571323"><ele>494.5</ele><time>2026-04-29T14:42:03.913Z</time></trkpt><trkpt lat="43.0767839" lon="13.2569833"><ele>488.25</ele><time>2026-04-29T14:42:04.931Z</time></trkpt><trkpt lat="43.0766905" lon="13.2568407"><ele>482.0</ele><time>2026-04-29T14:42:05.925Z</time></trkpt><trkpt lat="43.0765548" lon="13.2567388"><ele>493.3333333333333</ele><time>2026-04-29T14:42:06.929Z</time></trkpt><trkpt lat="43.0764257" lon="13.2565969"><ele>504.66666666666663</ele><time>2026-04-29T14:42:07.933Z</time></trkpt><trkpt lat="43.0763201" lon="13.2564238"><ele>516.0</ele><time>2026-04-29T14:42:08.931Z</time></trkpt><trkpt lat="43.0762209" lon="13.2562427"><ele>516.0</ele><time>2026-04-29T14:42:09.912Z</time></trkpt><trkpt lat="43.0761275" lon="13.2560764"><ele>516.0</ele><time>2026-04-29T14:42:10.915Z</time></trkpt><trkpt lat="43.0760354" lon="13.2559158"><ele>516.0</ele><time>2026-04-29T14:42:11.929Z</time></trkpt><trkpt lat="43.0759483" lon="13.2557532"><ele>521.3333333333334</ele><time>2026-04-29T14:42:12.922Z</time></trkpt><trkpt lat="43.0758534" lon="13.2555874"><ele>526.6666666666667</ele><time>2026-04-29T14:42:13.919Z</time></trkpt><trkpt lat="43.0757498" lon="13.2554132"><ele>532.0</ele><time>2026-04-29T14:42:14.921Z</time></trkpt><trkpt lat="43.0756039" lon="13.2552701"><ele>532.0</ele><time>2026-04-29T14:42:15.919Z</time></trkpt><trkpt lat="43.0754445" lon="13.2551405"><ele>532.0</ele><time>2026-04-29T14:42:16.915Z</time></trkpt><trkpt lat="43.0752813" lon="13.2550132"><ele>532.0</ele><time>2026-04-29T14:42:17.923Z</time></trkpt><trkpt lat="43.0751484" lon="13.2548875"><ele>531.25</ele><time>2026-04-29T14:42:18.901Z</time></trkpt><trkpt lat="43.0750401" lon="13.2547608"><ele>530.5</ele><time>2026-04-29T14:42:19.926Z</time></trkpt><trkpt lat="43.0749356" lon="13.2546358"><ele>529.75</ele><time>2026-04-29T14:42:20.917Z</time></trkpt><trkpt lat="43.0748204" lon="13.2545404"><ele>529.0</ele><time>2026-04-29T14:42:21.922Z</time></trkpt><trkpt lat="43.0746958" lon="13.2544769"><ele>529.0</ele><time>2026-04-29T14:42:22.912Z</time></trkpt><trkpt lat="43.0745698" lon="13.2544201"><ele>529.0</ele><time>2026-04-29T14:42:23.931Z</time></trkpt><trkpt lat="43.0744497" lon="13.2544118"><ele>529.0</ele><time>2026-04-29T14:42:24.907Z</time></trkpt><trkpt lat="43.0743376" lon="13.254403"><ele>529.0</ele><time>2026-04-29T14:42:25.924Z</time></trkpt><trkpt lat="43.074255" lon="13.2543526"><ele>529.0</ele><time>2026-04-29T14:42:26.931Z</time></trkpt><trkpt lat="43.0741878" lon="13.2542727"><ele>529.0</ele><time>2026-04-29T14:42:27.909Z</time></trkpt><trkpt lat="43.0741424" lon="13.2541542"><ele>529.0</ele><time>2026-04-29T14:42:28.89Z</time></trkpt><trkpt lat="43.0741374" lon="13.2540185"><ele>529.0</ele><time>2026-04-29T14:42:29.93Z</time></trkpt><trkpt lat="43.0741638" lon="13.2538717"><ele>529.0</ele><time>2026-04-29T14:42:30.946Z</time></trkpt><trkpt lat="43.0741933" lon="13.2537218"><ele>528.25</ele><time>2026-04-29T14:42:31.925Z</time></trkpt><trkpt lat="43.0742461" lon="13.2535514"><ele>527.5</ele><time>2026-04-29T14:42:32.903Z</time></trkpt><trkpt lat="43.0742895" lon="13.2533937"><ele>526.75</ele><time>2026-04-29T14:42:33.901Z</time></trkpt><trkpt lat="43.0743295" lon="13.2532546"><ele>526.0</ele><time>2026-04-29T14:42:34.957Z</time></trkpt><trkpt lat="43.0743608" lon="13.2531342"><ele>525.8333333333334</ele><time>2026-04-29T14:42:35.922Z</time></trkpt><trkpt lat="43.0743852" lon="13.2530436"><ele>525.6666666666667</ele><time>2026-04-29T14:42:36.933Z</time></trkpt><trkpt lat="43.0744383" lon="13.2529164"><ele>525.5</ele><time>2026-04-29T14:42:38.904Z</time></trkpt><trkpt lat="43.0744661" lon="13.2528376"><ele>525.3333333333334</ele><time>2026-04-29T14:42:39.899Z</time></trkpt><trkpt lat="43.0744667" lon="13.2527203"><ele>525.1666666666666</ele><time>2026-04-29T14:42:40.911Z</time></trkpt><trkpt lat="43.0744658" lon="13.2525856"><ele>525.0</ele><time>2026-04-29T14:42:41.935Z</time></trkpt><trkpt lat="43.0744395" lon="13.252429"><ele>524.0</ele><time>2026-04-29T14:42:42.917Z</time></trkpt><trkpt lat="43.0744213" lon="13.2522781"><ele>523.0</ele><time>2026-04-29T14:42:43.904Z</time></trkpt><trkpt lat="43.0744057" lon="13.2521235"><ele>522.0</ele><time>2026-04-29T14:42:44.94Z</time></trkpt><trkpt lat="43.0743946" lon="13.2519711"><ele>521.0</ele><time>2026-04-29T14:42:45.928Z</time></trkpt><trkpt lat="43.0743867" lon="13.2518416"><ele>520.0</ele><time>2026-04-29T14:42:46.928Z</time></trkpt><trkpt lat="43.0743808" lon="13.2517196"><ele>520.0</ele><time>2026-04-29T14:42:47.928Z</time></trkpt><trkpt lat="43.0743744" lon="13.2516022"><ele>520.0</ele><time>2026-04-29T14:42:48.904Z</time></trkpt><trkpt lat="43.0743489" lon="13.2514963"><ele>520.0</ele><time>2026-04-29T14:42:49.934Z</time></trkpt><trkpt lat="43.0743193" lon="13.2513876"><ele>520.0</ele><time>2026-04-29T14:42:50.934Z</time></trkpt><trkpt lat="43.0742781" lon="13.2512728"><ele>520.0</ele><time>2026-04-29T14:42:51.91Z</time></trkpt><trkpt lat="43.0742433" lon="13.2511668"><ele>520.0</ele><time>2026-04-29T14:42:52.918Z</time></trkpt><trkpt lat="43.0742059" lon="13.2510539"><ele>518.1666666666667</ele><time>2026-04-29T14:42:53.905Z</time></trkpt><trkpt lat="43.0741706" lon="13.2509413"><ele>516.3333333333334</ele><time>2026-04-29T14:42:54.932Z</time></trkpt><trkpt lat="43.0741353" lon="13.2508325"><ele>514.5</ele><time>2026-04-29T14:42:55.939Z</time></trkpt><trkpt lat="43.0740964" lon="13.2507322"><ele>512.6666666666666</ele><time>2026-04-29T14:42:56.936Z</time></trkpt><trkpt lat="43.0740633" lon="13.2506207"><ele>510.8333333333333</ele><time>2026-04-29T14:42:57.93Z</time></trkpt><trkpt lat="43.0740412" lon="13.2505243"><ele>509.0</ele><time>2026-04-29T14:42:58.898Z</time></trkpt><trkpt lat="43.0740241" lon="13.2504206"><ele>510.6</ele><time>2026-04-29T14:42:59.926Z</time></trkpt><trkpt lat="43.0740186" lon="13.2503274"><ele>512.2</ele><time>2026-04-29T14:43:00.942Z</time></trkpt><trkpt lat="43.0739966" lon="13.2501408"><ele>513.8000000000001</ele><time>2026-04-29T14:43:02.91Z</time></trkpt><trkpt lat="43.0739831" lon="13.2500208"><ele>515.4</ele><time>2026-04-29T14:43:03.903Z</time></trkpt><trkpt lat="43.0739697" lon="13.2498878"><ele>517.0</ele><time>2026-04-29T14:43:04.927Z</time></trkpt><trkpt lat="43.0739496" lon="13.2497362"><ele>517.0</ele><time>2026-04-29T14:43:05.93Z</time></trkpt><trkpt lat="43.0739266" lon="13.2496098"><ele>517.0</ele><time>2026-04-29T14:43:06.931Z</time></trkpt><trkpt lat="43.0739001" lon="13.2494904"><ele>517.0</ele><time>2026-04-29T14:43:07.919Z</time></trkpt><trkpt lat="43.0738691" lon="13.2493638"><ele>517.0</ele><time>2026-04-29T14:43:08.904Z</time></trkpt><trkpt lat="43.0738348" lon="13.249253"><ele>517.0</ele><time>2026-04-29T14:43:09.929Z</time></trkpt><trkpt lat="43.073799" lon="13.2491488"><ele>517.0</ele><time>2026-04-29T14:43:10.92Z</time></trkpt><trkpt lat="43.073765" lon="13.2490531"><ele>517.0</ele><time>2026-04-29T14:43:11.925Z</time></trkpt><trkpt lat="43.0737309" lon="13.248966"><ele>517.0</ele><time>2026-04-29T14:43:12.931Z</time></trkpt><trkpt lat="43.0737019" lon="13.2488703"><ele>517.0</ele><time>2026-04-29T14:43:13.897Z</time></trkpt><trkpt lat="43.073659" lon="13.2487755"><ele>517.0</ele><time>2026-04-29T14:43:14.928Z</time></trkpt><trkpt lat="43.0736221" lon="13.2486833"><ele>517.0</ele><time>2026-04-29T14:43:15.926Z</time></trkpt><trkpt lat="43.0735834" lon="13.2485979"><ele>514.1666666666667</ele><time>2026-04-29T14:43:16.986Z</time></trkpt><trkpt lat="43.0735448" lon="13.2485108"><ele>511.33333333333337</ele><time>2026-04-29T14:43:17.931Z</time></trkpt><trkpt lat="43.0734978" lon="13.2484058"><ele>508.5</ele><time>2026-04-29T14:43:18.892Z</time></trkpt><trkpt lat="43.0734608" lon="13.248321"><ele>505.66666666666663</ele><time>2026-04-29T14:43:19.919Z</time></trkpt><trkpt lat="43.0734234" lon="13.2482379"><ele>502.8333333333333</ele><time>2026-04-29T14:43:20.927Z</time></trkpt><trkpt lat="43.0733845" lon="13.248149"><ele>500.0</ele><time>2026-04-29T14:43:21.917Z</time></trkpt><trkpt lat="43.0733612" lon="13.2480458"><ele>498.8</ele><time>2026-04-29T14:43:22.899Z</time></trkpt><trkpt lat="43.0733354" lon="13.2479389"><ele>497.6</ele><time>2026-04-29T14:43:23.89Z</time></trkpt><trkpt lat="43.0733078" lon="13.2478333"><ele>496.4</ele><time>2026-04-29T14:43:24.935Z</time></trkpt><trkpt lat="43.0732694" lon="13.2477385"><ele>495.2</ele><time>2026-04-29T14:43:25.938Z</time></trkpt><trkpt lat="43.0732117" lon="13.2475782"><ele>494.0</ele><time>2026-04-29T14:43:27.932Z</time></trkpt><trkpt lat="43.0731947" lon="13.2474749"><ele>493.99999999999994</ele><time>2026-04-29T14:43:28.922Z</time></trkpt><trkpt lat="43.0731787" lon="13.2473811"><ele>494.0</ele><time>2026-04-29T14:43:29.93Z</time></trkpt><trkpt lat="43.073176" lon="13.2472536"><ele>494.0</ele><time>2026-04-29T14:43:31.916Z</time></trkpt><trkpt lat="43.0732262" lon="13.2471611"><ele>494.0</ele><time>2026-04-29T14:43:33.928Z</time></trkpt><trkpt lat="43.0733082" lon="13.2471072"><ele>493.99999999999994</ele><time>2026-04-29T14:43:35.91Z</time></trkpt><trkpt lat="43.073393" lon="13.2471871"><ele>494.0</ele><time>2026-04-29T14:43:37.876Z</time></trkpt><trkpt lat="43.0734384" lon="13.2472541"><ele>492.66666666666663</ele><time>2026-04-29T14:43:38.894Z</time></trkpt><trkpt lat="43.0734916" lon="13.2473647"><ele>491.3333333333333</ele><time>2026-04-29T14:43:39.92Z</time></trkpt><trkpt lat="43.0735325" lon="13.2474719"><ele>490.0</ele><time>2026-04-29T14:43:40.896Z</time></trkpt><trkpt lat="43.0735709" lon="13.2475693"><ele>488.66666666666663</ele><time>2026-04-29T14:43:41.917Z</time></trkpt><trkpt lat="43.073609" lon="13.2476679"><ele>487.3333333333333</ele><time>2026-04-29T14:43:42.917Z</time></trkpt><trkpt lat="43.0736423" lon="13.2477704"><ele>486.0</ele><time>2026-04-29T14:43:43.922Z</time></trkpt><trkpt lat="43.0736818" lon="13.2478591"><ele>486.0</ele><time>2026-04-29T14:43:44.935Z</time></trkpt><trkpt lat="43.0737159" lon="13.2479363"><ele>486.0</ele><time>2026-04-29T14:43:45.932Z</time></trkpt><trkpt lat="43.0737818" lon="13.2480735"><ele>486.0</ele><time>2026-04-29T14:43:47.914Z</time></trkpt><trkpt lat="43.0738616" lon="13.2481619"><ele>486.0</ele><time>2026-04-29T14:43:49.916Z</time></trkpt><trkpt lat="43.0739274" lon="13.2481066"><ele>486.0</ele><time>2026-04-29T14:43:51.911Z</time></trkpt><trkpt lat="43.0739722" lon="13.2479883"><ele>486.0</ele><time>2026-04-29T14:43:53.885Z</time></trkpt><trkpt lat="43.0739723" lon="13.2478501"><ele>486.0</ele><time>2026-04-29T14:43:55.888Z</time></trkpt><trkpt lat="43.0739543" lon="13.247765"><ele>486.0</ele><time>2026-04-29T14:43:56.91Z</time></trkpt><trkpt lat="43.0739379" lon="13.2476702"><ele>486.0</ele><time>2026-04-29T14:43:57.901Z</time></trkpt><trkpt lat="43.0739236" lon="13.2475781"><ele>486.0</ele><time>2026-04-29T14:43:58.931Z</time></trkpt><trkpt lat="43.0739078" lon="13.2474857"><ele>486.0</ele><time>2026-04-29T14:43:59.896Z</time></trkpt><trkpt lat="43.0738914" lon="13.2473932"><ele>486.0</ele><time>2026-04-29T14:44:00.912Z</time></trkpt><trkpt lat="43.0738758" lon="13.2473064"><ele>483.0</ele><time>2026-04-29T14:44:01.924Z</time></trkpt><trkpt lat="43.0738487" lon="13.2472233"><ele>480.0</ele><time>2026-04-29T14:44:02.905Z</time></trkpt><trkpt lat="43.0738189" lon="13.2471342"><ele>477.0</ele><time>2026-04-29T14:44:03.957Z</time></trkpt><trkpt lat="43.0737708" lon="13.2470636"><ele>474.0</ele><time>2026-04-29T14:44:04.921Z</time></trkpt><trkpt lat="43.0737261" lon="13.2469749"><ele>471.0</ele><time>2026-04-29T14:44:05.91Z</time></trkpt><trkpt lat="43.0736879" lon="13.246889"><ele>468.0</ele><time>2026-04-29T14:44:06.919Z</time></trkpt><trkpt lat="43.0736445" lon="13.2468263"><ele>465.0</ele><time>2026-04-29T14:44:07.923Z</time></trkpt><trkpt lat="43.0735813" lon="13.2467451"><ele>465.0</ele><time>2026-04-29T14:44:08.92Z</time></trkpt><trkpt lat="43.0735284" lon="13.2466665"><ele>465.0</ele><time>2026-04-29T14:44:09.911Z</time></trkpt><trkpt lat="43.0734318" lon="13.2465436"><ele>465.0</ele><time>2026-04-29T14:44:11.98Z</time></trkpt><trkpt lat="43.0733702" lon="13.2464819"><ele>465.0</ele><time>2026-04-29T14:44:12.922Z</time></trkpt><trkpt lat="43.0733125" lon="13.2464226"><ele>465.0</ele><time>2026-04-29T14:44:13.926Z</time></trkpt><trkpt lat="43.0732512" lon="13.2463769"><ele>465.0</ele><time>2026-04-29T14:44:14.892Z</time></trkpt><trkpt lat="43.0731767" lon="13.2462833"><ele>465.2</ele><time>2026-04-29T14:44:16.931Z</time></trkpt><trkpt lat="43.0731559" lon="13.2461558"><ele>465.4</ele><time>2026-04-29T14:44:18.941Z</time></trkpt><trkpt lat="43.0731561" lon="13.2460239"><ele>465.6</ele><time>2026-04-29T14:44:20.926Z</time></trkpt><trkpt lat="43.0731725" lon="13.2458644"><ele>465.8</ele><time>2026-04-29T14:44:22.915Z</time></trkpt><trkpt lat="43.0731738" lon="13.2457669"><ele>466.0</ele><time>2026-04-29T14:44:23.92Z</time></trkpt><trkpt lat="43.0731632" lon="13.2456135"><ele>466.6</ele><time>2026-04-29T14:44:25.92Z</time></trkpt><trkpt lat="43.0730832" lon="13.2454849"><ele>467.20000000000005</ele><time>2026-04-29T14:44:27.916Z</time></trkpt><trkpt lat="43.0730144" lon="13.2454334"><ele>467.79999999999995</ele><time>2026-04-29T14:44:28.91Z</time></trkpt><trkpt lat="43.0729394" lon="13.2453682"><ele>468.4</ele><time>2026-04-29T14:44:29.909Z</time></trkpt><trkpt lat="43.0728536" lon="13.2452899"><ele>469.0</ele><time>2026-04-29T14:44:30.907Z</time></trkpt><trkpt lat="43.0727751" lon="13.2451981"><ele>469.00000000000006</ele><time>2026-04-29T14:44:31.917Z</time></trkpt><trkpt lat="43.0726957" lon="13.2451021"><ele>469.0</ele><time>2026-04-29T14:44:32.919Z</time></trkpt><trkpt lat="43.072636" lon="13.2450116"><ele>469.0</ele><time>2026-04-29T14:44:33.934Z</time></trkpt><trkpt lat="43.0725956" lon="13.2449227"><ele>469.0</ele><time>2026-04-29T14:44:34.889Z</time></trkpt><trkpt lat="43.0725609" lon="13.2448445"><ele>469.00000000000006</ele><time>2026-04-29T14:44:35.909Z</time></trkpt><trkpt lat="43.0725456" lon="13.2447403"><ele>469.0</ele><time>2026-04-29T14:44:36.921Z</time></trkpt><trkpt lat="43.0725435" lon="13.2446492"><ele>469.00000000000006</ele><time>2026-04-29T14:44:37.929Z</time></trkpt><trkpt lat="43.0725503" lon="13.2445426"><ele>469.0</ele><time>2026-04-29T14:44:38.934Z</time></trkpt><trkpt lat="43.0725603" lon="13.244416"><ele>469.0</ele><time>2026-04-29T14:44:39.928Z</time></trkpt><trkpt lat="43.0725693" lon="13.2443016"><ele>469.0</ele><time>2026-04-29T14:44:40.939Z</time></trkpt><trkpt lat="43.0725826" lon="13.2441955"><ele>469.00000000000006</ele><time>2026-04-29T14:44:41.916Z</time></trkpt><trkpt lat="43.0725944" lon="13.2440904"><ele>469.0</ele><time>2026-04-29T14:44:42.922Z</time></trkpt><trkpt lat="43.0726027" lon="13.2439897"><ele>468.33333333333337</ele><time>2026-04-29T14:44:43.929Z</time></trkpt><trkpt lat="43.0725955" lon="13.2438803"><ele>467.6666666666667</ele><time>2026-04-29T14:44:44.938Z</time></trkpt><trkpt lat="43.0725902" lon="13.2437825"><ele>467.0</ele><time>2026-04-29T14:44:45.922Z</time></trkpt><trkpt lat="43.0725882" lon="13.2436786"><ele>466.33333333333337</ele><time>2026-04-29T14:44:46.93Z</time></trkpt><trkpt lat="43.0725839" lon="13.2435586"><ele>465.6666666666667</ele><time>2026-04-29T14:44:47.923Z</time></trkpt><trkpt lat="43.0725791" lon="13.2434427"><ele>465.0</ele><time>2026-04-29T14:44:48.925Z</time></trkpt><trkpt lat="43.0725775" lon="13.2433054"><ele>465.0</ele><time>2026-04-29T14:44:49.924Z</time></trkpt><trkpt lat="43.0725802" lon="13.2431789"><ele>465.0</ele><time>2026-04-29T14:44:50.931Z</time></trkpt><trkpt lat="43.0725959" lon="13.243052"><ele>465.0</ele><time>2026-04-29T14:44:51.921Z</time></trkpt><trkpt lat="43.0726232" lon="13.2429532"><ele>465.0</ele><time>2026-04-29T14:44:52.933Z</time></trkpt><trkpt lat="43.0726475" lon="13.2428612"><ele>465.0</ele><time>2026-04-29T14:44:53.94Z</time></trkpt><trkpt lat="43.0726949" lon="13.2427926"><ele>465.0</ele><time>2026-04-29T14:44:54.967Z</time></trkpt><trkpt lat="43.0727486" lon="13.2427279"><ele>463.8333333333333</ele><time>2026-04-29T14:44:55.923Z</time></trkpt><trkpt lat="43.0728093" lon="13.2426545"><ele>462.66666666666663</ele><time>2026-04-29T14:44:56.927Z</time></trkpt><trkpt lat="43.0728655" lon="13.2425868"><ele>461.5</ele><time>2026-04-29T14:44:57.915Z</time></trkpt><trkpt lat="43.0729088" lon="13.242523"><ele>460.3333333333333</ele><time>2026-04-29T14:44:58.922Z</time></trkpt><trkpt lat="43.0729794" lon="13.2423933"><ele>459.16666666666663</ele><time>2026-04-29T14:45:00.967Z</time></trkpt><trkpt lat="43.0730083" lon="13.2423144"><ele>458.0</ele><time>2026-04-29T14:45:01.889Z</time></trkpt><trkpt lat="43.0730523" lon="13.2422225"><ele>457.8333333333333</ele><time>2026-04-29T14:45:02.923Z</time></trkpt><trkpt lat="43.0730955" lon="13.2421343"><ele>457.66666666666663</ele><time>2026-04-29T14:45:03.949Z</time></trkpt><trkpt lat="43.0731383" lon="13.2420575"><ele>457.5</ele><time>2026-04-29T14:45:04.927Z</time></trkpt><trkpt lat="43.0731663" lon="13.2419671"><ele>457.33333333333337</ele><time>2026-04-29T14:45:05.938Z</time></trkpt><trkpt lat="43.0731829" lon="13.2418738"><ele>457.1666666666667</ele><time>2026-04-29T14:45:06.954Z</time></trkpt><trkpt lat="43.0732" lon="13.2417204"><ele>457.0</ele><time>2026-04-29T14:45:08.917Z</time></trkpt><trkpt lat="43.073121" lon="13.2415951"><ele>457.00000000000006</ele><time>2026-04-29T14:45:10.928Z</time></trkpt><trkpt lat="43.0730604" lon="13.2415459"><ele>457.0</ele><time>2026-04-29T14:45:11.921Z</time></trkpt><trkpt lat="43.0730176" lon="13.2414791"><ele>457.0</ele><time>2026-04-29T14:45:12.934Z</time></trkpt><trkpt lat="43.0729833" lon="13.2413767"><ele>457.0</ele><time>2026-04-29T14:45:13.915Z</time></trkpt><trkpt lat="43.0729532" lon="13.2412353"><ele>457.00000000000006</ele><time>2026-04-29T14:45:14.897Z</time></trkpt><trkpt lat="43.0729289" lon="13.2411074"><ele>457.0</ele><time>2026-04-29T14:45:15.935Z</time></trkpt><trkpt lat="43.0729106" lon="13.241"><ele>457.83333333333337</ele><time>2026-04-29T14:45:16.931Z</time></trkpt><trkpt lat="43.0729018" lon="13.2409082"><ele>458.6666666666667</ele><time>2026-04-29T14:45:17.99Z</time></trkpt><trkpt lat="43.0729018" lon="13.2408165"><ele>459.5</ele><time>2026-04-29T14:45:18.925Z</time></trkpt><trkpt lat="43.0729051" lon="13.240676"><ele>460.33333333333337</ele><time>2026-04-29T14:45:20.918Z</time></trkpt><trkpt lat="43.0729376" lon="13.2405709"><ele>461.1666666666667</ele><time>2026-04-29T14:45:22.946Z</time></trkpt><trkpt lat="43.072966" lon="13.2404622"><ele>462.0</ele><time>2026-04-29T14:45:24.899Z</time></trkpt><trkpt lat="43.0729775" lon="13.2403432"><ele>462.0</ele><time>2026-04-29T14:45:26.924Z</time></trkpt><trkpt lat="43.0730056" lon="13.2402038"><ele>462.00000000000006</ele><time>2026-04-29T14:45:28.898Z</time></trkpt><trkpt lat="43.073008" lon="13.2400376"><ele>462.00000000000006</ele><time>2026-04-29T14:45:30.905Z</time></trkpt><trkpt lat="43.072981" lon="13.239896"><ele>462.0</ele><time>2026-04-29T14:45:32.92Z</time></trkpt><trkpt lat="43.0729545" lon="13.2397738"><ele>462.0</ele><time>2026-04-29T14:45:34.888Z</time></trkpt><trkpt lat="43.0729269" lon="13.2396959"><ele>462.8</ele><time>2026-04-29T14:45:35.909Z</time></trkpt><trkpt lat="43.0728833" lon="13.2395955"><ele>463.6</ele><time>2026-04-29T14:45:37.924Z</time></trkpt><trkpt lat="43.0728328" lon="13.2394499"><ele>464.40000000000003</ele><time>2026-04-29T14:45:39.878Z</time></trkpt><trkpt lat="43.0728112" lon="13.2393685"><ele>465.20000000000005</ele><time>2026-04-29T14:45:40.915Z</time></trkpt><trkpt lat="43.0727998" lon="13.2392296"><ele>466.0</ele><time>2026-04-29T14:45:42.904Z</time></trkpt><trkpt lat="43.0728196" lon="13.2391003"><ele>466.0</ele><time>2026-04-29T14:45:44.878Z</time></trkpt><trkpt lat="43.0728204" lon="13.2389922"><ele>466.0</ele><time>2026-04-29T14:45:45.922Z</time></trkpt><trkpt lat="43.0728108" lon="13.2388987"><ele>466.0</ele><time>2026-04-29T14:45:46.942Z</time></trkpt><trkpt lat="43.0728095" lon="13.2387418"><ele>466.0</ele><time>2026-04-29T14:45:48.928Z</time></trkpt><trkpt lat="43.0728256" lon="13.2386225"><ele>466.0</ele><time>2026-04-29T14:45:49.888Z</time></trkpt><trkpt lat="43.0728928" lon="13.2384553"><ele>466.83333333333337</ele><time>2026-04-29T14:45:51.929Z</time></trkpt><trkpt lat="43.0729225" lon="13.2383353"><ele>467.6666666666667</ele><time>2026-04-29T14:45:53.92Z</time></trkpt><trkpt lat="43.0729656" lon="13.2382604"><ele>468.5</ele><time>2026-04-29T14:45:55.929Z</time></trkpt><trkpt lat="43.0730343" lon="13.2381836"><ele>469.33333333333337</ele><time>2026-04-29T14:46:00.92Z</time></trkpt><trkpt lat="43.0731187" lon="13.2381091"><ele>470.1666666666667</ele><time>2026-04-29T14:46:03.932Z</time></trkpt><trkpt lat="43.073187" lon="13.2380565"><ele>471.0</ele><time>2026-04-29T14:46:33.933Z</time></trkpt><trkpt lat="43.0732577" lon="13.2379344"><ele>469.6666666666667</ele><time>2026-04-29T14:48:50.924Z</time></trkpt><trkpt lat="43.07332" lon="13.2378839"><ele>468.33333333333337</ele><time>2026-04-29T14:48:54.941Z</time></trkpt><trkpt lat="43.0733235" lon="13.2377973"><ele>467.0</ele><time>2026-04-29T14:48:57.947Z</time></trkpt><trkpt lat="43.0733456" lon="13.2376659"><ele>465.6666666666667</ele><time>2026-04-29T14:49:00.897Z</time></trkpt><trkpt lat="43.0733134" lon="13.2375892"><ele>464.33333333333337</ele><time>2026-04-29T14:49:03.89Z</time></trkpt><trkpt lat="43.0732271" lon="13.2375548"><ele>463.0</ele><time>2026-04-29T14:49:06.918Z</time></trkpt><trkpt lat="43.0731982" lon="13.2374653"><ele>464.79999999999995</ele><time>2026-04-29T14:49:10.945Z</time></trkpt><trkpt lat="43.0732636" lon="13.2373344"><ele>466.59999999999997</ele><time>2026-04-29T14:49:12.935Z</time></trkpt><trkpt lat="43.0732976" lon="13.2372013"><ele>468.40000000000003</ele><time>2026-04-29T14:49:14.929Z</time></trkpt><trkpt lat="43.0733016" lon="13.237109"><ele>470.20000000000005</ele><time>2026-04-29T14:49:15.918Z</time></trkpt><trkpt lat="43.0732825" lon="13.2370058"><ele>472.0</ele><time>2026-04-29T14:49:16.918Z</time></trkpt><trkpt lat="43.073245" lon="13.2368987"><ele>472.0</ele><time>2026-04-29T14:49:17.925Z</time></trkpt><trkpt lat="43.0731865" lon="13.23677"><ele>472.00000000000006</ele><time>2026-04-29T14:49:18.914Z</time></trkpt><trkpt lat="43.0731238" lon="13.2366348"><ele>472.00000000000006</ele><time>2026-04-29T14:49:19.93Z</time></trkpt><trkpt lat="43.0730838" lon="13.2365098"><ele>472.0</ele><time>2026-04-29T14:49:20.946Z</time></trkpt><trkpt lat="43.0730553" lon="13.2363866"><ele>472.0</ele><time>2026-04-29T14:49:21.939Z</time></trkpt><trkpt lat="43.0730467" lon="13.236265"><ele>471.75</ele><time>2026-04-29T14:49:22.938Z</time></trkpt><trkpt lat="43.0730377" lon="13.2361316"><ele>471.5</ele><time>2026-04-29T14:49:23.929Z</time></trkpt><trkpt lat="43.0730452" lon="13.2359854"><ele>471.25</ele><time>2026-04-29T14:49:24.929Z</time></trkpt><trkpt lat="43.0730694" lon="13.2358188"><ele>471.0</ele><time>2026-04-29T14:49:25.914Z</time></trkpt><trkpt lat="43.0730977" lon="13.2356374"><ele>472.0</ele><time>2026-04-29T14:49:26.922Z</time></trkpt><trkpt lat="43.0731145" lon="13.2354624"><ele>473.0</ele><time>2026-04-29T14:49:27.943Z</time></trkpt><trkpt lat="43.0731123" lon="13.235306"><ele>474.0</ele><time>2026-04-29T14:49:28.92Z</time></trkpt><trkpt lat="43.0731151" lon="13.2351556"><ele>475.0</ele><time>2026-04-29T14:49:29.938Z</time></trkpt><trkpt lat="43.0731313" lon="13.2349935"><ele>475.0</ele><time>2026-04-29T14:49:30.962Z</time></trkpt><trkpt lat="43.073148" lon="13.2348538"><ele>475.0</ele><time>2026-04-29T14:49:31.898Z</time></trkpt><trkpt lat="43.0731719" lon="13.2347293"><ele>475.0</ele><time>2026-04-29T14:49:32.936Z</time></trkpt><trkpt lat="43.0732342" lon="13.2346427"><ele>475.0</ele><time>2026-04-29T14:49:33.931Z</time></trkpt><trkpt lat="43.0732948" lon="13.2345586"><ele>475.0</ele><time>2026-04-29T14:49:34.91Z</time></trkpt><trkpt lat="43.0733721" lon="13.2344893"><ele>479.25</ele><time>2026-04-29T14:49:35.924Z</time></trkpt><trkpt lat="43.0734719" lon="13.234413"><ele>483.5</ele><time>2026-04-29T14:49:36.929Z</time></trkpt><trkpt lat="43.0735911" lon="13.2343523"><ele>487.75</ele><time>2026-04-29T14:49:37.926Z</time></trkpt><trkpt lat="43.0737163" lon="13.234247"><ele>492.0</ele><time>2026-04-29T14:49:38.931Z</time></trkpt><trkpt lat="43.0738469" lon="13.2341376"><ele>492.0</ele><time>2026-04-29T14:49:39.941Z</time></trkpt><trkpt lat="43.0739516" lon="13.234028"><ele>492.0</ele><time>2026-04-29T14:49:40.929Z</time></trkpt><trkpt lat="43.074053" lon="13.2339397"><ele>492.0</ele><time>2026-04-29T14:49:41.927Z</time></trkpt><trkpt lat="43.0741472" lon="13.2338776"><ele>492.0</ele><time>2026-04-29T14:49:42.916Z</time></trkpt><trkpt lat="43.0742502" lon="13.2338379"><ele>500.75</ele><time>2026-04-29T14:49:43.924Z</time></trkpt><trkpt lat="43.0743571" lon="13.2337976"><ele>509.5</ele><time>2026-04-29T14:49:44.916Z</time></trkpt><trkpt lat="43.0744932" lon="13.2337598"><ele>518.25</ele><time>2026-04-29T14:49:45.933Z</time></trkpt><trkpt lat="43.0746091" lon="13.2337399"><ele>527.0</ele><time>2026-04-29T14:49:46.924Z</time></trkpt><trkpt lat="43.0747156" lon="13.2337252"><ele>527.0</ele><time>2026-04-29T14:49:47.937Z</time></trkpt><trkpt lat="43.074808" lon="13.2337022"><ele>527.0</ele><time>2026-04-29T14:49:48.935Z</time></trkpt><trkpt lat="43.0748839" lon="13.233642"><ele>527.0</ele><time>2026-04-29T14:49:49.959Z</time></trkpt><trkpt lat="43.0749658" lon="13.2335703"><ele>527.0</ele><time>2026-04-29T14:49:50.922Z</time></trkpt><trkpt lat="43.0750539" lon="13.2335279"><ele>527.0</ele><time>2026-04-29T14:49:51.925Z</time></trkpt><trkpt lat="43.0751409" lon="13.2334907"><ele>528.8000000000001</ele><time>2026-04-29T14:49:52.922Z</time></trkpt><trkpt lat="43.0752402" lon="13.2334781"><ele>530.6</ele><time>2026-04-29T14:49:53.917Z</time></trkpt><trkpt lat="43.0753474" lon="13.2334653"><ele>532.4000000000001</ele><time>2026-04-29T14:49:54.934Z</time></trkpt><trkpt lat="43.0754493" lon="13.233452"><ele>534.2</ele><time>2026-04-29T14:49:55.925Z</time></trkpt><trkpt lat="43.0755578" lon="13.2334017"><ele>536.0</ele><time>2026-04-29T14:49:56.921Z</time></trkpt><trkpt lat="43.075672" lon="13.2333287"><ele>538.5</ele><time>2026-04-29T14:49:57.927Z</time></trkpt><trkpt lat="43.0757718" lon="13.233284"><ele>541.0</ele><time>2026-04-29T14:49:58.948Z</time></trkpt><trkpt lat="43.0758481" lon="13.2332635"><ele>543.5</ele><time>2026-04-29T14:49:59.922Z</time></trkpt><trkpt lat="43.0759337" lon="13.2332892"><ele>546.0</ele><time>2026-04-29T14:50:01.941Z</time></trkpt><trkpt lat="43.0759702" lon="13.2334049"><ele>548.5</ele><time>2026-04-29T14:50:03.956Z</time></trkpt><trkpt lat="43.0759364" lon="13.233501"><ele>551.0</ele><time>2026-04-29T14:50:04.91Z</time></trkpt><trkpt lat="43.075897" lon="13.2336122"><ele>551.0</ele><time>2026-04-29T14:50:05.916Z</time></trkpt><trkpt lat="43.0758254" lon="13.2337291"><ele>551.0</ele><time>2026-04-29T14:50:06.916Z</time></trkpt><trkpt lat="43.075737" lon="13.2338739"><ele>551.0</ele><time>2026-04-29T14:50:07.935Z</time></trkpt><trkpt lat="43.0756371" lon="13.2340346"><ele>551.0</ele><time>2026-04-29T14:50:08.929Z</time></trkpt><trkpt lat="43.0755444" lon="13.2341864"><ele>548.75</ele><time>2026-04-29T14:50:09.922Z</time></trkpt><trkpt lat="43.0754601" lon="13.2343401"><ele>546.5</ele><time>2026-04-29T14:50:10.98Z</time></trkpt><trkpt lat="43.0754007" lon="13.2345043"><ele>544.25</ele><time>2026-04-29T14:50:11.921Z</time></trkpt><trkpt lat="43.075359" lon="13.2346531"><ele>542.0</ele><time>2026-04-29T14:50:12.918Z</time></trkpt><trkpt lat="43.0753292" lon="13.2347831"><ele>545.8333333333333</ele><time>2026-04-29T14:50:13.942Z</time></trkpt><trkpt lat="43.0753546" lon="13.2348993"><ele>549.6666666666666</ele><time>2026-04-29T14:50:14.943Z</time></trkpt><trkpt lat="43.0753754" lon="13.2350137"><ele>553.5</ele><time>2026-04-29T14:50:15.934Z</time></trkpt><trkpt lat="43.0754306" lon="13.2350957"><ele>557.3333333333334</ele><time>2026-04-29T14:50:16.892Z</time></trkpt><trkpt lat="43.0754993" lon="13.2351543"><ele>561.1666666666667</ele><time>2026-04-29T14:50:17.927Z</time></trkpt><trkpt lat="43.0755619" lon="13.2352014"><ele>565.0</ele><time>2026-04-29T14:50:18.943Z</time></trkpt><trkpt lat="43.0756537" lon="13.2351953"><ele>565.0</ele><time>2026-04-29T14:50:19.91Z</time></trkpt><trkpt lat="43.0757526" lon="13.2351794"><ele>565.0</ele><time>2026-04-29T14:50:20.951Z</time></trkpt><trkpt lat="43.0758902" lon="13.2351441"><ele>565.0</ele><time>2026-04-29T14:50:21.923Z</time></trkpt><trkpt lat="43.0760451" lon="13.2351114"><ele>565.0</ele><time>2026-04-29T14:50:22.918Z</time></trkpt><trkpt lat="43.0762049" lon="13.2350813"><ele>567.5</ele><time>2026-04-29T14:50:23.918Z</time></trkpt><trkpt lat="43.0763644" lon="13.2350592"><ele>570.0</ele><time>2026-04-29T14:50:24.92Z</time></trkpt><trkpt lat="43.0765054" lon="13.235052"><ele>572.5</ele><time>2026-04-29T14:50:25.942Z</time></trkpt><trkpt lat="43.0766296" lon="13.2350458"><ele>575.0</ele><time>2026-04-29T14:50:26.933Z</time></trkpt><trkpt lat="43.0767339" lon="13.2350277"><ele>577.0</ele><time>2026-04-29T14:50:27.926Z</time></trkpt><trkpt lat="43.076817" lon="13.2349824"><ele>579.0</ele><time>2026-04-29T14:50:28.965Z</time></trkpt><trkpt lat="43.0768949" lon="13.2348913"><ele>581.0</ele><time>2026-04-29T14:50:29.936Z</time></trkpt><trkpt lat="43.0769762" lon="13.2347654"><ele>583.0</ele><time>2026-04-29T14:50:30.928Z</time></trkpt><trkpt lat="43.0770795" lon="13.2346436"><ele>583.0</ele><time>2026-04-29T14:50:31.944Z</time></trkpt><trkpt lat="43.0772039" lon="13.2345163"><ele>583.0</ele><time>2026-04-29T14:50:32.931Z</time></trkpt><trkpt lat="43.0773255" lon="13.2344118"><ele>583.0</ele><time>2026-04-29T14:50:33.926Z</time></trkpt><trkpt lat="43.0774228" lon="13.2343431"><ele>583.0</ele><time>2026-04-29T14:50:34.92Z</time></trkpt><trkpt lat="43.0775127" lon="13.23428"><ele>587.4</ele><time>2026-04-29T14:50:35.958Z</time></trkpt><trkpt lat="43.0776107" lon="13.2342593"><ele>591.8</ele><time>2026-04-29T14:50:36.959Z</time></trkpt><trkpt lat="43.0777309" lon="13.2342921"><ele>596.2</ele><time>2026-04-29T14:50:37.966Z</time></trkpt><trkpt lat="43.0778392" lon="13.2343249"><ele>600.6</ele><time>2026-04-29T14:50:38.939Z</time></trkpt><trkpt lat="43.0779464" lon="13.2342958"><ele>605.0</ele><time>2026-04-29T14:50:39.961Z</time></trkpt><trkpt lat="43.0780467" lon="13.2342591"><ele>605.0</ele><time>2026-04-29T14:50:40.924Z</time></trkpt><trkpt lat="43.0781408" lon="13.2342014"><ele>605.0</ele><time>2026-04-29T14:50:41.958Z</time></trkpt><trkpt lat="43.0782428" lon="13.2341003"><ele>605.0</ele><time>2026-04-29T14:50:42.931Z</time></trkpt><trkpt lat="43.0783533" lon="13.2339566"><ele>605.0</ele><time>2026-04-29T14:50:43.931Z</time></trkpt><trkpt lat="43.0784774" lon="13.2338015"><ele>607.5</ele><time>2026-04-29T14:50:44.935Z</time></trkpt><trkpt lat="43.0785881" lon="13.2336757"><ele>610.0</ele><time>2026-04-29T14:50:45.95Z</time></trkpt><trkpt lat="43.0786982" lon="13.2335692"><ele>612.5</ele><time>2026-04-29T14:50:46.915Z</time></trkpt><trkpt lat="43.0788133" lon="13.23347"><ele>615.0</ele><time>2026-04-29T14:50:47.945Z</time></trkpt><trkpt lat="43.0789289" lon="13.2334278"><ele>615.0</ele><time>2026-04-29T14:50:48.923Z</time></trkpt><trkpt lat="43.0790297" lon="13.2334036"><ele>615.0</ele><time>2026-04-29T14:50:49.929Z</time></trkpt><trkpt lat="43.0791212" lon="13.2333816"><ele>615.0</ele><time>2026-04-29T14:50:50.923Z</time></trkpt><trkpt lat="43.0792048" lon="13.2333728"><ele>615.0</ele><time>2026-04-29T14:50:51.934Z</time></trkpt><trkpt lat="43.0792997" lon="13.2333951"><ele>615.0</ele><time>2026-04-29T14:50:52.932Z</time></trkpt><trkpt lat="43.0794492" lon="13.2334602"><ele>621.5</ele><time>2026-04-29T14:50:53.929Z</time></trkpt><trkpt lat="43.0795898" lon="13.2335203"><ele>628.0</ele><time>2026-04-29T14:50:54.897Z</time></trkpt><trkpt lat="43.0797216" lon="13.2335694"><ele>634.5</ele><time>2026-04-29T14:50:55.895Z</time></trkpt><trkpt lat="43.0798404" lon="13.2336202"><ele>641.0</ele><time>2026-04-29T14:50:56.903Z</time></trkpt><trkpt lat="43.0799483" lon="13.2336616"><ele>645.1999999999999</ele><time>2026-04-29T14:50:57.886Z</time></trkpt><trkpt lat="43.0800534" lon="13.2337"><ele>649.4</ele><time>2026-04-29T14:50:58.923Z</time></trkpt><trkpt lat="43.0801601" lon="13.2337365"><ele>653.6</ele><time>2026-04-29T14:50:59.933Z</time></trkpt><trkpt lat="43.080275" lon="13.2337149"><ele>657.8</ele><time>2026-04-29T14:51:00.89Z</time></trkpt><trkpt lat="43.0803695" lon="13.2336534"><ele>662.0</ele><time>2026-04-29T14:51:01.933Z</time></trkpt><trkpt lat="43.0804369" lon="13.2335633"><ele>662.0</ele><time>2026-04-29T14:51:02.949Z</time></trkpt><trkpt lat="43.0805181" lon="13.2334925"><ele>662.0</ele><time>2026-04-29T14:51:03.941Z</time></trkpt><trkpt lat="43.080616" lon="13.2334669"><ele>662.0</ele><time>2026-04-29T14:51:04.94Z</time></trkpt><trkpt lat="43.0807326" lon="13.2334507"><ele>662.0</ele><time>2026-04-29T14:51:05.945Z</time></trkpt><trkpt lat="43.0808543" lon="13.2334368"><ele>662.0</ele><time>2026-04-29T14:51:06.899Z</time></trkpt><trkpt lat="43.0809845" lon="13.2334072"><ele>664.0</ele><time>2026-04-29T14:51:07.915Z</time></trkpt><trkpt lat="43.081132" lon="13.233356"><ele>666.0</ele><time>2026-04-29T14:51:08.923Z</time></trkpt><trkpt lat="43.0812638" lon="13.2332707"><ele>668.0</ele><time>2026-04-29T14:51:09.907Z</time></trkpt><trkpt lat="43.0813824" lon="13.2331862"><ele>670.0</ele><time>2026-04-29T14:51:10.935Z</time></trkpt><trkpt lat="43.0814899" lon="13.2330944"><ele>673.75</ele><time>2026-04-29T14:51:11.921Z</time></trkpt><trkpt lat="43.0815987" lon="13.2330089"><ele>677.5</ele><time>2026-04-29T14:51:12.91Z</time></trkpt><trkpt lat="43.0817113" lon="13.2329107"><ele>681.25</ele><time>2026-04-29T14:51:13.932Z</time></trkpt><trkpt lat="43.0817995" lon="13.2328291"><ele>685.0</ele><time>2026-04-29T14:51:14.923Z</time></trkpt><trkpt lat="43.0818861" lon="13.2327518"><ele>685.0</ele><time>2026-04-29T14:51:15.924Z</time></trkpt><trkpt lat="43.0819571" lon="13.2327005"><ele>685.0</ele><time>2026-04-29T14:51:16.912Z</time></trkpt><trkpt lat="43.0820287" lon="13.2326584"><ele>685.0</ele><time>2026-04-29T14:51:18.926Z</time></trkpt><trkpt lat="43.0820804" lon="13.2326086"><ele>685.0</ele><time>2026-04-29T14:51:20.911Z</time></trkpt><trkpt lat="43.082091" lon="13.2325172"><ele>685.0</ele><time>2026-04-29T14:51:24.911Z</time></trkpt><trkpt lat="43.0820233" lon="13.2325634"><ele>685.0</ele><time>2026-04-29T14:51:27.909Z</time></trkpt><trkpt lat="43.0819591" lon="13.2325801"><ele>685.0</ele><time>2026-04-29T14:51:41.915Z</time></trkpt><trkpt lat="43.0818858" lon="13.2326311"><ele>685.0</ele><time>2026-04-29T14:51:43.921Z</time></trkpt><trkpt lat="43.0818283" lon="13.2326662"><ele>685.0</ele><time>2026-04-29T14:51:44.911Z</time></trkpt><trkpt lat="43.0817201" lon="13.2327021"><ele>685.0</ele><time>2026-04-29T14:51:46.955Z</time></trkpt><trkpt lat="43.0816507" lon="13.2327111"><ele>685.0</ele><time>2026-04-29T14:51:47.939Z</time></trkpt><trkpt lat="43.0815785" lon="13.2327037"><ele>685.0</ele><time>2026-04-29T14:51:48.949Z</time></trkpt><trkpt lat="43.0815101" lon="13.2326906"><ele>685.0</ele><time>2026-04-29T14:51:49.897Z</time></trkpt><trkpt lat="43.0814014" lon="13.2326189"><ele>685.6666666666667</ele><time>2026-04-29T14:51:51.937Z</time></trkpt><trkpt lat="43.0813465" lon="13.2325746"><ele>686.3333333333334</ele><time>2026-04-29T14:51:52.912Z</time></trkpt><trkpt lat="43.0812728" lon="13.2325292"><ele>687.0</ele><time>2026-04-29T14:51:53.924Z</time></trkpt><trkpt lat="43.0812062" lon="13.2324838"><ele>687.6666666666666</ele><time>2026-04-29T14:51:54.923Z</time></trkpt><trkpt lat="43.081128" lon="13.2323913"><ele>688.3333333333333</ele><time>2026-04-29T14:51:55.912Z</time></trkpt><trkpt lat="43.0810693" lon="13.2322963"><ele>689.0</ele><time>2026-04-29T14:51:56.903Z</time></trkpt><trkpt lat="43.0810178" lon="13.2321973"><ele>693.0</ele><time>2026-04-29T14:51:57.92Z</time></trkpt><trkpt lat="43.080996" lon="13.232107"><ele>697.0</ele><time>2026-04-29T14:51:58.911Z</time></trkpt><trkpt lat="43.0810084" lon="13.2319783"><ele>701.0</ele><time>2026-04-29T14:52:00.925Z</time></trkpt><trkpt lat="43.0809799" lon="13.2318121"><ele>705.0</ele><time>2026-04-29T14:52:02.943Z</time></trkpt><trkpt lat="43.0809309" lon="13.231711"><ele>709.0</ele><time>2026-04-29T14:52:03.891Z</time></trkpt><trkpt lat="43.0808827" lon="13.2316215"><ele>709.0</ele><time>2026-04-29T14:52:04.927Z</time></trkpt><trkpt lat="43.0808277" lon="13.2315219"><ele>709.0</ele><time>2026-04-29T14:52:05.918Z</time></trkpt><trkpt lat="43.0807856" lon="13.2314319"><ele>709.0</ele><time>2026-04-29T14:52:06.898Z</time></trkpt><trkpt lat="43.0807489" lon="13.231342"><ele>709.0</ele><time>2026-04-29T14:52:07.918Z</time></trkpt><trkpt lat="43.080718" lon="13.2312613"><ele>709.0</ele><time>2026-04-29T14:52:08.945Z</time></trkpt><trkpt lat="43.080685" lon="13.231119"><ele>709.0</ele><time>2026-04-29T14:52:10.9Z</time></trkpt><trkpt lat="43.0807729" lon="13.2311272"><ele>714.0</ele><time>2026-04-29T14:52:18.895Z</time></trkpt><trkpt lat="43.0808943" lon="13.2312131"><ele>719.0</ele><time>2026-04-29T14:52:20.921Z</time></trkpt><trkpt lat="43.0809556" lon="13.2312569"><ele>724.0</ele><time>2026-04-29T14:52:21.935Z</time></trkpt><trkpt lat="43.0811148" lon="13.2313358"><ele>729.0</ele><time>2026-04-29T14:52:23.925Z</time></trkpt><trkpt lat="43.0812287" lon="13.2313827"><ele>729.0</ele><time>2026-04-29T14:52:25.9Z</time></trkpt><trkpt lat="43.0813036" lon="13.2314281"><ele>729.0</ele><time>2026-04-29T14:52:26.923Z</time></trkpt><trkpt lat="43.0813887" lon="13.2314574"><ele>729.0</ele><time>2026-04-29T14:52:27.903Z</time></trkpt><trkpt lat="43.0814723" lon="13.2314868"><ele>729.0</ele><time>2026-04-29T14:52:28.918Z</time></trkpt><trkpt lat="43.0815614" lon="13.2314788"><ele>729.0</ele><time>2026-04-29T14:52:29.921Z</time></trkpt><trkpt lat="43.0816511" lon="13.2314949"><ele>729.0</ele><time>2026-04-29T14:52:30.929Z</time></trkpt><trkpt lat="43.081728" lon="13.23149"><ele>729.3333333333334</ele><time>2026-04-29T14:52:31.903Z</time></trkpt><trkpt lat="43.0818013" lon="13.2314775"><ele>729.6666666666666</ele><time>2026-04-29T14:52:32.924Z</time></trkpt><trkpt lat="43.0818692" lon="13.2314625"><ele>730.0</ele><time>2026-04-29T14:52:33.912Z</time></trkpt><trkpt lat="43.0819353" lon="13.2314539"><ele>730.3333333333333</ele><time>2026-04-29T14:52:34.944Z</time></trkpt><trkpt lat="43.0820206" lon="13.2315428"><ele>730.6666666666666</ele><time>2026-04-29T14:52:36.894Z</time></trkpt><trkpt lat="43.0820953" lon="13.2316803"><ele>731.0</ele><time>2026-04-29T14:52:38.944Z</time></trkpt><trkpt lat="43.0821673" lon="13.2317416"><ele>726.8333333333333</ele><time>2026-04-29T14:52:39.952Z</time></trkpt><trkpt lat="43.0822491" lon="13.2318067"><ele>722.6666666666666</ele><time>2026-04-29T14:52:40.965Z</time></trkpt><trkpt lat="43.0823287" lon="13.2318909"><ele>718.5</ele><time>2026-04-29T14:52:41.904Z</time></trkpt><trkpt lat="43.0824002" lon="13.2319704"><ele>714.3333333333334</ele><time>2026-04-29T14:52:42.946Z</time></trkpt><trkpt lat="43.0824662" lon="13.2320337"><ele>710.1666666666667</ele><time>2026-04-29T14:52:43.929Z</time></trkpt><trkpt lat="43.0825266" lon="13.2320739"><ele>706.0</ele><time>2026-04-29T14:52:44.929Z</time></trkpt><trkpt lat="43.0825921" lon="13.2320997"><ele>705.6666666666667</ele><time>2026-04-29T14:52:45.939Z</time></trkpt><trkpt lat="43.0826657" lon="13.2320961"><ele>705.3333333333334</ele><time>2026-04-29T14:52:46.901Z</time></trkpt><trkpt lat="43.0827282" lon="13.2320717"><ele>705.0</ele><time>2026-04-29T14:52:47.937Z</time></trkpt><trkpt lat="43.0828292" lon="13.2320233"><ele>704.6666666666666</ele><time>2026-04-29T14:52:49.96Z</time></trkpt><trkpt lat="43.0828952" lon="13.2319847"><ele>704.3333333333333</ele><time>2026-04-29T14:52:50.92Z</time></trkpt><trkpt lat="43.0829493" lon="13.2319401"><ele>704.0</ele><time>2026-04-29T14:52:51.925Z</time></trkpt><trkpt lat="43.0830096" lon="13.2318913"><ele>704.0</ele><time>2026-04-29T14:52:52.937Z</time></trkpt><trkpt lat="43.0830593" lon="13.2318244"><ele>704.0</ele><time>2026-04-29T14:52:53.936Z</time></trkpt><trkpt lat="43.0831253" lon="13.2317526"><ele>704.0</ele><time>2026-04-29T14:52:54.921Z</time></trkpt><trkpt lat="43.0832015" lon="13.2317009"><ele>704.0</ele><time>2026-04-29T14:52:55.927Z</time></trkpt><trkpt lat="43.0832889" lon="13.2316517"><ele>704.0</ele><time>2026-04-29T14:52:56.886Z</time></trkpt><trkpt lat="43.0833806" lon="13.231624"><ele>704.0</ele><time>2026-04-29T14:52:57.927Z</time></trkpt><trkpt lat="43.0834584" lon="13.2316067"><ele>705.5</ele><time>2026-04-29T14:52:58.938Z</time></trkpt><trkpt lat="43.0835563" lon="13.2316007"><ele>707.0</ele><time>2026-04-29T14:53:00.945Z</time></trkpt><trkpt lat="43.0836539" lon="13.2315756"><ele>708.5</ele><time>2026-04-29T14:53:02.98Z</time></trkpt><trkpt lat="43.0837199" lon="13.231518"><ele>710.0</ele><time>2026-04-29T14:53:04.916Z</time></trkpt><trkpt lat="43.0837568" lon="13.2314352"><ele>711.5</ele><time>2026-04-29T14:53:06.904Z</time></trkpt><trkpt lat="43.0837504" lon="13.2313019"><ele>713.0</ele><time>2026-04-29T14:53:09.912Z</time></trkpt><trkpt lat="43.0837629" lon="13.2311902"><ele>713.0</ele><time>2026-04-29T14:53:11.896Z</time></trkpt><trkpt lat="43.0837615" lon="13.2310665"><ele>713.0</ele><time>2026-04-29T14:53:13.912Z</time></trkpt><trkpt lat="43.0837693" lon="13.2309405"><ele>713.0</ele><time>2026-04-29T14:53:15.922Z</time></trkpt><trkpt lat="43.0837908" lon="13.2308416"><ele>713.0</ele><time>2026-04-29T14:53:17.921Z</time></trkpt><trkpt lat="43.0838172" lon="13.2307483"><ele>713.0</ele><time>2026-04-29T14:53:19.913Z</time></trkpt><trkpt lat="43.083832" lon="13.2306372"><ele>713.0</ele><time>2026-04-29T14:53:20.9Z</time></trkpt><trkpt lat="43.0839207" lon="13.230543"><ele>713.5</ele><time>2026-04-29T14:53:22.903Z</time></trkpt><trkpt lat="43.0839719" lon="13.2304885"><ele>714.0</ele><time>2026-04-29T14:53:23.907Z</time></trkpt><trkpt lat="43.0840185" lon="13.2304304"><ele>714.5</ele><time>2026-04-29T14:53:24.926Z</time></trkpt><trkpt lat="43.0840658" lon="13.2303673"><ele>715.0</ele><time>2026-04-29T14:53:25.947Z</time></trkpt><trkpt lat="43.0841057" lon="13.2302777"><ele>715.5</ele><time>2026-04-29T14:53:26.902Z</time></trkpt><trkpt lat="43.0841376" lon="13.2301879"><ele>716.0</ele><time>2026-04-29T14:53:27.917Z</time></trkpt><trkpt lat="43.0842105" lon="13.2300307"><ele>716.0</ele><time>2026-04-29T14:53:29.931Z</time></trkpt><trkpt lat="43.0842911" lon="13.2299227"><ele>716.0</ele><time>2026-04-29T14:53:31.898Z</time></trkpt><trkpt lat="43.0843446" lon="13.2298593"><ele>716.0</ele><time>2026-04-29T14:53:32.935Z</time></trkpt><trkpt lat="43.0844258" lon="13.2297724"><ele>716.0</ele><time>2026-04-29T14:53:34.933Z</time></trkpt><trkpt lat="43.0844656" lon="13.2296655"><ele>716.0</ele><time>2026-04-29T14:53:35.926Z</time></trkpt><trkpt lat="43.0845187" lon="13.2295603"><ele>717.3333333333333</ele><time>2026-04-29T14:53:37.949Z</time></trkpt><trkpt lat="43.084595" lon="13.2295112"><ele>718.6666666666666</ele><time>2026-04-29T14:53:39.926Z</time></trkpt><trkpt lat="43.084687" lon="13.229468"><ele>720.0</ele><time>2026-04-29T14:53:41.915Z</time></trkpt><trkpt lat="43.0847497" lon="13.2294272"><ele>721.3333333333334</ele><time>2026-04-29T14:53:43.951Z</time></trkpt><trkpt lat="43.0848101" lon="13.229366"><ele>722.6666666666667</ele><time>2026-04-29T14:53:45.924Z</time></trkpt><trkpt lat="43.0848952" lon="13.2293033"><ele>724.0</ele><time>2026-04-29T14:53:47.903Z</time></trkpt><trkpt lat="43.085006" lon="13.229235"><ele>724.0</ele><time>2026-04-29T14:53:49.937Z</time></trkpt><trkpt lat="43.0850677" lon="13.229162"><ele>724.0</ele><time>2026-04-29T14:53:50.943Z</time></trkpt><trkpt lat="43.0851372" lon="13.2291017"><ele>724.0</ele><time>2026-04-29T14:53:51.922Z</time></trkpt><trkpt lat="43.0852314" lon="13.2289607"><ele>724.0</ele><time>2026-04-29T14:53:52.886Z</time></trkpt><trkpt lat="43.0853087" lon="13.2288428"><ele>724.0</ele><time>2026-04-29T14:53:54.913Z</time></trkpt><trkpt lat="43.0853614" lon="13.2287239"><ele>727.5</ele><time>2026-04-29T14:53:56.899Z</time></trkpt><trkpt lat="43.0853618" lon="13.2285615"><ele>731.0</ele><time>2026-04-29T14:53:58.912Z</time></trkpt><trkpt lat="43.0853465" lon="13.228468"><ele>734.5</ele><time>2026-04-29T14:53:59.952Z</time></trkpt><trkpt lat="43.0853462" lon="13.2283751"><ele>738.0</ele><time>2026-04-29T14:54:00.904Z</time></trkpt><trkpt lat="43.0853407" lon="13.2282491"><ele>741.5</ele><time>2026-04-29T14:54:02.901Z</time></trkpt><trkpt lat="43.0853349" lon="13.2281225"><ele>745.0</ele><time>2026-04-29T14:54:04.94Z</time></trkpt><trkpt lat="43.0853209" lon="13.2280234"><ele>748.8333333333334</ele><time>2026-04-29T14:54:07.951Z</time></trkpt><trkpt lat="43.0852945" lon="13.2279329"><ele>752.6666666666667</ele><time>2026-04-29T14:54:14.895Z</time></trkpt><trkpt lat="43.0852261" lon="13.2278999"><ele>756.5</ele><time>2026-04-29T14:54:17.952Z</time></trkpt><trkpt lat="43.0851565" lon="13.2279069"><ele>760.3333333333334</ele><time>2026-04-29T14:54:19.928Z</time></trkpt><trkpt lat="43.0850655" lon="13.2279319"><ele>764.1666666666666</ele><time>2026-04-29T14:54:21.916Z</time></trkpt><trkpt lat="43.0849824" lon="13.2279175"><ele>768.0</ele><time>2026-04-29T14:54:23.931Z</time></trkpt><trkpt lat="43.0848782" lon="13.2278618"><ele>773.8</ele><time>2026-04-29T14:54:25.897Z</time></trkpt><trkpt lat="43.084799" lon="13.2278438"><ele>779.5999999999999</ele><time>2026-04-29T14:54:27.945Z</time></trkpt><trkpt lat="43.0847018" lon="13.2278832"><ele>785.4000000000001</ele><time>2026-04-29T14:54:29.904Z</time></trkpt><trkpt lat="43.0846145" lon="13.2279429"><ele>791.2</ele><time>2026-04-29T14:54:30.936Z</time></trkpt><trkpt lat="43.0844959" lon="13.2280275"><ele>797.0</ele><time>2026-04-29T14:54:31.914Z</time></trkpt><trkpt lat="43.0844077" lon="13.2280719"><ele>797.0</ele><time>2026-04-29T14:54:32.924Z</time></trkpt><trkpt lat="43.0843078" lon="13.2281408"><ele>797.0</ele><time>2026-04-29T14:54:33.919Z</time></trkpt><trkpt lat="43.0842065" lon="13.2282399"><ele>797.0</ele><time>2026-04-29T14:54:34.962Z</time></trkpt><trkpt lat="43.0841107" lon="13.2283336"><ele>797.0</ele><time>2026-04-29T14:54:35.925Z</time></trkpt><trkpt lat="43.0840166" lon="13.2284196"><ele>796.6</ele><time>2026-04-29T14:54:36.919Z</time></trkpt><trkpt lat="43.083919" lon="13.2284989"><ele>796.2</ele><time>2026-04-29T14:54:37.93Z</time></trkpt><trkpt lat="43.0838309" lon="13.2285608"><ele>795.8</ele><time>2026-04-29T14:54:38.936Z</time></trkpt><trkpt lat="43.0837445" lon="13.2286107"><ele>795.4</ele><time>2026-04-29T14:54:39.927Z</time></trkpt><trkpt lat="43.083658" lon="13.228616"><ele>795.0</ele><time>2026-04-29T14:54:40.923Z</time></trkpt><trkpt lat="43.0835418" lon="13.2286202"><ele>795.0</ele><time>2026-04-29T14:54:41.935Z</time></trkpt><trkpt lat="43.0833938" lon="13.2286207"><ele>795.0</ele><time>2026-04-29T14:54:42.918Z</time></trkpt><trkpt lat="43.0832887" lon="13.2286146"><ele>795.0</ele><time>2026-04-29T14:54:43.914Z</time></trkpt><trkpt lat="43.0832105" lon="13.228617"><ele>795.0</ele><time>2026-04-29T14:54:44.917Z</time></trkpt><trkpt lat="43.0831442" lon="13.2286004"><ele>795.0</ele><time>2026-04-29T14:54:45.9Z</time></trkpt><trkpt lat="43.0830693" lon="13.2285487"><ele>796.0</ele><time>2026-04-29T14:54:46.974Z</time></trkpt><trkpt lat="43.0829996" lon="13.2284924"><ele>797.0</ele><time>2026-04-29T14:54:47.932Z</time></trkpt><trkpt lat="43.0829247" lon="13.2284475"><ele>798.0</ele><time>2026-04-29T14:54:48.911Z</time></trkpt><trkpt lat="43.0828236" lon="13.2284064"><ele>799.0</ele><time>2026-04-29T14:54:49.904Z</time></trkpt><trkpt lat="43.0827218" lon="13.2283842"><ele>800.0</ele><time>2026-04-29T14:54:50.926Z</time></trkpt><trkpt lat="43.0826238" lon="13.2283457"><ele>800.0</ele><time>2026-04-29T14:54:51.945Z</time></trkpt><trkpt lat="43.0825363" lon="13.2282954"><ele>800.0</ele><time>2026-04-29T14:54:52.955Z</time></trkpt><trkpt lat="43.0824456" lon="13.2282288"><ele>800.0</ele><time>2026-04-29T14:54:53.925Z</time></trkpt><trkpt lat="43.0823641" lon="13.2281561"><ele>800.0</ele><time>2026-04-29T14:54:54.955Z</time></trkpt><trkpt lat="43.0823067" lon="13.2280868"><ele>800.0</ele><time>2026-04-29T14:54:55.953Z</time></trkpt><trkpt lat="43.0822558" lon="13.2279807"><ele>804.6</ele><time>2026-04-29T14:54:57.932Z</time></trkpt><trkpt lat="43.0823088" lon="13.2278721"><ele>809.2</ele><time>2026-04-29T14:54:59.94Z</time></trkpt><trkpt lat="43.0824174" lon="13.2278234"><ele>813.8</ele><time>2026-04-29T14:55:01.887Z</time></trkpt><trkpt lat="43.0825238" lon="13.2277955"><ele>818.4</ele><time>2026-04-29T14:55:03.903Z</time></trkpt><trkpt lat="43.0825843" lon="13.227713"><ele>823.0</ele><time>2026-04-29T14:55:06.885Z</time></trkpt><trkpt lat="43.0825305" lon="13.2276295"><ele>823.0</ele><time>2026-04-29T14:55:08.878Z</time></trkpt><trkpt lat="43.0824566" lon="13.2275632"><ele>823.0</ele><time>2026-04-29T14:55:09.888Z</time></trkpt><trkpt lat="43.0823715" lon="13.2274937"><ele>823.0</ele><time>2026-04-29T14:55:10.877Z</time></trkpt><trkpt lat="43.0822808" lon="13.2274227"><ele>823.0</ele><time>2026-04-29T14:55:11.883Z</time></trkpt><trkpt lat="43.0822024" lon="13.2273518"><ele>823.0</ele><time>2026-04-29T14:55:12.886Z</time></trkpt><trkpt lat="43.0821345" lon="13.2272675"><ele>828.4</ele><time>2026-04-29T14:55:13.901Z</time></trkpt><trkpt lat="43.0820688" lon="13.2271619"><ele>833.8</ele><time>2026-04-29T14:55:14.881Z</time></trkpt><trkpt lat="43.0819986" lon="13.227023"><ele>839.2</ele><time>2026-04-29T14:55:15.879Z</time></trkpt><trkpt lat="43.0819336" lon="13.2268983"><ele>844.6</ele><time>2026-04-29T14:55:16.885Z</time></trkpt><trkpt lat="43.0818748" lon="13.2267994"><ele>850.0</ele><time>2026-04-29T14:55:17.872Z</time></trkpt><trkpt lat="43.0817897" lon="13.2267131"><ele>849.9999999999999</ele><time>2026-04-29T14:55:18.879Z</time></trkpt><trkpt lat="43.0817018" lon="13.226657"><ele>850.0</ele><time>2026-04-29T14:55:19.893Z</time></trkpt><trkpt lat="43.0816342" lon="13.2265947"><ele>850.0</ele><time>2026-04-29T14:55:20.885Z</time></trkpt><trkpt lat="43.0815721" lon="13.2265334"><ele>850.0</ele><time>2026-04-29T14:55:21.885Z</time></trkpt><trkpt lat="43.0815094" lon="13.2264664"><ele>849.9999999999999</ele><time>2026-04-29T14:55:22.872Z</time></trkpt><trkpt lat="43.0814434" lon="13.2263845"><ele>850.0</ele><time>2026-04-29T14:55:23.886Z</time></trkpt><trkpt lat="43.0813775" lon="13.2263078"><ele>853.3333333333333</ele><time>2026-04-29T14:55:24.881Z</time></trkpt><trkpt lat="43.0813159" lon="13.2262328"><ele>856.6666666666666</ele><time>2026-04-29T14:55:25.883Z</time></trkpt><trkpt lat="43.0812581" lon="13.2261518"><ele>860.0</ele><time>2026-04-29T14:55:26.879Z</time></trkpt><trkpt lat="43.0812077" lon="13.226079"><ele>863.3333333333333</ele><time>2026-04-29T14:55:27.88Z</time></trkpt><trkpt lat="43.0811502" lon="13.2260095"><ele>866.6666666666666</ele><time>2026-04-29T14:55:28.879Z</time></trkpt><trkpt lat="43.0810864" lon="13.2259389"><ele>870.0</ele><time>2026-04-29T14:55:29.875Z</time></trkpt><trkpt lat="43.0810075" lon="13.225854"><ele>870.0</ele><time>2026-04-29T14:55:30.881Z</time></trkpt><trkpt lat="43.0809368" lon="13.2257707"><ele>870.0</ele><time>2026-04-29T14:55:31.88Z</time></trkpt><trkpt lat="43.0808675" lon="13.2256874"><ele>870.0</ele><time>2026-04-29T14:55:32.878Z</time></trkpt><trkpt lat="43.0808049" lon="13.2256083"><ele>870.0</ele><time>2026-04-29T14:55:34.012Z</time></trkpt><trkpt lat="43.0807398" lon="13.2255159"><ele>870.0</ele><time>2026-04-29T14:55:35.026Z</time></trkpt><trkpt lat="43.0806175" lon="13.2252943"><ele>869.0</ele><time>2026-04-29T14:55:36.892Z</time></trkpt><trkpt lat="43.0805615" lon="13.2251901"><ele>868.0</ele><time>2026-04-29T14:55:37.876Z</time></trkpt><trkpt lat="43.0805134" lon="13.225082"><ele>867.0</ele><time>2026-04-29T14:55:38.872Z</time></trkpt><trkpt lat="43.0804769" lon="13.2249794"><ele>866.0</ele><time>2026-04-29T14:55:39.889Z</time></trkpt><trkpt lat="43.0804505" lon="13.2248679"><ele>865.0</ele><time>2026-04-29T14:55:40.876Z</time></trkpt><trkpt lat="43.0804249" lon="13.2247539"><ele>864.0</ele><time>2026-04-29T14:55:41.88Z</time></trkpt><trkpt lat="43.0803994" lon="13.2246367"><ele>866.5</ele><time>2026-04-29T14:55:42.879Z</time></trkpt><trkpt lat="43.0803721" lon="13.2245101"><ele>869.0</ele><time>2026-04-29T14:55:43.9Z</time></trkpt><trkpt lat="43.080352" lon="13.2243906"><ele>871.5</ele><time>2026-04-29T14:55:44.882Z</time></trkpt><trkpt lat="43.0803379" lon="13.224277"><ele>874.0</ele><time>2026-04-29T14:55:45.878Z</time></trkpt><trkpt lat="43.0803236" lon="13.2241624"><ele>876.5</ele><time>2026-04-29T14:55:46.879Z</time></trkpt><trkpt lat="43.0803158" lon="13.2240661"><ele>879.0</ele><time>2026-04-29T14:55:47.89Z</time></trkpt><trkpt lat="43.0803386" lon="13.2239295"><ele>879.0</ele><time>2026-04-29T14:55:49.87Z</time></trkpt><trkpt lat="43.080413" lon="13.223947"><ele>879.0</ele><time>2026-04-29T14:55:51.891Z</time></trkpt><trkpt lat="43.080501" lon="13.2240168"><ele>879.0</ele><time>2026-04-29T14:55:53.892Z</time></trkpt><trkpt lat="43.0805953" lon="13.2241151"><ele>879.0</ele><time>2026-04-29T14:55:55.887Z</time></trkpt><trkpt lat="43.0806536" lon="13.2241574"><ele>879.0</ele><time>2026-04-29T14:55:56.907Z</time></trkpt><trkpt lat="43.0807203" lon="13.2241972"><ele>879.0</ele><time>2026-04-29T14:55:57.902Z</time></trkpt><trkpt lat="43.0807952" lon="13.2242505"><ele>887.0</ele><time>2026-04-29T14:55:58.899Z</time></trkpt><trkpt lat="43.0808707" lon="13.2243001"><ele>895.0000000000001</ele><time>2026-04-29T14:55:59.994Z</time></trkpt><trkpt lat="43.0810248" lon="13.2243694"><ele>903.0000000000001</ele><time>2026-04-29T14:56:01.887Z</time></trkpt><trkpt lat="43.0811035" lon="13.2243972"><ele>911.0</ele><time>2026-04-29T14:56:02.898Z</time></trkpt><trkpt lat="43.0811832" lon="13.2244206"><ele>919.0</ele><time>2026-04-29T14:56:03.886Z</time></trkpt><trkpt lat="43.0812788" lon="13.2244228"><ele>919.0</ele><time>2026-04-29T14:56:04.907Z</time></trkpt><trkpt lat="43.081376" lon="13.2244178"><ele>919.0000000000001</ele><time>2026-04-29T14:56:05.907Z</time></trkpt><trkpt lat="43.0814693" lon="13.2244076"><ele>919.0000000000001</ele><time>2026-04-29T14:56:06.94Z</time></trkpt><trkpt lat="43.0815673" lon="13.2243838"><ele>919.0</ele><time>2026-04-29T14:56:07.885Z</time></trkpt><trkpt lat="43.0816616" lon="13.224365"><ele>919.0</ele><time>2026-04-29T14:56:08.923Z</time></trkpt><trkpt lat="43.0817597" lon="13.2243506"><ele>924.0</ele><time>2026-04-29T14:56:09.928Z</time></trkpt><trkpt lat="43.0818512" lon="13.2243325"><ele>929.0000000000001</ele><time>2026-04-29T14:56:10.952Z</time></trkpt><trkpt lat="43.0819488" lon="13.2242988"><ele>934.0000000000001</ele><time>2026-04-29T14:56:11.908Z</time></trkpt><trkpt lat="43.0820477" lon="13.2242768"><ele>939.0</ele><time>2026-04-29T14:56:12.926Z</time></trkpt><trkpt lat="43.082131" lon="13.2242414"><ele>944.0</ele><time>2026-04-29T14:56:13.923Z</time></trkpt><trkpt lat="43.0822147" lon="13.2242149"><ele>944.0000000000001</ele><time>2026-04-29T14:56:14.945Z</time></trkpt><trkpt lat="43.0822891" lon="13.2241697"><ele>944.0</ele><time>2026-04-29T14:56:15.899Z</time></trkpt><trkpt lat="43.0823648" lon="13.2241088"><ele>944.0</ele><time>2026-04-29T14:56:16.947Z</time></trkpt><trkpt lat="43.0824405" lon="13.2240295"><ele>944.0</ele><time>2026-04-29T14:56:17.909Z</time></trkpt><trkpt lat="43.0825173" lon="13.2239551"><ele>944.0000000000001</ele><time>2026-04-29T14:56:18.938Z</time></trkpt><trkpt lat="43.0825753" lon="13.2238847"><ele>944.0</ele><time>2026-04-29T14:56:19.938Z</time></trkpt><trkpt lat="43.08263" lon="13.2237946"><ele>947.6</ele><time>2026-04-29T14:56:21.931Z</time></trkpt><trkpt lat="43.0826194" lon="13.2236584"><ele>951.2</ele><time>2026-04-29T14:56:23.907Z</time></trkpt><trkpt lat="43.0825764" lon="13.2235037"><ele>954.8000000000001</ele><time>2026-04-29T14:56:25.936Z</time></trkpt><trkpt lat="43.0825354" lon="13.2234373"><ele>958.4000000000001</ele><time>2026-04-29T14:56:26.964Z</time></trkpt><trkpt lat="43.0824711" lon="13.2233028"><ele>962.0</ele><time>2026-04-29T14:56:28.926Z</time></trkpt><trkpt lat="43.0824685" lon="13.2231472"><ele>963.1666666666667</ele><time>2026-04-29T14:56:30.912Z</time></trkpt><trkpt lat="43.0825231" lon="13.22302"><ele>964.3333333333334</ele><time>2026-04-29T14:56:32.924Z</time></trkpt><trkpt lat="43.0825622" lon="13.2229443"><ele>965.5</ele><time>2026-04-29T14:56:33.897Z</time></trkpt><trkpt lat="43.0826077" lon="13.2228677"><ele>966.6666666666667</ele><time>2026-04-29T14:56:34.932Z</time></trkpt><trkpt lat="43.082661" lon="13.2228007"><ele>967.8333333333334</ele><time>2026-04-29T14:56:35.923Z</time></trkpt><trkpt lat="43.0827151" lon="13.2227459"><ele>969.0</ele><time>2026-04-29T14:56:36.908Z</time></trkpt><trkpt lat="43.0827701" lon="13.2227013"><ele>969.0</ele><time>2026-04-29T14:56:37.928Z</time></trkpt><trkpt lat="43.0828475" lon="13.2226289"><ele>969.0000000000001</ele><time>2026-04-29T14:56:39.946Z</time></trkpt><trkpt lat="43.0828811" lon="13.2225081"><ele>969.0000000000001</ele><time>2026-04-29T14:56:44.918Z</time></trkpt><trkpt lat="43.0828946" lon="13.2223737"><ele>969.0</ele><time>2026-04-29T14:56:46.909Z</time></trkpt><trkpt lat="43.0829003" lon="13.2222263"><ele>969.0</ele><time>2026-04-29T14:56:48.889Z</time></trkpt><trkpt lat="43.0828912" lon="13.2220572"><ele>970.5</ele><time>2026-04-29T14:56:50.911Z</time></trkpt><trkpt lat="43.0828765" lon="13.2219622"><ele>972.0</ele><time>2026-04-29T14:56:51.949Z</time></trkpt><trkpt lat="43.0828657" lon="13.2218702"><ele>973.5</ele><time>2026-04-29T14:56:52.901Z</time></trkpt><trkpt lat="43.0828574" lon="13.221775"><ele>975.0</ele><time>2026-04-29T14:56:53.897Z</time></trkpt><trkpt lat="43.0828603" lon="13.2216789"><ele>976.5</ele><time>2026-04-29T14:56:54.926Z</time></trkpt><trkpt lat="43.0828558" lon="13.2215832"><ele>978.0</ele><time>2026-04-29T14:56:55.939Z</time></trkpt><trkpt lat="43.0828331" lon="13.2214319"><ele>979.0</ele><time>2026-04-29T14:56:57.956Z</time></trkpt><trkpt lat="43.0828125" lon="13.2212878"><ele>980.0</ele><time>2026-04-29T14:56:59.961Z</time></trkpt><trkpt lat="43.0828125" lon="13.221119"><ele>981.0</ele><time>2026-04-29T14:57:01.953Z</time></trkpt><trkpt lat="43.0828191" lon="13.2210329"><ele>982.0</ele><time>2026-04-29T14:57:02.969Z</time></trkpt><trkpt lat="43.0828289" lon="13.2209466"><ele>983.0</ele><time>2026-04-29T14:57:03.916Z</time></trkpt><trkpt lat="43.0828679" lon="13.2207926"><ele>983.0000000000001</ele><time>2026-04-29T14:57:05.9Z</time></trkpt><trkpt lat="43.0829136" lon="13.22068"><ele>983.0</ele><time>2026-04-29T14:57:07.948Z</time></trkpt><trkpt lat="43.0829365" lon="13.2205766"><ele>983.0</ele><time>2026-04-29T14:57:09.909Z</time></trkpt><trkpt lat="43.0829913" lon="13.2204987"><ele>983.0</ele><time>2026-04-29T14:57:11.899Z</time></trkpt><trkpt lat="43.0830459" lon="13.2204136"><ele>983.0000000000001</ele><time>2026-04-29T14:57:13.885Z</time></trkpt><trkpt lat="43.0830796" lon="13.2203296"><ele>983.0</ele><time>2026-04-29T14:57:15.954Z</time></trkpt><trkpt lat="43.0831101" lon="13.2202232"><ele>983.5999999999999</ele><time>2026-04-29T14:57:17.945Z</time></trkpt><trkpt lat="43.0831419" lon="13.2200828"><ele>984.1999999999999</ele><time>2026-04-29T14:57:19.933Z</time></trkpt><trkpt lat="43.083184" lon="13.2199358"><ele>984.8</ele><time>2026-04-29T14:57:21.933Z</time></trkpt><trkpt lat="43.0832256" lon="13.2198054"><ele>985.4</ele><time>2026-04-29T14:57:23.906Z</time></trkpt><trkpt lat="43.0832632" lon="13.219686"><ele>986.0</ele><time>2026-04-29T14:57:25.914Z</time></trkpt><trkpt lat="43.0833042" lon="13.2195641"><ele>993.0</ele><time>2026-04-29T14:57:27.929Z</time></trkpt><trkpt lat="43.0833433" lon="13.2194415"><ele>999.9999999999999</ele><time>2026-04-29T14:57:29.957Z</time></trkpt><trkpt lat="43.0833956" lon="13.2193324"><ele>1006.9999999999999</ele><time>2026-04-29T14:57:31.94Z</time></trkpt><trkpt lat="43.0834545" lon="13.219208"><ele>1014.0</ele><time>2026-04-29T14:57:33.945Z</time></trkpt><trkpt lat="43.0834887" lon="13.2191239"><ele>1021.0</ele><time>2026-04-29T14:57:34.921Z</time></trkpt><trkpt lat="43.0835442" lon="13.2189917"><ele>1019.4</ele><time>2026-04-29T14:57:36.935Z</time></trkpt><trkpt lat="43.083584" lon="13.2188876"><ele>1017.8</ele><time>2026-04-29T14:57:38.888Z</time></trkpt><trkpt lat="43.0836176" lon="13.2187765"><ele>1016.1999999999999</ele><time>2026-04-29T14:57:40.935Z</time></trkpt><trkpt lat="43.0836621" lon="13.2186607"><ele>1014.5999999999999</ele><time>2026-04-29T14:57:42.903Z</time></trkpt><trkpt lat="43.0837189" lon="13.2185365"><ele>1013.0</ele><time>2026-04-29T14:57:44.915Z</time></trkpt><trkpt lat="43.0837751" lon="13.218437"><ele>1013.0</ele><time>2026-04-29T14:57:46.945Z</time></trkpt><trkpt lat="43.0838121" lon="13.2183393"><ele>1013.0</ele><time>2026-04-29T14:57:48.904Z</time></trkpt><trkpt lat="43.0838409" lon="13.2182342"><ele>1013.0</ele><time>2026-04-29T14:57:50.922Z</time></trkpt><trkpt lat="43.0838858" lon="13.2180971"><ele>1013.0</ele><time>2026-04-29T14:57:52.943Z</time></trkpt><trkpt lat="43.0839264" lon="13.2179565"><ele>1013.0</ele><time>2026-04-29T14:57:54.956Z</time></trkpt><trkpt lat="43.0839648" lon="13.2178294"><ele>1010.5999999999999</ele><time>2026-04-29T14:57:56.907Z</time></trkpt><trkpt lat="43.0840012" lon="13.2177096"><ele>1008.1999999999999</ele><time>2026-04-29T14:57:58.889Z</time></trkpt><trkpt lat="43.0840279" lon="13.2175708"><ele>1005.8</ele><time>2026-04-29T14:58:00.903Z</time></trkpt><trkpt lat="43.084075" lon="13.2174194"><ele>1003.4</ele><time>2026-04-29T14:58:02.942Z</time></trkpt><trkpt lat="43.0841141" lon="13.2172907"><ele>1001.0</ele><time>2026-04-29T14:58:04.901Z</time></trkpt><trkpt lat="43.0841603" lon="13.2171563"><ele>1009.4</ele><time>2026-04-29T14:58:06.9Z</time></trkpt><trkpt lat="43.0842163" lon="13.2169994"><ele>1017.8</ele><time>2026-04-29T14:58:08.891Z</time></trkpt><trkpt lat="43.0842864" lon="13.2168658"><ele>1026.1999999999998</ele><time>2026-04-29T14:58:10.921Z</time></trkpt><trkpt lat="43.0843691" lon="13.2167977"><ele>1034.6</ele><time>2026-04-29T14:58:12.919Z</time></trkpt><trkpt lat="43.0844296" lon="13.216739"><ele>1043.0</ele><time>2026-04-29T15:00:30.926Z</time></trkpt><trkpt lat="43.0844964" lon="13.2166285"><ele>1043.0</ele><time>2026-04-29T15:00:33.91Z</time></trkpt><trkpt lat="43.0845415" lon="13.2165521"><ele>1043.0</ele><time>2026-04-29T15:00:36.938Z</time></trkpt><trkpt lat="43.0845469" lon="13.2164454"><ele>1043.0</ele><time>2026-04-29T15:01:05.926Z</time></trkpt><trkpt lat="43.0845718" lon="13.2163655"><ele>1043.0</ele><time>2026-04-29T15:10:08.91Z</time></trkpt><trkpt lat="43.0846104" lon="13.216264"><ele>1043.0</ele><time>2026-04-29T15:10:11.894Z</time></trkpt><trkpt lat="43.0846286" lon="13.2161633"><ele>1043.0</ele><time>2026-04-29T15:10:13.938Z</time></trkpt><trkpt lat="43.0846517" lon="13.2160626"><ele>1040.8</ele><time>2026-04-29T15:10:15.906Z</time></trkpt><trkpt lat="43.0846755" lon="13.2159551"><ele>1038.6</ele><time>2026-04-29T15:10:18.927Z</time></trkpt><trkpt lat="43.0846941" lon="13.2158586"><ele>1036.4</ele><time>2026-04-29T15:10:20.963Z</time></trkpt><trkpt lat="43.0847004" lon="13.2157049"><ele>1034.2</ele><time>2026-04-29T15:10:22.927Z</time></trkpt><trkpt lat="43.0847029" lon="13.2155869"><ele>1032.0</ele><time>2026-04-29T15:10:24.91Z</time></trkpt><trkpt lat="43.0847004" lon="13.2154549"><ele>1031.6666666666667</ele><time>2026-04-29T15:10:26.947Z</time></trkpt><trkpt lat="43.0847031" lon="13.2153661"><ele>1031.3333333333333</ele><time>2026-04-29T15:10:27.928Z</time></trkpt><trkpt lat="43.0847" lon="13.2152393"><ele>1031.0</ele><time>2026-04-29T15:10:28.914Z</time></trkpt><trkpt lat="43.0846942" lon="13.2151416"><ele>1030.6666666666665</ele><time>2026-04-29T15:10:29.887Z</time></trkpt><trkpt lat="43.0847021" lon="13.2149863"><ele>1030.3333333333333</ele><time>2026-04-29T15:10:31.938Z</time></trkpt><trkpt lat="43.0847147" lon="13.2149018"><ele>1030.0</ele><time>2026-04-29T15:10:32.91Z</time></trkpt><trkpt lat="43.0847379" lon="13.2147461"><ele>1029.7142857142858</ele><time>2026-04-29T15:10:34.936Z</time></trkpt><trkpt lat="43.0847394" lon="13.2146496"><ele>1029.4285714285713</ele><time>2026-04-29T15:10:35.896Z</time></trkpt><trkpt lat="43.0847481" lon="13.2145501"><ele>1029.142857142857</ele><time>2026-04-29T15:10:36.907Z</time></trkpt><trkpt lat="43.0847558" lon="13.2144469"><ele>1028.857142857143</ele><time>2026-04-29T15:10:37.903Z</time></trkpt><trkpt lat="43.0847585" lon="13.2143402"><ele>1028.5714285714287</ele><time>2026-04-29T15:10:38.897Z</time></trkpt><trkpt lat="43.0847609" lon="13.2142362"><ele>1028.2857142857142</ele><time>2026-04-29T15:10:39.926Z</time></trkpt><trkpt lat="43.0847626" lon="13.2141329"><ele>1028.0</ele><time>2026-04-29T15:10:40.882Z</time></trkpt><trkpt lat="43.0847713" lon="13.2140281"><ele>1028.3333333333335</ele><time>2026-04-29T15:10:41.936Z</time></trkpt><trkpt lat="43.0847849" lon="13.2139216"><ele>1028.6666666666667</ele><time>2026-04-29T15:10:42.954Z</time></trkpt><trkpt lat="43.0847865" lon="13.2138304"><ele>1029.0</ele><time>2026-04-29T15:10:43.893Z</time></trkpt><trkpt lat="43.0847867" lon="13.2136807"><ele>1029.3333333333333</ele><time>2026-04-29T15:10:45.893Z</time></trkpt><trkpt lat="43.0848014" lon="13.2135776"><ele>1029.6666666666665</ele><time>2026-04-29T15:10:47.882Z</time></trkpt><trkpt lat="43.0848148" lon="13.2134597"><ele>1030.0</ele><time>2026-04-29T15:10:50.906Z</time></trkpt><trkpt lat="43.0847759" lon="13.213301"><ele>1030.0</ele><time>2026-04-29T15:10:52.945Z</time></trkpt><trkpt lat="43.0847666" lon="13.2132156"><ele>1030.0</ele><time>2026-04-29T15:10:53.955Z</time></trkpt><trkpt lat="43.0847529" lon="13.2130897"><ele>1030.0</ele><time>2026-04-29T15:10:55.904Z</time></trkpt><trkpt lat="43.0847329" lon="13.2129948"><ele>1030.0</ele><time>2026-04-29T15:10:57.886Z</time></trkpt><trkpt lat="43.0847017" lon="13.21287"><ele>1030.0</ele><time>2026-04-29T15:10:59.898Z</time></trkpt><trkpt lat="43.0846894" lon="13.2127385"><ele>1030.0</ele><time>2026-04-29T15:11:01.893Z</time></trkpt><trkpt lat="43.0846837" lon="13.2126458"><ele>1032.0</ele><time>2026-04-29T15:11:03.933Z</time></trkpt><trkpt lat="43.0846575" lon="13.2125435"><ele>1034.0</ele><time>2026-04-29T15:11:05.892Z</time></trkpt><trkpt lat="43.0846325" lon="13.2124157"><ele>1036.0</ele><time>2026-04-29T15:11:07.946Z</time></trkpt><trkpt lat="43.0846191" lon="13.2123265"><ele>1038.0</ele><time>2026-04-29T15:11:09.953Z</time></trkpt><trkpt lat="43.084641" lon="13.2122251"><ele>1040.0</ele><time>2026-04-29T15:11:13.914Z</time></trkpt><trkpt lat="43.084653" lon="13.2121372"><ele>1042.0</ele><time>2026-04-29T15:11:16.925Z</time></trkpt><trkpt lat="43.0846679" lon="13.2120388"><ele>1045.0</ele><time>2026-04-29T15:11:19.936Z</time></trkpt><trkpt lat="43.0847024" lon="13.2119275"><ele>1048.0</ele><time>2026-04-29T15:11:21.891Z</time></trkpt><trkpt lat="43.0847224" lon="13.211818"><ele>1051.0</ele><time>2026-04-29T15:11:23.934Z</time></trkpt><trkpt lat="43.0847055" lon="13.2117083"><ele>1054.0</ele><time>2026-04-29T15:11:26.889Z</time></trkpt><trkpt lat="43.0846672" lon="13.2116241"><ele>1057.0</ele><time>2026-04-29T15:11:28.939Z</time></trkpt><trkpt lat="43.0846169" lon="13.2115021"><ele>1060.0</ele><time>2026-04-29T15:11:30.923Z</time></trkpt><trkpt lat="43.0845822" lon="13.2114207"><ele>1061.5</ele><time>2026-04-29T15:11:32.934Z</time></trkpt><trkpt lat="43.084522" lon="13.2113436"><ele>1063.0</ele><time>2026-04-29T15:11:34.909Z</time></trkpt><trkpt lat="43.0844607" lon="13.2112625"><ele>1064.5</ele><time>2026-04-29T15:11:36.892Z</time></trkpt><trkpt lat="43.0844168" lon="13.2111586"><ele>1066.0</ele><time>2026-04-29T15:11:39.918Z</time></trkpt><trkpt lat="43.084379" lon="13.2110508"><ele>1067.5</ele><time>2026-04-29T15:11:41.927Z</time></trkpt><trkpt lat="43.0843197" lon="13.2109651"><ele>1069.0</ele><time>2026-04-29T15:11:43.914Z</time></trkpt><trkpt lat="43.0842822" lon="13.2108888"><ele>1069.0</ele><time>2026-04-29T15:11:45.896Z</time></trkpt><trkpt lat="43.0842546" lon="13.2107986"><ele>1069.0</ele><time>2026-04-29T15:11:48.937Z</time></trkpt><trkpt lat="43.0841991" lon="13.2106982"><ele>1069.0</ele><time>2026-04-29T15:11:50.891Z</time></trkpt><trkpt lat="43.0841468" lon="13.210589"><ele>1069.0</ele><time>2026-04-29T15:11:52.911Z</time></trkpt><trkpt lat="43.0841012" lon="13.2104965"><ele>1069.0</ele><time>2026-04-29T15:11:54.888Z</time></trkpt><trkpt lat="43.0840497" lon="13.2103834"><ele>1069.0</ele><time>2026-04-29T15:11:56.906Z</time></trkpt><trkpt lat="43.0840164" lon="13.2102627"><ele>1073.3333333333333</ele><time>2026-04-29T15:11:58.92Z</time></trkpt><trkpt lat="43.0840053" lon="13.2101464"><ele>1077.6666666666665</ele><time>2026-04-29T15:12:00.919Z</time></trkpt><trkpt lat="43.0840096" lon="13.2100164"><ele>1082.0</ele><time>2026-04-29T15:12:02.898Z</time></trkpt><trkpt lat="43.0840285" lon="13.2099201"><ele>1086.3333333333333</ele><time>2026-04-29T15:12:04.901Z</time></trkpt><trkpt lat="43.0840516" lon="13.2098381"><ele>1090.6666666666667</ele><time>2026-04-29T15:12:06.91Z</time></trkpt><trkpt lat="43.0840668" lon="13.2097479"><ele>1095.0</ele><time>2026-04-29T15:12:08.903Z</time></trkpt><trkpt lat="43.0840896" lon="13.2096228"><ele>1093.6666666666667</ele><time>2026-04-29T15:12:11.905Z</time></trkpt><trkpt lat="43.0841143" lon="13.2095147"><ele>1092.3333333333333</ele><time>2026-04-29T15:12:14.913Z</time></trkpt><trkpt lat="43.0841564" lon="13.2094331"><ele>1091.0</ele><time>2026-04-29T15:12:16.901Z</time></trkpt><trkpt lat="43.0841999" lon="13.2093524"><ele>1089.6666666666665</ele><time>2026-04-29T15:12:17.908Z</time></trkpt><trkpt lat="43.0842557" lon="13.2092342"><ele>1088.3333333333333</ele><time>2026-04-29T15:12:19.905Z</time></trkpt><trkpt lat="43.0843088" lon="13.2091165"><ele>1087.0</ele><time>2026-04-29T15:12:21.914Z</time></trkpt><trkpt lat="43.0843529" lon="13.2090019"><ele>1088.1666666666665</ele><time>2026-04-29T15:12:23.936Z</time></trkpt><trkpt lat="43.084415" lon="13.2088746"><ele>1089.3333333333333</ele><time>2026-04-29T15:12:25.939Z</time></trkpt><trkpt lat="43.0844644" lon="13.2087218"><ele>1090.5</ele><time>2026-04-29T15:12:27.924Z</time></trkpt><trkpt lat="43.0844925" lon="13.2086398"><ele>1091.6666666666667</ele><time>2026-04-29T15:12:28.922Z</time></trkpt><trkpt lat="43.0845138" lon="13.2085572"><ele>1092.8333333333335</ele><time>2026-04-29T15:12:29.934Z</time></trkpt><trkpt lat="43.0845421" lon="13.2084756"><ele>1094.0</ele><time>2026-04-29T15:12:30.941Z</time></trkpt><trkpt lat="43.0846151" lon="13.2083463"><ele>1094.0</ele><time>2026-04-29T15:12:32.917Z</time></trkpt><trkpt lat="43.0846846" lon="13.208249"><ele>1094.0</ele><time>2026-04-29T15:12:34.909Z</time></trkpt><trkpt lat="43.0847362" lon="13.2081511"><ele>1094.0</ele><time>2026-04-29T15:12:36.906Z</time></trkpt><trkpt lat="43.0847471" lon="13.2080577"><ele>1094.0</ele><time>2026-04-29T15:12:38.923Z</time></trkpt><trkpt lat="43.0847422" lon="13.2079603"><ele>1094.0</ele><time>2026-04-29T15:12:40.906Z</time></trkpt><trkpt lat="43.0847389" lon="13.2078657"><ele>1094.0</ele><time>2026-04-29T15:12:43.94Z</time></trkpt><trkpt lat="43.0847342" lon="13.2077569"><ele>1095.6666666666667</ele><time>2026-04-29T15:12:47.929Z</time></trkpt><trkpt lat="43.0847394" lon="13.2076358"><ele>1097.3333333333335</ele><time>2026-04-29T15:12:50.929Z</time></trkpt><trkpt lat="43.084751" lon="13.2075405"><ele>1099.0</ele><time>2026-04-29T15:12:52.972Z</time></trkpt><trkpt lat="43.0847574" lon="13.2074337"><ele>1100.6666666666667</ele><time>2026-04-29T15:12:54.904Z</time></trkpt><trkpt lat="43.0847643" lon="13.2072755"><ele>1102.3333333333333</ele><time>2026-04-29T15:12:56.914Z</time></trkpt><trkpt lat="43.084771" lon="13.2071854"><ele>1104.0</ele><time>2026-04-29T15:12:57.887Z</time></trkpt><trkpt lat="43.0847783" lon="13.2070983"><ele>1104.5714285714287</ele><time>2026-04-29T15:12:58.924Z</time></trkpt><trkpt lat="43.0847834" lon="13.207002"><ele>1105.1428571428573</ele><time>2026-04-29T15:12:59.929Z</time></trkpt><trkpt lat="43.0847882" lon="13.2069079"><ele>1105.7142857142858</ele><time>2026-04-29T15:13:00.901Z</time></trkpt><trkpt lat="43.0847871" lon="13.206812"><ele>1106.2857142857142</ele><time>2026-04-29T15:13:01.923Z</time></trkpt><trkpt lat="43.0847837" lon="13.2067153"><ele>1106.8571428571427</ele><time>2026-04-29T15:13:02.913Z</time></trkpt><trkpt lat="43.0847784" lon="13.2066186"><ele>1107.4285714285713</ele><time>2026-04-29T15:13:03.921Z</time></trkpt><trkpt lat="43.0847739" lon="13.2065228"><ele>1108.0</ele><time>2026-04-29T15:13:04.964Z</time></trkpt><trkpt lat="43.0847739" lon="13.2064259"><ele>1108.5</ele><time>2026-04-29T15:13:05.942Z</time></trkpt><trkpt lat="43.0847739" lon="13.2063156"><ele>1109.0</ele><time>2026-04-29T15:13:06.907Z</time></trkpt><trkpt lat="43.0847729" lon="13.2062013"><ele>1109.5</ele><time>2026-04-29T15:13:07.936Z</time></trkpt><trkpt lat="43.0847648" lon="13.2060904"><ele>1110.0</ele><time>2026-04-29T15:13:08.93Z</time></trkpt><trkpt lat="43.0847559" lon="13.2059925"><ele>1110.5</ele><time>2026-04-29T15:13:09.918Z</time></trkpt><trkpt lat="43.0847443" lon="13.2058402"><ele>1111.0</ele><time>2026-04-29T15:13:11.9Z</time></trkpt><trkpt lat="43.084743" lon="13.205691"><ele>1111.1666666666665</ele><time>2026-04-29T15:13:13.931Z</time></trkpt><trkpt lat="43.0847404" lon="13.2056015"><ele>1111.3333333333333</ele><time>2026-04-29T15:13:14.933Z</time></trkpt><trkpt lat="43.0847365" lon="13.2055095"><ele>1111.5</ele><time>2026-04-29T15:13:15.93Z</time></trkpt><trkpt lat="43.0847314" lon="13.2054207"><ele>1111.6666666666667</ele><time>2026-04-29T15:13:16.878Z</time></trkpt><trkpt lat="43.0847187" lon="13.2052613"><ele>1111.8333333333335</ele><time>2026-04-29T15:13:18.929Z</time></trkpt><trkpt lat="43.0847177" lon="13.2051113"><ele>1112.0</ele><time>2026-04-29T15:13:20.9Z</time></trkpt><trkpt lat="43.0847176" lon="13.2050242"><ele>1112.0</ele><time>2026-04-29T15:13:21.907Z</time></trkpt><trkpt lat="43.0847136" lon="13.2049297"><ele>1112.0</ele><time>2026-04-29T15:13:22.927Z</time></trkpt><trkpt lat="43.0846946" lon="13.2047717"><ele>1112.0</ele><time>2026-04-29T15:13:24.937Z</time></trkpt><trkpt lat="43.0846624" lon="13.2046349"><ele>1112.0</ele><time>2026-04-29T15:13:26.885Z</time></trkpt><trkpt lat="43.0846521" lon="13.2044751"><ele>1112.0</ele><time>2026-04-29T15:13:28.928Z</time></trkpt><trkpt lat="43.0846534" lon="13.2043755"><ele>1111.7142857142858</ele><time>2026-04-29T15:13:29.909Z</time></trkpt><trkpt lat="43.0846549" lon="13.2042666"><ele>1111.4285714285716</ele><time>2026-04-29T15:13:30.924Z</time></trkpt><trkpt lat="43.0846538" lon="13.2041596"><ele>1111.1428571428573</ele><time>2026-04-29T15:13:31.891Z</time></trkpt><trkpt lat="43.0846621" lon="13.2040631"><ele>1110.857142857143</ele><time>2026-04-29T15:13:32.928Z</time></trkpt><trkpt lat="43.0846695" lon="13.2039699"><ele>1110.5714285714287</ele><time>2026-04-29T15:13:33.882Z</time></trkpt><trkpt lat="43.0846799" lon="13.203874"><ele>1110.2857142857144</ele><time>2026-04-29T15:13:34.896Z</time></trkpt><trkpt lat="43.0846922" lon="13.2037666"><ele>1110.0</ele><time>2026-04-29T15:13:35.899Z</time></trkpt><trkpt lat="43.0847068" lon="13.2036572"><ele>1109.8333333333333</ele><time>2026-04-29T15:13:36.894Z</time></trkpt><trkpt lat="43.0847221" lon="13.2035568"><ele>1109.6666666666667</ele><time>2026-04-29T15:13:37.92Z</time></trkpt><trkpt lat="43.0847331" lon="13.2034504"><ele>1109.5</ele><time>2026-04-29T15:13:38.921Z</time></trkpt><trkpt lat="43.0847484" lon="13.2033341"><ele>1109.3333333333335</ele><time>2026-04-29T15:13:39.91Z</time></trkpt><trkpt lat="43.0847633" lon="13.2032193"><ele>1109.1666666666667</ele><time>2026-04-29T15:13:40.911Z</time></trkpt><trkpt lat="43.0847745" lon="13.2031089"><ele>1109.0</ele><time>2026-04-29T15:13:41.888Z</time></trkpt><trkpt lat="43.0847825" lon="13.2030092"><ele>1109.3333333333335</ele><time>2026-04-29T15:13:42.926Z</time></trkpt><trkpt lat="43.0847908" lon="13.2029087"><ele>1109.6666666666667</ele><time>2026-04-29T15:13:43.974Z</time></trkpt><trkpt lat="43.0847937" lon="13.2027942"><ele>1110.0</ele><time>2026-04-29T15:13:44.945Z</time></trkpt><trkpt lat="43.0847977" lon="13.2026738"><ele>1110.3333333333333</ele><time>2026-04-29T15:13:45.929Z</time></trkpt><trkpt lat="43.0848037" lon="13.202555"><ele>1110.6666666666665</ele><time>2026-04-29T15:13:46.893Z</time></trkpt><trkpt lat="43.0848065" lon="13.202465"><ele>1111.0</ele><time>2026-04-29T15:13:47.903Z</time></trkpt><trkpt lat="43.0847811" lon="13.202322"><ele>1110.2</ele><time>2026-04-29T15:13:49.946Z</time></trkpt><trkpt lat="43.0847496" lon="13.2021959"><ele>1109.3999999999999</ele><time>2026-04-29T15:13:51.911Z</time></trkpt><trkpt lat="43.0847002" lon="13.2020582"><ele>1108.6</ele><time>2026-04-29T15:13:53.958Z</time></trkpt><trkpt lat="43.0846461" lon="13.2019286"><ele>1107.8</ele><time>2026-04-29T15:13:55.928Z</time></trkpt><trkpt lat="43.084586" lon="13.2017855"><ele>1107.0</ele><time>2026-04-29T15:13:57.922Z</time></trkpt><trkpt lat="43.0845533" lon="13.2017048"><ele>1107.0</ele><time>2026-04-29T15:13:58.952Z</time></trkpt><trkpt lat="43.0845207" lon="13.201626"><ele>1107.0</ele><time>2026-04-29T15:13:59.904Z</time></trkpt><trkpt lat="43.0844848" lon="13.2015475"><ele>1107.0</ele><time>2026-04-29T15:14:00.918Z</time></trkpt><trkpt lat="43.0844438" lon="13.2014701"><ele>1107.0</ele><time>2026-04-29T15:14:01.889Z</time></trkpt><trkpt lat="43.0844045" lon="13.2013857"><ele>1107.0</ele><time>2026-04-29T15:14:02.911Z</time></trkpt><trkpt lat="43.0843622" lon="13.2012838"><ele>1107.0</ele><time>2026-04-29T15:14:03.917Z</time></trkpt><trkpt lat="43.0843204" lon="13.2011861"><ele>1107.0</ele><time>2026-04-29T15:14:04.937Z</time></trkpt><trkpt lat="43.084284" lon="13.2010898"><ele>1106.8</ele><time>2026-04-29T15:14:05.879Z</time></trkpt><trkpt lat="43.0842475" lon="13.2009874"><ele>1106.6</ele><time>2026-04-29T15:14:06.89Z</time></trkpt><trkpt lat="43.0842123" lon="13.2008695"><ele>1106.3999999999999</ele><time>2026-04-29T15:14:07.929Z</time></trkpt><trkpt lat="43.0841748" lon="13.2007535"><ele>1106.2</ele><time>2026-04-29T15:14:08.934Z</time></trkpt><trkpt lat="43.0841327" lon="13.2006226"><ele>1106.0</ele><time>2026-04-29T15:14:09.901Z</time></trkpt><trkpt lat="43.0840935" lon="13.2004977"><ele>1105.6</ele><time>2026-04-29T15:14:10.911Z</time></trkpt><trkpt lat="43.0840545" lon="13.2003753"><ele>1105.1999999999998</ele><time>2026-04-29T15:14:11.923Z</time></trkpt><trkpt lat="43.0840143" lon="13.2002539"><ele>1104.8000000000002</ele><time>2026-04-29T15:14:12.924Z</time></trkpt><trkpt lat="43.0839786" lon="13.2001336"><ele>1104.4</ele><time>2026-04-29T15:14:13.944Z</time></trkpt><trkpt lat="43.083945" lon="13.2000177"><ele>1104.0</ele><time>2026-04-29T15:14:14.931Z</time></trkpt><trkpt lat="43.0839152" lon="13.1999071"><ele>1102.3333333333333</ele><time>2026-04-29T15:14:15.939Z</time></trkpt><trkpt lat="43.083884" lon="13.1997958"><ele>1100.6666666666667</ele><time>2026-04-29T15:14:16.89Z</time></trkpt><trkpt lat="43.0838514" lon="13.1996966"><ele>1099.0</ele><time>2026-04-29T15:14:17.926Z</time></trkpt><trkpt lat="43.083821" lon="13.1996063"><ele>1097.3333333333335</ele><time>2026-04-29T15:14:18.936Z</time></trkpt><trkpt lat="43.0837937" lon="13.1995251"><ele>1095.6666666666667</ele><time>2026-04-29T15:14:19.911Z</time></trkpt><trkpt lat="43.0837686" lon="13.1994454"><ele>1094.0</ele><time>2026-04-29T15:14:20.922Z</time></trkpt><trkpt lat="43.0837318" lon="13.1993014"><ele>1094.0</ele><time>2026-04-29T15:14:22.929Z</time></trkpt><trkpt lat="43.0837046" lon="13.1991691"><ele>1094.0</ele><time>2026-04-29T15:14:24.93Z</time></trkpt><trkpt lat="43.0836874" lon="13.1990427"><ele>1094.0</ele><time>2026-04-29T15:14:26.931Z</time></trkpt><trkpt lat="43.0836728" lon="13.1989034"><ele>1094.0</ele><time>2026-04-29T15:14:28.929Z</time></trkpt><trkpt lat="43.0836519" lon="13.1987535"><ele>1094.0</ele><time>2026-04-29T15:14:30.922Z</time></trkpt><trkpt lat="43.0836093" lon="13.1986041"><ele>1093.2</ele><time>2026-04-29T15:14:32.929Z</time></trkpt><trkpt lat="43.0835459" lon="13.1984612"><ele>1092.4</ele><time>2026-04-29T15:14:34.929Z</time></trkpt><trkpt lat="43.0834718" lon="13.1983437"><ele>1091.6</ele><time>2026-04-29T15:14:36.924Z</time></trkpt><trkpt lat="43.0834063" lon="13.1982711"><ele>1090.8</ele><time>2026-04-29T15:14:38.967Z</time></trkpt><trkpt lat="43.0833456" lon="13.1982123"><ele>1090.0</ele><time>2026-04-29T15:14:41.904Z</time></trkpt><trkpt lat="43.0833044" lon="13.1981182"><ele>1090.0</ele><time>2026-04-29T15:14:45.924Z</time></trkpt><trkpt lat="43.083279" lon="13.1980342"><ele>1090.0</ele><time>2026-04-29T15:15:10.962Z</time></trkpt><trkpt lat="43.083213" lon="13.1980911"><ele>1090.0</ele><time>2026-04-29T15:15:15.887Z</time></trkpt><trkpt lat="43.0832068" lon="13.1982029"><ele>1090.0</ele><time>2026-04-29T15:15:18.925Z</time></trkpt><trkpt lat="43.0831659" lon="13.1983091"><ele>1090.0</ele><time>2026-04-29T15:15:21.887Z</time></trkpt><trkpt lat="43.0830958" lon="13.1983583"><ele>1090.0</ele><time>2026-04-29T15:15:23.919Z</time></trkpt><trkpt lat="43.0829886" lon="13.1983621"><ele>1088.3333333333333</ele><time>2026-04-29T15:15:25.919Z</time></trkpt><trkpt lat="43.0829125" lon="13.1983303"><ele>1086.6666666666665</ele><time>2026-04-29T15:15:27.877Z</time></trkpt><trkpt lat="43.0828552" lon="13.1982755"><ele>1085.0</ele><time>2026-04-29T15:15:30.89Z</time></trkpt><trkpt lat="43.082789" lon="13.1982381"><ele>1083.3333333333333</ele><time>2026-04-29T15:16:00.924Z</time></trkpt><trkpt lat="43.0828098" lon="13.1981428"><ele>1081.6666666666667</ele><time>2026-04-29T15:16:04.937Z</time></trkpt><trkpt lat="43.0828785" lon="13.1981199"><ele>1080.0</ele><time>2026-04-29T15:16:07.871Z</time></trkpt><trkpt lat="43.08296" lon="13.1981751"><ele>1080.0</ele><time>2026-04-29T15:16:10.904Z</time></trkpt><trkpt lat="43.0830012" lon="13.1982562"><ele>1080.0</ele><time>2026-04-29T15:16:12.874Z</time></trkpt><trkpt lat="43.083009" lon="13.198369"><ele>1080.0</ele><time>2026-04-29T15:16:14.948Z</time></trkpt><trkpt lat="43.0830673" lon="13.198458"><ele>1080.0</ele><time>2026-04-29T15:16:16.907Z</time></trkpt><trkpt lat="43.0831819" lon="13.1985591"><ele>1080.0</ele><time>2026-04-29T15:16:18.927Z</time></trkpt><trkpt lat="43.0832573" lon="13.1986308"><ele>1082.0</ele><time>2026-04-29T15:16:19.931Z</time></trkpt><trkpt lat="43.0833561" lon="13.1987268"><ele>1084.0</ele><time>2026-04-29T15:16:20.922Z</time></trkpt><trkpt lat="43.0834526" lon="13.1988128"><ele>1086.0</ele><time>2026-04-29T15:16:21.935Z</time></trkpt><trkpt lat="43.0835263" lon="13.1988857"><ele>1088.0</ele><time>2026-04-29T15:16:22.893Z</time></trkpt><trkpt lat="43.0835815" lon="13.1989562"><ele>1090.0</ele><time>2026-04-29T15:16:23.933Z</time></trkpt><trkpt lat="43.0836266" lon="13.199037"><ele>1090.6666666666665</ele><time>2026-04-29T15:16:24.909Z</time></trkpt><trkpt lat="43.0836777" lon="13.1991227"><ele>1091.3333333333333</ele><time>2026-04-29T15:16:25.935Z</time></trkpt><trkpt lat="43.0837191" lon="13.1992269"><ele>1092.0</ele><time>2026-04-29T15:16:26.912Z</time></trkpt><trkpt lat="43.0837551" lon="13.1993432"><ele>1092.6666666666667</ele><time>2026-04-29T15:16:27.9Z</time></trkpt><trkpt lat="43.0837758" lon="13.1994332"><ele>1093.3333333333335</ele><time>2026-04-29T15:16:28.929Z</time></trkpt><trkpt lat="43.0838067" lon="13.1995293"><ele>1094.0</ele><time>2026-04-29T15:16:29.93Z</time></trkpt><trkpt lat="43.0838473" lon="13.199621"><ele>1094.0</ele><time>2026-04-29T15:16:30.942Z</time></trkpt><trkpt lat="43.0838932" lon="13.1996959"><ele>1094.0</ele><time>2026-04-29T15:16:31.919Z</time></trkpt><trkpt lat="43.0839491" lon="13.1997501"><ele>1094.0</ele><time>2026-04-29T15:16:32.906Z</time></trkpt><trkpt lat="43.0840126" lon="13.1997809"><ele>1094.0</ele><time>2026-04-29T15:16:33.926Z</time></trkpt><trkpt lat="43.0840767" lon="13.1997952"><ele>1094.0</ele><time>2026-04-29T15:16:34.93Z</time></trkpt><trkpt lat="43.0841415" lon="13.1997844"><ele>1094.0</ele><time>2026-04-29T15:16:35.937Z</time></trkpt><trkpt lat="43.0842087" lon="13.1997735"><ele>1094.0</ele><time>2026-04-29T15:16:36.918Z</time></trkpt><trkpt lat="43.0842812" lon="13.199753"><ele>1096.0</ele><time>2026-04-29T15:16:37.904Z</time></trkpt><trkpt lat="43.0843543" lon="13.1997389"><ele>1098.0</ele><time>2026-04-29T15:16:38.912Z</time></trkpt><trkpt lat="43.0844303" lon="13.1997263"><ele>1100.0</ele><time>2026-04-29T15:16:39.94Z</time></trkpt><trkpt lat="43.0845118" lon="13.1997251"><ele>1102.0</ele><time>2026-04-29T15:16:40.915Z</time></trkpt><trkpt lat="43.0845983" lon="13.1997252"><ele>1104.0</ele><time>2026-04-29T15:16:41.885Z</time></trkpt><trkpt lat="43.0846874" lon="13.1997327"><ele>1106.0</ele><time>2026-04-29T15:16:42.908Z</time></trkpt><trkpt lat="43.084785" lon="13.1997487"><ele>1106.0</ele><time>2026-04-29T15:16:43.908Z</time></trkpt><trkpt lat="43.0848863" lon="13.1997652"><ele>1106.0</ele><time>2026-04-29T15:16:44.915Z</time></trkpt><trkpt lat="43.0850031" lon="13.1997797"><ele>1106.0</ele><time>2026-04-29T15:16:45.925Z</time></trkpt><trkpt lat="43.0851011" lon="13.19979"><ele>1106.0</ele><time>2026-04-29T15:16:46.918Z</time></trkpt><trkpt lat="43.0851895" lon="13.1997985"><ele>1106.0</ele><time>2026-04-29T15:16:47.917Z</time></trkpt><trkpt lat="43.0852721" lon="13.1998056"><ele>1109.1666666666667</ele><time>2026-04-29T15:16:48.924Z</time></trkpt><trkpt lat="43.085355" lon="13.1998115"><ele>1112.3333333333335</ele><time>2026-04-29T15:16:49.919Z</time></trkpt><trkpt lat="43.0854366" lon="13.1998019"><ele>1115.5</ele><time>2026-04-29T15:16:50.937Z</time></trkpt><trkpt lat="43.0855097" lon="13.199809"><ele>1118.6666666666667</ele><time>2026-04-29T15:16:51.904Z</time></trkpt><trkpt lat="43.0855828" lon="13.1998203"><ele>1121.8333333333333</ele><time>2026-04-29T15:16:52.893Z</time></trkpt><trkpt lat="43.0856595" lon="13.1998241"><ele>1125.0</ele><time>2026-04-29T15:16:53.899Z</time></trkpt><trkpt lat="43.0857518" lon="13.1998225"><ele>1126.4</ele><time>2026-04-29T15:16:54.882Z</time></trkpt><trkpt lat="43.0858419" lon="13.1998373"><ele>1127.8</ele><time>2026-04-29T15:16:55.905Z</time></trkpt><trkpt lat="43.0859457" lon="13.1998598"><ele>1129.2</ele><time>2026-04-29T15:16:56.913Z</time></trkpt><trkpt lat="43.0860404" lon="13.199882"><ele>1130.6</ele><time>2026-04-29T15:16:57.887Z</time></trkpt><trkpt lat="43.0861289" lon="13.1999184"><ele>1132.0</ele><time>2026-04-29T15:16:58.881Z</time></trkpt><trkpt lat="43.0862293" lon="13.1999649"><ele>1132.0</ele><time>2026-04-29T15:16:59.871Z</time></trkpt><trkpt lat="43.0863175" lon="13.2000016"><ele>1132.0</ele><time>2026-04-29T15:17:00.891Z</time></trkpt><trkpt lat="43.0864057" lon="13.20004"><ele>1132.0</ele><time>2026-04-29T15:17:01.884Z</time></trkpt><trkpt lat="43.0864993" lon="13.2000821"><ele>1132.0</ele><time>2026-04-29T15:17:02.879Z</time></trkpt><trkpt lat="43.0866055" lon="13.2001313"><ele>1132.0</ele><time>2026-04-29T15:17:03.897Z</time></trkpt><trkpt lat="43.0867164" lon="13.2001751"><ele>1136.6</ele><time>2026-04-29T15:17:04.881Z</time></trkpt><trkpt lat="43.0868287" lon="13.2002206"><ele>1141.2</ele><time>2026-04-29T15:17:05.887Z</time></trkpt><trkpt lat="43.0869325" lon="13.200269"><ele>1145.8</ele><time>2026-04-29T15:17:06.882Z</time></trkpt><trkpt lat="43.0870326" lon="13.2003178"><ele>1150.4</ele><time>2026-04-29T15:17:07.883Z</time></trkpt><trkpt lat="43.0871361" lon="13.2003675"><ele>1155.0</ele><time>2026-04-29T15:17:08.886Z</time></trkpt><trkpt lat="43.0872522" lon="13.2004157"><ele>1155.0</ele><time>2026-04-29T15:17:09.882Z</time></trkpt><trkpt lat="43.0873459" lon="13.2004618"><ele>1155.0</ele><time>2026-04-29T15:17:10.904Z</time></trkpt><trkpt lat="43.0874485" lon="13.2005118"><ele>1155.0</ele><time>2026-04-29T15:17:11.892Z</time></trkpt><trkpt lat="43.0875407" lon="13.2005679"><ele>1155.0</ele><time>2026-04-29T15:17:12.885Z</time></trkpt><trkpt lat="43.0876269" lon="13.2006277"><ele>1155.0</ele><time>2026-04-29T15:17:13.878Z</time></trkpt><trkpt lat="43.0877226" lon="13.2006931"><ele>1157.0</ele><time>2026-04-29T15:17:14.89Z</time></trkpt><trkpt lat="43.087819" lon="13.200752"><ele>1159.0</ele><time>2026-04-29T15:17:15.885Z</time></trkpt><trkpt lat="43.0879225" lon="13.2007921"><ele>1161.0</ele><time>2026-04-29T15:17:16.881Z</time></trkpt><trkpt lat="43.088027" lon="13.2008319"><ele>1163.0</ele><time>2026-04-29T15:17:17.889Z</time></trkpt><trkpt lat="43.0881282" lon="13.2008725"><ele>1165.0</ele><time>2026-04-29T15:17:18.871Z</time></trkpt><trkpt lat="43.0882216" lon="13.200907"><ele>1169.8</ele><time>2026-04-29T15:17:19.883Z</time></trkpt><trkpt lat="43.0883064" lon="13.2009449"><ele>1174.6</ele><time>2026-04-29T15:17:20.894Z</time></trkpt><trkpt lat="43.0883964" lon="13.2009775"><ele>1179.4</ele><time>2026-04-29T15:17:21.883Z</time></trkpt><trkpt lat="43.088494" lon="13.2010167"><ele>1184.2</ele><time>2026-04-29T15:17:22.873Z</time></trkpt><trkpt lat="43.0885919" lon="13.2010537"><ele>1189.0</ele><time>2026-04-29T15:17:23.899Z</time></trkpt><trkpt lat="43.08868" lon="13.2010833"><ele>1189.0</ele><time>2026-04-29T15:17:24.906Z</time></trkpt><trkpt lat="43.0887619" lon="13.2011112"><ele>1189.0</ele><time>2026-04-29T15:17:25.871Z</time></trkpt><trkpt lat="43.0888524" lon="13.2011613"><ele>1189.0</ele><time>2026-04-29T15:17:26.882Z</time></trkpt><trkpt lat="43.0889446" lon="13.2012053"><ele>1189.0</ele><time>2026-04-29T15:17:27.892Z</time></trkpt><trkpt lat="43.0890353" lon="13.2012641"><ele>1189.0</ele><time>2026-04-29T15:17:28.885Z</time></trkpt><trkpt lat="43.0891212" lon="13.201316"><ele>1190.6000000000001</ele><time>2026-04-29T15:17:29.918Z</time></trkpt><trkpt lat="43.0892077" lon="13.2013726"><ele>1192.2</ele><time>2026-04-29T15:17:30.925Z</time></trkpt><trkpt lat="43.0892984" lon="13.2014393"><ele>1193.8000000000002</ele><time>2026-04-29T15:17:31.921Z</time></trkpt><trkpt lat="43.0893995" lon="13.2015113"><ele>1195.4</ele><time>2026-04-29T15:17:32.883Z</time></trkpt><trkpt lat="43.0894939" lon="13.2015984"><ele>1197.0</ele><time>2026-04-29T15:17:33.883Z</time></trkpt><trkpt lat="43.0895708" lon="13.201685"><ele>1197.0</ele><time>2026-04-29T15:17:34.888Z</time></trkpt><trkpt lat="43.0896423" lon="13.2017562"><ele>1197.0</ele><time>2026-04-29T15:17:35.87Z</time></trkpt><trkpt lat="43.0897074" lon="13.2018164"><ele>1197.0</ele><time>2026-04-29T15:17:36.89Z</time></trkpt><trkpt lat="43.0897755" lon="13.2018689"><ele>1197.0</ele><time>2026-04-29T15:17:37.887Z</time></trkpt><trkpt lat="43.0898458" lon="13.2019237"><ele>1197.0</ele><time>2026-04-29T15:17:38.9Z</time></trkpt><trkpt lat="43.0899168" lon="13.2019634"><ele>1197.0</ele><time>2026-04-29T15:17:39.903Z</time></trkpt><trkpt lat="43.0899789" lon="13.2019949"><ele>1200.0</ele><time>2026-04-29T15:17:40.898Z</time></trkpt><trkpt lat="43.0900621" lon="13.2020123"><ele>1203.0</ele><time>2026-04-29T15:17:42.95Z</time></trkpt><trkpt lat="43.0901235" lon="13.2019792"><ele>1206.0</ele><time>2026-04-29T15:17:44.921Z</time></trkpt><trkpt lat="43.0901818" lon="13.201871"><ele>1209.0</ele><time>2026-04-29T15:17:46.899Z</time></trkpt><trkpt lat="43.0902415" lon="13.2017524"><ele>1212.0</ele><time>2026-04-29T15:17:48.932Z</time></trkpt><trkpt lat="43.0902848" lon="13.2016745"><ele>1215.0</ele><time>2026-04-29T15:17:49.95Z</time></trkpt><trkpt lat="43.0903404" lon="13.2015736"><ele>1217.0</ele><time>2026-04-29T15:17:50.932Z</time></trkpt><trkpt lat="43.0903902" lon="13.2014833"><ele>1219.0</ele><time>2026-04-29T15:17:51.932Z</time></trkpt><trkpt lat="43.0904269" lon="13.201385"><ele>1221.0</ele><time>2026-04-29T15:17:52.972Z</time></trkpt><trkpt lat="43.0904706" lon="13.2012702"><ele>1223.0</ele><time>2026-04-29T15:17:53.946Z</time></trkpt><trkpt lat="43.0905163" lon="13.201156"><ele>1225.0</ele><time>2026-04-29T15:17:54.939Z</time></trkpt><trkpt lat="43.0905472" lon="13.2010601"><ele>1227.0</ele><time>2026-04-29T15:17:55.94Z</time></trkpt><trkpt lat="43.090576" lon="13.2009739"><ele>1227.0</ele><time>2026-04-29T15:17:56.926Z</time></trkpt><trkpt lat="43.0906028" lon="13.2008543"><ele>1227.0</ele><time>2026-04-29T15:17:58.945Z</time></trkpt><trkpt lat="43.0905732" lon="13.2007758"><ele>1227.0</ele><time>2026-04-29T15:18:00.897Z</time></trkpt><trkpt lat="43.0905434" lon="13.2006928"><ele>1227.0</ele><time>2026-04-29T15:18:02.933Z</time></trkpt><trkpt lat="43.0904933" lon="13.2005733"><ele>1227.0</ele><time>2026-04-29T15:18:04.939Z</time></trkpt><trkpt lat="43.0904155" lon="13.2004414"><ele>1227.0</ele><time>2026-04-29T15:18:06.904Z</time></trkpt><trkpt lat="43.0903725" lon="13.200363"><ele>1228.142857142857</ele><time>2026-04-29T15:18:07.946Z</time></trkpt><trkpt lat="43.0903225" lon="13.200282"><ele>1229.2857142857142</ele><time>2026-04-29T15:18:08.932Z</time></trkpt><trkpt lat="43.090272" lon="13.2002029"><ele>1230.4285714285713</ele><time>2026-04-29T15:18:09.943Z</time></trkpt><trkpt lat="43.0902243" lon="13.200132"><ele>1231.5714285714284</ele><time>2026-04-29T15:18:10.96Z</time></trkpt><trkpt lat="43.0901802" lon="13.2000637"><ele>1232.7142857142858</ele><time>2026-04-29T15:18:11.899Z</time></trkpt><trkpt lat="43.090137" lon="13.1999964"><ele>1233.8571428571427</ele><time>2026-04-29T15:18:12.941Z</time></trkpt><trkpt lat="43.0900932" lon="13.1999307"><ele>1235.0</ele><time>2026-04-29T15:18:13.947Z</time></trkpt><trkpt lat="43.0900498" lon="13.1998627"><ele>1236.6666666666667</ele><time>2026-04-29T15:18:14.952Z</time></trkpt><trkpt lat="43.0900069" lon="13.1997963"><ele>1238.3333333333335</ele><time>2026-04-29T15:18:15.914Z</time></trkpt><trkpt lat="43.0899192" lon="13.1996768"><ele>1240.0</ele><time>2026-04-29T15:18:17.933Z</time></trkpt><trkpt lat="43.0898678" lon="13.1996173"><ele>1241.6666666666667</ele><time>2026-04-29T15:18:18.939Z</time></trkpt><trkpt lat="43.0898106" lon="13.1995521"><ele>1243.3333333333333</ele><time>2026-04-29T15:18:19.95Z</time></trkpt><trkpt lat="43.0897512" lon="13.1994815"><ele>1245.0</ele><time>2026-04-29T15:18:20.921Z</time></trkpt><trkpt lat="43.089696" lon="13.199408"><ele>1245.1666666666667</ele><time>2026-04-29T15:18:21.93Z</time></trkpt><trkpt lat="43.0896428" lon="13.1993331"><ele>1245.3333333333333</ele><time>2026-04-29T15:18:22.953Z</time></trkpt><trkpt lat="43.0895884" lon="13.199255"><ele>1245.5</ele><time>2026-04-29T15:18:23.937Z</time></trkpt><trkpt lat="43.0895339" lon="13.1991719"><ele>1245.6666666666665</ele><time>2026-04-29T15:18:24.95Z</time></trkpt><trkpt lat="43.0894775" lon="13.1990826"><ele>1245.8333333333333</ele><time>2026-04-29T15:18:25.94Z</time></trkpt><trkpt lat="43.0894285" lon="13.1989878"><ele>1246.0</ele><time>2026-04-29T15:18:26.924Z</time></trkpt><trkpt lat="43.0893913" lon="13.1988873"><ele>1248.3999999999999</ele><time>2026-04-29T15:18:27.928Z</time></trkpt><trkpt lat="43.0893623" lon="13.1987779"><ele>1250.8</ele><time>2026-04-29T15:18:28.943Z</time></trkpt><trkpt lat="43.0893418" lon="13.1986633"><ele>1253.1999999999998</ele><time>2026-04-29T15:18:29.897Z</time></trkpt><trkpt lat="43.0893235" lon="13.1985394"><ele>1255.6</ele><time>2026-04-29T15:18:30.918Z</time></trkpt><trkpt lat="43.0893084" lon="13.1984116"><ele>1258.0</ele><time>2026-04-29T15:18:31.938Z</time></trkpt><trkpt lat="43.0892968" lon="13.1982809"><ele>1258.8</ele><time>2026-04-29T15:18:32.955Z</time></trkpt><trkpt lat="43.0892841" lon="13.198148"><ele>1259.6</ele><time>2026-04-29T15:18:33.928Z</time></trkpt><trkpt lat="43.0892761" lon="13.1980207"><ele>1260.4</ele><time>2026-04-29T15:18:34.94Z</time></trkpt><trkpt lat="43.0892726" lon="13.197896"><ele>1261.2</ele><time>2026-04-29T15:18:35.94Z</time></trkpt><trkpt lat="43.0892703" lon="13.1977703"><ele>1262.0</ele><time>2026-04-29T15:18:36.924Z</time></trkpt><trkpt lat="43.0892734" lon="13.1976329"><ele>1262.0</ele><time>2026-04-29T15:18:37.951Z</time></trkpt><trkpt lat="43.0892661" lon="13.1975088"><ele>1262.0</ele><time>2026-04-29T15:18:38.976Z</time></trkpt><trkpt lat="43.0892558" lon="13.1973989"><ele>1262.0</ele><time>2026-04-29T15:18:39.897Z</time></trkpt><trkpt lat="43.0892425" lon="13.1972849"><ele>1262.0</ele><time>2026-04-29T15:18:40.934Z</time></trkpt><trkpt lat="43.0892212" lon="13.1971624"><ele>1262.0</ele><time>2026-04-29T15:18:41.956Z</time></trkpt><trkpt lat="43.0891967" lon="13.1970266"><ele>1263.6</ele><time>2026-04-29T15:18:42.934Z</time></trkpt><trkpt lat="43.0891796" lon="13.1968809"><ele>1265.2</ele><time>2026-04-29T15:18:43.892Z</time></trkpt><trkpt lat="43.0891635" lon="13.1967402"><ele>1266.8</ele><time>2026-04-29T15:18:44.933Z</time></trkpt><trkpt lat="43.089152" lon="13.1966026"><ele>1268.4</ele><time>2026-04-29T15:18:45.927Z</time></trkpt><trkpt lat="43.089131" lon="13.1964606"><ele>1270.0</ele><time>2026-04-29T15:18:46.938Z</time></trkpt><trkpt lat="43.0891091" lon="13.1963251"><ele>1269.4</ele><time>2026-04-29T15:18:47.931Z</time></trkpt><trkpt lat="43.0890886" lon="13.1961943"><ele>1268.8</ele><time>2026-04-29T15:18:48.892Z</time></trkpt><trkpt lat="43.0890699" lon="13.196068"><ele>1268.2</ele><time>2026-04-29T15:18:49.906Z</time></trkpt><trkpt lat="43.0890579" lon="13.1959429"><ele>1267.6</ele><time>2026-04-29T15:18:50.962Z</time></trkpt><trkpt lat="43.089051" lon="13.1958153"><ele>1267.0</ele><time>2026-04-29T15:18:51.932Z</time></trkpt><trkpt lat="43.0890429" lon="13.1956913"><ele>1270.0</ele><time>2026-04-29T15:18:52.955Z</time></trkpt><trkpt lat="43.0890212" lon="13.195575"><ele>1273.0</ele><time>2026-04-29T15:18:53.893Z</time></trkpt><trkpt lat="43.0889929" lon="13.1954616"><ele>1276.0</ele><time>2026-04-29T15:18:54.941Z</time></trkpt><trkpt lat="43.0889619" lon="13.1953399"><ele>1279.0</ele><time>2026-04-29T15:18:55.939Z</time></trkpt><trkpt lat="43.0889325" lon="13.195217"><ele>1282.0</ele><time>2026-04-29T15:18:56.931Z</time></trkpt><trkpt lat="43.0889044" lon="13.1951033"><ele>1282.0</ele><time>2026-04-29T15:18:57.939Z</time></trkpt><trkpt lat="43.0888892" lon="13.1949846"><ele>1282.0</ele><time>2026-04-29T15:18:58.886Z</time></trkpt><trkpt lat="43.0888782" lon="13.1948656"><ele>1282.0</ele><time>2026-04-29T15:18:59.96Z</time></trkpt><trkpt lat="43.0888666" lon="13.194747"><ele>1282.0</ele><time>2026-04-29T15:19:00.904Z</time></trkpt><trkpt lat="43.0888488" lon="13.1946239"><ele>1282.0</ele><time>2026-04-29T15:19:01.886Z</time></trkpt><trkpt lat="43.0888204" lon="13.1945137"><ele>1282.0</ele><time>2026-04-29T15:19:02.93Z</time></trkpt><trkpt lat="43.0887856" lon="13.1944087"><ele>1285.1999999999998</ele><time>2026-04-29T15:19:03.887Z</time></trkpt><trkpt lat="43.0887475" lon="13.1943"><ele>1288.4</ele><time>2026-04-29T15:19:04.953Z</time></trkpt><trkpt lat="43.0887087" lon="13.194186"><ele>1291.6</ele><time>2026-04-29T15:19:05.937Z</time></trkpt><trkpt lat="43.0886732" lon="13.1940657"><ele>1294.8000000000002</ele><time>2026-04-29T15:19:06.941Z</time></trkpt><trkpt lat="43.0886394" lon="13.1939446"><ele>1298.0</ele><time>2026-04-29T15:19:07.944Z</time></trkpt><trkpt lat="43.0886039" lon="13.1938169"><ele>1299.0</ele><time>2026-04-29T15:19:08.89Z</time></trkpt><trkpt lat="43.0885654" lon="13.1937042"><ele>1300.0</ele><time>2026-04-29T15:19:09.953Z</time></trkpt><trkpt lat="43.0885224" lon="13.1936033"><ele>1301.0</ele><time>2026-04-29T15:19:10.897Z</time></trkpt><trkpt lat="43.0884692" lon="13.1934742"><ele>1302.0</ele><time>2026-04-29T15:19:11.942Z</time></trkpt><trkpt lat="43.0884274" lon="13.1933454"><ele>1303.0</ele><time>2026-04-29T15:19:12.949Z</time></trkpt><trkpt lat="43.0884013" lon="13.1932291"><ele>1303.0</ele><time>2026-04-29T15:19:13.903Z</time></trkpt><trkpt lat="43.0883748" lon="13.1931121"><ele>1303.0</ele><time>2026-04-29T15:19:14.942Z</time></trkpt><trkpt lat="43.0883602" lon="13.192974"><ele>1303.0</ele><time>2026-04-29T15:19:15.944Z</time></trkpt><trkpt lat="43.0883405" lon="13.1928482"><ele>1303.0</ele><time>2026-04-29T15:19:16.94Z</time></trkpt><trkpt lat="43.0883114" lon="13.1927088"><ele>1303.0</ele><time>2026-04-29T15:19:17.929Z</time></trkpt><trkpt lat="43.088276" lon="13.192565"><ele>1304.0</ele><time>2026-04-29T15:19:18.91Z</time></trkpt><trkpt lat="43.0882497" lon="13.192415"><ele>1305.0</ele><time>2026-04-29T15:19:19.918Z</time></trkpt><trkpt lat="43.0882252" lon="13.1922696"><ele>1306.0</ele><time>2026-04-29T15:19:20.959Z</time></trkpt><trkpt lat="43.0881947" lon="13.1921302"><ele>1307.0</ele><time>2026-04-29T15:19:22.004Z</time></trkpt><trkpt lat="43.0881563" lon="13.1920018"><ele>1308.0</ele><time>2026-04-29T15:19:22.947Z</time></trkpt><trkpt lat="43.0881065" lon="13.1918854"><ele>1309.2</ele><time>2026-04-29T15:19:23.886Z</time></trkpt><trkpt lat="43.0880567" lon="13.1917689"><ele>1310.4</ele><time>2026-04-29T15:19:24.946Z</time></trkpt><trkpt lat="43.0879964" lon="13.1916686"><ele>1311.6000000000001</ele><time>2026-04-29T15:19:25.959Z</time></trkpt><trkpt lat="43.0879405" lon="13.1915738"><ele>1312.8000000000002</ele><time>2026-04-29T15:19:26.936Z</time></trkpt><trkpt lat="43.0878843" lon="13.1914782"><ele>1314.0</ele><time>2026-04-29T15:19:27.926Z</time></trkpt><trkpt lat="43.08783" lon="13.1913884"><ele>1314.0</ele><time>2026-04-29T15:19:28.906Z</time></trkpt><trkpt lat="43.0877758" lon="13.1912949"><ele>1314.0</ele><time>2026-04-29T15:19:29.937Z</time></trkpt><trkpt lat="43.0877195" lon="13.1911986"><ele>1314.0</ele><time>2026-04-29T15:19:30.895Z</time></trkpt><trkpt lat="43.0876633" lon="13.1911124"><ele>1314.0</ele><time>2026-04-29T15:19:31.949Z</time></trkpt><trkpt lat="43.0876062" lon="13.1910197"><ele>1314.0</ele><time>2026-04-29T15:19:32.935Z</time></trkpt><trkpt lat="43.0875364" lon="13.1909134"><ele>1314.0</ele><time>2026-04-29T15:19:33.915Z</time></trkpt><trkpt lat="43.0874658" lon="13.1908016"><ele>1314.0</ele><time>2026-04-29T15:19:34.894Z</time></trkpt><trkpt lat="43.0874006" lon="13.1906989"><ele>1314.0</ele><time>2026-04-29T15:19:35.953Z</time></trkpt><trkpt lat="43.087334" lon="13.1905937"><ele>1314.0</ele><time>2026-04-29T15:19:36.948Z</time></trkpt><trkpt lat="43.0872654" lon="13.1904882"><ele>1314.0</ele><time>2026-04-29T15:19:37.945Z</time></trkpt><trkpt lat="43.0871898" lon="13.1903801"><ele>1314.2</ele><time>2026-04-29T15:19:38.91Z</time></trkpt><trkpt lat="43.087119" lon="13.1902757"><ele>1314.4</ele><time>2026-04-29T15:19:39.889Z</time></trkpt><trkpt lat="43.0870482" lon="13.190175"><ele>1314.6</ele><time>2026-04-29T15:19:40.944Z</time></trkpt><trkpt lat="43.086969" lon="13.1900637"><ele>1314.8</ele><time>2026-04-29T15:19:41.905Z</time></trkpt><trkpt lat="43.0868824" lon="13.1899452"><ele>1315.0</ele><time>2026-04-29T15:19:42.95Z</time></trkpt><trkpt lat="43.0867974" lon="13.1898318"><ele>1315.0</ele><time>2026-04-29T15:19:43.933Z</time></trkpt><trkpt lat="43.0867175" lon="13.1897258"><ele>1315.0</ele><time>2026-04-29T15:19:44.922Z</time></trkpt><trkpt lat="43.0866373" lon="13.1896138"><ele>1315.0</ele><time>2026-04-29T15:19:45.884Z</time></trkpt><trkpt lat="43.0865479" lon="13.1895012"><ele>1315.0</ele><time>2026-04-29T15:19:46.934Z</time></trkpt><trkpt lat="43.0864538" lon="13.1893946"><ele>1315.6</ele><time>2026-04-29T15:19:47.905Z</time></trkpt><trkpt lat="43.0863544" lon="13.1892936"><ele>1316.2</ele><time>2026-04-29T15:19:48.91Z</time></trkpt><trkpt lat="43.0862638" lon="13.1891999"><ele>1316.8000000000002</ele><time>2026-04-29T15:19:49.945Z</time></trkpt><trkpt lat="43.0861847" lon="13.1891224"><ele>1317.4</ele><time>2026-04-29T15:19:50.945Z</time></trkpt><trkpt lat="43.0861135" lon="13.1890507"><ele>1318.0</ele><time>2026-04-29T15:19:51.952Z</time></trkpt><trkpt lat="43.0860489" lon="13.1889884"><ele>1318.0</ele><time>2026-04-29T15:19:52.954Z</time></trkpt><trkpt lat="43.0859786" lon="13.1889227"><ele>1318.0</ele><time>2026-04-29T15:19:53.944Z</time></trkpt><trkpt lat="43.0859044" lon="13.188864"><ele>1318.0</ele><time>2026-04-29T15:19:54.993Z</time></trkpt><trkpt lat="43.0858254" lon="13.1888051"><ele>1318.0</ele><time>2026-04-29T15:19:55.945Z</time></trkpt><trkpt lat="43.0857407" lon="13.1887363"><ele>1318.0</ele><time>2026-04-29T15:19:56.946Z</time></trkpt><trkpt lat="43.0856553" lon="13.1886655"><ele>1317.2</ele><time>2026-04-29T15:19:57.899Z</time></trkpt><trkpt lat="43.0855717" lon="13.1885933"><ele>1316.4</ele><time>2026-04-29T15:19:58.934Z</time></trkpt><trkpt lat="43.0854872" lon="13.1885207"><ele>1315.6000000000001</ele><time>2026-04-29T15:19:59.921Z</time></trkpt><trkpt lat="43.0854049" lon="13.1884474"><ele>1314.8000000000002</ele><time>2026-04-29T15:20:00.922Z</time></trkpt><trkpt lat="43.0853281" lon="13.1883828"><ele>1314.0</ele><time>2026-04-29T15:20:01.936Z</time></trkpt><trkpt lat="43.0852538" lon="13.1883156"><ele>1314.0</ele><time>2026-04-29T15:20:02.943Z</time></trkpt><trkpt lat="43.085182" lon="13.1882468"><ele>1314.0</ele><time>2026-04-29T15:20:03.941Z</time></trkpt><trkpt lat="43.0851032" lon="13.1881672"><ele>1314.0</ele><time>2026-04-29T15:20:04.961Z</time></trkpt><trkpt lat="43.0850144" lon="13.1880761"><ele>1314.0</ele><time>2026-04-29T15:20:05.924Z</time></trkpt><trkpt lat="43.0849097" lon="13.1879629"><ele>1314.0</ele><time>2026-04-29T15:20:06.95Z</time></trkpt><trkpt lat="43.0848042" lon="13.187856"><ele>1312.75</ele><time>2026-04-29T15:20:07.945Z</time></trkpt><trkpt lat="43.0847042" lon="13.1877617"><ele>1311.5</ele><time>2026-04-29T15:20:08.917Z</time></trkpt><trkpt lat="43.0846031" lon="13.1876716"><ele>1310.25</ele><time>2026-04-29T15:20:09.943Z</time></trkpt><trkpt lat="43.0844947" lon="13.1875804"><ele>1309.0</ele><time>2026-04-29T15:20:10.943Z</time></trkpt><trkpt lat="43.0843796" lon="13.1874874"><ele>1309.0</ele><time>2026-04-29T15:20:11.928Z</time></trkpt><trkpt lat="43.0842657" lon="13.1873987"><ele>1309.0</ele><time>2026-04-29T15:20:12.951Z</time></trkpt><trkpt lat="43.0841493" lon="13.1873124"><ele>1309.0</ele><time>2026-04-29T15:20:13.953Z</time></trkpt><trkpt lat="43.0840292" lon="13.1872314"><ele>1309.0</ele><time>2026-04-29T15:20:14.908Z</time></trkpt><trkpt lat="43.0839091" lon="13.1871559"><ele>1306.75</ele><time>2026-04-29T15:20:15.966Z</time></trkpt><trkpt lat="43.0837943" lon="13.1870866"><ele>1304.5</ele><time>2026-04-29T15:20:16.941Z</time></trkpt><trkpt lat="43.0836788" lon="13.1870219"><ele>1302.25</ele><time>2026-04-29T15:20:17.927Z</time></trkpt><trkpt lat="43.0835602" lon="13.1869594"><ele>1300.0</ele><time>2026-04-29T15:20:18.936Z</time></trkpt><trkpt lat="43.083437" lon="13.1868968"><ele>1300.0</ele><time>2026-04-29T15:20:19.949Z</time></trkpt><trkpt lat="43.0833083" lon="13.1868317"><ele>1300.0</ele><time>2026-04-29T15:20:20.938Z</time></trkpt><trkpt lat="43.0831768" lon="13.1867638"><ele>1300.0</ele><time>2026-04-29T15:20:21.976Z</time></trkpt><trkpt lat="43.083045" lon="13.1866961"><ele>1300.0</ele><time>2026-04-29T15:20:22.939Z</time></trkpt><trkpt lat="43.0829182" lon="13.1866397"><ele>1299.0</ele><time>2026-04-29T15:20:23.935Z</time></trkpt><trkpt lat="43.0827947" lon="13.1865888"><ele>1298.0</ele><time>2026-04-29T15:20:24.939Z</time></trkpt><trkpt lat="43.0826726" lon="13.1865357"><ele>1297.0</ele><time>2026-04-29T15:20:25.949Z</time></trkpt><trkpt lat="43.082543" lon="13.1864733"><ele>1296.0</ele><time>2026-04-29T15:20:26.925Z</time></trkpt><trkpt lat="43.0824081" lon="13.1864084"><ele>1295.0</ele><time>2026-04-29T15:20:27.948Z</time></trkpt><trkpt lat="43.0822765" lon="13.1863404"><ele>1294.0</ele><time>2026-04-29T15:20:28.947Z</time></trkpt><trkpt lat="43.0821436" lon="13.1862663"><ele>1293.0</ele><time>2026-04-29T15:20:29.927Z</time></trkpt><trkpt lat="43.0820076" lon="13.1861934"><ele>1292.0</ele><time>2026-04-29T15:20:30.956Z</time></trkpt><trkpt lat="43.0818683" lon="13.1861157"><ele>1292.0</ele><time>2026-04-29T15:20:31.904Z</time></trkpt><trkpt lat="43.0817341" lon="13.1860384"><ele>1292.0</ele><time>2026-04-29T15:20:32.989Z</time></trkpt><trkpt lat="43.0816074" lon="13.1859702"><ele>1292.0</ele><time>2026-04-29T15:20:33.944Z</time></trkpt><trkpt lat="43.0814874" lon="13.1859005"><ele>1292.0</ele><time>2026-04-29T15:20:34.903Z</time></trkpt><trkpt lat="43.0813693" lon="13.1858245"><ele>1291.25</ele><time>2026-04-29T15:20:35.934Z</time></trkpt><trkpt lat="43.0812522" lon="13.185749"><ele>1290.5</ele><time>2026-04-29T15:20:36.879Z</time></trkpt><trkpt lat="43.0811338" lon="13.1856727"><ele>1289.75</ele><time>2026-04-29T15:20:37.917Z</time></trkpt><trkpt lat="43.0810205" lon="13.1855985"><ele>1289.0</ele><time>2026-04-29T15:20:38.907Z</time></trkpt><trkpt lat="43.080913" lon="13.1855236"><ele>1288.5</ele><time>2026-04-29T15:20:39.931Z</time></trkpt><trkpt lat="43.080815" lon="13.1854463"><ele>1288.0</ele><time>2026-04-29T15:20:40.934Z</time></trkpt><trkpt lat="43.0807242" lon="13.1853677"><ele>1287.5</ele><time>2026-04-29T15:20:41.949Z</time></trkpt><trkpt lat="43.0806388" lon="13.1852752"><ele>1287.0</ele><time>2026-04-29T15:20:42.942Z</time></trkpt><trkpt lat="43.0805503" lon="13.1851601"><ele>1286.25</ele><time>2026-04-29T15:20:43.937Z</time></trkpt><trkpt lat="43.0804687" lon="13.1850383"><ele>1285.5</ele><time>2026-04-29T15:20:44.902Z</time></trkpt><trkpt lat="43.0803909" lon="13.1849263"><ele>1284.75</ele><time>2026-04-29T15:20:45.933Z</time></trkpt><trkpt lat="43.0803152" lon="13.1848186"><ele>1284.0</ele><time>2026-04-29T15:20:46.932Z</time></trkpt><trkpt lat="43.0802311" lon="13.1847079"><ele>1282.75</ele><time>2026-04-29T15:20:47.909Z</time></trkpt><trkpt lat="43.0801409" lon="13.1845979"><ele>1281.5</ele><time>2026-04-29T15:20:48.946Z</time></trkpt><trkpt lat="43.0800528" lon="13.1844905"><ele>1280.25</ele><time>2026-04-29T15:20:49.938Z</time></trkpt><trkpt lat="43.0799677" lon="13.1843859"><ele>1279.0</ele><time>2026-04-29T15:20:50.94Z</time></trkpt><trkpt lat="43.0798894" lon="13.184281"><ele>1278.2</ele><time>2026-04-29T15:20:51.932Z</time></trkpt><trkpt lat="43.0798205" lon="13.1841754"><ele>1277.4</ele><time>2026-04-29T15:20:52.943Z</time></trkpt><trkpt lat="43.079754" lon="13.1840673"><ele>1276.6</ele><time>2026-04-29T15:20:53.949Z</time></trkpt><trkpt lat="43.0796899" lon="13.1839522"><ele>1275.8</ele><time>2026-04-29T15:20:54.99Z</time></trkpt><trkpt lat="43.0796318" lon="13.1838335"><ele>1275.0</ele><time>2026-04-29T15:20:55.931Z</time></trkpt><trkpt lat="43.0795807" lon="13.1837191"><ele>1274.5</ele><time>2026-04-29T15:20:56.936Z</time></trkpt><trkpt lat="43.0795375" lon="13.1836117"><ele>1274.0</ele><time>2026-04-29T15:20:57.948Z</time></trkpt><trkpt lat="43.0794972" lon="13.1835105"><ele>1273.5</ele><time>2026-04-29T15:20:58.903Z</time></trkpt><trkpt lat="43.0794575" lon="13.1834087"><ele>1273.0</ele><time>2026-04-29T15:20:59.936Z</time></trkpt><trkpt lat="43.079414" lon="13.1833035"><ele>1272.5</ele><time>2026-04-29T15:21:00.957Z</time></trkpt><trkpt lat="43.0793723" lon="13.1831993"><ele>1272.0</ele><time>2026-04-29T15:21:01.905Z</time></trkpt><trkpt lat="43.0793351" lon="13.1830935"><ele>1270.6666666666667</ele><time>2026-04-29T15:21:02.935Z</time></trkpt><trkpt lat="43.079297" lon="13.1829875"><ele>1269.3333333333333</ele><time>2026-04-29T15:21:03.946Z</time></trkpt><trkpt lat="43.0792646" lon="13.1828792"><ele>1268.0</ele><time>2026-04-29T15:21:04.9Z</time></trkpt><trkpt lat="43.0792334" lon="13.1827796"><ele>1266.6666666666665</ele><time>2026-04-29T15:21:05.917Z</time></trkpt><trkpt lat="43.0791994" lon="13.1826907"><ele>1265.3333333333333</ele><time>2026-04-29T15:21:06.91Z</time></trkpt><trkpt lat="43.0791593" lon="13.1826108"><ele>1264.0</ele><time>2026-04-29T15:21:07.959Z</time></trkpt><trkpt lat="43.0791198" lon="13.1825331"><ele>1263.0</ele><time>2026-04-29T15:21:08.949Z</time></trkpt><trkpt lat="43.0790716" lon="13.1824683"><ele>1262.0</ele><time>2026-04-29T15:21:09.874Z</time></trkpt><trkpt lat="43.0790219" lon="13.1824032"><ele>1261.0</ele><time>2026-04-29T15:21:10.9Z</time></trkpt><trkpt lat="43.0789765" lon="13.1823384"><ele>1260.0</ele><time>2026-04-29T15:21:11.886Z</time></trkpt><trkpt lat="43.0788925" lon="13.1822117"><ele>1259.0</ele><time>2026-04-29T15:21:13.886Z</time></trkpt><trkpt lat="43.0788487" lon="13.1821445"><ele>1258.0</ele><time>2026-04-29T15:21:14.89Z</time></trkpt><trkpt lat="43.0788026" lon="13.1820677"><ele>1256.6</ele><time>2026-04-29T15:21:15.87Z</time></trkpt><trkpt lat="43.0787621" lon="13.1819923"><ele>1255.1999999999998</ele><time>2026-04-29T15:21:16.892Z</time></trkpt><trkpt lat="43.0787001" lon="13.1818526"><ele>1253.8</ele><time>2026-04-29T15:21:18.9Z</time></trkpt><trkpt lat="43.0786438" lon="13.1817387"><ele>1252.3999999999999</ele><time>2026-04-29T15:21:20.943Z</time></trkpt><trkpt lat="43.0785546" lon="13.1816068"><ele>1251.0</ele><time>2026-04-29T15:21:22.953Z</time></trkpt><trkpt lat="43.0785091" lon="13.1815299"><ele>1249.3333333333333</ele><time>2026-04-29T15:21:23.945Z</time></trkpt><trkpt lat="43.0784662" lon="13.1814598"><ele>1247.6666666666667</ele><time>2026-04-29T15:21:24.942Z</time></trkpt><trkpt lat="43.0784212" lon="13.1813868"><ele>1246.0</ele><time>2026-04-29T15:21:25.951Z</time></trkpt><trkpt lat="43.0783763" lon="13.1813175"><ele>1244.3333333333335</ele><time>2026-04-29T15:21:26.939Z</time></trkpt><trkpt lat="43.0782934" lon="13.181196"><ele>1242.6666666666667</ele><time>2026-04-29T15:21:28.945Z</time></trkpt><trkpt lat="43.0782165" lon="13.1810788"><ele>1241.0</ele><time>2026-04-29T15:21:30.959Z</time></trkpt><trkpt lat="43.0781478" lon="13.1809643"><ele>1239.3999999999999</ele><time>2026-04-29T15:21:32.979Z</time></trkpt><trkpt lat="43.0780904" lon="13.1808494"><ele>1237.8</ele><time>2026-04-29T15:21:34.893Z</time></trkpt><trkpt lat="43.0780328" lon="13.180745"><ele>1236.1999999999998</ele><time>2026-04-29T15:21:36.947Z</time></trkpt><trkpt lat="43.0779799" lon="13.1806477"><ele>1234.6</ele><time>2026-04-29T15:21:38.924Z</time></trkpt><trkpt lat="43.077924" lon="13.1805505"><ele>1233.0</ele><time>2026-04-29T15:21:40.951Z</time></trkpt><trkpt lat="43.077864" lon="13.1804526"><ele>1230.6</ele><time>2026-04-29T15:21:42.939Z</time></trkpt><trkpt lat="43.0778082" lon="13.1803637"><ele>1228.1999999999998</ele><time>2026-04-29T15:21:44.895Z</time></trkpt><trkpt lat="43.0777644" lon="13.1802553"><ele>1225.8</ele><time>2026-04-29T15:21:46.928Z</time></trkpt><trkpt lat="43.0777188" lon="13.1801487"><ele>1223.3999999999999</ele><time>2026-04-29T15:21:48.925Z</time></trkpt><trkpt lat="43.0776601" lon="13.180052"><ele>1221.0</ele><time>2026-04-29T15:21:50.937Z</time></trkpt><trkpt lat="43.0775969" lon="13.1799531"><ele>1221.0</ele><time>2026-04-29T15:21:52.935Z</time></trkpt><trkpt lat="43.0775303" lon="13.1798551"><ele>1221.0</ele><time>2026-04-29T15:21:54.919Z</time></trkpt><trkpt lat="43.0774563" lon="13.1797651"><ele>1221.0</ele><time>2026-04-29T15:21:56.942Z</time></trkpt><trkpt lat="43.0773791" lon="13.1796814"><ele>1221.0</ele><time>2026-04-29T15:21:58.949Z</time></trkpt><trkpt lat="43.077308" lon="13.1795933"><ele>1221.0</ele><time>2026-04-29T15:22:00.93Z</time></trkpt><trkpt lat="43.0772392" lon="13.17952"><ele>1216.8</ele><time>2026-04-29T15:22:02.932Z</time></trkpt><trkpt lat="43.0771599" lon="13.1794221"><ele>1212.6</ele><time>2026-04-29T15:22:04.889Z</time></trkpt><trkpt lat="43.0770943" lon="13.1793281"><ele>1208.4</ele><time>2026-04-29T15:22:06.941Z</time></trkpt><trkpt lat="43.0770122" lon="13.1792281"><ele>1204.2</ele><time>2026-04-29T15:22:08.928Z</time></trkpt><trkpt lat="43.0769343" lon="13.1791371"><ele>1200.0</ele><time>2026-04-29T15:22:10.937Z</time></trkpt><trkpt lat="43.0768572" lon="13.179052"><ele>1197.2</ele><time>2026-04-29T15:22:12.958Z</time></trkpt><trkpt lat="43.0767705" lon="13.1789661"><ele>1194.4</ele><time>2026-04-29T15:22:14.903Z</time></trkpt><trkpt lat="43.076684" lon="13.178892"><ele>1191.6</ele><time>2026-04-29T15:22:16.918Z</time></trkpt><trkpt lat="43.0765907" lon="13.1788095"><ele>1188.8</ele><time>2026-04-29T15:22:18.949Z</time></trkpt><trkpt lat="43.0764969" lon="13.1787028"><ele>1186.0</ele><time>2026-04-29T15:22:20.963Z</time></trkpt><trkpt lat="43.0764193" lon="13.1786022"><ele>1183.8</ele><time>2026-04-29T15:22:22.938Z</time></trkpt><trkpt lat="43.076356" lon="13.178504"><ele>1181.6</ele><time>2026-04-29T15:22:24.897Z</time></trkpt><trkpt lat="43.0762693" lon="13.1784311"><ele>1179.4</ele><time>2026-04-29T15:22:26.932Z</time></trkpt><trkpt lat="43.0761769" lon="13.1783383"><ele>1177.2</ele><time>2026-04-29T15:22:28.944Z</time></trkpt><trkpt lat="43.0760832" lon="13.1782395"><ele>1175.0</ele><time>2026-04-29T15:22:30.918Z</time></trkpt><trkpt lat="43.075989" lon="13.1781443"><ele>1172.2</ele><time>2026-04-29T15:22:32.98Z</time></trkpt><trkpt lat="43.0759379" lon="13.1780939"><ele>1169.4</ele><time>2026-04-29T15:22:33.906Z</time></trkpt><trkpt lat="43.0758425" lon="13.1780181"><ele>1166.6</ele><time>2026-04-29T15:22:35.935Z</time></trkpt><trkpt lat="43.0757405" lon="13.1779415"><ele>1163.8</ele><time>2026-04-29T15:22:37.896Z</time></trkpt><trkpt lat="43.0756361" lon="13.177866"><ele>1161.0</ele><time>2026-04-29T15:22:39.938Z</time></trkpt><trkpt lat="43.0755435" lon="13.1778035"><ele>1158.3999999999999</ele><time>2026-04-29T15:22:41.929Z</time></trkpt><trkpt lat="43.0754571" lon="13.1777507"><ele>1155.8</ele><time>2026-04-29T15:22:43.91Z</time></trkpt><trkpt lat="43.0753612" lon="13.1776941"><ele>1153.1999999999998</ele><time>2026-04-29T15:22:45.914Z</time></trkpt><trkpt lat="43.0752634" lon="13.1776356"><ele>1150.6</ele><time>2026-04-29T15:22:47.939Z</time></trkpt><trkpt lat="43.0751636" lon="13.1775776"><ele>1148.0</ele><time>2026-04-29T15:22:49.938Z</time></trkpt><trkpt lat="43.075071" lon="13.1775287"><ele>1148.0</ele><time>2026-04-29T15:22:51.954Z</time></trkpt><trkpt lat="43.0749701" lon="13.1774645"><ele>1148.0</ele><time>2026-04-29T15:22:53.922Z</time></trkpt><trkpt lat="43.074907" lon="13.1774238"><ele>1148.0</ele><time>2026-04-29T15:22:54.95Z</time></trkpt><trkpt lat="43.0748298" lon="13.1773829"><ele>1148.0</ele><time>2026-04-29T15:22:55.951Z</time></trkpt><trkpt lat="43.0747526" lon="13.1773411"><ele>1148.0</ele><time>2026-04-29T15:22:56.936Z</time></trkpt><trkpt lat="43.0746711" lon="13.1772775"><ele>1148.0</ele><time>2026-04-29T15:22:57.941Z</time></trkpt><trkpt lat="43.0745923" lon="13.1771946"><ele>1144.4</ele><time>2026-04-29T15:22:58.922Z</time></trkpt><trkpt lat="43.0745214" lon="13.17711"><ele>1140.8</ele><time>2026-04-29T15:22:59.942Z</time></trkpt><trkpt lat="43.0744519" lon="13.1770255"><ele>1137.2</ele><time>2026-04-29T15:23:00.941Z</time></trkpt><trkpt lat="43.0743834" lon="13.1769433"><ele>1133.6</ele><time>2026-04-29T15:23:01.969Z</time></trkpt><trkpt lat="43.074312" lon="13.1768635"><ele>1130.0</ele><time>2026-04-29T15:23:02.965Z</time></trkpt><trkpt lat="43.0742412" lon="13.1767877"><ele>1130.0</ele><time>2026-04-29T15:23:03.944Z</time></trkpt><trkpt lat="43.0741716" lon="13.1767141"><ele>1130.0</ele><time>2026-04-29T15:23:04.94Z</time></trkpt><trkpt lat="43.0741025" lon="13.1766275"><ele>1130.0</ele><time>2026-04-29T15:23:05.924Z</time></trkpt><trkpt lat="43.0740333" lon="13.1765366"><ele>1130.0</ele><time>2026-04-29T15:23:06.956Z</time></trkpt><trkpt lat="43.073963" lon="13.1764399"><ele>1130.0</ele><time>2026-04-29T15:23:07.93Z</time></trkpt><trkpt lat="43.0738919" lon="13.1763416"><ele>1127.5</ele><time>2026-04-29T15:23:08.947Z</time></trkpt><trkpt lat="43.0738197" lon="13.1762501"><ele>1125.0</ele><time>2026-04-29T15:23:09.943Z</time></trkpt><trkpt lat="43.0737518" lon="13.1761649"><ele>1122.5</ele><time>2026-04-29T15:23:10.959Z</time></trkpt><trkpt lat="43.0736871" lon="13.1760882"><ele>1120.0</ele><time>2026-04-29T15:23:11.945Z</time></trkpt><trkpt lat="43.073628" lon="13.1760191"><ele>1117.5</ele><time>2026-04-29T15:23:12.903Z</time></trkpt><trkpt lat="43.0735729" lon="13.1759561"><ele>1115.0</ele><time>2026-04-29T15:23:13.957Z</time></trkpt><trkpt lat="43.0735248" lon="13.175898"><ele>1115.0</ele><time>2026-04-29T15:23:14.9Z</time></trkpt><trkpt lat="43.0734345" lon="13.1757816"><ele>1115.0</ele><time>2026-04-29T15:23:16.906Z</time></trkpt><trkpt lat="43.0733397" lon="13.1756781"><ele>1115.0</ele><time>2026-04-29T15:23:18.985Z</time></trkpt><trkpt lat="43.0732834" lon="13.1756217"><ele>1115.0</ele><time>2026-04-29T15:23:19.957Z</time></trkpt><trkpt lat="43.0732197" lon="13.1755643"><ele>1115.0</ele><time>2026-04-29T15:23:20.908Z</time></trkpt><trkpt lat="43.0731586" lon="13.1755071"><ele>1110.8333333333335</ele><time>2026-04-29T15:23:21.932Z</time></trkpt><trkpt lat="43.0731001" lon="13.1754468"><ele>1106.6666666666667</ele><time>2026-04-29T15:23:22.949Z</time></trkpt><trkpt lat="43.0730461" lon="13.1753806"><ele>1102.5</ele><time>2026-04-29T15:23:23.959Z</time></trkpt><trkpt lat="43.0729934" lon="13.1753156"><ele>1098.3333333333333</ele><time>2026-04-29T15:23:24.939Z</time></trkpt><trkpt lat="43.0729414" lon="13.1752563"><ele>1094.1666666666665</ele><time>2026-04-29T15:23:25.933Z</time></trkpt><trkpt lat="43.0728593" lon="13.1751382"><ele>1090.0</ele><time>2026-04-29T15:23:27.955Z</time></trkpt><trkpt lat="43.0727871" lon="13.1750396"><ele>1090.0</ele><time>2026-04-29T15:23:29.944Z</time></trkpt><trkpt lat="43.0727017" lon="13.1749776"><ele>1090.0</ele><time>2026-04-29T15:23:31.95Z</time></trkpt><trkpt lat="43.0726007" lon="13.1749753"><ele>1090.0</ele><time>2026-04-29T15:23:33.954Z</time></trkpt><trkpt lat="43.0724963" lon="13.1749743"><ele>1090.0</ele><time>2026-04-29T15:23:35.986Z</time></trkpt><trkpt lat="43.072396" lon="13.1749701"><ele>1090.0</ele><time>2026-04-29T15:23:37.957Z</time></trkpt><trkpt lat="43.0723048" lon="13.1749651"><ele>1087.3333333333333</ele><time>2026-04-29T15:23:39.92Z</time></trkpt><trkpt lat="43.072218" lon="13.1749519"><ele>1084.6666666666665</ele><time>2026-04-29T15:23:41.945Z</time></trkpt><trkpt lat="43.072131" lon="13.1749816"><ele>1082.0</ele><time>2026-04-29T15:23:43.91Z</time></trkpt><trkpt lat="43.072047" lon="13.1750345"><ele>1079.3333333333333</ele><time>2026-04-29T15:23:45.904Z</time></trkpt><trkpt lat="43.0719473" lon="13.1750869"><ele>1076.6666666666667</ele><time>2026-04-29T15:23:47.936Z</time></trkpt><trkpt lat="43.0718805" lon="13.1750984"><ele>1074.0</ele><time>2026-04-29T15:23:48.954Z</time></trkpt><trkpt lat="43.0718128" lon="13.1751194"><ele>1074.0</ele><time>2026-04-29T15:23:49.936Z</time></trkpt><trkpt lat="43.0717383" lon="13.1751128"><ele>1074.0</ele><time>2026-04-29T15:23:50.899Z</time></trkpt><trkpt lat="43.0716416" lon="13.1751056"><ele>1074.0</ele><time>2026-04-29T15:23:51.951Z</time></trkpt><trkpt lat="43.0715436" lon="13.1750971"><ele>1074.0</ele><time>2026-04-29T15:23:52.922Z</time></trkpt><trkpt lat="43.0714341" lon="13.1750804"><ele>1074.0</ele><time>2026-04-29T15:23:53.943Z</time></trkpt><trkpt lat="43.0713298" lon="13.1750536"><ele>1073.1666666666667</ele><time>2026-04-29T15:23:54.953Z</time></trkpt><trkpt lat="43.0712431" lon="13.1750178"><ele>1072.3333333333333</ele><time>2026-04-29T15:23:55.9Z</time></trkpt><trkpt lat="43.071172" lon="13.1749859"><ele>1071.5</ele><time>2026-04-29T15:23:56.893Z</time></trkpt><trkpt lat="43.0710862" lon="13.1749295"><ele>1070.6666666666665</ele><time>2026-04-29T15:23:58.911Z</time></trkpt><trkpt lat="43.0710238" lon="13.1748878"><ele>1069.8333333333333</ele><time>2026-04-29T15:24:00.893Z</time></trkpt><trkpt lat="43.0709573" lon="13.1748347"><ele>1069.0</ele><time>2026-04-29T15:24:02.904Z</time></trkpt><trkpt lat="43.0708772" lon="13.1747755"><ele>1065.5</ele><time>2026-04-29T15:24:04.887Z</time></trkpt><trkpt lat="43.0707667" lon="13.1746992"><ele>1062.0</ele><time>2026-04-29T15:24:06.935Z</time></trkpt><trkpt lat="43.0706576" lon="13.1746558"><ele>1058.5</ele><time>2026-04-29T15:24:08.917Z</time></trkpt><trkpt lat="43.070547" lon="13.1746248"><ele>1055.0</ele><time>2026-04-29T15:24:10.905Z</time></trkpt><trkpt lat="43.0704322" lon="13.1745843"><ele>1055.0</ele><time>2026-04-29T15:24:12.916Z</time></trkpt><trkpt lat="43.0703682" lon="13.1745552"><ele>1055.0</ele><time>2026-04-29T15:24:13.958Z</time></trkpt><trkpt lat="43.0703021" lon="13.1745268"><ele>1055.0</ele><time>2026-04-29T15:24:14.922Z</time></trkpt><trkpt lat="43.0702335" lon="13.1744986"><ele>1055.0</ele><time>2026-04-29T15:24:15.891Z</time></trkpt><trkpt lat="43.070162" lon="13.1744785"><ele>1055.0</ele><time>2026-04-29T15:24:16.953Z</time></trkpt><trkpt lat="43.0700873" lon="13.1744676"><ele>1055.0</ele><time>2026-04-29T15:24:17.932Z</time></trkpt><trkpt lat="43.0700098" lon="13.1744557"><ele>1055.0</ele><time>2026-04-29T15:24:18.947Z</time></trkpt><trkpt lat="43.0699204" lon="13.1744549"><ele>1054.1666666666667</ele><time>2026-04-29T15:24:19.941Z</time></trkpt><trkpt lat="43.069835" lon="13.174452"><ele>1053.3333333333335</ele><time>2026-04-29T15:24:20.911Z</time></trkpt><trkpt lat="43.0697481" lon="13.1744471"><ele>1052.5</ele><time>2026-04-29T15:24:21.951Z</time></trkpt><trkpt lat="43.0696713" lon="13.1744425"><ele>1051.6666666666667</ele><time>2026-04-29T15:24:22.937Z</time></trkpt><trkpt lat="43.0695995" lon="13.1744361"><ele>1050.8333333333333</ele><time>2026-04-29T15:24:23.942Z</time></trkpt><trkpt lat="43.0695234" lon="13.1744311"><ele>1050.0</ele><time>2026-04-29T15:24:24.955Z</time></trkpt><trkpt lat="43.0694365" lon="13.1744297"><ele>1050.0</ele><time>2026-04-29T15:24:25.908Z</time></trkpt><trkpt lat="43.0693443" lon="13.1744367"><ele>1050.0</ele><time>2026-04-29T15:24:26.957Z</time></trkpt><trkpt lat="43.0692434" lon="13.1744445"><ele>1050.0</ele><time>2026-04-29T15:24:27.945Z</time></trkpt><trkpt lat="43.0691354" lon="13.1744583"><ele>1050.0</ele><time>2026-04-29T15:24:28.939Z</time></trkpt><trkpt lat="43.0690335" lon="13.1744728"><ele>1050.0</ele><time>2026-04-29T15:24:29.953Z</time></trkpt><trkpt lat="43.0689319" lon="13.1744592"><ele>1052.0</ele><time>2026-04-29T15:24:30.895Z</time></trkpt><trkpt lat="43.0688383" lon="13.1744216"><ele>1054.0</ele><time>2026-04-29T15:24:31.934Z</time></trkpt><trkpt lat="43.0687597" lon="13.1744068"><ele>1056.0</ele><time>2026-04-29T15:24:32.924Z</time></trkpt><trkpt lat="43.0686888" lon="13.1743901"><ele>1058.0</ele><time>2026-04-29T15:24:33.928Z</time></trkpt><trkpt lat="43.0686134" lon="13.1743725"><ele>1060.0</ele><time>2026-04-29T15:24:34.927Z</time></trkpt><trkpt lat="43.0685451" lon="13.174358"><ele>1062.0</ele><time>2026-04-29T15:24:35.892Z</time></trkpt><trkpt lat="43.0684465" lon="13.1743298"><ele>1062.0</ele><time>2026-04-29T15:24:37.989Z</time></trkpt><trkpt lat="43.0683313" lon="13.1743458"><ele>1062.0</ele><time>2026-04-29T15:24:39.938Z</time></trkpt><trkpt lat="43.068269" lon="13.1743738"><ele>1062.0</ele><time>2026-04-29T15:24:40.901Z</time></trkpt><trkpt lat="43.068209" lon="13.174419"><ele>1062.0</ele><time>2026-04-29T15:24:41.916Z</time></trkpt><trkpt lat="43.0681307" lon="13.1744405"><ele>1062.0</ele><time>2026-04-29T15:24:42.924Z</time></trkpt><trkpt lat="43.0680584" lon="13.1744475"><ele>1062.0</ele><time>2026-04-29T15:24:43.954Z</time></trkpt><trkpt lat="43.0679935" lon="13.1744524"><ele>1062.1666666666667</ele><time>2026-04-29T15:24:44.943Z</time></trkpt><trkpt lat="43.0678911" lon="13.1744575"><ele>1062.3333333333333</ele><time>2026-04-29T15:24:46.929Z</time></trkpt><trkpt lat="43.0677807" lon="13.174459"><ele>1062.5</ele><time>2026-04-29T15:24:48.925Z</time></trkpt><trkpt lat="43.0677166" lon="13.1744575"><ele>1062.6666666666665</ele><time>2026-04-29T15:24:49.923Z</time></trkpt><trkpt lat="43.0676458" lon="13.1744504"><ele>1062.8333333333333</ele><time>2026-04-29T15:24:50.91Z</time></trkpt><trkpt lat="43.0675763" lon="13.1744477"><ele>1063.0</ele><time>2026-04-29T15:24:51.951Z</time></trkpt><trkpt lat="43.0675046" lon="13.1744405"><ele>1061.2</ele><time>2026-04-29T15:24:52.937Z</time></trkpt><trkpt lat="43.0674177" lon="13.1744334"><ele>1059.4</ele><time>2026-04-29T15:24:53.895Z</time></trkpt><trkpt lat="43.0673344" lon="13.1744237"><ele>1057.6000000000001</ele><time>2026-04-29T15:24:54.946Z</time></trkpt><trkpt lat="43.0672604" lon="13.1744209"><ele>1055.8</ele><time>2026-04-29T15:24:55.909Z</time></trkpt><trkpt lat="43.0671438" lon="13.174414"><ele>1054.0</ele><time>2026-04-29T15:24:57.943Z</time></trkpt><trkpt lat="43.0670489" lon="13.174417"><ele>1054.0</ele><time>2026-04-29T15:24:59.942Z</time></trkpt><trkpt lat="43.0669604" lon="13.1744284"><ele>1054.0</ele><time>2026-04-29T15:25:01.901Z</time></trkpt><trkpt lat="43.0668673" lon="13.1744462"><ele>1054.0</ele><time>2026-04-29T15:25:03.946Z</time></trkpt><trkpt lat="43.0667621" lon="13.1744615"><ele>1054.0</ele><time>2026-04-29T15:25:05.908Z</time></trkpt><trkpt lat="43.0666683" lon="13.1744683"><ele>1054.0</ele><time>2026-04-29T15:25:07.949Z</time></trkpt><trkpt lat="43.0665866" lon="13.1744703"><ele>1051.0</ele><time>2026-04-29T15:25:09.96Z</time></trkpt><trkpt lat="43.0665058" lon="13.1744706"><ele>1048.0</ele><time>2026-04-29T15:25:11.971Z</time></trkpt><trkpt lat="43.06642" lon="13.17447"><ele>1045.0</ele><time>2026-04-29T15:25:13.965Z</time></trkpt><trkpt lat="43.0663357" lon="13.1744756"><ele>1042.0</ele><time>2026-04-29T15:25:15.943Z</time></trkpt><trkpt lat="43.0662503" lon="13.1744845"><ele>1039.0</ele><time>2026-04-29T15:25:17.935Z</time></trkpt><trkpt lat="43.0661659" lon="13.1744908"><ele>1036.0</ele><time>2026-04-29T15:25:19.927Z</time></trkpt><trkpt lat="43.0660803" lon="13.174487"><ele>1036.0</ele><time>2026-04-29T15:25:21.9Z</time></trkpt><trkpt lat="43.0659942" lon="13.174487"><ele>1036.0</ele><time>2026-04-29T15:25:23.924Z</time></trkpt><trkpt lat="43.0659267" lon="13.1744868"><ele>1036.0</ele><time>2026-04-29T15:25:25.913Z</time></trkpt><trkpt lat="43.0658589" lon="13.1744632"><ele>1036.0</ele><time>2026-04-29T15:25:28.893Z</time></trkpt><trkpt lat="43.0657963" lon="13.1744877"><ele>1036.0</ele><time>2026-04-29T15:34:18.84Z</time></trkpt><trkpt lat="43.0657056" lon="13.1744593"><ele>1036.0</ele><time>2026-04-29T15:34:21.885Z</time></trkpt><trkpt lat="43.0656405" lon="13.1744412"><ele>1036.0</ele><time>2026-04-29T15:34:23.894Z</time></trkpt><trkpt lat="43.0655697" lon="13.1744197"><ele>1031.2</ele><time>2026-04-29T15:34:25.904Z</time></trkpt><trkpt lat="43.0654843" lon="13.1744042"><ele>1026.3999999999999</ele><time>2026-04-29T15:34:28.894Z</time></trkpt><trkpt lat="43.0653912" lon="13.1743911"><ele>1021.6</ele><time>2026-04-29T15:34:31.895Z</time></trkpt><trkpt lat="43.0652975" lon="13.1743817"><ele>1016.8</ele><time>2026-04-29T15:34:33.895Z</time></trkpt><trkpt lat="43.065179" lon="13.1743411"><ele>1012.0</ele><time>2026-04-29T15:34:35.868Z</time></trkpt><trkpt lat="43.0650765" lon="13.1743149"><ele>1011.9999999999999</ele><time>2026-04-29T15:34:37.89Z</time></trkpt><trkpt lat="43.0649962" lon="13.174294"><ele>1012.0</ele><time>2026-04-29T15:34:39.89Z</time></trkpt><trkpt lat="43.0649328" lon="13.1742737"><ele>1012.0</ele><time>2026-04-29T15:34:41.953Z</time></trkpt><trkpt lat="43.0648627" lon="13.1742565"><ele>1012.0</ele><time>2026-04-29T15:34:43.943Z</time></trkpt><trkpt lat="43.06476" lon="13.1742148"><ele>1011.9999999999999</ele><time>2026-04-29T15:34:45.935Z</time></trkpt><trkpt lat="43.0646741" lon="13.1741711"><ele>1012.0</ele><time>2026-04-29T15:34:47.925Z</time></trkpt><trkpt lat="43.0646103" lon="13.1740984"><ele>1008.857142857143</ele><time>2026-04-29T15:35:22.963Z</time></trkpt><trkpt lat="43.0645469" lon="13.1740685"><ele>1005.7142857142858</ele><time>2026-04-29T15:35:26.949Z</time></trkpt><trkpt lat="43.0645089" lon="13.1741616"><ele>1002.5714285714286</ele><time>2026-04-29T15:35:30.938Z</time></trkpt><trkpt lat="43.0644494" lon="13.1742037"><ele>999.4285714285714</ele><time>2026-04-29T15:35:34.96Z</time></trkpt><trkpt lat="43.0643719" lon="13.1742594"><ele>996.2857142857142</ele><time>2026-04-29T15:35:37.921Z</time></trkpt><trkpt lat="43.0643138" lon="13.1742927"><ele>993.142857142857</ele><time>2026-04-29T15:35:39.942Z</time></trkpt><trkpt lat="43.0642483" lon="13.1743229"><ele>989.9999999999999</ele><time>2026-04-29T15:35:41.909Z</time></trkpt><trkpt lat="43.0641978" lon="13.1743746"><ele>990.0</ele><time>2026-04-29T15:35:43.951Z</time></trkpt><trkpt lat="43.0641452" lon="13.1744244"><ele>990.0</ele><time>2026-04-29T15:35:46.967Z</time></trkpt><trkpt lat="43.0640773" lon="13.1744693"><ele>990.0</ele><time>2026-04-29T15:35:48.934Z</time></trkpt><trkpt lat="43.0640187" lon="13.1745035"><ele>990.0</ele><time>2026-04-29T15:35:49.938Z</time></trkpt><trkpt lat="43.0639162" lon="13.174557"><ele>990.0</ele><time>2026-04-29T15:35:51.955Z</time></trkpt><trkpt lat="43.0638246" lon="13.1745248"><ele>990.0</ele><time>2026-04-29T15:35:53.944Z</time></trkpt><trkpt lat="43.0637634" lon="13.1744798"><ele>986.4285714285713</ele><time>2026-04-29T15:35:55.921Z</time></trkpt><trkpt lat="43.0636867" lon="13.1744375"><ele>982.8571428571429</ele><time>2026-04-29T15:35:58.909Z</time></trkpt><trkpt lat="43.0636232" lon="13.1744421"><ele>979.2857142857142</ele><time>2026-04-29T15:36:02.93Z</time></trkpt><trkpt lat="43.0635636" lon="13.1744716"><ele>975.7142857142857</ele><time>2026-04-29T15:36:07.927Z</time></trkpt><trkpt lat="43.0634892" lon="13.1745076"><ele>972.1428571428571</ele><time>2026-04-29T15:36:11.938Z</time></trkpt><trkpt lat="43.0634252" lon="13.1745237"><ele>968.5714285714286</ele><time>2026-04-29T15:36:13.918Z</time></trkpt><trkpt lat="43.0633517" lon="13.1745525"><ele>965.0</ele><time>2026-04-29T15:36:16.938Z</time></trkpt><trkpt lat="43.0632882" lon="13.1745904"><ele>960.1666666666667</ele><time>2026-04-29T15:36:20.933Z</time></trkpt><trkpt lat="43.0632133" lon="13.1746089"><ele>955.3333333333334</ele><time>2026-04-29T15:36:41.923Z</time></trkpt><trkpt lat="43.0631494" lon="13.17463"><ele>950.5</ele><time>2026-04-29T15:36:44.918Z</time></trkpt><trkpt lat="43.0630698" lon="13.1746567"><ele>945.6666666666667</ele><time>2026-04-29T15:36:47.944Z</time></trkpt><trkpt lat="43.0630011" lon="13.1746818"><ele>940.8333333333334</ele><time>2026-04-29T15:36:49.922Z</time></trkpt><trkpt lat="43.0629338" lon="13.1747215"><ele>936.0</ele><time>2026-04-29T15:36:51.93Z</time></trkpt><trkpt lat="43.0628474" lon="13.1747825"><ele>936.0</ele><time>2026-04-29T15:36:53.914Z</time></trkpt><trkpt lat="43.0627455" lon="13.1748163"><ele>936.0</ele><time>2026-04-29T15:36:55.924Z</time></trkpt><trkpt lat="43.0626801" lon="13.174831"><ele>936.0</ele><time>2026-04-29T15:36:56.952Z</time></trkpt><trkpt lat="43.0626134" lon="13.1748415"><ele>936.0</ele><time>2026-04-29T15:36:57.942Z</time></trkpt><trkpt lat="43.0625455" lon="13.1748474"><ele>936.0</ele><time>2026-04-29T15:36:58.942Z</time></trkpt><trkpt lat="43.0624807" lon="13.1748482"><ele>936.0</ele><time>2026-04-29T15:36:59.939Z</time></trkpt><trkpt lat="43.0623912" lon="13.1748548"><ele>935.6666666666666</ele><time>2026-04-29T15:37:01.939Z</time></trkpt><trkpt lat="43.0623234" lon="13.1748633"><ele>935.3333333333333</ele><time>2026-04-29T15:37:03.91Z</time></trkpt><trkpt lat="43.0622314" lon="13.1748527"><ele>935.0</ele><time>2026-04-29T15:37:06.964Z</time></trkpt><trkpt lat="43.0621563" lon="13.1748561"><ele>934.6666666666666</ele><time>2026-04-29T15:37:08.897Z</time></trkpt><trkpt lat="43.0620633" lon="13.1748525"><ele>934.3333333333333</ele><time>2026-04-29T15:37:10.928Z</time></trkpt><trkpt lat="43.061954" lon="13.1748397"><ele>934.0</ele><time>2026-04-29T15:37:12.985Z</time></trkpt><trkpt lat="43.0618452" lon="13.1748114"><ele>932.3333333333333</ele><time>2026-04-29T15:37:14.937Z</time></trkpt><trkpt lat="43.0617502" lon="13.174774"><ele>930.6666666666666</ele><time>2026-04-29T15:37:16.932Z</time></trkpt><trkpt lat="43.0616758" lon="13.1747393"><ele>929.0</ele><time>2026-04-29T15:37:18.912Z</time></trkpt><trkpt lat="43.0615996" lon="13.1747156"><ele>927.3333333333333</ele><time>2026-04-29T15:37:22.916Z</time></trkpt><trkpt lat="43.0615318" lon="13.1747132"><ele>925.6666666666666</ele><time>2026-04-29T15:37:25.915Z</time></trkpt><trkpt lat="43.0614603" lon="13.1747117"><ele>924.0</ele><time>2026-04-29T15:37:28.881Z</time></trkpt><trkpt lat="43.0613871" lon="13.1746998"><ele>919.8333333333334</ele><time>2026-04-29T15:37:31.931Z</time></trkpt><trkpt lat="43.061306" lon="13.174669"><ele>915.6666666666667</ele><time>2026-04-29T15:37:34.91Z</time></trkpt><trkpt lat="43.06123" lon="13.174653"><ele>911.5</ele><time>2026-04-29T15:37:37.896Z</time></trkpt><trkpt lat="43.0611527" lon="13.1746322"><ele>907.3333333333334</ele><time>2026-04-29T15:37:40.94Z</time></trkpt><trkpt lat="43.0610695" lon="13.1746208"><ele>903.1666666666667</ele><time>2026-04-29T15:37:43.89Z</time></trkpt><trkpt lat="43.0609806" lon="13.1746229"><ele>899.0</ele><time>2026-04-29T15:37:46.924Z</time></trkpt><trkpt lat="43.0609012" lon="13.1746347"><ele>899.0000000000001</ele><time>2026-04-29T15:37:49.94Z</time></trkpt><trkpt lat="43.0608231" lon="13.1746381"><ele>899.0</ele><time>2026-04-29T15:37:52.942Z</time></trkpt><trkpt lat="43.0607354" lon="13.1746089"><ele>899.0</ele><time>2026-04-29T15:37:55.906Z</time></trkpt><trkpt lat="43.0606629" lon="13.1745618"><ele>899.0</ele><time>2026-04-29T15:37:58.893Z</time></trkpt><trkpt lat="43.0606041" lon="13.1745098"><ele>899.0000000000001</ele><time>2026-04-29T15:38:01.955Z</time></trkpt><trkpt lat="43.0605369" lon="13.1744265"><ele>899.0</ele><time>2026-04-29T15:38:04.939Z</time></trkpt><trkpt lat="43.0605203" lon="13.1743365"><ele>893.5000000000001</ele><time>2026-04-29T15:38:07.934Z</time></trkpt><trkpt lat="43.0604963" lon="13.1742369"><ele>888.0</ele><time>2026-04-29T15:38:33.914Z</time></trkpt><trkpt lat="43.0604704" lon="13.1741356"><ele>882.5</ele><time>2026-04-29T15:38:37.922Z</time></trkpt><trkpt lat="43.0604721" lon="13.1740387"><ele>877.0</ele><time>2026-04-29T15:38:40.937Z</time></trkpt><trkpt lat="43.0605011" lon="13.1739394"><ele>871.5000000000001</ele><time>2026-04-29T15:38:44.918Z</time></trkpt><trkpt lat="43.0605161" lon="13.1738457"><ele>866.0</ele><time>2026-04-29T15:38:48.924Z</time></trkpt><trkpt lat="43.0605403" lon="13.1737252"><ele>863.3333333333334</ele><time>2026-04-29T15:38:52.941Z</time></trkpt><trkpt lat="43.0605788" lon="13.1736269"><ele>860.6666666666667</ele><time>2026-04-29T15:38:56.932Z</time></trkpt><trkpt lat="43.0606169" lon="13.1735346"><ele>858.0</ele><time>2026-04-29T15:38:59.891Z</time></trkpt><trkpt lat="43.0606349" lon="13.1734207"><ele>855.3333333333333</ele><time>2026-04-29T15:39:02.946Z</time></trkpt><trkpt lat="43.0606539" lon="13.1733147"><ele>852.6666666666666</ele><time>2026-04-29T15:39:06.944Z</time></trkpt><trkpt lat="43.0606712" lon="13.1732209"><ele>850.0</ele><time>2026-04-29T15:39:10.928Z</time></trkpt><trkpt lat="43.0607212" lon="13.1731413"><ele>849.9999999999999</ele><time>2026-04-29T15:39:12.955Z</time></trkpt><trkpt lat="43.0607845" lon="13.1730951"><ele>850.0</ele><time>2026-04-29T15:39:15.985Z</time></trkpt><trkpt lat="43.0608434" lon="13.1730603"><ele>850.0</ele><time>2026-04-29T15:43:13.825Z</time></trkpt><trkpt lat="43.060926" lon="13.1729692"><ele>850.0</ele><time>2026-04-29T15:43:15.884Z</time></trkpt><trkpt lat="43.0610206" lon="13.1728917"><ele>849.9999999999999</ele><time>2026-04-29T15:43:17.902Z</time></trkpt><trkpt lat="43.061101" lon="13.1728381"><ele>850.0</ele><time>2026-04-29T15:43:19.948Z</time></trkpt><trkpt lat="43.0611797" lon="13.1727889"><ele>850.0</ele><time>2026-04-29T15:43:21.951Z</time></trkpt><trkpt lat="43.0612889" lon="13.172793"><ele>850.0</ele><time>2026-04-29T15:43:23.935Z</time></trkpt><trkpt lat="43.0613961" lon="13.1728188"><ele>850.0</ele><time>2026-04-29T15:43:25.924Z</time></trkpt><trkpt lat="43.0614914" lon="13.172811"><ele>850.0</ele><time>2026-04-29T15:43:27.948Z</time></trkpt><trkpt lat="43.0615515" lon="13.1727172"><ele>850.0</ele><time>2026-04-29T15:43:29.938Z</time></trkpt><trkpt lat="43.0615913" lon="13.1725896"><ele>848.2</ele><time>2026-04-29T15:43:31.935Z</time></trkpt><trkpt lat="43.0616382" lon="13.1724523"><ele>846.4</ele><time>2026-04-29T15:43:33.902Z</time></trkpt><trkpt lat="43.0616787" lon="13.1723282"><ele>844.5999999999999</ele><time>2026-04-29T15:43:35.909Z</time></trkpt><trkpt lat="43.0617167" lon="13.1722314"><ele>842.8</ele><time>2026-04-29T15:43:37.952Z</time></trkpt><trkpt lat="43.0617501" lon="13.172144"><ele>841.0</ele><time>2026-04-29T15:43:39.938Z</time></trkpt><trkpt lat="43.061799" lon="13.1720366"><ele>840.9999999999999</ele><time>2026-04-29T15:43:41.942Z</time></trkpt><trkpt lat="43.0618695" lon="13.1719225"><ele>841.0</ele><time>2026-04-29T15:43:43.939Z</time></trkpt><trkpt lat="43.0619171" lon="13.1718643"><ele>841.0</ele><time>2026-04-29T15:43:44.929Z</time></trkpt><trkpt lat="43.0619654" lon="13.1718007"><ele>841.0</ele><time>2026-04-29T15:43:45.933Z</time></trkpt><trkpt lat="43.0620147" lon="13.1717358"><ele>840.9999999999999</ele><time>2026-04-29T15:43:46.925Z</time></trkpt><trkpt lat="43.0620628" lon="13.1716501"><ele>841.0</ele><time>2026-04-29T15:43:47.915Z</time></trkpt><trkpt lat="43.06212" lon="13.1715486"><ele>842.8</ele><time>2026-04-29T15:43:48.926Z</time></trkpt><trkpt lat="43.0621823" lon="13.1714241"><ele>844.5999999999999</ele><time>2026-04-29T15:43:49.931Z</time></trkpt><trkpt lat="43.0622491" lon="13.1713198"><ele>846.4</ele><time>2026-04-29T15:43:50.914Z</time></trkpt><trkpt lat="43.0623198" lon="13.1712309"><ele>848.2</ele><time>2026-04-29T15:43:51.922Z</time></trkpt><trkpt lat="43.0623866" lon="13.1711458"><ele>850.0</ele><time>2026-04-29T15:43:52.921Z</time></trkpt><trkpt lat="43.0624544" lon="13.1710686"><ele>850.0</ele><time>2026-04-29T15:43:53.922Z</time></trkpt><trkpt lat="43.0625482" lon="13.1710372"><ele>850.0</ele><time>2026-04-29T15:43:54.933Z</time></trkpt><trkpt lat="43.0626566" lon="13.1709612"><ele>850.0</ele><time>2026-04-29T15:43:55.887Z</time></trkpt><trkpt lat="43.0627689" lon="13.1709026"><ele>850.0</ele><time>2026-04-29T15:43:56.934Z</time></trkpt><trkpt lat="43.0628556" lon="13.1708598"><ele>850.0</ele><time>2026-04-29T15:43:57.907Z</time></trkpt><trkpt lat="43.0629218" lon="13.1708299"><ele>850.0</ele><time>2026-04-29T15:43:58.917Z</time></trkpt><trkpt lat="43.0629839" lon="13.1707395"><ele>850.0</ele><time>2026-04-29T15:44:00.902Z</time></trkpt><trkpt lat="43.0630085" lon="13.1706417"><ele>850.0</ele><time>2026-04-29T15:44:01.926Z</time></trkpt><trkpt lat="43.0630272" lon="13.1705175"><ele>850.0</ele><time>2026-04-29T15:44:02.929Z</time></trkpt><trkpt lat="43.0630701" lon="13.170382"><ele>850.0</ele><time>2026-04-29T15:44:03.92Z</time></trkpt><trkpt lat="43.0631168" lon="13.1702602"><ele>850.8333333333333</ele><time>2026-04-29T15:44:04.912Z</time></trkpt><trkpt lat="43.0631664" lon="13.1701493"><ele>851.6666666666666</ele><time>2026-04-29T15:44:05.887Z</time></trkpt><trkpt lat="43.0632162" lon="13.1700502"><ele>852.5</ele><time>2026-04-29T15:44:06.928Z</time></trkpt><trkpt lat="43.063268" lon="13.1699636"><ele>853.3333333333333</ele><time>2026-04-29T15:44:07.919Z</time></trkpt><trkpt lat="43.0633171" lon="13.1698883"><ele>854.1666666666666</ele><time>2026-04-29T15:44:08.923Z</time></trkpt><trkpt lat="43.0633733" lon="13.1698335"><ele>855.0</ele><time>2026-04-29T15:44:09.917Z</time></trkpt><trkpt lat="43.0634754" lon="13.1697493"><ele>851.2</ele><time>2026-04-29T15:44:11.911Z</time></trkpt><trkpt lat="43.0635308" lon="13.1696238"><ele>847.4</ele><time>2026-04-29T15:44:13.919Z</time></trkpt><trkpt lat="43.0635492" lon="13.1694571"><ele>843.5999999999999</ele><time>2026-04-29T15:44:15.888Z</time></trkpt><trkpt lat="43.0635292" lon="13.1693667"><ele>839.8</ele><time>2026-04-29T15:44:16.922Z</time></trkpt><trkpt lat="43.0635085" lon="13.1692784"><ele>836.0</ele><time>2026-04-29T15:44:17.928Z</time></trkpt><trkpt lat="43.063481" lon="13.1691217"><ele>833.1999999999999</ele><time>2026-04-29T15:44:19.959Z</time></trkpt><trkpt lat="43.0634742" lon="13.1689837"><ele>830.4</ele><time>2026-04-29T15:44:21.918Z</time></trkpt><trkpt lat="43.0634969" lon="13.1688473"><ele>827.6</ele><time>2026-04-29T15:44:23.909Z</time></trkpt><trkpt lat="43.0635235" lon="13.1687437"><ele>824.8</ele><time>2026-04-29T15:44:24.905Z</time></trkpt><trkpt lat="43.0635571" lon="13.1686432"><ele>822.0</ele><time>2026-04-29T15:44:25.894Z</time></trkpt><trkpt lat="43.0635923" lon="13.1685322"><ele>822.0</ele><time>2026-04-29T15:44:26.916Z</time></trkpt><trkpt lat="43.0636307" lon="13.1684251"><ele>822.0</ele><time>2026-04-29T15:44:27.913Z</time></trkpt><trkpt lat="43.0636731" lon="13.1683368"><ele>822.0</ele><time>2026-04-29T15:44:28.918Z</time></trkpt><trkpt lat="43.0637289" lon="13.1682612"><ele>822.0</ele><time>2026-04-29T15:44:29.933Z</time></trkpt><trkpt lat="43.0637919" lon="13.1681826"><ele>822.0</ele><time>2026-04-29T15:44:30.884Z</time></trkpt><trkpt lat="43.0638695" lon="13.1681125"><ele>822.0</ele><time>2026-04-29T15:44:31.922Z</time></trkpt><trkpt lat="43.0639654" lon="13.1680382"><ele>820.8</ele><time>2026-04-29T15:44:32.916Z</time></trkpt><trkpt lat="43.06407" lon="13.1679606"><ele>819.6</ele><time>2026-04-29T15:44:33.911Z</time></trkpt><trkpt lat="43.0641606" lon="13.1678869"><ele>818.4</ele><time>2026-04-29T15:44:34.918Z</time></trkpt><trkpt lat="43.0642457" lon="13.1678248"><ele>817.1999999999999</ele><time>2026-04-29T15:44:35.878Z</time></trkpt><trkpt lat="43.0643332" lon="13.1677653"><ele>816.0</ele><time>2026-04-29T15:44:36.901Z</time></trkpt><trkpt lat="43.0644185" lon="13.1677163"><ele>816.0</ele><time>2026-04-29T15:44:37.934Z</time></trkpt><trkpt lat="43.0644953" lon="13.1676721"><ele>816.0</ele><time>2026-04-29T15:44:38.921Z</time></trkpt><trkpt lat="43.064566" lon="13.1676402"><ele>816.0</ele><time>2026-04-29T15:44:39.911Z</time></trkpt><trkpt lat="43.0646307" lon="13.1676205"><ele>816.0</ele><time>2026-04-29T15:44:40.894Z</time></trkpt><trkpt lat="43.064739" lon="13.1675958"><ele>816.0</ele><time>2026-04-29T15:44:42.908Z</time></trkpt><trkpt lat="43.0647888" lon="13.1675384"><ele>816.0</ele><time>2026-04-29T15:44:44.912Z</time></trkpt><trkpt lat="43.0647241" lon="13.1674472"><ele>816.0</ele><time>2026-04-29T15:44:47.914Z</time></trkpt><trkpt lat="43.0646443" lon="13.1674168"><ele>816.0</ele><time>2026-04-29T15:44:49.915Z</time></trkpt><trkpt lat="43.0645463" lon="13.1673827"><ele>816.0</ele><time>2026-04-29T15:44:51.934Z</time></trkpt><trkpt lat="43.0644459" lon="13.1672977"><ele>816.0</ele><time>2026-04-29T15:44:53.934Z</time></trkpt><trkpt lat="43.0643465" lon="13.1672055"><ele>816.0</ele><time>2026-04-29T15:44:55.894Z</time></trkpt><trkpt lat="43.0642847" lon="13.1671599"><ele>813.4285714285714</ele><time>2026-04-29T15:44:56.897Z</time></trkpt><trkpt lat="43.0642212" lon="13.1671142"><ele>810.8571428571429</ele><time>2026-04-29T15:44:57.921Z</time></trkpt><trkpt lat="43.0641524" lon="13.1670688"><ele>808.2857142857142</ele><time>2026-04-29T15:44:58.917Z</time></trkpt><trkpt lat="43.0640879" lon="13.167024"><ele>805.7142857142858</ele><time>2026-04-29T15:44:59.925Z</time></trkpt><trkpt lat="43.06403" lon="13.1669707"><ele>803.1428571428571</ele><time>2026-04-29T15:45:00.907Z</time></trkpt><trkpt lat="43.0639724" lon="13.1669187"><ele>800.5714285714286</ele><time>2026-04-29T15:45:01.92Z</time></trkpt><trkpt lat="43.0639236" lon="13.1668428"><ele>798.0</ele><time>2026-04-29T15:45:02.946Z</time></trkpt><trkpt lat="43.0638679" lon="13.1667617"><ele>797.5</ele><time>2026-04-29T15:45:03.946Z</time></trkpt><trkpt lat="43.0638166" lon="13.1666864"><ele>797.0</ele><time>2026-04-29T15:45:04.976Z</time></trkpt><trkpt lat="43.063778" lon="13.1666132"><ele>796.5</ele><time>2026-04-29T15:45:05.915Z</time></trkpt><trkpt lat="43.0637509" lon="13.1665338"><ele>796.0</ele><time>2026-04-29T15:45:06.936Z</time></trkpt><trkpt lat="43.0637225" lon="13.1664542"><ele>795.5</ele><time>2026-04-29T15:45:07.887Z</time></trkpt><trkpt lat="43.0636761" lon="13.1663248"><ele>795.0</ele><time>2026-04-29T15:45:09.932Z</time></trkpt><trkpt lat="43.06363" lon="13.1662282"><ele>795.0</ele><time>2026-04-29T15:45:11.933Z</time></trkpt><trkpt lat="43.0635568" lon="13.1661221"><ele>795.0</ele><time>2026-04-29T15:45:13.926Z</time></trkpt><trkpt lat="43.0634961" lon="13.1660556"><ele>795.0</ele><time>2026-04-29T15:45:14.934Z</time></trkpt><trkpt lat="43.0634154" lon="13.1660137"><ele>795.0</ele><time>2026-04-29T15:45:15.934Z</time></trkpt><trkpt lat="43.0633399" lon="13.1659887"><ele>795.0</ele><time>2026-04-29T15:45:16.89Z</time></trkpt><trkpt lat="43.063221" lon="13.1659532"><ele>795.5</ele><time>2026-04-29T15:45:18.921Z</time></trkpt><trkpt lat="43.0631051" lon="13.1659014"><ele>796.0</ele><time>2026-04-29T15:45:20.872Z</time></trkpt><trkpt lat="43.0629903" lon="13.1658577"><ele>796.5</ele><time>2026-04-29T15:45:22.934Z</time></trkpt><trkpt lat="43.0628804" lon="13.1658113"><ele>797.0</ele><time>2026-04-29T15:45:24.925Z</time></trkpt><trkpt lat="43.0627751" lon="13.1657505"><ele>799.6666666666667</ele><time>2026-04-29T15:45:26.967Z</time></trkpt><trkpt lat="43.0626665" lon="13.1656834"><ele>802.3333333333334</ele><time>2026-04-29T15:45:28.92Z</time></trkpt><trkpt lat="43.0626052" lon="13.1656512"><ele>805.0</ele><time>2026-04-29T15:45:29.882Z</time></trkpt><trkpt lat="43.0625447" lon="13.1656041"><ele>807.6666666666667</ele><time>2026-04-29T15:45:30.913Z</time></trkpt><trkpt lat="43.0624851" lon="13.1655625"><ele>810.3333333333334</ele><time>2026-04-29T15:45:31.922Z</time></trkpt><trkpt lat="43.0624271" lon="13.1655181"><ele>813.0</ele><time>2026-04-29T15:45:32.937Z</time></trkpt><trkpt lat="43.0623348" lon="13.1654538"><ele>813.0</ele><time>2026-04-29T15:45:34.929Z</time></trkpt><trkpt lat="43.0622618" lon="13.1654113"><ele>813.0</ele><time>2026-04-29T15:45:36.924Z</time></trkpt><trkpt lat="43.0621732" lon="13.1653736"><ele>813.0</ele><time>2026-04-29T15:45:38.935Z</time></trkpt><trkpt lat="43.0620429" lon="13.1653344"><ele>813.0</ele><time>2026-04-29T15:45:40.943Z</time></trkpt><trkpt lat="43.0619557" lon="13.1653134"><ele>813.0</ele><time>2026-04-29T15:45:41.93Z</time></trkpt><trkpt lat="43.0618462" lon="13.165295"><ele>813.0</ele><time>2026-04-29T15:45:42.912Z</time></trkpt><trkpt lat="43.0617423" lon="13.1652799"><ele>813.0</ele><time>2026-04-29T15:45:43.929Z</time></trkpt><trkpt lat="43.0616557" lon="13.1652716"><ele>813.0</ele><time>2026-04-29T15:45:44.906Z</time></trkpt><trkpt lat="43.0615859" lon="13.1652686"><ele>813.0</ele><time>2026-04-29T15:45:45.931Z</time></trkpt><trkpt lat="43.0614828" lon="13.1652761"><ele>813.0</ele><time>2026-04-29T15:45:47.917Z</time></trkpt><trkpt lat="43.0613984" lon="13.1652639"><ele>813.0</ele><time>2026-04-29T15:45:49.904Z</time></trkpt><trkpt lat="43.0612798" lon="13.1652829"><ele>811.0</ele><time>2026-04-29T15:45:51.921Z</time></trkpt><trkpt lat="43.0611531" lon="13.1652824"><ele>809.0</ele><time>2026-04-29T15:45:53.933Z</time></trkpt><trkpt lat="43.0610598" lon="13.1652764"><ele>807.0</ele><time>2026-04-29T15:45:55.929Z</time></trkpt><trkpt lat="43.0609816" lon="13.1652567"><ele>805.0</ele><time>2026-04-29T15:45:58.916Z</time></trkpt><trkpt lat="43.0609411" lon="13.1651836"><ele>803.0</ele><time>2026-04-29T15:46:12.927Z</time></trkpt><trkpt lat="43.0610147" lon="13.165198"><ele>801.0</ele><time>2026-04-29T15:46:15.916Z</time></trkpt><trkpt lat="43.0611097" lon="13.1651945"><ele>801.0</ele><time>2026-04-29T15:46:17.911Z</time></trkpt><trkpt lat="43.0612305" lon="13.1651695"><ele>801.0</ele><time>2026-04-29T15:46:19.935Z</time></trkpt><trkpt lat="43.0613238" lon="13.1651116"><ele>801.0</ele><time>2026-04-29T15:46:21.943Z</time></trkpt><trkpt lat="43.0613654" lon="13.1649884"><ele>801.0</ele><time>2026-04-29T15:46:23.928Z</time></trkpt><trkpt lat="43.0613919" lon="13.1648431"><ele>801.0</ele><time>2026-04-29T15:46:25.928Z</time></trkpt><trkpt lat="43.061435" lon="13.1647079"><ele>800.0</ele><time>2026-04-29T15:46:27.941Z</time></trkpt><trkpt lat="43.0615091" lon="13.1646144"><ele>799.0</ele><time>2026-04-29T15:46:29.959Z</time></trkpt><trkpt lat="43.0615625" lon="13.1645642"><ele>798.0</ele><time>2026-04-29T15:46:31.917Z</time></trkpt><trkpt lat="43.061619" lon="13.1645095"><ele>797.0</ele><time>2026-04-29T15:46:35.893Z</time></trkpt><trkpt lat="43.0616649" lon="13.1644422"><ele>796.0</ele><time>2026-04-29T15:48:32.921Z</time></trkpt><trkpt lat="43.0617211" lon="13.1643872"><ele>795.0</ele><time>2026-04-29T15:48:34.937Z</time></trkpt><trkpt lat="43.0617971" lon="13.1643134"><ele>793.2857142857143</ele><time>2026-04-29T15:48:37.926Z</time></trkpt><trkpt lat="43.0618652" lon="13.1642364"><ele>791.5714285714287</ele><time>2026-04-29T15:48:40.906Z</time></trkpt><trkpt lat="43.0619207" lon="13.1641915"><ele>789.8571428571429</ele><time>2026-04-29T15:48:42.924Z</time></trkpt><trkpt lat="43.0619915" lon="13.1641394"><ele>788.1428571428571</ele><time>2026-04-29T15:48:45.92Z</time></trkpt><trkpt lat="43.0620046" lon="13.1640541"><ele>786.4285714285714</ele><time>2026-04-29T15:48:49.883Z</time></trkpt><trkpt lat="43.0619393" lon="13.1640002"><ele>784.7142857142857</ele><time>2026-04-29T15:50:05.933Z</time></trkpt><trkpt lat="43.0618802" lon="13.1639688"><ele>783.0</ele><time>2026-04-29T15:50:08.95Z</time></trkpt><trkpt lat="43.061793" lon="13.1639265"><ele>783.0</ele><time>2026-04-29T15:50:11.906Z</time></trkpt><trkpt lat="43.0617095" lon="13.1638871"><ele>783.0</ele><time>2026-04-29T15:50:13.934Z</time></trkpt><trkpt lat="43.0616218" lon="13.1638473"><ele>783.0</ele><time>2026-04-29T15:50:15.929Z</time></trkpt><trkpt lat="43.0615313" lon="13.1638122"><ele>783.0</ele><time>2026-04-29T15:50:17.884Z</time></trkpt><trkpt lat="43.0614421" lon="13.1637711"><ele>783.0</ele><time>2026-04-29T15:50:19.93Z</time></trkpt><trkpt lat="43.0613575" lon="13.1637325"><ele>783.6666666666666</ele><time>2026-04-29T15:50:21.927Z</time></trkpt><trkpt lat="43.06127" lon="13.1636902"><ele>784.3333333333333</ele><time>2026-04-29T15:50:23.939Z</time></trkpt><trkpt lat="43.0611893" lon="13.163629"><ele>785.0</ele><time>2026-04-29T15:50:25.929Z</time></trkpt><trkpt lat="43.0611361" lon="13.1635414"><ele>785.6666666666666</ele><time>2026-04-29T15:50:27.892Z</time></trkpt><trkpt lat="43.0611066" lon="13.1634441"><ele>786.3333333333333</ele><time>2026-04-29T15:50:29.949Z</time></trkpt><trkpt lat="43.0610858" lon="13.1633415"><ele>787.0</ele><time>2026-04-29T15:50:31.934Z</time></trkpt><trkpt lat="43.0610592" lon="13.1632384"><ele>786.3333333333333</ele><time>2026-04-29T15:50:33.913Z</time></trkpt><trkpt lat="43.0610277" lon="13.1631535"><ele>785.6666666666666</ele><time>2026-04-29T15:50:35.917Z</time></trkpt><trkpt lat="43.0609733" lon="13.1630605"><ele>785.0</ele><time>2026-04-29T15:50:38.951Z</time></trkpt><trkpt lat="43.0609244" lon="13.1629978"><ele>784.3333333333333</ele><time>2026-04-29T15:50:41.933Z</time></trkpt><trkpt lat="43.0608907" lon="13.162909"><ele>783.6666666666666</ele><time>2026-04-29T15:50:44.938Z</time></trkpt><trkpt lat="43.0608806" lon="13.1628051"><ele>783.0</ele><time>2026-04-29T15:50:46.883Z</time></trkpt><trkpt lat="43.0608809" lon="13.1626811"><ele>783.0</ele><time>2026-04-29T15:50:48.922Z</time></trkpt><trkpt lat="43.0608741" lon="13.1625241"><ele>783.0</ele><time>2026-04-29T15:50:50.922Z</time></trkpt><trkpt lat="43.0608684" lon="13.1624297"><ele>783.0</ele><time>2026-04-29T15:50:51.923Z</time></trkpt><trkpt lat="43.0608549" lon="13.1623438"><ele>783.0</ele><time>2026-04-29T15:50:52.893Z</time></trkpt><trkpt lat="43.06084" lon="13.162246"><ele>783.0</ele><time>2026-04-29T15:50:53.928Z</time></trkpt><trkpt lat="43.0608171" lon="13.1621291"><ele>783.0</ele><time>2026-04-29T15:50:54.943Z</time></trkpt><trkpt lat="43.0607825" lon="13.1620103"><ele>781.8</ele><time>2026-04-29T15:50:55.932Z</time></trkpt><trkpt lat="43.0607467" lon="13.1618923"><ele>780.5999999999999</ele><time>2026-04-29T15:50:56.928Z</time></trkpt><trkpt lat="43.0606754" lon="13.1617913"><ele>779.4000000000001</ele><time>2026-04-29T15:50:57.91Z</time></trkpt><trkpt lat="43.0605834" lon="13.1616914"><ele>778.2</ele><time>2026-04-29T15:50:58.943Z</time></trkpt><trkpt lat="43.060493" lon="13.1616067"><ele>777.0</ele><time>2026-04-29T15:50:59.922Z</time></trkpt><trkpt lat="43.0604066" lon="13.1615232"><ele>776.8</ele><time>2026-04-29T15:51:00.913Z</time></trkpt><trkpt lat="43.0603195" lon="13.1614354"><ele>776.6</ele><time>2026-04-29T15:51:01.932Z</time></trkpt><trkpt lat="43.0602344" lon="13.1613516"><ele>776.4</ele><time>2026-04-29T15:51:02.914Z</time></trkpt><trkpt lat="43.0601468" lon="13.161281"><ele>776.1999999999999</ele><time>2026-04-29T15:51:03.925Z</time></trkpt><trkpt lat="43.0600605" lon="13.1612209"><ele>776.0</ele><time>2026-04-29T15:51:04.911Z</time></trkpt><trkpt lat="43.05997" lon="13.1611692"><ele>776.1999999999999</ele><time>2026-04-29T15:51:05.974Z</time></trkpt><trkpt lat="43.0598772" lon="13.1611179"><ele>776.4</ele><time>2026-04-29T15:51:06.935Z</time></trkpt><trkpt lat="43.0597868" lon="13.1610832"><ele>776.6</ele><time>2026-04-29T15:51:07.918Z</time></trkpt><trkpt lat="43.0596971" lon="13.1610578"><ele>776.8</ele><time>2026-04-29T15:51:08.94Z</time></trkpt><trkpt lat="43.059615" lon="13.1610332"><ele>777.0</ele><time>2026-04-29T15:51:09.915Z</time></trkpt><trkpt lat="43.0595361" lon="13.1610059"><ele>777.0</ele><time>2026-04-29T15:51:10.922Z</time></trkpt><trkpt lat="43.0594534" lon="13.1609769"><ele>777.0</ele><time>2026-04-29T15:51:11.925Z</time></trkpt><trkpt lat="43.0593648" lon="13.1609283"><ele>777.0</ele><time>2026-04-29T15:51:12.922Z</time></trkpt><trkpt lat="43.0592698" lon="13.160859"><ele>777.0</ele><time>2026-04-29T15:51:13.945Z</time></trkpt><trkpt lat="43.0591721" lon="13.1607765"><ele>777.0</ele><time>2026-04-29T15:51:14.932Z</time></trkpt><trkpt lat="43.0590812" lon="13.1606989"><ele>779.4000000000001</ele><time>2026-04-29T15:51:15.929Z</time></trkpt><trkpt lat="43.0590086" lon="13.1606174"><ele>781.8000000000001</ele><time>2026-04-29T15:51:16.961Z</time></trkpt><trkpt lat="43.058944" lon="13.1605492"><ele>784.2</ele><time>2026-04-29T15:51:17.925Z</time></trkpt><trkpt lat="43.0588831" lon="13.1604854"><ele>786.6</ele><time>2026-04-29T15:51:18.941Z</time></trkpt><trkpt lat="43.058792" lon="13.1603804"><ele>789.0</ele><time>2026-04-29T15:51:20.885Z</time></trkpt><trkpt lat="43.0587698" lon="13.160222"><ele>789.0</ele><time>2026-04-29T15:51:22.931Z</time></trkpt><trkpt lat="43.0587934" lon="13.1601266"><ele>789.0</ele><time>2026-04-29T15:51:23.954Z</time></trkpt><trkpt lat="43.0588346" lon="13.160021"><ele>789.0</ele><time>2026-04-29T15:51:24.951Z</time></trkpt><trkpt lat="43.0588819" lon="13.1599114"><ele>789.0</ele><time>2026-04-29T15:51:25.948Z</time></trkpt><trkpt lat="43.0589217" lon="13.1598131"><ele>789.0</ele><time>2026-04-29T15:51:26.937Z</time></trkpt><trkpt lat="43.0589571" lon="13.1597346"><ele>789.0</ele><time>2026-04-29T15:51:27.935Z</time></trkpt><trkpt lat="43.0590226" lon="13.1596175"><ele>790.3333333333334</ele><time>2026-04-29T15:51:29.937Z</time></trkpt><trkpt lat="43.0590622" lon="13.1595183"><ele>791.6666666666667</ele><time>2026-04-29T15:51:31.931Z</time></trkpt><trkpt lat="43.0590981" lon="13.159398"><ele>793.0</ele><time>2026-04-29T15:51:33.94Z</time></trkpt><trkpt lat="43.059128" lon="13.159302"><ele>794.3333333333334</ele><time>2026-04-29T15:51:35.917Z</time></trkpt><trkpt lat="43.0591549" lon="13.1592008"><ele>795.6666666666667</ele><time>2026-04-29T15:51:37.951Z</time></trkpt><trkpt lat="43.0591821" lon="13.1590961"><ele>797.0</ele><time>2026-04-29T15:51:39.922Z</time></trkpt><trkpt lat="43.0592077" lon="13.1589962"><ele>799.1666666666667</ele><time>2026-04-29T15:51:41.946Z</time></trkpt><trkpt lat="43.0592475" lon="13.158883"><ele>801.3333333333334</ele><time>2026-04-29T15:51:43.911Z</time></trkpt><trkpt lat="43.0592967" lon="13.158783"><ele>803.5</ele><time>2026-04-29T15:51:45.894Z</time></trkpt><trkpt lat="43.0593387" lon="13.1586902"><ele>805.6666666666667</ele><time>2026-04-29T15:51:47.942Z</time></trkpt><trkpt lat="43.0593827" lon="13.1586067"><ele>807.8333333333334</ele><time>2026-04-29T15:51:49.93Z</time></trkpt><trkpt lat="43.0594153" lon="13.1585093"><ele>810.0</ele><time>2026-04-29T15:51:51.93Z</time></trkpt><trkpt lat="43.0594334" lon="13.1584024"><ele>810.0</ele><time>2026-04-29T15:51:53.936Z</time></trkpt><trkpt lat="43.0594246" lon="13.1583027"><ele>810.0</ele><time>2026-04-29T15:51:55.924Z</time></trkpt><trkpt lat="43.0593898" lon="13.1581841"><ele>810.0</ele><time>2026-04-29T15:51:58.909Z</time></trkpt><trkpt lat="43.0593479" lon="13.1580993"><ele>810.0</ele><time>2026-04-29T15:52:00.933Z</time></trkpt><trkpt lat="43.0593093" lon="13.1580206"><ele>810.0</ele><time>2026-04-29T15:52:02.906Z</time></trkpt><trkpt lat="43.0593681" lon="13.1580712"><ele>810.0</ele><time>2026-04-29T15:54:23.889Z</time></trkpt><trkpt lat="43.0594021" lon="13.1581565"><ele>810.0</ele><time>2026-04-29T15:54:25.94Z</time></trkpt><trkpt lat="43.0594365" lon="13.1582563"><ele>810.0</ele><time>2026-04-29T15:54:35.945Z</time></trkpt><trkpt lat="43.0594223" lon="13.1583589"><ele>810.0</ele><time>2026-04-29T15:56:44.893Z</time></trkpt><trkpt lat="43.059431" lon="13.1584474"><ele>810.0</ele><time>2026-04-29T15:56:52.917Z</time></trkpt><trkpt lat="43.0594177" lon="13.1585594"><ele>810.0</ele><time>2026-04-29T15:56:56.897Z</time></trkpt><trkpt lat="43.0593739" lon="13.1586619"><ele>810.0</ele><time>2026-04-29T15:56:59.898Z</time></trkpt><trkpt lat="43.0593297" lon="13.1587754"><ele>810.0</ele><time>2026-04-29T15:57:02.918Z</time></trkpt><trkpt lat="43.0592919" lon="13.1588549"><ele>810.0</ele><time>2026-04-29T15:57:04.895Z</time></trkpt><trkpt lat="43.0592403" lon="13.1589365"><ele>810.0</ele><time>2026-04-29T15:57:07.959Z</time></trkpt><trkpt lat="43.0591992" lon="13.1590313"><ele>810.0</ele><time>2026-04-29T15:57:10.932Z</time></trkpt><trkpt lat="43.0591693" lon="13.1591319"><ele>810.0</ele><time>2026-04-29T15:57:13.957Z</time></trkpt><trkpt lat="43.0591296" lon="13.1592578"><ele>810.0</ele><time>2026-04-29T15:57:16.921Z</time></trkpt><trkpt lat="43.0590904" lon="13.1593644"><ele>809.3333333333334</ele><time>2026-04-29T15:57:17.923Z</time></trkpt><trkpt lat="43.0590546" lon="13.1594451"><ele>808.6666666666667</ele><time>2026-04-29T15:57:18.916Z</time></trkpt><trkpt lat="43.059016" lon="13.1595223"><ele>808.0</ele><time>2026-04-29T15:57:19.888Z</time></trkpt><trkpt lat="43.0589744" lon="13.1596067"><ele>807.3333333333334</ele><time>2026-04-29T15:57:20.902Z</time></trkpt><trkpt lat="43.0589393" lon="13.1596954"><ele>806.6666666666667</ele><time>2026-04-29T15:57:21.919Z</time></trkpt><trkpt lat="43.0589083" lon="13.1597727"><ele>806.0</ele><time>2026-04-29T15:57:22.926Z</time></trkpt><trkpt lat="43.0588522" lon="13.1598892"><ele>803.1666666666667</ele><time>2026-04-29T15:57:24.889Z</time></trkpt><trkpt lat="43.058804" lon="13.1599886"><ele>800.3333333333334</ele><time>2026-04-29T15:57:26.923Z</time></trkpt><trkpt lat="43.0587637" lon="13.1600702"><ele>797.5</ele><time>2026-04-29T15:57:28.936Z</time></trkpt><trkpt lat="43.0587197" lon="13.1601334"><ele>794.6666666666667</ele><time>2026-04-29T15:57:30.928Z</time></trkpt><trkpt lat="43.0586504" lon="13.1601904"><ele>791.8333333333334</ele><time>2026-04-29T15:57:33.927Z</time></trkpt><trkpt lat="43.0585468" lon="13.1602202"><ele>789.0</ele><time>2026-04-29T15:57:36.918Z</time></trkpt><trkpt lat="43.0584251" lon="13.1602094"><ele>789.0</ele><time>2026-04-29T15:57:38.928Z</time></trkpt><trkpt lat="43.0583441" lon="13.1601742"><ele>789.0</ele><time>2026-04-29T15:57:39.904Z</time></trkpt><trkpt lat="43.0582429" lon="13.1601113"><ele>789.0</ele><time>2026-04-29T15:57:40.906Z</time></trkpt><trkpt lat="43.0581402" lon="13.1600424"><ele>789.0</ele><time>2026-04-29T15:57:41.969Z</time></trkpt><trkpt lat="43.0580321" lon="13.1599684"><ele>789.0</ele><time>2026-04-29T15:57:42.916Z</time></trkpt><trkpt lat="43.0579087" lon="13.1598807"><ele>788.75</ele><time>2026-04-29T15:57:43.95Z</time></trkpt><trkpt lat="43.0577968" lon="13.1597936"><ele>788.5</ele><time>2026-04-29T15:57:44.892Z</time></trkpt><trkpt lat="43.0576995" lon="13.159703"><ele>788.25</ele><time>2026-04-29T15:57:45.918Z</time></trkpt><trkpt lat="43.0576035" lon="13.1596113"><ele>788.0</ele><time>2026-04-29T15:57:46.922Z</time></trkpt><trkpt lat="43.0575236" lon="13.1594994"><ele>788.0</ele><time>2026-04-29T15:57:47.947Z</time></trkpt><trkpt lat="43.0574594" lon="13.1593923"><ele>788.0</ele><time>2026-04-29T15:57:48.937Z</time></trkpt><trkpt lat="43.0573991" lon="13.159289"><ele>788.0</ele><time>2026-04-29T15:57:49.898Z</time></trkpt><trkpt lat="43.0573536" lon="13.1591728"><ele>788.0</ele><time>2026-04-29T15:57:50.936Z</time></trkpt><trkpt lat="43.0573101" lon="13.1590506"><ele>788.0</ele><time>2026-04-29T15:57:51.924Z</time></trkpt><trkpt lat="43.057281" lon="13.1588959"><ele>786.8</ele><time>2026-04-29T15:57:52.936Z</time></trkpt><trkpt lat="43.0572699" lon="13.1587429"><ele>785.5999999999999</ele><time>2026-04-29T15:57:53.946Z</time></trkpt><trkpt lat="43.0572499" lon="13.158611"><ele>784.4000000000001</ele><time>2026-04-29T15:57:54.892Z</time></trkpt><trkpt lat="43.0572109" lon="13.1584984"><ele>783.2</ele><time>2026-04-29T15:57:55.927Z</time></trkpt><trkpt lat="43.0571767" lon="13.1583932"><ele>782.0</ele><time>2026-04-29T15:57:56.912Z</time></trkpt><trkpt lat="43.057099" lon="13.1583272"><ele>782.0</ele><time>2026-04-29T15:57:57.927Z</time></trkpt><trkpt lat="43.0570085" lon="13.1582961"><ele>782.0</ele><time>2026-04-29T15:57:58.921Z</time></trkpt><trkpt lat="43.0569013" lon="13.1582967"><ele>782.0</ele><time>2026-04-29T15:57:59.904Z</time></trkpt><trkpt lat="43.0567904" lon="13.1583009"><ele>782.0</ele><time>2026-04-29T15:58:00.934Z</time></trkpt><trkpt lat="43.0566809" lon="13.1583464"><ele>782.0</ele><time>2026-04-29T15:58:01.917Z</time></trkpt><trkpt lat="43.0565753" lon="13.1583891"><ele>781.2</ele><time>2026-04-29T15:58:02.937Z</time></trkpt><trkpt lat="43.0564764" lon="13.1584294"><ele>780.4000000000001</ele><time>2026-04-29T15:58:03.915Z</time></trkpt><trkpt lat="43.056379" lon="13.158426"><ele>779.5999999999999</ele><time>2026-04-29T15:58:04.902Z</time></trkpt><trkpt lat="43.0562729" lon="13.1584061"><ele>778.8</ele><time>2026-04-29T15:58:05.931Z</time></trkpt><trkpt lat="43.0561662" lon="13.1583807"><ele>778.0</ele><time>2026-04-29T15:58:06.927Z</time></trkpt><trkpt lat="43.0560544" lon="13.1583322"><ele>778.0</ele><time>2026-04-29T15:58:07.933Z</time></trkpt><trkpt lat="43.0559476" lon="13.1582705"><ele>778.0</ele><time>2026-04-29T15:58:08.937Z</time></trkpt><trkpt lat="43.055846" lon="13.1582038"><ele>778.0</ele><time>2026-04-29T15:58:09.935Z</time></trkpt><trkpt lat="43.0557452" lon="13.1581242"><ele>778.0</ele><time>2026-04-29T15:58:10.926Z</time></trkpt><trkpt lat="43.055656" lon="13.1580489"><ele>776.8</ele><time>2026-04-29T15:58:11.927Z</time></trkpt><trkpt lat="43.0556031" lon="13.1579293"><ele>775.5999999999999</ele><time>2026-04-29T15:58:12.935Z</time></trkpt><trkpt lat="43.0555515" lon="13.1578082"><ele>774.4000000000001</ele><time>2026-04-29T15:58:13.92Z</time></trkpt><trkpt lat="43.055493" lon="13.1576878"><ele>773.2</ele><time>2026-04-29T15:58:14.886Z</time></trkpt><trkpt lat="43.0554305" lon="13.157573"><ele>772.0</ele><time>2026-04-29T15:58:15.896Z</time></trkpt><trkpt lat="43.0553695" lon="13.1574508"><ele>772.75</ele><time>2026-04-29T15:58:16.893Z</time></trkpt><trkpt lat="43.0553194" lon="13.1573083"><ele>773.5</ele><time>2026-04-29T15:58:17.903Z</time></trkpt><trkpt lat="43.0552729" lon="13.1571636"><ele>774.25</ele><time>2026-04-29T15:58:18.92Z</time></trkpt><trkpt lat="43.0552567" lon="13.1569901"><ele>775.0</ele><time>2026-04-29T15:58:19.954Z</time></trkpt><trkpt lat="43.0552611" lon="13.1568115"><ele>775.0</ele><time>2026-04-29T15:58:20.964Z</time></trkpt><trkpt lat="43.0552932" lon="13.1566482"><ele>775.0</ele><time>2026-04-29T15:58:21.932Z</time></trkpt><trkpt lat="43.055325" lon="13.1564975"><ele>775.0</ele><time>2026-04-29T15:58:22.943Z</time></trkpt><trkpt lat="43.0553788" lon="13.1563888"><ele>775.0</ele><time>2026-04-29T15:58:23.924Z</time></trkpt><trkpt lat="43.0554678" lon="13.15634"><ele>775.0</ele><time>2026-04-29T15:58:24.913Z</time></trkpt><trkpt lat="43.0555753" lon="13.1563087"><ele>774.5</ele><time>2026-04-29T15:58:25.924Z</time></trkpt><trkpt lat="43.0556955" lon="13.1562655"><ele>774.0</ele><time>2026-04-29T15:58:26.916Z</time></trkpt><trkpt lat="43.055833" lon="13.1562228"><ele>773.5</ele><time>2026-04-29T15:58:27.92Z</time></trkpt><trkpt lat="43.0559815" lon="13.1561788"><ele>773.0</ele><time>2026-04-29T15:58:28.908Z</time></trkpt><trkpt lat="43.0561185" lon="13.1561294"><ele>773.0</ele><time>2026-04-29T15:58:29.903Z</time></trkpt><trkpt lat="43.056248" lon="13.1560697"><ele>773.0</ele><time>2026-04-29T15:58:30.917Z</time></trkpt><trkpt lat="43.056376" lon="13.1560023"><ele>773.0</ele><time>2026-04-29T15:58:31.909Z</time></trkpt><trkpt lat="43.0565075" lon="13.1559227"><ele>773.0</ele><time>2026-04-29T15:58:32.926Z</time></trkpt><trkpt lat="43.0566363" lon="13.1558325"><ele>773.75</ele><time>2026-04-29T15:58:33.928Z</time></trkpt><trkpt lat="43.0567529" lon="13.155744"><ele>774.5</ele><time>2026-04-29T15:58:34.913Z</time></trkpt><trkpt lat="43.0568591" lon="13.1556526"><ele>775.25</ele><time>2026-04-29T15:58:35.928Z</time></trkpt><trkpt lat="43.0569606" lon="13.1555415"><ele>776.0</ele><time>2026-04-29T15:58:36.911Z</time></trkpt><trkpt lat="43.0570593" lon="13.1554121"><ele>776.0</ele><time>2026-04-29T15:58:37.918Z</time></trkpt><trkpt lat="43.057149" lon="13.1552774"><ele>776.0</ele><time>2026-04-29T15:58:38.91Z</time></trkpt><trkpt lat="43.0572282" lon="13.1551552"><ele>776.0</ele><time>2026-04-29T15:58:39.919Z</time></trkpt><trkpt lat="43.0572952" lon="13.155036"><ele>776.0</ele><time>2026-04-29T15:58:40.934Z</time></trkpt><trkpt lat="43.0573468" lon="13.1549145"><ele>779.0</ele><time>2026-04-29T15:58:41.926Z</time></trkpt><trkpt lat="43.0573745" lon="13.154782"><ele>782.0</ele><time>2026-04-29T15:58:42.903Z</time></trkpt><trkpt lat="43.0573758" lon="13.1546366"><ele>785.0</ele><time>2026-04-29T15:58:43.925Z</time></trkpt><trkpt lat="43.0573593" lon="13.1544893"><ele>788.0</ele><time>2026-04-29T15:58:44.954Z</time></trkpt><trkpt lat="43.0573193" lon="13.1543506"><ele>791.0</ele><time>2026-04-29T15:58:45.917Z</time></trkpt><trkpt lat="43.0572598" lon="13.1542372"><ele>791.0</ele><time>2026-04-29T15:58:46.944Z</time></trkpt><trkpt lat="43.05718" lon="13.1541496"><ele>791.0</ele><time>2026-04-29T15:58:47.882Z</time></trkpt><trkpt lat="43.0570847" lon="13.1540902"><ele>791.0</ele><time>2026-04-29T15:58:48.917Z</time></trkpt><trkpt lat="43.0569744" lon="13.1540556"><ele>791.0</ele><time>2026-04-29T15:58:49.914Z</time></trkpt><trkpt lat="43.0568408" lon="13.1540532"><ele>791.0</ele><time>2026-04-29T15:58:50.927Z</time></trkpt><trkpt lat="43.0566851" lon="13.1540673"><ele>791.0</ele><time>2026-04-29T15:58:51.912Z</time></trkpt><trkpt lat="43.0565266" lon="13.1540763"><ele>791.0</ele><time>2026-04-29T15:58:52.925Z</time></trkpt><trkpt lat="43.0563832" lon="13.1540803"><ele>788.5</ele><time>2026-04-29T15:58:53.914Z</time></trkpt><trkpt lat="43.0562511" lon="13.1540855"><ele>786.0</ele><time>2026-04-29T15:58:54.927Z</time></trkpt><trkpt lat="43.056129" lon="13.1540835"><ele>783.5</ele><time>2026-04-29T15:58:55.912Z</time></trkpt><trkpt lat="43.0560197" lon="13.1540747"><ele>781.0</ele><time>2026-04-29T15:58:56.921Z</time></trkpt><trkpt lat="43.0559181" lon="13.154044"><ele>783.4</ele><time>2026-04-29T15:58:57.91Z</time></trkpt><trkpt lat="43.0558198" lon="13.1539896"><ele>785.8</ele><time>2026-04-29T15:58:58.909Z</time></trkpt><trkpt lat="43.0557301" lon="13.1539133"><ele>788.1999999999999</ele><time>2026-04-29T15:58:59.924Z</time></trkpt><trkpt lat="43.0556407" lon="13.1538489"><ele>790.5999999999999</ele><time>2026-04-29T15:59:00.884Z</time></trkpt><trkpt lat="43.0555618" lon="13.153752"><ele>793.0</ele><time>2026-04-29T15:59:01.915Z</time></trkpt><trkpt lat="43.0554838" lon="13.153654"><ele>793.0</ele><time>2026-04-29T15:59:02.917Z</time></trkpt><trkpt lat="43.0553796" lon="13.1535771"><ele>793.0</ele><time>2026-04-29T15:59:03.914Z</time></trkpt><trkpt lat="43.0552639" lon="13.1535219"><ele>793.0</ele><time>2026-04-29T15:59:04.923Z</time></trkpt><trkpt lat="43.0551438" lon="13.153501"><ele>793.0</ele><time>2026-04-29T15:59:05.936Z</time></trkpt><trkpt lat="43.0550263" lon="13.1535106"><ele>791.4</ele><time>2026-04-29T15:59:06.93Z</time></trkpt><trkpt lat="43.0549112" lon="13.1535369"><ele>789.8</ele><time>2026-04-29T15:59:07.909Z</time></trkpt><trkpt lat="43.0548065" lon="13.1535688"><ele>788.2</ele><time>2026-04-29T15:59:08.939Z</time></trkpt><trkpt lat="43.0547107" lon="13.153599"><ele>786.6</ele><time>2026-04-29T15:59:09.936Z</time></trkpt><trkpt lat="43.0546147" lon="13.1535751"><ele>785.0</ele><time>2026-04-29T15:59:10.913Z</time></trkpt><trkpt lat="43.0545217" lon="13.1535444"><ele>785.0</ele><time>2026-04-29T15:59:11.923Z</time></trkpt><trkpt lat="43.0544274" lon="13.1534774"><ele>785.0</ele><time>2026-04-29T15:59:12.91Z</time></trkpt><trkpt lat="43.0543323" lon="13.1534146"><ele>785.0</ele><time>2026-04-29T15:59:13.919Z</time></trkpt><trkpt lat="43.0542347" lon="13.1533465"><ele>785.0</ele><time>2026-04-29T15:59:14.883Z</time></trkpt><trkpt lat="43.0541266" lon="13.1532809"><ele>785.0</ele><time>2026-04-29T15:59:15.91Z</time></trkpt><trkpt lat="43.054014" lon="13.1532219"><ele>787.5</ele><time>2026-04-29T15:59:16.931Z</time></trkpt><trkpt lat="43.0538948" lon="13.1531681"><ele>790.0</ele><time>2026-04-29T15:59:17.926Z</time></trkpt><trkpt lat="43.053779" lon="13.1531141"><ele>792.5</ele><time>2026-04-29T15:59:18.906Z</time></trkpt><trkpt lat="43.0536634" lon="13.1530583"><ele>795.0</ele><time>2026-04-29T15:59:19.9Z</time></trkpt><trkpt lat="43.0535496" lon="13.1530088"><ele>795.0</ele><time>2026-04-29T15:59:20.935Z</time></trkpt><trkpt lat="43.0534387" lon="13.1529705"><ele>795.0</ele><time>2026-04-29T15:59:21.925Z</time></trkpt><trkpt lat="43.0533298" lon="13.1529551"><ele>795.0</ele><time>2026-04-29T15:59:22.911Z</time></trkpt><trkpt lat="43.053215" lon="13.1529588"><ele>795.0</ele><time>2026-04-29T15:59:23.93Z</time></trkpt><trkpt lat="43.0530924" lon="13.1529628"><ele>795.5</ele><time>2026-04-29T15:59:24.904Z</time></trkpt><trkpt lat="43.052964" lon="13.1529845"><ele>796.0</ele><time>2026-04-29T15:59:25.929Z</time></trkpt><trkpt lat="43.0528283" lon="13.1530138"><ele>796.5</ele><time>2026-04-29T15:59:26.93Z</time></trkpt><trkpt lat="43.0526846" lon="13.1530492"><ele>797.0</ele><time>2026-04-29T15:59:27.928Z</time></trkpt><trkpt lat="43.0525398" lon="13.1530799"><ele>795.75</ele><time>2026-04-29T15:59:28.92Z</time></trkpt><trkpt lat="43.0523964" lon="13.1530986"><ele>794.5</ele><time>2026-04-29T15:59:29.91Z</time></trkpt><trkpt lat="43.0522578" lon="13.1531082"><ele>793.25</ele><time>2026-04-29T15:59:30.934Z</time></trkpt><trkpt lat="43.052128" lon="13.1531019"><ele>792.0</ele><time>2026-04-29T15:59:31.925Z</time></trkpt><trkpt lat="43.0520082" lon="13.1530772"><ele>792.0</ele><time>2026-04-29T15:59:32.904Z</time></trkpt><trkpt lat="43.0518978" lon="13.1530271"><ele>792.0</ele><time>2026-04-29T15:59:33.927Z</time></trkpt><trkpt lat="43.0517984" lon="13.1529471"><ele>792.0</ele><time>2026-04-29T15:59:34.91Z</time></trkpt><trkpt lat="43.0517081" lon="13.1528363"><ele>792.0</ele><time>2026-04-29T15:59:35.918Z</time></trkpt><trkpt lat="43.0516317" lon="13.1526942"><ele>792.5</ele><time>2026-04-29T15:59:36.914Z</time></trkpt><trkpt lat="43.0515684" lon="13.1525269"><ele>793.0</ele><time>2026-04-29T15:59:37.928Z</time></trkpt><trkpt lat="43.0515095" lon="13.152357"><ele>793.5</ele><time>2026-04-29T15:59:38.938Z</time></trkpt><trkpt lat="43.0514516" lon="13.1521936"><ele>794.0</ele><time>2026-04-29T15:59:39.924Z</time></trkpt><trkpt lat="43.0513988" lon="13.1520395"><ele>794.0</ele><time>2026-04-29T15:59:40.917Z</time></trkpt><trkpt lat="43.051329" lon="13.1519026"><ele>794.0</ele><time>2026-04-29T15:59:41.986Z</time></trkpt><trkpt lat="43.0512505" lon="13.1517824"><ele>794.0</ele><time>2026-04-29T15:59:42.91Z</time></trkpt><trkpt lat="43.0511723" lon="13.1516656"><ele>794.0</ele><time>2026-04-29T15:59:43.926Z</time></trkpt><trkpt lat="43.051072" lon="13.1515849"><ele>794.0</ele><time>2026-04-29T15:59:44.915Z</time></trkpt><trkpt lat="43.0509509" lon="13.151542"><ele>794.0</ele><time>2026-04-29T15:59:45.922Z</time></trkpt><trkpt lat="43.0508213" lon="13.1515323"><ele>794.0</ele><time>2026-04-29T15:59:46.921Z</time></trkpt><trkpt lat="43.0506885" lon="13.1515254"><ele>794.0</ele><time>2026-04-29T15:59:47.941Z</time></trkpt><trkpt lat="43.0505531" lon="13.1515564"><ele>792.5</ele><time>2026-04-29T15:59:48.909Z</time></trkpt><trkpt lat="43.0504242" lon="13.1515934"><ele>791.0</ele><time>2026-04-29T15:59:49.928Z</time></trkpt><trkpt lat="43.0503098" lon="13.1515742"><ele>789.5</ele><time>2026-04-29T15:59:50.93Z</time></trkpt><trkpt lat="43.0502034" lon="13.1515239"><ele>788.0</ele><time>2026-04-29T15:59:51.931Z</time></trkpt><trkpt lat="43.0501085" lon="13.1514401"><ele>786.25</ele><time>2026-04-29T15:59:52.925Z</time></trkpt><trkpt lat="43.0500166" lon="13.1513349"><ele>784.5</ele><time>2026-04-29T15:59:53.966Z</time></trkpt><trkpt lat="43.0499199" lon="13.1512269"><ele>782.75</ele><time>2026-04-29T15:59:54.925Z</time></trkpt><trkpt lat="43.0498134" lon="13.1511282"><ele>781.0</ele><time>2026-04-29T15:59:55.932Z</time></trkpt><trkpt lat="43.0496919" lon="13.1510417"><ele>781.0</ele><time>2026-04-29T15:59:56.914Z</time></trkpt><trkpt lat="43.0495885" lon="13.150942"><ele>781.0</ele><time>2026-04-29T15:59:57.945Z</time></trkpt><trkpt lat="43.0495066" lon="13.1508203"><ele>781.0</ele><time>2026-04-29T15:59:58.932Z</time></trkpt><trkpt lat="43.0494543" lon="13.1506794"><ele>781.0</ele><time>2026-04-29T15:59:59.925Z</time></trkpt><trkpt lat="43.0494278" lon="13.1505187"><ele>781.75</ele><time>2026-04-29T16:00:00.934Z</time></trkpt><trkpt lat="43.0494169" lon="13.15035"><ele>782.5</ele><time>2026-04-29T16:00:01.934Z</time></trkpt><trkpt lat="43.0494055" lon="13.1501872"><ele>783.25</ele><time>2026-04-29T16:00:02.951Z</time></trkpt><trkpt lat="43.0494248" lon="13.1500082"><ele>784.0</ele><time>2026-04-29T16:00:03.925Z</time></trkpt><trkpt lat="43.049449" lon="13.1498197"><ele>784.75</ele><time>2026-04-29T16:00:04.921Z</time></trkpt><trkpt lat="43.049469" lon="13.1496246"><ele>785.5</ele><time>2026-04-29T16:00:05.906Z</time></trkpt><trkpt lat="43.049482" lon="13.1494332"><ele>786.25</ele><time>2026-04-29T16:00:06.942Z</time></trkpt><trkpt lat="43.0494924" lon="13.1492469"><ele>787.0</ele><time>2026-04-29T16:00:07.951Z</time></trkpt><trkpt lat="43.0494653" lon="13.1490687"><ele>788.0</ele><time>2026-04-29T16:00:08.931Z</time></trkpt><trkpt lat="43.0494211" lon="13.1488872"><ele>789.0</ele><time>2026-04-29T16:00:09.949Z</time></trkpt><trkpt lat="43.0493618" lon="13.1487135"><ele>790.0</ele><time>2026-04-29T16:00:10.886Z</time></trkpt><trkpt lat="43.0492851" lon="13.1485432"><ele>791.0</ele><time>2026-04-29T16:00:11.947Z</time></trkpt><trkpt lat="43.0492093" lon="13.1483776"><ele>792.0</ele><time>2026-04-29T16:00:12.922Z</time></trkpt><trkpt lat="43.049115" lon="13.1482215"><ele>793.0</ele><time>2026-04-29T16:00:13.917Z</time></trkpt><trkpt lat="43.0490171" lon="13.1480678"><ele>794.0</ele><time>2026-04-29T16:00:14.916Z</time></trkpt><trkpt lat="43.0489172" lon="13.1479115"><ele>795.0</ele><time>2026-04-29T16:00:15.878Z</time></trkpt><trkpt lat="43.0488165" lon="13.1477521"><ele>795.0</ele><time>2026-04-29T16:00:16.937Z</time></trkpt><trkpt lat="43.0487166" lon="13.1475927"><ele>795.0</ele><time>2026-04-29T16:00:17.941Z</time></trkpt><trkpt lat="43.0486303" lon="13.1474433"><ele>795.0</ele><time>2026-04-29T16:00:18.925Z</time></trkpt><trkpt lat="43.048559" lon="13.1473073"><ele>795.0</ele><time>2026-04-29T16:00:19.948Z</time></trkpt><trkpt lat="43.0484913" lon="13.1471792"><ele>795.6</ele><time>2026-04-29T16:00:20.897Z</time></trkpt><trkpt lat="43.0484171" lon="13.1470708"><ele>796.2</ele><time>2026-04-29T16:00:21.912Z</time></trkpt><trkpt lat="43.0483307" lon="13.1469983"><ele>796.8</ele><time>2026-04-29T16:00:22.948Z</time></trkpt><trkpt lat="43.048237" lon="13.1469512"><ele>797.4</ele><time>2026-04-29T16:00:23.947Z</time></trkpt><trkpt lat="43.0481462" lon="13.1469183"><ele>798.0</ele><time>2026-04-29T16:00:24.946Z</time></trkpt><trkpt lat="43.0480524" lon="13.1468881"><ele>799.75</ele><time>2026-04-29T16:00:25.894Z</time></trkpt><trkpt lat="43.0479552" lon="13.1468579"><ele>801.5</ele><time>2026-04-29T16:00:26.928Z</time></trkpt><trkpt lat="43.0478379" lon="13.1468232"><ele>803.25</ele><time>2026-04-29T16:00:27.948Z</time></trkpt><trkpt lat="43.0477172" lon="13.146785"><ele>805.0</ele><time>2026-04-29T16:00:28.955Z</time></trkpt><trkpt lat="43.0475947" lon="13.1467576"><ele>805.0</ele><time>2026-04-29T16:00:29.93Z</time></trkpt><trkpt lat="43.0474775" lon="13.1467529"><ele>805.0</ele><time>2026-04-29T16:00:30.903Z</time></trkpt><trkpt lat="43.0473566" lon="13.1467587"><ele>805.0</ele><time>2026-04-29T16:00:31.919Z</time></trkpt><trkpt lat="43.0472342" lon="13.1467798"><ele>805.0</ele><time>2026-04-29T16:00:32.934Z</time></trkpt><trkpt lat="43.0471139" lon="13.14683"><ele>803.0</ele><time>2026-04-29T16:00:33.922Z</time></trkpt><trkpt lat="43.0470076" lon="13.1469073"><ele>801.0</ele><time>2026-04-29T16:00:34.925Z</time></trkpt><trkpt lat="43.0469097" lon="13.1469855"><ele>799.0</ele><time>2026-04-29T16:00:35.885Z</time></trkpt><trkpt lat="43.0468263" lon="13.1470531"><ele>797.0</ele><time>2026-04-29T16:00:36.929Z</time></trkpt><trkpt lat="43.0467509" lon="13.1470642"><ele>795.0</ele><time>2026-04-29T16:00:37.925Z</time></trkpt><trkpt lat="43.0466798" lon="13.1469727"><ele>795.0</ele><time>2026-04-29T16:00:39.972Z</time></trkpt><trkpt lat="43.0466614" lon="13.1468885"><ele>795.0</ele><time>2026-04-29T16:00:40.885Z</time></trkpt><trkpt lat="43.0466912" lon="13.1467914"><ele>795.0</ele><time>2026-04-29T16:00:41.91Z</time></trkpt><trkpt lat="43.0467296" lon="13.1466718"><ele>795.0</ele><time>2026-04-29T16:00:42.924Z</time></trkpt><trkpt lat="43.0467776" lon="13.1465333"><ele>795.0</ele><time>2026-04-29T16:00:43.935Z</time></trkpt><trkpt lat="43.0468222" lon="13.146364"><ele>792.75</ele><time>2026-04-29T16:00:44.944Z</time></trkpt><trkpt lat="43.0468655" lon="13.1461888"><ele>790.5</ele><time>2026-04-29T16:00:45.881Z</time></trkpt><trkpt lat="43.046915" lon="13.1460084"><ele>788.25</ele><time>2026-04-29T16:00:46.946Z</time></trkpt><trkpt lat="43.0469538" lon="13.1458357"><ele>786.0</ele><time>2026-04-29T16:00:47.951Z</time></trkpt><trkpt lat="43.0469921" lon="13.1456659"><ele>784.5999999999999</ele><time>2026-04-29T16:00:48.928Z</time></trkpt><trkpt lat="43.0470293" lon="13.1455045"><ele>783.2</ele><time>2026-04-29T16:00:49.925Z</time></trkpt><trkpt lat="43.0470666" lon="13.1453477"><ele>781.8</ele><time>2026-04-29T16:00:50.921Z</time></trkpt><trkpt lat="43.0470942" lon="13.1452087"><ele>780.4000000000001</ele><time>2026-04-29T16:00:51.958Z</time></trkpt><trkpt lat="43.0471231" lon="13.1450925"><ele>779.0</ele><time>2026-04-29T16:00:52.931Z</time></trkpt><trkpt lat="43.0471453" lon="13.1449988"><ele>779.0</ele><time>2026-04-29T16:00:53.933Z</time></trkpt><trkpt lat="43.047162" lon="13.1449122"><ele>779.0</ele><time>2026-04-29T16:00:54.932Z</time></trkpt><trkpt lat="43.0471547" lon="13.1447124"><ele>779.0</ele><time>2026-04-29T16:00:56.931Z</time></trkpt><trkpt lat="43.0471661" lon="13.1445671"><ele>779.0</ele><time>2026-04-29T16:00:57.933Z</time></trkpt><trkpt lat="43.0471979" lon="13.1444014"><ele>779.0</ele><time>2026-04-29T16:00:58.915Z</time></trkpt><trkpt lat="43.0472344" lon="13.1442354"><ele>778.75</ele><time>2026-04-29T16:00:59.94Z</time></trkpt><trkpt lat="43.0472661" lon="13.1440755"><ele>778.5</ele><time>2026-04-29T16:01:00.904Z</time></trkpt><trkpt lat="43.0472821" lon="13.1439228"><ele>778.25</ele><time>2026-04-29T16:01:01.968Z</time></trkpt><trkpt lat="43.0472746" lon="13.1437743"><ele>778.0</ele><time>2026-04-29T16:01:02.934Z</time></trkpt><trkpt lat="43.047239" lon="13.1436314"><ele>778.0</ele><time>2026-04-29T16:01:03.93Z</time></trkpt><trkpt lat="43.0471771" lon="13.1434995"><ele>778.0</ele><time>2026-04-29T16:01:04.927Z</time></trkpt><trkpt lat="43.0470942" lon="13.1433896"><ele>778.0</ele><time>2026-04-29T16:01:05.897Z</time></trkpt><trkpt lat="43.0469969" lon="13.1433077"><ele>778.0</ele><time>2026-04-29T16:01:06.933Z</time></trkpt><trkpt lat="43.0468904" lon="13.14325"><ele>778.75</ele><time>2026-04-29T16:01:07.915Z</time></trkpt><trkpt lat="43.0467898" lon="13.1431881"><ele>779.5</ele><time>2026-04-29T16:01:08.934Z</time></trkpt><trkpt lat="43.0466826" lon="13.1431269"><ele>780.25</ele><time>2026-04-29T16:01:09.913Z</time></trkpt><trkpt lat="43.0465704" lon="13.143054"><ele>781.0</ele><time>2026-04-29T16:01:10.892Z</time></trkpt><trkpt lat="43.0464523" lon="13.1429768"><ele>781.0</ele><time>2026-04-29T16:01:11.92Z</time></trkpt><trkpt lat="43.046333" lon="13.1429057"><ele>781.0</ele><time>2026-04-29T16:01:12.939Z</time></trkpt><trkpt lat="43.0462175" lon="13.1428401"><ele>781.0</ele><time>2026-04-29T16:01:13.922Z</time></trkpt><trkpt lat="43.046106" lon="13.1427799"><ele>781.0</ele><time>2026-04-29T16:01:14.922Z</time></trkpt><trkpt lat="43.0459899" lon="13.1427331"><ele>781.0</ele><time>2026-04-29T16:01:15.913Z</time></trkpt><trkpt lat="43.0458633" lon="13.1427201"><ele>781.0</ele><time>2026-04-29T16:01:16.928Z</time></trkpt><trkpt lat="43.0457351" lon="13.1427325"><ele>781.0</ele><time>2026-04-29T16:01:17.921Z</time></trkpt><trkpt lat="43.0456089" lon="13.142758"><ele>781.0</ele><time>2026-04-29T16:01:18.923Z</time></trkpt><trkpt lat="43.0454836" lon="13.1427888"><ele>781.5</ele><time>2026-04-29T16:01:19.968Z</time></trkpt><trkpt lat="43.0453567" lon="13.1428303"><ele>782.0</ele><time>2026-04-29T16:01:20.913Z</time></trkpt><trkpt lat="43.0452354" lon="13.142892"><ele>782.5</ele><time>2026-04-29T16:01:21.944Z</time></trkpt><trkpt lat="43.0451215" lon="13.1429801"><ele>783.0</ele><time>2026-04-29T16:01:22.918Z</time></trkpt><trkpt lat="43.0450072" lon="13.1430804"><ele>784.75</ele><time>2026-04-29T16:01:23.92Z</time></trkpt><trkpt lat="43.0448911" lon="13.1431864"><ele>786.5</ele><time>2026-04-29T16:01:24.934Z</time></trkpt><trkpt lat="43.0447764" lon="13.1432978"><ele>788.25</ele><time>2026-04-29T16:01:25.951Z</time></trkpt><trkpt lat="43.0446652" lon="13.1434089"><ele>790.0</ele><time>2026-04-29T16:01:26.938Z</time></trkpt><trkpt lat="43.0445542" lon="13.1435174"><ele>785.0</ele><time>2026-04-29T16:01:27.932Z</time></trkpt><trkpt lat="43.0444421" lon="13.1436253"><ele>780.0</ele><time>2026-04-29T16:01:28.938Z</time></trkpt><trkpt lat="43.044329" lon="13.1437367"><ele>775.0</ele><time>2026-04-29T16:01:29.935Z</time></trkpt><trkpt lat="43.0442169" lon="13.1438503"><ele>770.0</ele><time>2026-04-29T16:01:30.931Z</time></trkpt><trkpt lat="43.0441129" lon="13.1439565"><ele>766.8</ele><time>2026-04-29T16:01:31.945Z</time></trkpt><trkpt lat="43.0440151" lon="13.1440496"><ele>763.6</ele><time>2026-04-29T16:01:32.932Z</time></trkpt><trkpt lat="43.0439216" lon="13.1441301"><ele>760.4000000000001</ele><time>2026-04-29T16:01:33.921Z</time></trkpt><trkpt lat="43.043827" lon="13.1441927"><ele>757.2</ele><time>2026-04-29T16:01:34.919Z</time></trkpt><trkpt lat="43.0437295" lon="13.1442457"><ele>754.0</ele><time>2026-04-29T16:01:35.903Z</time></trkpt><trkpt lat="43.0436179" lon="13.1442463"><ele>754.0</ele><time>2026-04-29T16:01:36.927Z</time></trkpt><trkpt lat="43.0434885" lon="13.1442324"><ele>754.0</ele><time>2026-04-29T16:01:37.938Z</time></trkpt><trkpt lat="43.0433651" lon="13.1442171"><ele>754.0</ele><time>2026-04-29T16:01:38.929Z</time></trkpt><trkpt lat="43.043249" lon="13.1441991"><ele>754.0</ele><time>2026-04-29T16:01:39.937Z</time></trkpt><trkpt lat="43.0431459" lon="13.14418"><ele>751.8000000000001</ele><time>2026-04-29T16:01:40.942Z</time></trkpt><trkpt lat="43.0430543" lon="13.1441674"><ele>749.6</ele><time>2026-04-29T16:01:41.939Z</time></trkpt><trkpt lat="43.0429768" lon="13.1441544"><ele>747.4</ele><time>2026-04-29T16:01:42.922Z</time></trkpt><trkpt lat="43.0429054" lon="13.1441529"><ele>745.2</ele><time>2026-04-29T16:01:43.939Z</time></trkpt><trkpt lat="43.0428039" lon="13.1442367"><ele>743.0</ele><time>2026-04-29T16:01:45.928Z</time></trkpt><trkpt lat="43.0427923" lon="13.1444014"><ele>743.0</ele><time>2026-04-29T16:01:47.941Z</time></trkpt><trkpt lat="43.0428388" lon="13.1444922"><ele>743.0</ele><time>2026-04-29T16:01:48.927Z</time></trkpt><trkpt lat="43.0429215" lon="13.144576"><ele>743.0</ele><time>2026-04-29T16:01:49.921Z</time></trkpt><trkpt lat="43.0430193" lon="13.1446493"><ele>743.0</ele><time>2026-04-29T16:01:50.919Z</time></trkpt><trkpt lat="43.0431407" lon="13.1446996"><ele>743.0</ele><time>2026-04-29T16:01:51.916Z</time></trkpt><trkpt lat="43.0432631" lon="13.1447373"><ele>742.4</ele><time>2026-04-29T16:01:52.922Z</time></trkpt><trkpt lat="43.0433715" lon="13.1447675"><ele>741.8</ele><time>2026-04-29T16:01:53.924Z</time></trkpt><trkpt lat="43.043473" lon="13.144793"><ele>741.2</ele><time>2026-04-29T16:01:54.966Z</time></trkpt><trkpt lat="43.0435567" lon="13.1448181"><ele>740.6</ele><time>2026-04-29T16:01:55.926Z</time></trkpt><trkpt lat="43.0436231" lon="13.1448608"><ele>740.0</ele><time>2026-04-29T16:01:56.93Z</time></trkpt><trkpt lat="43.0436537" lon="13.1450157"><ele>740.0</ele><time>2026-04-29T16:01:58.929Z</time></trkpt><trkpt lat="43.0436203" lon="13.1450956"><ele>740.0</ele><time>2026-04-29T16:01:59.914Z</time></trkpt><trkpt lat="43.0435561" lon="13.1451615"><ele>740.0</ele><time>2026-04-29T16:02:00.919Z</time></trkpt><trkpt lat="43.043461" lon="13.1452133"><ele>740.0</ele><time>2026-04-29T16:02:01.936Z</time></trkpt><trkpt lat="43.0433424" lon="13.1452581"><ele>740.0</ele><time>2026-04-29T16:02:02.925Z</time></trkpt><trkpt lat="43.0431964" lon="13.145315"><ele>737.6666666666666</ele><time>2026-04-29T16:02:03.934Z</time></trkpt><trkpt lat="43.0430277" lon="13.1453906"><ele>735.3333333333334</ele><time>2026-04-29T16:02:04.919Z</time></trkpt><trkpt lat="43.0428684" lon="13.1454549"><ele>733.0</ele><time>2026-04-29T16:02:05.966Z</time></trkpt><trkpt lat="43.0427259" lon="13.1454963"><ele>733.0</ele><time>2026-04-29T16:02:06.917Z</time></trkpt><trkpt lat="43.0425951" lon="13.1455044"><ele>733.0</ele><time>2026-04-29T16:02:07.926Z</time></trkpt><trkpt lat="43.0424774" lon="13.1454762"><ele>733.0</ele><time>2026-04-29T16:02:08.941Z</time></trkpt><trkpt lat="43.0423659" lon="13.1454142"><ele>733.0</ele><time>2026-04-29T16:02:09.933Z</time></trkpt><trkpt lat="43.0422593" lon="13.1453148"><ele>729.75</ele><time>2026-04-29T16:02:10.939Z</time></trkpt><trkpt lat="43.0421681" lon="13.1451913"><ele>726.5</ele><time>2026-04-29T16:02:11.97Z</time></trkpt><trkpt lat="43.0420789" lon="13.1450723"><ele>723.25</ele><time>2026-04-29T16:02:12.917Z</time></trkpt><trkpt lat="43.0420141" lon="13.1449354"><ele>720.0</ele><time>2026-04-29T16:02:13.936Z</time></trkpt><trkpt lat="43.0419627" lon="13.1447868"><ele>720.0</ele><time>2026-04-29T16:02:14.925Z</time></trkpt><trkpt lat="43.0418974" lon="13.1446236"><ele>720.0</ele><time>2026-04-29T16:02:15.903Z</time></trkpt><trkpt lat="43.0418294" lon="13.1444509"><ele>720.0</ele><time>2026-04-29T16:02:16.915Z</time></trkpt><trkpt lat="43.0417643" lon="13.1442891"><ele>720.0</ele><time>2026-04-29T16:02:17.933Z</time></trkpt><trkpt lat="43.0416999" lon="13.1441321"><ele>720.2</ele><time>2026-04-29T16:02:18.936Z</time></trkpt><trkpt lat="43.0416394" lon="13.1439849"><ele>720.4</ele><time>2026-04-29T16:02:19.929Z</time></trkpt><trkpt lat="43.041579" lon="13.1438432"><ele>720.5999999999999</ele><time>2026-04-29T16:02:20.912Z</time></trkpt><trkpt lat="43.0415314" lon="13.1437182"><ele>720.8</ele><time>2026-04-29T16:02:21.934Z</time></trkpt><trkpt lat="43.0414801" lon="13.1436089"><ele>721.0</ele><time>2026-04-29T16:02:22.914Z</time></trkpt><trkpt lat="43.0414144" lon="13.1435252"><ele>721.0</ele><time>2026-04-29T16:02:23.907Z</time></trkpt><trkpt lat="43.0413392" lon="13.1434728"><ele>721.0</ele><time>2026-04-29T16:02:24.928Z</time></trkpt><trkpt lat="43.0412532" lon="13.1434307"><ele>721.0</ele><time>2026-04-29T16:02:25.928Z</time></trkpt><trkpt lat="43.041139" lon="13.1434567"><ele>721.0</ele><time>2026-04-29T16:02:26.908Z</time></trkpt><trkpt lat="43.0410099" lon="13.1435084"><ele>721.0</ele><time>2026-04-29T16:02:27.93Z</time></trkpt><trkpt lat="43.0408617" lon="13.1435834"><ele>722.25</ele><time>2026-04-29T16:02:28.908Z</time></trkpt><trkpt lat="43.040727" lon="13.1436627"><ele>723.5</ele><time>2026-04-29T16:02:29.927Z</time></trkpt><trkpt lat="43.0406036" lon="13.1437338"><ele>724.75</ele><time>2026-04-29T16:02:30.936Z</time></trkpt><trkpt lat="43.0404873" lon="13.1437935"><ele>726.0</ele><time>2026-04-29T16:02:31.92Z</time></trkpt><trkpt lat="43.0403785" lon="13.143846"><ele>726.0</ele><time>2026-04-29T16:02:32.932Z</time></trkpt><trkpt lat="43.0402773" lon="13.1438948"><ele>726.0</ele><time>2026-04-29T16:02:33.963Z</time></trkpt><trkpt lat="43.0401793" lon="13.1439446"><ele>726.0</ele><time>2026-04-29T16:02:34.916Z</time></trkpt><trkpt lat="43.0400846" lon="13.143989"><ele>726.0</ele><time>2026-04-29T16:02:35.937Z</time></trkpt><trkpt lat="43.0399918" lon="13.1440336"><ele>726.0</ele><time>2026-04-29T16:02:36.942Z</time></trkpt><trkpt lat="43.039914" lon="13.1440807"><ele>726.3333333333334</ele><time>2026-04-29T16:02:37.905Z</time></trkpt><trkpt lat="43.0398525" lon="13.1441379"><ele>726.6666666666666</ele><time>2026-04-29T16:02:38.927Z</time></trkpt><trkpt lat="43.0398037" lon="13.1442008"><ele>727.0</ele><time>2026-04-29T16:02:39.938Z</time></trkpt><trkpt lat="43.0397525" lon="13.1443501"><ele>727.3333333333333</ele><time>2026-04-29T16:02:41.919Z</time></trkpt><trkpt lat="43.0397608" lon="13.1444384"><ele>727.6666666666666</ele><time>2026-04-29T16:02:42.918Z</time></trkpt><trkpt lat="43.0397989" lon="13.144526"><ele>728.0</ele><time>2026-04-29T16:02:43.921Z</time></trkpt><trkpt lat="43.0398605" lon="13.1446254"><ele>728.0</ele><time>2026-04-29T16:02:44.984Z</time></trkpt><trkpt lat="43.0399315" lon="13.1447426"><ele>728.0</ele><time>2026-04-29T16:02:45.921Z</time></trkpt><trkpt lat="43.0399965" lon="13.1448662"><ele>728.0</ele><time>2026-04-29T16:02:46.926Z</time></trkpt><trkpt lat="43.0400397" lon="13.1450034"><ele>728.0</ele><time>2026-04-29T16:02:47.934Z</time></trkpt><trkpt lat="43.0400543" lon="13.1451451"><ele>728.0</ele><time>2026-04-29T16:02:48.912Z</time></trkpt><trkpt lat="43.0400386" lon="13.1452945"><ele>729.2</ele><time>2026-04-29T16:02:49.912Z</time></trkpt><trkpt lat="43.0400012" lon="13.1454431"><ele>730.4</ele><time>2026-04-29T16:02:50.939Z</time></trkpt><trkpt lat="43.0399498" lon="13.1455648"><ele>731.6</ele><time>2026-04-29T16:02:51.909Z</time></trkpt><trkpt lat="43.0399038" lon="13.1456793"><ele>732.8000000000001</ele><time>2026-04-29T16:02:52.919Z</time></trkpt><trkpt lat="43.0398609" lon="13.145782"><ele>734.0</ele><time>2026-04-29T16:02:53.92Z</time></trkpt><trkpt lat="43.0398157" lon="13.145877"><ele>734.0</ele><time>2026-04-29T16:02:54.922Z</time></trkpt><trkpt lat="43.0397707" lon="13.1459688"><ele>734.0</ele><time>2026-04-29T16:02:55.954Z</time></trkpt><trkpt lat="43.0397391" lon="13.1460494"><ele>734.0</ele><time>2026-04-29T16:02:56.937Z</time></trkpt><trkpt lat="43.0397305" lon="13.1461358"><ele>734.0</ele><time>2026-04-29T16:02:57.898Z</time></trkpt><trkpt lat="43.0397676" lon="13.1462635"><ele>734.0</ele><time>2026-04-29T16:02:59.924Z</time></trkpt><trkpt lat="43.0398221" lon="13.1463458"><ele>734.0</ele><time>2026-04-29T16:03:01.911Z</time></trkpt><trkpt lat="43.0397931" lon="13.1465027"><ele>733.2</ele><time>2026-04-29T16:03:03.935Z</time></trkpt><trkpt lat="43.0397385" lon="13.1465964"><ele>732.4000000000001</ele><time>2026-04-29T16:03:04.914Z</time></trkpt><trkpt lat="43.0396776" lon="13.1466998"><ele>731.6</ele><time>2026-04-29T16:03:05.93Z</time></trkpt><trkpt lat="43.0396171" lon="13.1468025"><ele>730.8</ele><time>2026-04-29T16:03:06.919Z</time></trkpt><trkpt lat="43.0395622" lon="13.1469059"><ele>730.0</ele><time>2026-04-29T16:03:07.957Z</time></trkpt><trkpt lat="43.0395037" lon="13.147022"><ele>730.0</ele><time>2026-04-29T16:03:08.928Z</time></trkpt><trkpt lat="43.0394321" lon="13.1471604"><ele>730.0</ele><time>2026-04-29T16:03:09.936Z</time></trkpt><trkpt lat="43.0393647" lon="13.1472818"><ele>730.0</ele><time>2026-04-29T16:03:10.927Z</time></trkpt><trkpt lat="43.0392903" lon="13.1473982"><ele>730.0</ele><time>2026-04-29T16:03:11.887Z</time></trkpt><trkpt lat="43.0392022" lon="13.1475065"><ele>731.75</ele><time>2026-04-29T16:03:12.919Z</time></trkpt><trkpt lat="43.0390916" lon="13.1476074"><ele>733.5</ele><time>2026-04-29T16:03:13.921Z</time></trkpt><trkpt lat="43.0389763" lon="13.1477003"><ele>735.25</ele><time>2026-04-29T16:03:14.938Z</time></trkpt><trkpt lat="43.0388657" lon="13.1477864"><ele>737.0</ele><time>2026-04-29T16:03:15.914Z</time></trkpt><trkpt lat="43.0387772" lon="13.147875"><ele>737.0</ele><time>2026-04-29T16:03:16.907Z</time></trkpt><trkpt lat="43.0387036" lon="13.147966"><ele>737.0</ele><time>2026-04-29T16:03:17.923Z</time></trkpt><trkpt lat="43.0386545" lon="13.1480722"><ele>737.0</ele><time>2026-04-29T16:03:18.977Z</time></trkpt><trkpt lat="43.038631" lon="13.148199"><ele>737.0</ele><time>2026-04-29T16:03:19.924Z</time></trkpt><trkpt lat="43.0386433" lon="13.1483418"><ele>737.0</ele><time>2026-04-29T16:03:20.911Z</time></trkpt><trkpt lat="43.0386876" lon="13.1484929"><ele>735.25</ele><time>2026-04-29T16:03:21.898Z</time></trkpt><trkpt lat="43.0387566" lon="13.1486412"><ele>733.5</ele><time>2026-04-29T16:03:22.922Z</time></trkpt><trkpt lat="43.038822" lon="13.1487762"><ele>731.75</ele><time>2026-04-29T16:03:23.93Z</time></trkpt><trkpt lat="43.0388824" lon="13.148895"><ele>730.0</ele><time>2026-04-29T16:03:24.96Z</time></trkpt><trkpt lat="43.0389368" lon="13.1490171"><ele>731.6666666666667</ele><time>2026-04-29T16:03:25.913Z</time></trkpt><trkpt lat="43.0389678" lon="13.1491246"><ele>733.3333333333334</ele><time>2026-04-29T16:03:26.882Z</time></trkpt><trkpt lat="43.0389993" lon="13.1492152"><ele>735.0</ele><time>2026-04-29T16:03:27.93Z</time></trkpt><trkpt lat="43.0389838" lon="13.1493189"><ele>736.6666666666666</ele><time>2026-04-29T16:03:28.935Z</time></trkpt><trkpt lat="43.0389376" lon="13.1494161"><ele>738.3333333333333</ele><time>2026-04-29T16:03:29.929Z</time></trkpt><trkpt lat="43.0388881" lon="13.1495132"><ele>740.0</ele><time>2026-04-29T16:03:30.979Z</time></trkpt><trkpt lat="43.0388168" lon="13.1496095"><ele>740.0</ele><time>2026-04-29T16:03:31.889Z</time></trkpt><trkpt lat="43.0387531" lon="13.1496974"><ele>740.0</ele><time>2026-04-29T16:03:32.922Z</time></trkpt><trkpt lat="43.0387023" lon="13.149794"><ele>740.0</ele><time>2026-04-29T16:03:33.916Z</time></trkpt><trkpt lat="43.0386543" lon="13.1498961"><ele>740.0</ele><time>2026-04-29T16:03:34.919Z</time></trkpt><trkpt lat="43.0386216" lon="13.1500151"><ele>740.0</ele><time>2026-04-29T16:03:35.926Z</time></trkpt><trkpt lat="43.0385798" lon="13.1501351"><ele>737.8</ele><time>2026-04-29T16:03:36.904Z</time></trkpt><trkpt lat="43.0385341" lon="13.1502586"><ele>735.6</ele><time>2026-04-29T16:03:37.922Z</time></trkpt><trkpt lat="43.0384946" lon="13.1503839"><ele>733.4000000000001</ele><time>2026-04-29T16:03:38.915Z</time></trkpt><trkpt lat="43.0384593" lon="13.1505087"><ele>731.2</ele><time>2026-04-29T16:03:39.933Z</time></trkpt><trkpt lat="43.0384379" lon="13.1506338"><ele>729.0</ele><time>2026-04-29T16:03:40.935Z</time></trkpt><trkpt lat="43.0384312" lon="13.1507568"><ele>728.5</ele><time>2026-04-29T16:03:41.888Z</time></trkpt><trkpt lat="43.0384443" lon="13.1508762"><ele>728.0</ele><time>2026-04-29T16:03:42.926Z</time></trkpt><trkpt lat="43.0384636" lon="13.1509986"><ele>727.5</ele><time>2026-04-29T16:03:43.924Z</time></trkpt><trkpt lat="43.0385177" lon="13.1510934"><ele>727.0</ele><time>2026-04-29T16:03:44.922Z</time></trkpt><trkpt lat="43.0385825" lon="13.151186"><ele>726.5</ele><time>2026-04-29T16:03:45.941Z</time></trkpt><trkpt lat="43.0386322" lon="13.1512826"><ele>726.0</ele><time>2026-04-29T16:03:46.882Z</time></trkpt><trkpt lat="43.0386518" lon="13.1513889"><ele>726.0</ele><time>2026-04-29T16:03:47.934Z</time></trkpt><trkpt lat="43.0386447" lon="13.1515051"><ele>726.0</ele><time>2026-04-29T16:03:48.915Z</time></trkpt><trkpt lat="43.0386338" lon="13.1516295"><ele>726.0</ele><time>2026-04-29T16:03:49.932Z</time></trkpt><trkpt lat="43.0386138" lon="13.1517659"><ele>726.0</ele><time>2026-04-29T16:03:50.931Z</time></trkpt><trkpt lat="43.0385902" lon="13.1518872"><ele>726.0</ele><time>2026-04-29T16:03:51.905Z</time></trkpt><trkpt lat="43.0385673" lon="13.1520228"><ele>726.0</ele><time>2026-04-29T16:03:52.923Z</time></trkpt><trkpt lat="43.0385472" lon="13.1521564"><ele>726.0</ele><time>2026-04-29T16:03:53.94Z</time></trkpt><trkpt lat="43.0385262" lon="13.1522901"><ele>726.0</ele><time>2026-04-29T16:03:54.91Z</time></trkpt><trkpt lat="43.0385087" lon="13.1524112"><ele>726.0</ele><time>2026-04-29T16:03:55.943Z</time></trkpt><trkpt lat="43.0384918" lon="13.1525255"><ele>726.0</ele><time>2026-04-29T16:03:56.898Z</time></trkpt><trkpt lat="43.0384859" lon="13.152635"><ele>726.0</ele><time>2026-04-29T16:03:57.939Z</time></trkpt><trkpt lat="43.0384712" lon="13.1527484"><ele>726.0</ele><time>2026-04-29T16:03:58.93Z</time></trkpt><trkpt lat="43.0384484" lon="13.1528716"><ele>726.0</ele><time>2026-04-29T16:03:59.93Z</time></trkpt><trkpt lat="43.0384191" lon="13.1529921"><ele>726.0</ele><time>2026-04-29T16:04:00.938Z</time></trkpt><trkpt lat="43.0383868" lon="13.153113"><ele>726.0</ele><time>2026-04-29T16:04:01.895Z</time></trkpt><trkpt lat="43.0383391" lon="13.1532252"><ele>727.4</ele><time>2026-04-29T16:04:02.944Z</time></trkpt><trkpt lat="43.038275" lon="13.153316"><ele>728.8</ele><time>2026-04-29T16:04:03.95Z</time></trkpt><trkpt lat="43.0381977" lon="13.1533905"><ele>730.1999999999999</ele><time>2026-04-29T16:04:04.975Z</time></trkpt><trkpt lat="43.0381077" lon="13.153447"><ele>731.5999999999999</ele><time>2026-04-29T16:04:05.928Z</time></trkpt><trkpt lat="43.038015" lon="13.1534963"><ele>733.0</ele><time>2026-04-29T16:04:06.894Z</time></trkpt><trkpt lat="43.0379174" lon="13.1535094"><ele>733.0</ele><time>2026-04-29T16:04:07.927Z</time></trkpt><trkpt lat="43.037825" lon="13.1534854"><ele>733.0</ele><time>2026-04-29T16:04:08.917Z</time></trkpt><trkpt lat="43.0377163" lon="13.1534406"><ele>733.0</ele><time>2026-04-29T16:04:09.923Z</time></trkpt><trkpt lat="43.0376126" lon="13.1533875"><ele>733.0</ele><time>2026-04-29T16:04:10.945Z</time></trkpt><trkpt lat="43.0375151" lon="13.1533362"><ele>733.0</ele><time>2026-04-29T16:04:11.899Z</time></trkpt><trkpt lat="43.0374197" lon="13.1532954"><ele>735.4</ele><time>2026-04-29T16:04:12.936Z</time></trkpt><trkpt lat="43.0373285" lon="13.153263"><ele>737.8</ele><time>2026-04-29T16:04:13.934Z</time></trkpt><trkpt lat="43.0372407" lon="13.153286"><ele>740.2</ele><time>2026-04-29T16:04:14.922Z</time></trkpt><trkpt lat="43.0371657" lon="13.1533402"><ele>742.6</ele><time>2026-04-29T16:04:15.931Z</time></trkpt><trkpt lat="43.0371052" lon="13.153429"><ele>745.0</ele><time>2026-04-29T16:04:16.893Z</time></trkpt><trkpt lat="43.0370693" lon="13.1535478"><ele>745.0</ele><time>2026-04-29T16:04:17.932Z</time></trkpt><trkpt lat="43.0370366" lon="13.1536789"><ele>745.0</ele><time>2026-04-29T16:04:18.927Z</time></trkpt><trkpt lat="43.0370039" lon="13.1538096"><ele>745.0</ele><time>2026-04-29T16:04:19.902Z</time></trkpt><trkpt lat="43.036981" lon="13.15393"><ele>745.0</ele><time>2026-04-29T16:04:20.936Z</time></trkpt><trkpt lat="43.0369455" lon="13.1540266"><ele>745.0</ele><time>2026-04-29T16:04:21.909Z</time></trkpt><trkpt lat="43.0369024" lon="13.1541216"><ele>743.5</ele><time>2026-04-29T16:04:22.923Z</time></trkpt><trkpt lat="43.0368687" lon="13.1542171"><ele>742.0</ele><time>2026-04-29T16:04:23.948Z</time></trkpt><trkpt lat="43.0368349" lon="13.1543117"><ele>740.5</ele><time>2026-04-29T16:04:24.911Z</time></trkpt><trkpt lat="43.0368038" lon="13.1544005"><ele>739.0</ele><time>2026-04-29T16:04:25.928Z</time></trkpt><trkpt lat="43.0367737" lon="13.1544921"><ele>737.5</ele><time>2026-04-29T16:04:26.908Z</time></trkpt><trkpt lat="43.0367461" lon="13.1545912"><ele>736.0</ele><time>2026-04-29T16:04:27.935Z</time></trkpt><trkpt lat="43.0367226" lon="13.1546916"><ele>736.0</ele><time>2026-04-29T16:04:28.905Z</time></trkpt><trkpt lat="43.0367034" lon="13.1547864"><ele>736.0</ele><time>2026-04-29T16:04:29.933Z</time></trkpt><trkpt lat="43.0366878" lon="13.1548721"><ele>736.0</ele><time>2026-04-29T16:04:30.946Z</time></trkpt><trkpt lat="43.0366657" lon="13.1549828"><ele>736.0</ele><time>2026-04-29T16:04:32.927Z</time></trkpt><trkpt lat="43.0366403" lon="13.1550826"><ele>736.0</ele><time>2026-04-29T16:04:35.919Z</time></trkpt><trkpt lat="43.0366244" lon="13.1551704"><ele>736.0</ele><time>2026-04-29T16:04:39.946Z</time></trkpt><trkpt lat="43.0366011" lon="13.1552719"><ele>736.0</ele><time>2026-04-29T16:04:42.962Z</time></trkpt><trkpt lat="43.0365615" lon="13.155345"><ele>739.0</ele><time>2026-04-29T16:04:45.945Z</time></trkpt><trkpt lat="43.0364962" lon="13.1552848"><ele>739.0</ele><time>2026-04-29T16:04:48.915Z</time></trkpt><trkpt lat="43.0364882" lon="13.1551979"><ele>739.0</ele><time>2026-04-29T16:06:46.917Z</time></trkpt><trkpt lat="43.0365018" lon="13.15509"><ele>739.0</ele><time>2026-04-29T16:07:00.058Z</time></trkpt><trkpt lat="43.0365211" lon="13.1550043"><ele>739.0</ele><time>2026-04-29T16:07:04.977Z</time></trkpt><trkpt lat="43.0365695" lon="13.1549056"><ele>739.0</ele><time>2026-04-29T16:08:01.374Z</time></trkpt></trkseg><trkseg><trkpt lat="43.036495" lon="13.1552894"><ele>739.0</ele><time>2026-04-29T16:23:20.804Z</time></trkpt><trkpt lat="43.0365588" lon="13.1553505"><ele>739.0</ele><time>2026-04-29T16:24:41.511Z</time></trkpt><trkpt lat="43.0365905" lon="13.155427"><ele>739.0</ele><time>2026-04-29T16:24:43.506Z</time></trkpt><trkpt lat="43.0365552" lon="13.1555558"><ele>739.0</ele><time>2026-04-29T16:24:45.511Z</time></trkpt><trkpt lat="43.0365369" lon="13.155646"><ele>739.0</ele><time>2026-04-29T16:24:46.489Z</time></trkpt><trkpt lat="43.0365177" lon="13.1557563"><ele>739.0</ele><time>2026-04-29T16:24:47.508Z</time></trkpt><trkpt lat="43.0364969" lon="13.1558639"><ele>738.4000000000001</ele><time>2026-04-29T16:24:48.496Z</time></trkpt><trkpt lat="43.0364689" lon="13.1559793"><ele>737.8</ele><time>2026-04-29T16:24:49.489Z</time></trkpt><trkpt lat="43.0364405" lon="13.1561064"><ele>737.2</ele><time>2026-04-29T16:24:50.497Z</time></trkpt><trkpt lat="43.0364075" lon="13.1562767"><ele>736.5999999999999</ele><time>2026-04-29T16:24:51.515Z</time></trkpt><trkpt lat="43.0363736" lon="13.1564288"><ele>736.0</ele><time>2026-04-29T16:24:52.511Z</time></trkpt><trkpt lat="43.0363451" lon="13.1565671"><ele>736.0</ele><time>2026-04-29T16:24:53.495Z</time></trkpt><trkpt lat="43.0363171" lon="13.1567097"><ele>736.0</ele><time>2026-04-29T16:24:54.55Z</time></trkpt><trkpt lat="43.0362922" lon="13.1568475"><ele>736.0</ele><time>2026-04-29T16:24:55.513Z</time></trkpt><trkpt lat="43.0362691" lon="13.15699"><ele>736.0</ele><time>2026-04-29T16:24:56.493Z</time></trkpt><trkpt lat="43.036256" lon="13.1571206"><ele>736.0</ele><time>2026-04-29T16:24:57.504Z</time></trkpt><trkpt lat="43.0362542" lon="13.157256"><ele>734.75</ele><time>2026-04-29T16:24:58.51Z</time></trkpt><trkpt lat="43.0362707" lon="13.1574044"><ele>733.5</ele><time>2026-04-29T16:24:59.503Z</time></trkpt><trkpt lat="43.0362955" lon="13.1575692"><ele>732.25</ele><time>2026-04-29T16:25:00.46Z</time></trkpt><trkpt lat="43.0363211" lon="13.1577385"><ele>731.0</ele><time>2026-04-29T16:25:01.487Z</time></trkpt><trkpt lat="43.0363466" lon="13.1579039"><ele>731.0</ele><time>2026-04-29T16:25:02.521Z</time></trkpt><trkpt lat="43.0363772" lon="13.1580645"><ele>731.0</ele><time>2026-04-29T16:25:03.522Z</time></trkpt><trkpt lat="43.0364094" lon="13.1582266"><ele>731.0</ele><time>2026-04-29T16:25:04.489Z</time></trkpt><trkpt lat="43.0364502" lon="13.1583854"><ele>731.0</ele><time>2026-04-29T16:25:05.504Z</time></trkpt><trkpt lat="43.0365094" lon="13.1585469"><ele>732.0</ele><time>2026-04-29T16:25:06.56Z</time></trkpt><trkpt lat="43.0365725" lon="13.1587187"><ele>733.0</ele><time>2026-04-29T16:25:07.501Z</time></trkpt><trkpt lat="43.0366765" lon="13.1589138"><ele>734.0</ele><time>2026-04-29T16:25:08.514Z</time></trkpt><trkpt lat="43.0367992" lon="13.1591163"><ele>728.6666666666666</ele><time>2026-04-29T16:25:09.514Z</time></trkpt><trkpt lat="43.0369156" lon="13.1593252"><ele>723.3333333333334</ele><time>2026-04-29T16:25:10.482Z</time></trkpt><trkpt lat="43.0370226" lon="13.159525"><ele>718.0</ele><time>2026-04-29T16:25:11.504Z</time></trkpt><trkpt lat="43.037125" lon="13.1597163"><ele>713.6666666666667</ele><time>2026-04-29T16:25:12.482Z</time></trkpt><trkpt lat="43.0372096" lon="13.1599016"><ele>709.3333333333334</ele><time>2026-04-29T16:25:13.489Z</time></trkpt><trkpt lat="43.0373015" lon="13.1600937"><ele>705.0</ele><time>2026-04-29T16:25:14.508Z</time></trkpt><trkpt lat="43.0373857" lon="13.1602753"><ele>705.0</ele><time>2026-04-29T16:25:15.501Z</time></trkpt><trkpt lat="43.037466" lon="13.1604436"><ele>705.0</ele><time>2026-04-29T16:25:16.493Z</time></trkpt><trkpt lat="43.0375549" lon="13.1605988"><ele>705.0</ele><time>2026-04-29T16:25:17.537Z</time></trkpt><trkpt lat="43.0376577" lon="13.1607193"><ele>705.0</ele><time>2026-04-29T16:25:18.51Z</time></trkpt><trkpt lat="43.0377666" lon="13.1608363"><ele>705.6666666666666</ele><time>2026-04-29T16:25:19.48Z</time></trkpt><trkpt lat="43.037904" lon="13.1609054"><ele>706.3333333333333</ele><time>2026-04-29T16:25:20.5Z</time></trkpt><trkpt lat="43.0380756" lon="13.1609526"><ele>707.0</ele><time>2026-04-29T16:25:21.476Z</time></trkpt><trkpt lat="43.0382755" lon="13.1609697"><ele>708.0</ele><time>2026-04-29T16:25:22.484Z</time></trkpt><trkpt lat="43.0384782" lon="13.1609758"><ele>709.0</ele><time>2026-04-29T16:25:23.482Z</time></trkpt><trkpt lat="43.0386607" lon="13.1609831"><ele>710.0</ele><time>2026-04-29T16:25:24.503Z</time></trkpt><trkpt lat="43.0388305" lon="13.160999"><ele>710.0</ele><time>2026-04-29T16:25:25.49Z</time></trkpt><trkpt lat="43.0390076" lon="13.1609953"><ele>710.0</ele><time>2026-04-29T16:25:26.491Z</time></trkpt><trkpt lat="43.0391984" lon="13.1609683"><ele>710.0</ele><time>2026-04-29T16:25:27.499Z</time></trkpt><trkpt lat="43.0393997" lon="13.1609224"><ele>707.6666666666666</ele><time>2026-04-29T16:25:28.541Z</time></trkpt><trkpt lat="43.0396114" lon="13.1608859"><ele>705.3333333333334</ele><time>2026-04-29T16:25:29.491Z</time></trkpt><trkpt lat="43.0398081" lon="13.1608628"><ele>703.0</ele><time>2026-04-29T16:25:30.493Z</time></trkpt><trkpt lat="43.0399871" lon="13.1608426"><ele>702.0</ele><time>2026-04-29T16:25:31.501Z</time></trkpt><trkpt lat="43.0401599" lon="13.1608241"><ele>701.0</ele><time>2026-04-29T16:25:32.467Z</time></trkpt><trkpt lat="43.0403351" lon="13.1608272"><ele>700.0</ele><time>2026-04-29T16:25:33.494Z</time></trkpt><trkpt lat="43.0405138" lon="13.1608578"><ele>700.0</ele><time>2026-04-29T16:25:34.485Z</time></trkpt><trkpt lat="43.0406844" lon="13.1609009"><ele>700.0</ele><time>2026-04-29T16:25:35.49Z</time></trkpt><trkpt lat="43.0408458" lon="13.1609508"><ele>700.0</ele><time>2026-04-29T16:25:36.494Z</time></trkpt><trkpt lat="43.0409985" lon="13.1609845"><ele>699.6</ele><time>2026-04-29T16:25:37.495Z</time></trkpt><trkpt lat="43.0411438" lon="13.1610176"><ele>699.2</ele><time>2026-04-29T16:25:38.489Z</time></trkpt><trkpt lat="43.041258" lon="13.1610386"><ele>698.8</ele><time>2026-04-29T16:25:39.495Z</time></trkpt><trkpt lat="43.0413459" lon="13.1610611"><ele>698.4</ele><time>2026-04-29T16:25:40.542Z</time></trkpt><trkpt lat="43.0414112" lon="13.1610929"><ele>698.0</ele><time>2026-04-29T16:25:41.488Z</time></trkpt><trkpt lat="43.0414652" lon="13.1612027"><ele>698.0</ele><time>2026-04-29T16:25:43.497Z</time></trkpt><trkpt lat="43.0413906" lon="13.1612681"><ele>698.0</ele><time>2026-04-29T16:25:45.479Z</time></trkpt><trkpt lat="43.0412763" lon="13.1612711"><ele>698.0</ele><time>2026-04-29T16:25:47.456Z</time></trkpt><trkpt lat="43.0411982" lon="13.1612484"><ele>698.0</ele><time>2026-04-29T16:25:48.487Z</time></trkpt><trkpt lat="43.0411058" lon="13.161222"><ele>698.0</ele><time>2026-04-29T16:25:49.49Z</time></trkpt><trkpt lat="43.040981" lon="13.1612089"><ele>698.0</ele><time>2026-04-29T16:25:50.492Z</time></trkpt><trkpt lat="43.040841" lon="13.161214"><ele>698.0</ele><time>2026-04-29T16:25:51.488Z</time></trkpt><trkpt lat="43.0406976" lon="13.161214"><ele>698.0</ele><time>2026-04-29T16:25:52.458Z</time></trkpt><trkpt lat="43.04055" lon="13.1612311"><ele>698.0</ele><time>2026-04-29T16:25:53.5Z</time></trkpt><trkpt lat="43.0403784" lon="13.1612427"><ele>698.6666666666666</ele><time>2026-04-29T16:25:54.491Z</time></trkpt><trkpt lat="43.0401983" lon="13.161246"><ele>699.3333333333334</ele><time>2026-04-29T16:25:55.5Z</time></trkpt><trkpt lat="43.0400077" lon="13.1613081"><ele>700.0</ele><time>2026-04-29T16:25:56.497Z</time></trkpt><trkpt lat="43.0398201" lon="13.1614162"><ele>693.3333333333334</ele><time>2026-04-29T16:25:57.488Z</time></trkpt><trkpt lat="43.0396426" lon="13.1615409"><ele>686.6666666666666</ele><time>2026-04-29T16:25:58.495Z</time></trkpt><trkpt lat="43.0394746" lon="13.1616706"><ele>680.0</ele><time>2026-04-29T16:25:59.498Z</time></trkpt><trkpt lat="43.0393181" lon="13.1617999"><ele>680.0</ele><time>2026-04-29T16:26:00.456Z</time></trkpt><trkpt lat="43.0391573" lon="13.1619232"><ele>680.0</ele><time>2026-04-29T16:26:01.465Z</time></trkpt><trkpt lat="43.0389983" lon="13.1620377"><ele>680.0</ele><time>2026-04-29T16:26:02.464Z</time></trkpt><trkpt lat="43.0388419" lon="13.1621362"><ele>676.3333333333333</ele><time>2026-04-29T16:26:03.486Z</time></trkpt><trkpt lat="43.0386927" lon="13.1622204"><ele>672.6666666666666</ele><time>2026-04-29T16:26:04.474Z</time></trkpt><trkpt lat="43.0385516" lon="13.1623233"><ele>669.0</ele><time>2026-04-29T16:26:05.481Z</time></trkpt><trkpt lat="43.038417" lon="13.1624271"><ele>669.0</ele><time>2026-04-29T16:26:06.497Z</time></trkpt><trkpt lat="43.0383111" lon="13.1625838"><ele>669.0</ele><time>2026-04-29T16:26:07.464Z</time></trkpt><trkpt lat="43.0382306" lon="13.1627572"><ele>669.0</ele><time>2026-04-29T16:26:08.476Z</time></trkpt><trkpt lat="43.0381572" lon="13.1629226"><ele>669.0</ele><time>2026-04-29T16:26:09.478Z</time></trkpt><trkpt lat="43.0380729" lon="13.1630848"><ele>667.0</ele><time>2026-04-29T16:26:10.502Z</time></trkpt><trkpt lat="43.0379946" lon="13.1632393"><ele>665.0</ele><time>2026-04-29T16:26:11.488Z</time></trkpt><trkpt lat="43.0379061" lon="13.1633828"><ele>663.0</ele><time>2026-04-29T16:26:12.461Z</time></trkpt><trkpt lat="43.0378143" lon="13.1635146"><ele>661.0</ele><time>2026-04-29T16:26:13.49Z</time></trkpt><trkpt lat="43.0377296" lon="13.1636339"><ele>661.0</ele><time>2026-04-29T16:26:14.529Z</time></trkpt><trkpt lat="43.0376562" lon="13.1637478"><ele>661.0</ele><time>2026-04-29T16:26:15.499Z</time></trkpt><trkpt lat="43.0375992" lon="13.163857"><ele>661.0</ele><time>2026-04-29T16:26:16.512Z</time></trkpt><trkpt lat="43.0375855" lon="13.163966"><ele>661.0</ele><time>2026-04-29T16:26:17.45Z</time></trkpt><trkpt lat="43.0376032" lon="13.1640788"><ele>661.0</ele><time>2026-04-29T16:26:18.495Z</time></trkpt><trkpt lat="43.0376473" lon="13.1641984"><ele>655.75</ele><time>2026-04-29T16:26:19.484Z</time></trkpt><trkpt lat="43.0377115" lon="13.1643056"><ele>650.5</ele><time>2026-04-29T16:26:20.501Z</time></trkpt><trkpt lat="43.0377856" lon="13.1644294"><ele>645.25</ele><time>2026-04-29T16:26:21.492Z</time></trkpt><trkpt lat="43.0378678" lon="13.1645761"><ele>640.0</ele><time>2026-04-29T16:26:22.464Z</time></trkpt><trkpt lat="43.0379534" lon="13.1647249"><ele>639.6</ele><time>2026-04-29T16:26:23.494Z</time></trkpt><trkpt lat="43.0380398" lon="13.1648647"><ele>639.2</ele><time>2026-04-29T16:26:24.484Z</time></trkpt><trkpt lat="43.0381171" lon="13.1649859"><ele>638.8</ele><time>2026-04-29T16:26:25.494Z</time></trkpt><trkpt lat="43.03819" lon="13.1650805"><ele>638.4</ele><time>2026-04-29T16:26:26.504Z</time></trkpt><trkpt lat="43.0382647" lon="13.1651391"><ele>638.0</ele><time>2026-04-29T16:26:27.447Z</time></trkpt><trkpt lat="43.0383579" lon="13.1651661"><ele>638.8333333333333</ele><time>2026-04-29T16:26:28.5Z</time></trkpt><trkpt lat="43.038452" lon="13.1651718"><ele>639.6666666666666</ele><time>2026-04-29T16:26:29.469Z</time></trkpt><trkpt lat="43.0385395" lon="13.1651818"><ele>640.5</ele><time>2026-04-29T16:26:30.496Z</time></trkpt><trkpt lat="43.0386121" lon="13.1652181"><ele>641.3333333333334</ele><time>2026-04-29T16:26:31.486Z</time></trkpt><trkpt lat="43.0386711" lon="13.1652944"><ele>642.1666666666667</ele><time>2026-04-29T16:26:32.471Z</time></trkpt><trkpt lat="43.0387028" lon="13.1653898"><ele>643.0</ele><time>2026-04-29T16:26:33.493Z</time></trkpt><trkpt lat="43.0387023" lon="13.1654897"><ele>643.0</ele><time>2026-04-29T16:26:34.489Z</time></trkpt><trkpt lat="43.0386724" lon="13.1655721"><ele>643.0</ele><time>2026-04-29T16:26:35.48Z</time></trkpt><trkpt lat="43.0386297" lon="13.1656476"><ele>643.0</ele><time>2026-04-29T16:26:36.489Z</time></trkpt><trkpt lat="43.0385536" lon="13.1656782"><ele>643.0</ele><time>2026-04-29T16:26:37.474Z</time></trkpt><trkpt lat="43.0384693" lon="13.1657005"><ele>643.0</ele><time>2026-04-29T16:26:38.511Z</time></trkpt><trkpt lat="43.0383741" lon="13.1657303"><ele>643.0</ele><time>2026-04-29T16:26:39.488Z</time></trkpt><trkpt lat="43.0382769" lon="13.1657635"><ele>644.6666666666667</ele><time>2026-04-29T16:26:40.491Z</time></trkpt><trkpt lat="43.0381852" lon="13.1657963"><ele>646.3333333333334</ele><time>2026-04-29T16:26:41.488Z</time></trkpt><trkpt lat="43.0380944" lon="13.1658278"><ele>648.0</ele><time>2026-04-29T16:26:42.466Z</time></trkpt><trkpt lat="43.0380093" lon="13.1658636"><ele>649.6666666666666</ele><time>2026-04-29T16:26:43.5Z</time></trkpt><trkpt lat="43.0379267" lon="13.1658977"><ele>651.3333333333333</ele><time>2026-04-29T16:26:44.497Z</time></trkpt><trkpt lat="43.0378532" lon="13.1659368"><ele>653.0</ele><time>2026-04-29T16:26:45.495Z</time></trkpt><trkpt lat="43.037781" lon="13.1659774"><ele>653.0</ele><time>2026-04-29T16:26:46.489Z</time></trkpt><trkpt lat="43.0377167" lon="13.166017"><ele>653.0</ele><time>2026-04-29T16:26:47.466Z</time></trkpt><trkpt lat="43.0376547" lon="13.1660514"><ele>653.0</ele><time>2026-04-29T16:26:48.503Z</time></trkpt><trkpt lat="43.0375936" lon="13.1660856"><ele>653.0</ele><time>2026-04-29T16:26:49.487Z</time></trkpt><trkpt lat="43.0374869" lon="13.1661384"><ele>653.0</ele><time>2026-04-29T16:26:51.491Z</time></trkpt><trkpt lat="43.0374096" lon="13.1661833"><ele>653.0</ele><time>2026-04-29T16:26:53.488Z</time></trkpt><trkpt lat="43.0372858" lon="13.1662425"><ele>651.5999999999999</ele><time>2026-04-29T16:27:05.479Z</time></trkpt><trkpt lat="43.037211" lon="13.1663013"><ele>650.1999999999999</ele><time>2026-04-29T16:27:06.475Z</time></trkpt><trkpt lat="43.0371433" lon="13.166349"><ele>648.8</ele><time>2026-04-29T16:27:07.483Z</time></trkpt><trkpt lat="43.0370799" lon="13.1664"><ele>647.4</ele><time>2026-04-29T16:27:08.473Z</time></trkpt><trkpt lat="43.0369818" lon="13.1665032"><ele>646.0</ele><time>2026-04-29T16:27:10.507Z</time></trkpt><trkpt lat="43.0369185" lon="13.1666081"><ele>649.4</ele><time>2026-04-29T16:27:12.486Z</time></trkpt><trkpt lat="43.036956" lon="13.1667591"><ele>652.8</ele><time>2026-04-29T16:27:14.517Z</time></trkpt><trkpt lat="43.0369909" lon="13.166846"><ele>656.1999999999999</ele><time>2026-04-29T16:27:15.497Z</time></trkpt><trkpt lat="43.0370341" lon="13.1669376"><ele>659.5999999999999</ele><time>2026-04-29T16:27:16.489Z</time></trkpt><trkpt lat="43.0370645" lon="13.1670519"><ele>663.0</ele><time>2026-04-29T16:27:17.513Z</time></trkpt><trkpt lat="43.0370872" lon="13.1671812"><ele>663.0</ele><time>2026-04-29T16:27:18.483Z</time></trkpt><trkpt lat="43.0371091" lon="13.1673083"><ele>663.0</ele><time>2026-04-29T16:27:19.453Z</time></trkpt><trkpt lat="43.0370973" lon="13.1674463"><ele>663.0</ele><time>2026-04-29T16:27:20.483Z</time></trkpt><trkpt lat="43.0370711" lon="13.1676038"><ele>663.0</ele><time>2026-04-29T16:27:21.494Z</time></trkpt><trkpt lat="43.0370587" lon="13.1677541"><ele>663.0</ele><time>2026-04-29T16:27:22.517Z</time></trkpt><trkpt lat="43.0370449" lon="13.1678867"><ele>664.6666666666666</ele><time>2026-04-29T16:27:23.465Z</time></trkpt><trkpt lat="43.0370412" lon="13.168002"><ele>666.3333333333334</ele><time>2026-04-29T16:27:24.496Z</time></trkpt><trkpt lat="43.0370318" lon="13.1681173"><ele>668.0</ele><time>2026-04-29T16:27:25.479Z</time></trkpt><trkpt lat="43.0370406" lon="13.1682315"><ele>669.6666666666667</ele><time>2026-04-29T16:27:26.494Z</time></trkpt><trkpt lat="43.03708" lon="13.168352"><ele>671.3333333333334</ele><time>2026-04-29T16:27:27.482Z</time></trkpt><trkpt lat="43.0371401" lon="13.1684596"><ele>673.0</ele><time>2026-04-29T16:27:28.457Z</time></trkpt><trkpt lat="43.037208" lon="13.1685438"><ele>673.2</ele><time>2026-04-29T16:27:29.491Z</time></trkpt><trkpt lat="43.0372855" lon="13.1686263"><ele>673.4</ele><time>2026-04-29T16:27:30.497Z</time></trkpt><trkpt lat="43.0373777" lon="13.1686821"><ele>673.6</ele><time>2026-04-29T16:27:31.475Z</time></trkpt><trkpt lat="43.037467" lon="13.1687465"><ele>673.8000000000001</ele><time>2026-04-29T16:27:32.507Z</time></trkpt><trkpt lat="43.0375602" lon="13.1688172"><ele>674.0</ele><time>2026-04-29T16:27:33.484Z</time></trkpt><trkpt lat="43.0376552" lon="13.1688881"><ele>674.0</ele><time>2026-04-29T16:27:34.501Z</time></trkpt><trkpt lat="43.0377455" lon="13.1689548"><ele>674.0</ele><time>2026-04-29T16:27:35.49Z</time></trkpt><trkpt lat="43.0378325" lon="13.1690128"><ele>674.0</ele><time>2026-04-29T16:27:36.473Z</time></trkpt><trkpt lat="43.0379161" lon="13.1690617"><ele>674.0</ele><time>2026-04-29T16:27:37.489Z</time></trkpt><trkpt lat="43.0380066" lon="13.1691097"><ele>674.0</ele><time>2026-04-29T16:27:38.511Z</time></trkpt><trkpt lat="43.0381208" lon="13.1691649"><ele>674.0</ele><time>2026-04-29T16:27:39.512Z</time></trkpt><trkpt lat="43.0382202" lon="13.1692197"><ele>674.0</ele><time>2026-04-29T16:27:40.504Z</time></trkpt><trkpt lat="43.0383023" lon="13.1692728"><ele>674.0</ele><time>2026-04-29T16:27:41.508Z</time></trkpt><trkpt lat="43.0383714" lon="13.169338"><ele>674.0</ele><time>2026-04-29T16:27:42.495Z</time></trkpt><trkpt lat="43.0384206" lon="13.1694083"><ele>674.0</ele><time>2026-04-29T16:27:43.489Z</time></trkpt><trkpt lat="43.0384674" lon="13.1694794"><ele>674.0</ele><time>2026-04-29T16:27:44.503Z</time></trkpt><trkpt lat="43.0385287" lon="13.1695263"><ele>675.5</ele><time>2026-04-29T16:27:45.494Z</time></trkpt><trkpt lat="43.0385874" lon="13.1695727"><ele>677.0</ele><time>2026-04-29T16:27:46.485Z</time></trkpt><trkpt lat="43.038673" lon="13.1695688"><ele>678.5</ele><time>2026-04-29T16:27:47.504Z</time></trkpt><trkpt lat="43.0387569" lon="13.1695724"><ele>680.0</ele><time>2026-04-29T16:27:48.487Z</time></trkpt><trkpt lat="43.0388218" lon="13.1696246"><ele>681.5</ele><time>2026-04-29T16:27:49.492Z</time></trkpt><trkpt lat="43.0388646" lon="13.1697128"><ele>683.0</ele><time>2026-04-29T16:27:50.539Z</time></trkpt><trkpt lat="43.0389083" lon="13.1698062"><ele>685.1666666666666</ele><time>2026-04-29T16:27:51.483Z</time></trkpt><trkpt lat="43.038903" lon="13.1699358"><ele>687.3333333333333</ele><time>2026-04-29T16:27:52.505Z</time></trkpt><trkpt lat="43.0388914" lon="13.1700707"><ele>689.5</ele><time>2026-04-29T16:27:53.493Z</time></trkpt><trkpt lat="43.0388825" lon="13.1701909"><ele>691.6666666666666</ele><time>2026-04-29T16:27:54.5Z</time></trkpt><trkpt lat="43.038897" lon="13.1703053"><ele>693.8333333333334</ele><time>2026-04-29T16:27:55.496Z</time></trkpt><trkpt lat="43.0389182" lon="13.1704134"><ele>696.0</ele><time>2026-04-29T16:27:56.492Z</time></trkpt><trkpt lat="43.03895" lon="13.1705124"><ele>696.0</ele><time>2026-04-29T16:27:57.48Z</time></trkpt><trkpt lat="43.0389797" lon="13.1706073"><ele>696.0</ele><time>2026-04-29T16:27:58.486Z</time></trkpt><trkpt lat="43.0390015" lon="13.1707018"><ele>696.0</ele><time>2026-04-29T16:27:59.497Z</time></trkpt><trkpt lat="43.039019" lon="13.1707916"><ele>696.0</ele><time>2026-04-29T16:28:00.484Z</time></trkpt><trkpt lat="43.0390362" lon="13.1708948"><ele>696.0</ele><time>2026-04-29T16:28:01.494Z</time></trkpt><trkpt lat="43.0390545" lon="13.1710021"><ele>696.0</ele><time>2026-04-29T16:28:02.487Z</time></trkpt><trkpt lat="43.0390701" lon="13.1711123"><ele>698.3333333333334</ele><time>2026-04-29T16:28:03.5Z</time></trkpt><trkpt lat="43.039077" lon="13.1712176"><ele>700.6666666666666</ele><time>2026-04-29T16:28:04.487Z</time></trkpt><trkpt lat="43.0390894" lon="13.171312"><ele>703.0</ele><time>2026-04-29T16:28:05.491Z</time></trkpt><trkpt lat="43.0391102" lon="13.1714046"><ele>705.3333333333333</ele><time>2026-04-29T16:28:06.492Z</time></trkpt><trkpt lat="43.0391419" lon="13.1715023"><ele>707.6666666666666</ele><time>2026-04-29T16:28:07.486Z</time></trkpt><trkpt lat="43.0391753" lon="13.1716117"><ele>710.0</ele><time>2026-04-29T16:28:08.487Z</time></trkpt><trkpt lat="43.0392104" lon="13.1717295"><ele>712.1666666666666</ele><time>2026-04-29T16:28:09.474Z</time></trkpt><trkpt lat="43.0392497" lon="13.1718319"><ele>714.3333333333333</ele><time>2026-04-29T16:28:10.486Z</time></trkpt><trkpt lat="43.0392865" lon="13.1719352"><ele>716.5</ele><time>2026-04-29T16:28:11.481Z</time></trkpt><trkpt lat="43.0393337" lon="13.1720346"><ele>718.6666666666666</ele><time>2026-04-29T16:28:12.482Z</time></trkpt><trkpt lat="43.0393876" lon="13.1721154"><ele>720.8333333333334</ele><time>2026-04-29T16:28:13.491Z</time></trkpt><trkpt lat="43.0394452" lon="13.1721945"><ele>723.0</ele><time>2026-04-29T16:28:14.504Z</time></trkpt><trkpt lat="43.039521" lon="13.1722684"><ele>723.0</ele><time>2026-04-29T16:28:15.501Z</time></trkpt><trkpt lat="43.0395932" lon="13.1723404"><ele>723.0</ele><time>2026-04-29T16:28:16.487Z</time></trkpt><trkpt lat="43.0396653" lon="13.17241"><ele>723.0</ele><time>2026-04-29T16:28:17.493Z</time></trkpt><trkpt lat="43.0397414" lon="13.1724907"><ele>723.0</ele><time>2026-04-29T16:28:18.53Z</time></trkpt><trkpt lat="43.0398091" lon="13.1725811"><ele>723.0</ele><time>2026-04-29T16:28:19.496Z</time></trkpt><trkpt lat="43.039889" lon="13.1726751"><ele>725.75</ele><time>2026-04-29T16:28:20.479Z</time></trkpt><trkpt lat="43.0399841" lon="13.1727762"><ele>728.5</ele><time>2026-04-29T16:28:21.493Z</time></trkpt><trkpt lat="43.0400824" lon="13.1728765"><ele>731.25</ele><time>2026-04-29T16:28:22.497Z</time></trkpt><trkpt lat="43.0401782" lon="13.1729754"><ele>734.0</ele><time>2026-04-29T16:28:23.512Z</time></trkpt><trkpt lat="43.0402742" lon="13.1730676"><ele>734.0</ele><time>2026-04-29T16:28:24.482Z</time></trkpt><trkpt lat="43.0403542" lon="13.1731482"><ele>734.0</ele><time>2026-04-29T16:28:25.515Z</time></trkpt><trkpt lat="43.0404429" lon="13.173227"><ele>734.0</ele><time>2026-04-29T16:28:26.495Z</time></trkpt><trkpt lat="43.0405297" lon="13.1732978"><ele>734.0</ele><time>2026-04-29T16:28:27.497Z</time></trkpt><trkpt lat="43.0406164" lon="13.1733654"><ele>734.0</ele><time>2026-04-29T16:28:28.495Z</time></trkpt><trkpt lat="43.0406894" lon="13.1734223"><ele>736.1666666666666</ele><time>2026-04-29T16:28:29.488Z</time></trkpt><trkpt lat="43.0407657" lon="13.1734714"><ele>738.3333333333333</ele><time>2026-04-29T16:28:30.491Z</time></trkpt><trkpt lat="43.0408275" lon="13.1735122"><ele>740.5</ele><time>2026-04-29T16:28:31.5Z</time></trkpt><trkpt lat="43.0408878" lon="13.1735447"><ele>742.6666666666666</ele><time>2026-04-29T16:28:32.497Z</time></trkpt><trkpt lat="43.040994" lon="13.1736008"><ele>744.8333333333334</ele><time>2026-04-29T16:28:34.476Z</time></trkpt><trkpt lat="43.0410557" lon="13.1736211"><ele>747.0</ele><time>2026-04-29T16:28:35.491Z</time></trkpt><trkpt lat="43.0411614" lon="13.173662"><ele>747.6</ele><time>2026-04-29T16:28:37.481Z</time></trkpt><trkpt lat="43.0412404" lon="13.1737374"><ele>748.2</ele><time>2026-04-29T16:28:39.515Z</time></trkpt><trkpt lat="43.0413077" lon="13.1738848"><ele>748.8</ele><time>2026-04-29T16:28:41.501Z</time></trkpt><trkpt lat="43.0413367" lon="13.1739821"><ele>749.4</ele><time>2026-04-29T16:28:42.471Z</time></trkpt><trkpt lat="43.0413702" lon="13.1740822"><ele>750.0</ele><time>2026-04-29T16:28:43.499Z</time></trkpt><trkpt lat="43.0414243" lon="13.1741589"><ele>753.8</ele><time>2026-04-29T16:28:44.492Z</time></trkpt><trkpt lat="43.0414856" lon="13.1742163"><ele>757.6</ele><time>2026-04-29T16:28:45.503Z</time></trkpt><trkpt lat="43.0415446" lon="13.1742763"><ele>761.4000000000001</ele><time>2026-04-29T16:28:46.493Z</time></trkpt><trkpt lat="43.041607" lon="13.1743306"><ele>765.2</ele><time>2026-04-29T16:28:47.487Z</time></trkpt><trkpt lat="43.0416962" lon="13.1744294"><ele>769.0</ele><time>2026-04-29T16:28:49.502Z</time></trkpt><trkpt lat="43.0417806" lon="13.1745357"><ele>769.0</ele><time>2026-04-29T16:28:51.501Z</time></trkpt><trkpt lat="43.0418447" lon="13.1746618"><ele>769.0</ele><time>2026-04-29T16:28:53.493Z</time></trkpt><trkpt lat="43.041906" lon="13.1747895"><ele>769.0</ele><time>2026-04-29T16:28:55.504Z</time></trkpt><trkpt lat="43.0419722" lon="13.1749167"><ele>769.0</ele><time>2026-04-29T16:28:57.492Z</time></trkpt><trkpt lat="43.0420442" lon="13.1750274"><ele>769.0</ele><time>2026-04-29T16:28:59.494Z</time></trkpt><trkpt lat="43.0421078" lon="13.1751313"><ele>771.9999999999999</ele><time>2026-04-29T16:29:01.471Z</time></trkpt><trkpt lat="43.042195" lon="13.1752314"><ele>775.0</ele><time>2026-04-29T16:29:03.484Z</time></trkpt><trkpt lat="43.0422602" lon="13.1752584"><ele>778.0</ele><time>2026-04-29T16:29:04.487Z</time></trkpt><trkpt lat="43.042338" lon="13.1752903"><ele>781.0</ele><time>2026-04-29T16:29:05.502Z</time></trkpt><trkpt lat="43.0424068" lon="13.1753178"><ele>783.9999999999999</ele><time>2026-04-29T16:29:06.506Z</time></trkpt><trkpt lat="43.0424677" lon="13.1753447"><ele>787.0</ele><time>2026-04-29T16:29:07.488Z</time></trkpt><trkpt lat="43.0425588" lon="13.1754192"><ele>787.0</ele><time>2026-04-29T16:29:09.538Z</time></trkpt><trkpt lat="43.0426099" lon="13.1754727"><ele>787.0</ele><time>2026-04-29T16:29:10.5Z</time></trkpt><trkpt lat="43.0427012" lon="13.1755823"><ele>787.0</ele><time>2026-04-29T16:29:12.506Z</time></trkpt><trkpt lat="43.0427784" lon="13.1756912"><ele>787.0</ele><time>2026-04-29T16:29:14.496Z</time></trkpt><trkpt lat="43.0428601" lon="13.1758251"><ele>787.0</ele><time>2026-04-29T16:29:16.499Z</time></trkpt><trkpt lat="43.0429059" lon="13.1759145"><ele>790.9999999999999</ele><time>2026-04-29T16:29:17.487Z</time></trkpt><trkpt lat="43.0429655" lon="13.176004"><ele>795.0</ele><time>2026-04-29T16:29:18.458Z</time></trkpt><trkpt lat="43.0430256" lon="13.1760965"><ele>799.0</ele><time>2026-04-29T16:29:19.503Z</time></trkpt><trkpt lat="43.0430836" lon="13.1761688"><ele>803.0</ele><time>2026-04-29T16:29:20.489Z</time></trkpt><trkpt lat="43.0431358" lon="13.1762414"><ele>806.9999999999999</ele><time>2026-04-29T16:29:21.495Z</time></trkpt><trkpt lat="43.0431938" lon="13.1763057"><ele>811.0</ele><time>2026-04-29T16:29:22.497Z</time></trkpt><trkpt lat="43.0432498" lon="13.176365"><ele>810.2857142857142</ele><time>2026-04-29T16:29:23.469Z</time></trkpt><trkpt lat="43.0433031" lon="13.1764215"><ele>809.5714285714287</ele><time>2026-04-29T16:29:24.492Z</time></trkpt><trkpt lat="43.0433411" lon="13.1764921"><ele>808.8571428571429</ele><time>2026-04-29T16:29:25.493Z</time></trkpt><trkpt lat="43.0433768" lon="13.1765705"><ele>808.1428571428571</ele><time>2026-04-29T16:29:26.501Z</time></trkpt><trkpt lat="43.0434167" lon="13.1766465"><ele>807.4285714285713</ele><time>2026-04-29T16:29:27.495Z</time></trkpt><trkpt lat="43.0434608" lon="13.1767243"><ele>806.7142857142858</ele><time>2026-04-29T16:29:28.463Z</time></trkpt><trkpt lat="43.0435144" lon="13.1768104"><ele>806.0</ele><time>2026-04-29T16:29:29.5Z</time></trkpt><trkpt lat="43.0435623" lon="13.1768819"><ele>810.0000000000001</ele><time>2026-04-29T16:29:30.498Z</time></trkpt><trkpt lat="43.0436103" lon="13.1769506"><ele>814.0</ele><time>2026-04-29T16:29:31.481Z</time></trkpt><trkpt lat="43.043662" lon="13.1770169"><ele>818.0</ele><time>2026-04-29T16:29:32.508Z</time></trkpt><trkpt lat="43.0437196" lon="13.1770944"><ele>822.0</ele><time>2026-04-29T16:29:33.46Z</time></trkpt><trkpt lat="43.0437732" lon="13.1771684"><ele>826.0000000000001</ele><time>2026-04-29T16:29:34.494Z</time></trkpt><trkpt lat="43.0438296" lon="13.1772172"><ele>830.0</ele><time>2026-04-29T16:29:35.497Z</time></trkpt><trkpt lat="43.0439374" lon="13.1773081"><ele>830.0000000000001</ele><time>2026-04-29T16:29:37.493Z</time></trkpt><trkpt lat="43.0440051" lon="13.1773442"><ele>830.0</ele><time>2026-04-29T16:29:38.488Z</time></trkpt><trkpt lat="43.0440713" lon="13.1773908"><ele>830.0</ele><time>2026-04-29T16:29:39.494Z</time></trkpt><trkpt lat="43.0441456" lon="13.1774637"><ele>830.0</ele><time>2026-04-29T16:29:40.491Z</time></trkpt><trkpt lat="43.0442164" lon="13.177537"><ele>830.0000000000001</ele><time>2026-04-29T16:29:41.503Z</time></trkpt><trkpt lat="43.0442679" lon="13.1776005"><ele>830.0</ele><time>2026-04-29T16:29:42.505Z</time></trkpt><trkpt lat="43.0443291" lon="13.1777474"><ele>832.0000000000001</ele><time>2026-04-29T16:29:44.494Z</time></trkpt><trkpt lat="43.0443538" lon="13.1778305"><ele>834.0</ele><time>2026-04-29T16:29:45.476Z</time></trkpt><trkpt lat="43.0443777" lon="13.1779489"><ele>836.0</ele><time>2026-04-29T16:29:46.489Z</time></trkpt><trkpt lat="43.0443989" lon="13.1780769"><ele>838.0</ele><time>2026-04-29T16:29:47.52Z</time></trkpt><trkpt lat="43.044423" lon="13.1781988"><ele>840.0000000000001</ele><time>2026-04-29T16:29:48.465Z</time></trkpt><trkpt lat="43.0444487" lon="13.1783196"><ele>842.0</ele><time>2026-04-29T16:29:49.542Z</time></trkpt><trkpt lat="43.0444735" lon="13.1784621"><ele>844.8333333333334</ele><time>2026-04-29T16:29:50.498Z</time></trkpt><trkpt lat="43.0444857" lon="13.1786021"><ele>847.6666666666667</ele><time>2026-04-29T16:29:51.491Z</time></trkpt><trkpt lat="43.044485" lon="13.1787148"><ele>850.5</ele><time>2026-04-29T16:29:52.495Z</time></trkpt><trkpt lat="43.044461" lon="13.1788488"><ele>853.3333333333333</ele><time>2026-04-29T16:29:54.51Z</time></trkpt><trkpt lat="43.0444528" lon="13.1789411"><ele>856.1666666666666</ele><time>2026-04-29T16:29:56.49Z</time></trkpt><trkpt lat="43.0445273" lon="13.1789455"><ele>859.0</ele><time>2026-04-29T16:29:58.481Z</time></trkpt><trkpt lat="43.0445955" lon="13.1789083"><ele>858.9999999999999</ele><time>2026-04-29T16:29:59.503Z</time></trkpt><trkpt lat="43.0446544" lon="13.1788142"><ele>859.0</ele><time>2026-04-29T16:30:00.516Z</time></trkpt><trkpt lat="43.0447163" lon="13.1787138"><ele>859.0</ele><time>2026-04-29T16:30:01.474Z</time></trkpt><trkpt lat="43.0447756" lon="13.1786265"><ele>859.0</ele><time>2026-04-29T16:30:02.518Z</time></trkpt><trkpt lat="43.0448325" lon="13.1785551"><ele>858.9999999999999</ele><time>2026-04-29T16:30:03.47Z</time></trkpt><trkpt lat="43.0448857" lon="13.1784918"><ele>859.0</ele><time>2026-04-29T16:30:04.497Z</time></trkpt><trkpt lat="43.0449475" lon="13.178438"><ele>858.0</ele><time>2026-04-29T16:30:05.507Z</time></trkpt><trkpt lat="43.045019" lon="13.1783749"><ele>857.0000000000001</ele><time>2026-04-29T16:30:06.534Z</time></trkpt><trkpt lat="43.0450995" lon="13.1783"><ele>856.0000000000001</ele><time>2026-04-29T16:30:07.493Z</time></trkpt><trkpt lat="43.0451712" lon="13.1782637"><ele>855.0</ele><time>2026-04-29T16:30:08.492Z</time></trkpt><trkpt lat="43.0452786" lon="13.178261"><ele>854.0</ele><time>2026-04-29T16:30:10.49Z</time></trkpt><trkpt lat="43.0453677" lon="13.1783331"><ele>854.0</ele><time>2026-04-29T16:30:12.491Z</time></trkpt><trkpt lat="43.0454074" lon="13.1784693"><ele>854.0000000000001</ele><time>2026-04-29T16:30:14.516Z</time></trkpt><trkpt lat="43.0454302" lon="13.178638"><ele>854.0000000000001</ele><time>2026-04-29T16:30:16.503Z</time></trkpt><trkpt lat="43.0454528" lon="13.1787475"><ele>854.0</ele><time>2026-04-29T16:30:17.487Z</time></trkpt><trkpt lat="43.0455206" lon="13.178879"><ele>854.0</ele><time>2026-04-29T16:30:18.503Z</time></trkpt><trkpt lat="43.0455898" lon="13.1790127"><ele>857.1666666666667</ele><time>2026-04-29T16:30:19.503Z</time></trkpt><trkpt lat="43.0456487" lon="13.1791267"><ele>860.3333333333334</ele><time>2026-04-29T16:30:20.505Z</time></trkpt><trkpt lat="43.0457111" lon="13.1792212"><ele>863.5</ele><time>2026-04-29T16:30:21.505Z</time></trkpt><trkpt lat="43.0457671" lon="13.1793003"><ele>866.6666666666667</ele><time>2026-04-29T16:30:22.483Z</time></trkpt><trkpt lat="43.0458212" lon="13.1793824"><ele>869.8333333333334</ele><time>2026-04-29T16:30:23.508Z</time></trkpt><trkpt lat="43.0458801" lon="13.1794396"><ele>873.0</ele><time>2026-04-29T16:30:24.492Z</time></trkpt><trkpt lat="43.0459525" lon="13.1794816"><ele>874.0</ele><time>2026-04-29T16:30:25.5Z</time></trkpt><trkpt lat="43.0460232" lon="13.1795364"><ele>875.0</ele><time>2026-04-29T16:30:26.51Z</time></trkpt><trkpt lat="43.0460898" lon="13.1796033"><ele>876.0</ele><time>2026-04-29T16:30:27.505Z</time></trkpt><trkpt lat="43.0461614" lon="13.1796841"><ele>877.0</ele><time>2026-04-29T16:30:28.489Z</time></trkpt><trkpt lat="43.0462358" lon="13.1797738"><ele>878.0</ele><time>2026-04-29T16:30:29.532Z</time></trkpt><trkpt lat="43.0463134" lon="13.1798724"><ele>881.0000000000001</ele><time>2026-04-29T16:30:30.501Z</time></trkpt><trkpt lat="43.046385" lon="13.1799743"><ele>884.0</ele><time>2026-04-29T16:30:31.52Z</time></trkpt><trkpt lat="43.0464462" lon="13.1800734"><ele>887.0</ele><time>2026-04-29T16:30:32.515Z</time></trkpt><trkpt lat="43.0464939" lon="13.1801566"><ele>890.0</ele><time>2026-04-29T16:30:33.506Z</time></trkpt><trkpt lat="43.0465282" lon="13.1802434"><ele>893.0000000000001</ele><time>2026-04-29T16:30:34.503Z</time></trkpt><trkpt lat="43.0465558" lon="13.1803301"><ele>896.0</ele><time>2026-04-29T16:30:35.547Z</time></trkpt><trkpt lat="43.0465669" lon="13.1804704"><ele>896.0000000000001</ele><time>2026-04-29T16:30:37.495Z</time></trkpt><trkpt lat="43.0465196" lon="13.1805996"><ele>896.0</ele><time>2026-04-29T16:30:39.488Z</time></trkpt><trkpt lat="43.0464822" lon="13.1806694"><ele>896.0</ele><time>2026-04-29T16:30:40.487Z</time></trkpt><trkpt lat="43.0464329" lon="13.180747"><ele>896.0</ele><time>2026-04-29T16:30:41.536Z</time></trkpt><trkpt lat="43.0463698" lon="13.1808315"><ele>896.0000000000001</ele><time>2026-04-29T16:30:42.498Z</time></trkpt><trkpt lat="43.0462977" lon="13.1809278"><ele>896.0</ele><time>2026-04-29T16:30:43.496Z</time></trkpt><trkpt lat="43.0462365" lon="13.1810319"><ele>895.8333333333334</ele><time>2026-04-29T16:30:44.484Z</time></trkpt><trkpt lat="43.0461771" lon="13.1811258"><ele>895.6666666666667</ele><time>2026-04-29T16:30:45.507Z</time></trkpt><trkpt lat="43.0461232" lon="13.1812214"><ele>895.5</ele><time>2026-04-29T16:30:46.498Z</time></trkpt><trkpt lat="43.0460687" lon="13.1813208"><ele>895.3333333333333</ele><time>2026-04-29T16:30:47.486Z</time></trkpt><trkpt lat="43.0460184" lon="13.1814132"><ele>895.1666666666666</ele><time>2026-04-29T16:30:48.501Z</time></trkpt><trkpt lat="43.0459721" lon="13.1814986"><ele>895.0</ele><time>2026-04-29T16:30:49.499Z</time></trkpt><trkpt lat="43.0459275" lon="13.1815842"><ele>894.9999999999999</ele><time>2026-04-29T16:30:50.5Z</time></trkpt><trkpt lat="43.0458747" lon="13.18166"><ele>895.0</ele><time>2026-04-29T16:30:51.511Z</time></trkpt><trkpt lat="43.0458209" lon="13.1817394"><ele>895.0</ele><time>2026-04-29T16:30:52.501Z</time></trkpt><trkpt lat="43.0457557" lon="13.1818261"><ele>895.0</ele><time>2026-04-29T16:30:53.485Z</time></trkpt><trkpt lat="43.0456942" lon="13.181911"><ele>894.9999999999999</ele><time>2026-04-29T16:30:54.497Z</time></trkpt><trkpt lat="43.0456496" lon="13.1819769"><ele>895.0</ele><time>2026-04-29T16:30:55.5Z</time></trkpt><trkpt lat="43.0456026" lon="13.1821197"><ele>898.1666666666666</ele><time>2026-04-29T16:30:57.51Z</time></trkpt><trkpt lat="43.0456286" lon="13.1822595"><ele>901.3333333333333</ele><time>2026-04-29T16:30:59.482Z</time></trkpt><trkpt lat="43.0456262" lon="13.1824028"><ele>904.5</ele><time>2026-04-29T16:31:01.485Z</time></trkpt><trkpt lat="43.0455995" lon="13.1824872"><ele>907.6666666666667</ele><time>2026-04-29T16:31:02.494Z</time></trkpt><trkpt lat="43.0455606" lon="13.1825916"><ele>910.8333333333334</ele><time>2026-04-29T16:31:03.483Z</time></trkpt><trkpt lat="43.0455282" lon="13.1826932"><ele>914.0</ele><time>2026-04-29T16:31:04.5Z</time></trkpt><trkpt lat="43.0455047" lon="13.1828002"><ele>914.0000000000001</ele><time>2026-04-29T16:31:05.5Z</time></trkpt><trkpt lat="43.0454846" lon="13.1829178"><ele>914.0</ele><time>2026-04-29T16:31:06.489Z</time></trkpt><trkpt lat="43.0454621" lon="13.1830414"><ele>914.0</ele><time>2026-04-29T16:31:07.5Z</time></trkpt><trkpt lat="43.0454338" lon="13.1831479"><ele>914.0</ele><time>2026-04-29T16:31:08.497Z</time></trkpt><trkpt lat="43.0454057" lon="13.1832318"><ele>914.0000000000001</ele><time>2026-04-29T16:31:09.503Z</time></trkpt><trkpt lat="43.0453694" lon="13.1833565"><ele>914.0</ele><time>2026-04-29T16:31:11.496Z</time></trkpt><trkpt lat="43.0453458" lon="13.1834469"><ele>913.0000000000001</ele><time>2026-04-29T16:34:03.477Z</time></trkpt><trkpt lat="43.0453213" lon="13.1835494"><ele>912.0</ele><time>2026-04-29T16:34:05.519Z</time></trkpt><trkpt lat="43.0452919" lon="13.1836983"><ele>911.0</ele><time>2026-04-29T16:34:07.484Z</time></trkpt><trkpt lat="43.0452727" lon="13.1837892"><ele>910.0</ele><time>2026-04-29T16:34:08.498Z</time></trkpt><trkpt lat="43.0452612" lon="13.1838987"><ele>909.0000000000001</ele><time>2026-04-29T16:34:09.464Z</time></trkpt><trkpt lat="43.0452574" lon="13.1840043"><ele>908.0</ele><time>2026-04-29T16:34:10.479Z</time></trkpt><trkpt lat="43.04525" lon="13.1841305"><ele>907.1666666666667</ele><time>2026-04-29T16:34:11.501Z</time></trkpt><trkpt lat="43.0452445" lon="13.1842685"><ele>906.3333333333334</ele><time>2026-04-29T16:34:12.508Z</time></trkpt><trkpt lat="43.0452397" lon="13.1844029"><ele>905.5</ele><time>2026-04-29T16:34:13.452Z</time></trkpt><trkpt lat="43.0452403" lon="13.1845215"><ele>904.6666666666667</ele><time>2026-04-29T16:34:14.51Z</time></trkpt><trkpt lat="43.0452448" lon="13.1846275"><ele>903.8333333333334</ele><time>2026-04-29T16:34:15.493Z</time></trkpt><trkpt lat="43.0452554" lon="13.1847217"><ele>903.0</ele><time>2026-04-29T16:34:16.447Z</time></trkpt><trkpt lat="43.0452642" lon="13.1848211"><ele>903.5</ele><time>2026-04-29T16:34:17.486Z</time></trkpt><trkpt lat="43.045249" lon="13.1849547"><ele>904.0</ele><time>2026-04-29T16:34:18.502Z</time></trkpt><trkpt lat="43.0452317" lon="13.1850722"><ele>904.5</ele><time>2026-04-29T16:34:19.478Z</time></trkpt><trkpt lat="43.0452242" lon="13.1851734"><ele>905.0</ele><time>2026-04-29T16:34:20.463Z</time></trkpt><trkpt lat="43.0452291" lon="13.1852791"><ele>905.5</ele><time>2026-04-29T16:34:21.508Z</time></trkpt><trkpt lat="43.0452351" lon="13.1853944"><ele>906.0</ele><time>2026-04-29T16:34:22.473Z</time></trkpt><trkpt lat="43.0452397" lon="13.1855284"><ele>906.0</ele><time>2026-04-29T16:34:23.495Z</time></trkpt><trkpt lat="43.0452362" lon="13.1856391"><ele>906.0</ele><time>2026-04-29T16:34:24.497Z</time></trkpt><trkpt lat="43.0452421" lon="13.1857477"><ele>906.0</ele><time>2026-04-29T16:34:25.507Z</time></trkpt><trkpt lat="43.0452541" lon="13.1858675"><ele>906.0</ele><time>2026-04-29T16:34:26.485Z</time></trkpt><trkpt lat="43.0452668" lon="13.1860002"><ele>906.0</ele><time>2026-04-29T16:34:27.525Z</time></trkpt><trkpt lat="43.045278" lon="13.1861053"><ele>906.0</ele><time>2026-04-29T16:34:28.461Z</time></trkpt><trkpt lat="43.0452977" lon="13.1862139"><ele>907.8</ele><time>2026-04-29T16:34:29.482Z</time></trkpt><trkpt lat="43.0453224" lon="13.1863327"><ele>909.5999999999999</ele><time>2026-04-29T16:34:30.471Z</time></trkpt><trkpt lat="43.0453505" lon="13.186471"><ele>911.4</ele><time>2026-04-29T16:34:31.51Z</time></trkpt><trkpt lat="43.0453814" lon="13.1866036"><ele>913.2</ele><time>2026-04-29T16:34:32.492Z</time></trkpt><trkpt lat="43.0454101" lon="13.1867269"><ele>915.0</ele><time>2026-04-29T16:34:33.515Z</time></trkpt><trkpt lat="43.0454372" lon="13.1868372"><ele>916.1428571428572</ele><time>2026-04-29T16:34:34.478Z</time></trkpt><trkpt lat="43.0454679" lon="13.1869389"><ele>917.2857142857144</ele><time>2026-04-29T16:34:35.483Z</time></trkpt><trkpt lat="43.0455011" lon="13.1870346"><ele>918.4285714285714</ele><time>2026-04-29T16:34:36.48Z</time></trkpt><trkpt lat="43.0455274" lon="13.1871222"><ele>919.5714285714287</ele><time>2026-04-29T16:34:37.503Z</time></trkpt><trkpt lat="43.0455619" lon="13.1872042"><ele>920.7142857142858</ele><time>2026-04-29T16:34:38.497Z</time></trkpt><trkpt lat="43.0455923" lon="13.1872966"><ele>921.8571428571429</ele><time>2026-04-29T16:34:39.53Z</time></trkpt><trkpt lat="43.0456178" lon="13.1873896"><ele>923.0</ele><time>2026-04-29T16:34:40.5Z</time></trkpt><trkpt lat="43.045643" lon="13.1874767"><ele>924.2</ele><time>2026-04-29T16:34:41.495Z</time></trkpt><trkpt lat="43.0456707" lon="13.1875554"><ele>925.4</ele><time>2026-04-29T16:34:42.485Z</time></trkpt><trkpt lat="43.0457136" lon="13.187706"><ele>926.6000000000001</ele><time>2026-04-29T16:34:44.507Z</time></trkpt><trkpt lat="43.0457717" lon="13.1878229"><ele>927.8000000000001</ele><time>2026-04-29T16:34:46.489Z</time></trkpt><trkpt lat="43.0458203" lon="13.1879604"><ele>929.0</ele><time>2026-04-29T16:34:48.481Z</time></trkpt><trkpt lat="43.0458823" lon="13.1880992"><ele>931.8333333333334</ele><time>2026-04-29T16:34:50.484Z</time></trkpt><trkpt lat="43.045926" lon="13.188259"><ele>934.6666666666667</ele><time>2026-04-29T16:34:52.486Z</time></trkpt><trkpt lat="43.0459449" lon="13.1883624"><ele>937.5</ele><time>2026-04-29T16:34:53.454Z</time></trkpt><trkpt lat="43.0459642" lon="13.1884655"><ele>940.3333333333333</ele><time>2026-04-29T16:34:54.478Z</time></trkpt><trkpt lat="43.0459835" lon="13.1885616"><ele>943.1666666666666</ele><time>2026-04-29T16:34:55.526Z</time></trkpt><trkpt lat="43.0460024" lon="13.1886478"><ele>946.0</ele><time>2026-04-29T16:34:56.487Z</time></trkpt><trkpt lat="43.0460264" lon="13.188809"><ele>945.9999999999999</ele><time>2026-04-29T16:34:58.482Z</time></trkpt><trkpt lat="43.0460285" lon="13.1888956"><ele>946.0</ele><time>2026-04-29T16:34:59.469Z</time></trkpt><trkpt lat="43.0460542" lon="13.1890161"><ele>946.0</ele><time>2026-04-29T16:35:00.484Z</time></trkpt><trkpt lat="43.0460793" lon="13.1891447"><ele>946.0</ele><time>2026-04-29T16:35:01.53Z</time></trkpt><trkpt lat="43.0460945" lon="13.1892574"><ele>945.9999999999999</ele><time>2026-04-29T16:35:02.479Z</time></trkpt><trkpt lat="43.0461111" lon="13.1893533"><ele>946.0</ele><time>2026-04-29T16:35:03.481Z</time></trkpt><trkpt lat="43.0461397" lon="13.1894561"><ele>947.4999999999999</ele><time>2026-04-29T16:35:04.5Z</time></trkpt><trkpt lat="43.0461686" lon="13.1895683"><ele>949.0</ele><time>2026-04-29T16:35:05.49Z</time></trkpt><trkpt lat="43.0461865" lon="13.1896994"><ele>950.5</ele><time>2026-04-29T16:35:06.476Z</time></trkpt><trkpt lat="43.0462045" lon="13.1898259"><ele>952.0</ele><time>2026-04-29T16:35:07.513Z</time></trkpt><trkpt lat="43.0462203" lon="13.1899329"><ele>953.4999999999999</ele><time>2026-04-29T16:35:08.486Z</time></trkpt><trkpt lat="43.0462316" lon="13.1900241"><ele>955.0</ele><time>2026-04-29T16:35:09.494Z</time></trkpt><trkpt lat="43.0462624" lon="13.1901886"><ele>956.8</ele><time>2026-04-29T16:35:11.488Z</time></trkpt><trkpt lat="43.046299" lon="13.1903437"><ele>958.6</ele><time>2026-04-29T16:35:13.466Z</time></trkpt><trkpt lat="43.0463305" lon="13.1904785"><ele>960.4000000000001</ele><time>2026-04-29T16:35:15.479Z</time></trkpt><trkpt lat="43.0463839" lon="13.1906456"><ele>962.2</ele><time>2026-04-29T16:35:17.476Z</time></trkpt><trkpt lat="43.0464182" lon="13.1907336"><ele>964.0</ele><time>2026-04-29T16:35:18.48Z</time></trkpt><trkpt lat="43.0464534" lon="13.1908093"><ele>966.9999999999999</ele><time>2026-04-29T16:35:19.517Z</time></trkpt><trkpt lat="43.0465002" lon="13.1909273"><ele>970.0</ele><time>2026-04-29T16:35:21.482Z</time></trkpt><trkpt lat="43.0465148" lon="13.1910398"><ele>973.0</ele><time>2026-04-29T16:35:23.496Z</time></trkpt><trkpt lat="43.0465513" lon="13.191112"><ele>976.0</ele><time>2026-04-29T16:35:24.486Z</time></trkpt><trkpt lat="43.0465941" lon="13.1911903"><ele>978.9999999999999</ele><time>2026-04-29T16:35:25.459Z</time></trkpt><trkpt lat="43.0466364" lon="13.1912704"><ele>982.0</ele><time>2026-04-29T16:35:26.5Z</time></trkpt><trkpt lat="43.0466767" lon="13.1913548"><ele>985.4000000000001</ele><time>2026-04-29T16:35:27.484Z</time></trkpt><trkpt lat="43.0467189" lon="13.1914361"><ele>988.8000000000001</ele><time>2026-04-29T16:35:28.485Z</time></trkpt><trkpt lat="43.046767" lon="13.1915169"><ele>992.2</ele><time>2026-04-29T16:35:29.497Z</time></trkpt><trkpt lat="43.0468395" lon="13.1916105"><ele>995.6</ele><time>2026-04-29T16:35:30.445Z</time></trkpt><trkpt lat="43.0469184" lon="13.1917105"><ele>999.0</ele><time>2026-04-29T16:35:31.492Z</time></trkpt><trkpt lat="43.0470088" lon="13.1918238"><ele>1000.6</ele><time>2026-04-29T16:35:32.469Z</time></trkpt><trkpt lat="43.0470882" lon="13.1919037"><ele>1002.2</ele><time>2026-04-29T16:35:33.491Z</time></trkpt><trkpt lat="43.0471639" lon="13.1919887"><ele>1003.8000000000001</ele><time>2026-04-29T16:35:34.462Z</time></trkpt><trkpt lat="43.0472357" lon="13.1920666"><ele>1005.4000000000001</ele><time>2026-04-29T16:35:35.439Z</time></trkpt><trkpt lat="43.0473098" lon="13.1921426"><ele>1007.0</ele><time>2026-04-29T16:35:36.483Z</time></trkpt><trkpt lat="43.0473891" lon="13.192217"><ele>1009.6</ele><time>2026-04-29T16:35:37.507Z</time></trkpt><trkpt lat="43.0474719" lon="13.1922975"><ele>1012.2</ele><time>2026-04-29T16:35:38.502Z</time></trkpt><trkpt lat="43.0475529" lon="13.1923639"><ele>1014.8</ele><time>2026-04-29T16:35:39.491Z</time></trkpt><trkpt lat="43.0476381" lon="13.1924098"><ele>1017.4</ele><time>2026-04-29T16:35:40.451Z</time></trkpt><trkpt lat="43.0477447" lon="13.1924538"><ele>1020.0</ele><time>2026-04-29T16:35:41.53Z</time></trkpt><trkpt lat="43.0478411" lon="13.1924936"><ele>1020.5</ele><time>2026-04-29T16:35:42.494Z</time></trkpt><trkpt lat="43.047925" lon="13.1925354"><ele>1021.0</ele><time>2026-04-29T16:35:43.468Z</time></trkpt><trkpt lat="43.0480097" lon="13.1925665"><ele>1021.5</ele><time>2026-04-29T16:35:44.486Z</time></trkpt><trkpt lat="43.0480906" lon="13.1926022"><ele>1022.0</ele><time>2026-04-29T16:35:45.44Z</time></trkpt><trkpt lat="43.0481699" lon="13.1926366"><ele>1022.5</ele><time>2026-04-29T16:35:46.496Z</time></trkpt><trkpt lat="43.0482438" lon="13.1927068"><ele>1023.0</ele><time>2026-04-29T16:35:47.493Z</time></trkpt><trkpt lat="43.0483235" lon="13.1927821"><ele>1023.5999999999999</ele><time>2026-04-29T16:35:48.492Z</time></trkpt><trkpt lat="43.0484112" lon="13.1928554"><ele>1024.1999999999998</ele><time>2026-04-29T16:35:49.472Z</time></trkpt><trkpt lat="43.048496" lon="13.1929231"><ele>1024.8</ele><time>2026-04-29T16:35:50.448Z</time></trkpt><trkpt lat="43.0485769" lon="13.1929882"><ele>1025.3999999999999</ele><time>2026-04-29T16:35:51.485Z</time></trkpt><trkpt lat="43.0486478" lon="13.1930478"><ele>1026.0</ele><time>2026-04-29T16:35:52.516Z</time></trkpt><trkpt lat="43.0487139" lon="13.1931102"><ele>1026.5</ele><time>2026-04-29T16:35:53.484Z</time></trkpt><trkpt lat="43.048779" lon="13.1931809"><ele>1027.0</ele><time>2026-04-29T16:35:54.485Z</time></trkpt><trkpt lat="43.0488405" lon="13.193253"><ele>1027.5</ele><time>2026-04-29T16:35:55.444Z</time></trkpt><trkpt lat="43.0488993" lon="13.1933225"><ele>1028.0</ele><time>2026-04-29T16:35:56.48Z</time></trkpt><trkpt lat="43.048946" lon="13.1933817"><ele>1028.5</ele><time>2026-04-29T16:35:57.489Z</time></trkpt><trkpt lat="43.0490446" lon="13.1935118"><ele>1029.0</ele><time>2026-04-29T16:35:59.468Z</time></trkpt><trkpt lat="43.0490869" lon="13.1935827"><ele>1026.6000000000001</ele><time>2026-04-29T16:36:00.43Z</time></trkpt><trkpt lat="43.0491554" lon="13.1937167"><ele>1024.2</ele><time>2026-04-29T16:36:02.483Z</time></trkpt><trkpt lat="43.0491743" lon="13.193879"><ele>1021.8000000000001</ele><time>2026-04-29T16:36:04.478Z</time></trkpt><trkpt lat="43.0491712" lon="13.1939828"><ele>1019.4000000000001</ele><time>2026-04-29T16:36:05.449Z</time></trkpt><trkpt lat="43.0491724" lon="13.1940952"><ele>1017.0</ele><time>2026-04-29T16:36:06.485Z</time></trkpt><trkpt lat="43.0491737" lon="13.1942019"><ele>1017.0</ele><time>2026-04-29T16:36:07.508Z</time></trkpt><trkpt lat="43.0491816" lon="13.1942995"><ele>1016.9999999999999</ele><time>2026-04-29T16:36:08.494Z</time></trkpt><trkpt lat="43.0491912" lon="13.1943972"><ele>1017.0</ele><time>2026-04-29T16:36:09.495Z</time></trkpt><trkpt lat="43.0492004" lon="13.194493"><ele>1017.0</ele><time>2026-04-29T16:36:10.447Z</time></trkpt><trkpt lat="43.0492076" lon="13.1945942"><ele>1016.9999999999999</ele><time>2026-04-29T16:36:11.471Z</time></trkpt><trkpt lat="43.0492172" lon="13.1946859"><ele>1017.0</ele><time>2026-04-29T16:36:12.48Z</time></trkpt><trkpt lat="43.0492339" lon="13.1947708"><ele>1017.0</ele><time>2026-04-29T16:36:13.478Z</time></trkpt><trkpt lat="43.0492611" lon="13.1949248"><ele>1017.4000000000001</ele><time>2026-04-29T16:36:15.449Z</time></trkpt><trkpt lat="43.0492844" lon="13.1950769"><ele>1017.8000000000001</ele><time>2026-04-29T16:36:17.48Z</time></trkpt><trkpt lat="43.0493106" lon="13.1952298"><ele>1018.2</ele><time>2026-04-29T16:36:19.481Z</time></trkpt><trkpt lat="43.0493346" lon="13.1953179"><ele>1018.6</ele><time>2026-04-29T16:36:20.445Z</time></trkpt><trkpt lat="43.0493647" lon="13.1954249"><ele>1019.0</ele><time>2026-04-29T16:36:21.458Z</time></trkpt><trkpt lat="43.0493906" lon="13.1955249"><ele>1019.0000000000001</ele><time>2026-04-29T16:36:22.474Z</time></trkpt><trkpt lat="43.0494052" lon="13.1956101"><ele>1019.0</ele><time>2026-04-29T16:36:23.48Z</time></trkpt><trkpt lat="43.0494274" lon="13.195779"><ele>1019.0</ele><time>2026-04-29T16:36:25.457Z</time></trkpt><trkpt lat="43.0494437" lon="13.1958736"><ele>1019.0</ele><time>2026-04-29T16:36:26.435Z</time></trkpt><trkpt lat="43.0494533" lon="13.1959792"><ele>1019.0000000000001</ele><time>2026-04-29T16:36:27.486Z</time></trkpt><trkpt lat="43.0494739" lon="13.1960888"><ele>1019.0</ele><time>2026-04-29T16:36:28.479Z</time></trkpt><trkpt lat="43.0494936" lon="13.1962003"><ele>1019.6666666666667</ele><time>2026-04-29T16:36:29.475Z</time></trkpt><trkpt lat="43.0495071" lon="13.196307"><ele>1020.3333333333334</ele><time>2026-04-29T16:36:30.469Z</time></trkpt><trkpt lat="43.0495245" lon="13.1964145"><ele>1021.0</ele><time>2026-04-29T16:36:31.479Z</time></trkpt><trkpt lat="43.0495435" lon="13.1965163"><ele>1021.6666666666667</ele><time>2026-04-29T16:36:32.483Z</time></trkpt><trkpt lat="43.0495501" lon="13.1966332"><ele>1022.3333333333334</ele><time>2026-04-29T16:36:33.47Z</time></trkpt><trkpt lat="43.0495797" lon="13.1967521"><ele>1023.0</ele><time>2026-04-29T16:36:34.481Z</time></trkpt><trkpt lat="43.0496183" lon="13.1968675"><ele>1023.4</ele><time>2026-04-29T16:36:35.495Z</time></trkpt><trkpt lat="43.0496596" lon="13.1969937"><ele>1023.8</ele><time>2026-04-29T16:36:36.475Z</time></trkpt><trkpt lat="43.0496934" lon="13.1971273"><ele>1024.2</ele><time>2026-04-29T16:36:37.496Z</time></trkpt><trkpt lat="43.0497148" lon="13.1972743"><ele>1024.6</ele><time>2026-04-29T16:36:38.478Z</time></trkpt><trkpt lat="43.0497325" lon="13.1974077"><ele>1025.0</ele><time>2026-04-29T16:36:39.458Z</time></trkpt><trkpt lat="43.049731" lon="13.1975298"><ele>1026.8</ele><time>2026-04-29T16:36:40.47Z</time></trkpt><trkpt lat="43.0497188" lon="13.1976312"><ele>1028.6</ele><time>2026-04-29T16:36:41.484Z</time></trkpt><trkpt lat="43.0497214" lon="13.1977528"><ele>1030.4</ele><time>2026-04-29T16:36:42.492Z</time></trkpt><trkpt lat="43.0497454" lon="13.1979013"><ele>1032.2</ele><time>2026-04-29T16:36:44.438Z</time></trkpt><trkpt lat="43.0497824" lon="13.1980251"><ele>1034.0</ele><time>2026-04-29T16:36:46.491Z</time></trkpt><trkpt lat="43.0498253" lon="13.1981282"><ele>1034.8</ele><time>2026-04-29T16:36:48.484Z</time></trkpt><trkpt lat="43.0498499" lon="13.1982455"><ele>1035.6000000000001</ele><time>2026-04-29T16:36:49.5Z</time></trkpt><trkpt lat="43.0498838" lon="13.1983584"><ele>1036.4</ele><time>2026-04-29T16:36:50.492Z</time></trkpt><trkpt lat="43.0499174" lon="13.1984791"><ele>1037.2</ele><time>2026-04-29T16:36:51.498Z</time></trkpt><trkpt lat="43.049958" lon="13.198623"><ele>1038.0</ele><time>2026-04-29T16:36:52.509Z</time></trkpt><trkpt lat="43.0499853" lon="13.1987405"><ele>1025.8</ele><time>2026-04-29T16:36:53.486Z</time></trkpt><trkpt lat="43.0500111" lon="13.1988461"><ele>1013.5999999999999</ele><time>2026-04-29T16:36:54.484Z</time></trkpt><trkpt lat="43.0500614" lon="13.1989373"><ele>1001.4000000000001</ele><time>2026-04-29T16:36:55.471Z</time></trkpt><trkpt lat="43.0500967" lon="13.1990504"><ele>989.2</ele><time>2026-04-29T16:36:56.479Z</time></trkpt><trkpt lat="43.0501252" lon="13.1991494"><ele>977.0</ele><time>2026-04-29T16:36:57.492Z</time></trkpt><trkpt lat="43.0501746" lon="13.1993104"><ele>977.0</ele><time>2026-04-29T16:36:59.478Z</time></trkpt><trkpt lat="43.0502262" lon="13.1994518"><ele>977.0</ele><time>2026-04-29T16:37:01.474Z</time></trkpt><trkpt lat="43.0502488" lon="13.1996115"><ele>977.0</ele><time>2026-04-29T16:37:03.45Z</time></trkpt><trkpt lat="43.0502594" lon="13.1996997"><ele>977.0</ele><time>2026-04-29T16:37:04.472Z</time></trkpt><trkpt lat="43.050283" lon="13.1998627"><ele>977.0</ele><time>2026-04-29T16:37:06.465Z</time></trkpt><trkpt lat="43.0503013" lon="13.200008"><ele>978.6</ele><time>2026-04-29T16:37:08.468Z</time></trkpt><trkpt lat="43.050312" lon="13.2001144"><ele>980.2</ele><time>2026-04-29T16:37:09.449Z</time></trkpt><trkpt lat="43.0503369" lon="13.2002774"><ele>981.8</ele><time>2026-04-29T16:37:11.461Z</time></trkpt><trkpt lat="43.0503771" lon="13.2004388"><ele>983.4</ele><time>2026-04-29T16:37:13.478Z</time></trkpt><trkpt lat="43.0504155" lon="13.2005511"><ele>985.0</ele><time>2026-04-29T16:37:15.489Z</time></trkpt><trkpt lat="43.0504562" lon="13.2006552"><ele>983.6</ele><time>2026-04-29T16:37:17.465Z</time></trkpt><trkpt lat="43.050525" lon="13.2008193"><ele>982.2</ele><time>2026-04-29T16:37:19.498Z</time></trkpt><trkpt lat="43.0505604" lon="13.2009054"><ele>980.8</ele><time>2026-04-29T16:37:20.481Z</time></trkpt><trkpt lat="43.0506012" lon="13.2010411"><ele>979.4</ele><time>2026-04-29T16:37:22.478Z</time></trkpt><trkpt lat="43.050617" lon="13.2011454"><ele>978.0</ele><time>2026-04-29T16:37:24.494Z</time></trkpt><trkpt lat="43.0506061" lon="13.2012646"><ele>978.0</ele><time>2026-04-29T16:37:26.504Z</time></trkpt><trkpt lat="43.05061" lon="13.2013819"><ele>978.0</ele><time>2026-04-29T16:37:28.508Z</time></trkpt><trkpt lat="43.0506475" lon="13.2014783"><ele>978.0</ele><time>2026-04-29T16:37:30.471Z</time></trkpt><trkpt lat="43.0507111" lon="13.2015244"><ele>978.0</ele><time>2026-04-29T16:37:32.479Z</time></trkpt><trkpt lat="43.0507901" lon="13.2015555"><ele>978.0</ele><time>2026-04-29T16:37:34.444Z</time></trkpt><trkpt lat="43.0508611" lon="13.2015365"><ele>978.0</ele><time>2026-04-29T16:37:36.468Z</time></trkpt><trkpt lat="43.050923" lon="13.2015082"><ele>968.8333333333334</ele><time>2026-04-29T16:37:38.497Z</time></trkpt><trkpt lat="43.0509977" lon="13.2015261"><ele>959.6666666666667</ele><time>2026-04-29T16:37:42.535Z</time></trkpt><trkpt lat="43.0510372" lon="13.2016066"><ele>950.5</ele><time>2026-04-29T16:37:45.488Z</time></trkpt><trkpt lat="43.0510494" lon="13.2016957"><ele>941.3333333333334</ele><time>2026-04-29T16:37:47.498Z</time></trkpt><trkpt lat="43.0510719" lon="13.2018129"><ele>932.1666666666667</ele><time>2026-04-29T16:37:49.457Z</time></trkpt><trkpt lat="43.0511009" lon="13.2019101"><ele>923.0</ele><time>2026-04-29T16:37:51.496Z</time></trkpt><trkpt lat="43.0511554" lon="13.2020216"><ele>923.0</ele><time>2026-04-29T16:37:53.474Z</time></trkpt><trkpt lat="43.051259" lon="13.2021025"><ele>923.0</ele><time>2026-04-29T16:37:55.471Z</time></trkpt><trkpt lat="43.0513521" lon="13.2022235"><ele>923.0</ele><time>2026-04-29T16:37:57.486Z</time></trkpt><trkpt lat="43.0513982" lon="13.2022906"><ele>923.0</ele><time>2026-04-29T16:37:58.473Z</time></trkpt><trkpt lat="43.0514634" lon="13.2023847"><ele>923.0</ele><time>2026-04-29T16:38:00.498Z</time></trkpt><trkpt lat="43.0515397" lon="13.2024675"><ele>924.0</ele><time>2026-04-29T16:38:03.479Z</time></trkpt><trkpt lat="43.0515885" lon="13.2025396"><ele>925.0</ele><time>2026-04-29T16:38:05.473Z</time></trkpt><trkpt lat="43.0516598" lon="13.202636"><ele>926.0</ele><time>2026-04-29T16:38:07.505Z</time></trkpt><trkpt lat="43.0517359" lon="13.2027348"><ele>927.0</ele><time>2026-04-29T16:38:09.487Z</time></trkpt><trkpt lat="43.0518121" lon="13.2028173"><ele>928.0</ele><time>2026-04-29T16:38:11.503Z</time></trkpt><trkpt lat="43.0518828" lon="13.2028835"><ele>927.9999999999999</ele><time>2026-04-29T16:38:13.479Z</time></trkpt><trkpt lat="43.0519584" lon="13.2029361"><ele>928.0</ele><time>2026-04-29T16:38:15.449Z</time></trkpt><trkpt lat="43.0519081" lon="13.2028326"><ele>928.0</ele><time>2026-04-29T16:38:24.474Z</time></trkpt><trkpt lat="43.0518413" lon="13.2027955"><ele>928.0</ele><time>2026-04-29T16:38:26.481Z</time></trkpt><trkpt lat="43.0517683" lon="13.2027712"><ele>927.9999999999999</ele><time>2026-04-29T16:38:28.515Z</time></trkpt><trkpt lat="43.051703" lon="13.2027021"><ele>928.0</ele><time>2026-04-29T16:38:30.479Z</time></trkpt><trkpt lat="43.0516637" lon="13.2025845"><ele>927.9999999999999</ele><time>2026-04-29T16:38:32.439Z</time></trkpt><trkpt lat="43.0516092" lon="13.2025359"><ele>928.0</ele><time>2026-04-29T16:38:35.461Z</time></trkpt><trkpt lat="43.0516155" lon="13.2026545"><ele>928.0</ele><time>2026-04-29T16:38:39.455Z</time></trkpt><trkpt lat="43.0516782" lon="13.2027029"><ele>928.0</ele><time>2026-04-29T16:38:41.475Z</time></trkpt><trkpt lat="43.0517547" lon="13.2027904"><ele>927.9999999999999</ele><time>2026-04-29T16:38:43.52Z</time></trkpt><trkpt lat="43.0518319" lon="13.2028673"><ele>928.0</ele><time>2026-04-29T16:38:45.478Z</time></trkpt><trkpt lat="43.051913" lon="13.202934"><ele>927.9999999999999</ele><time>2026-04-29T16:38:47.541Z</time></trkpt><trkpt lat="43.0519972" lon="13.2029833"><ele>928.0</ele><time>2026-04-29T16:38:50.49Z</time></trkpt><trkpt lat="43.0520727" lon="13.2030078"><ele>928.0</ele><time>2026-04-29T16:38:52.484Z</time></trkpt><trkpt lat="43.0521539" lon="13.203027"><ele>928.0</ele><time>2026-04-29T16:38:54.501Z</time></trkpt><trkpt lat="43.0522225" lon="13.2030687"><ele>927.9999999999999</ele><time>2026-04-29T16:38:56.453Z</time></trkpt><trkpt lat="43.0522859" lon="13.2031168"><ele>928.0</ele><time>2026-04-29T16:38:58.461Z</time></trkpt><trkpt lat="43.0523644" lon="13.2031437"><ele>930.2857142857144</ele><time>2026-04-29T16:39:00.498Z</time></trkpt><trkpt lat="43.0524405" lon="13.2031851"><ele>932.5714285714287</ele><time>2026-04-29T16:39:02.435Z</time></trkpt><trkpt lat="43.052509" lon="13.2032236"><ele>934.8571428571429</ele><time>2026-04-29T16:39:04.483Z</time></trkpt><trkpt lat="43.0525697" lon="13.203274"><ele>937.1428571428572</ele><time>2026-04-29T16:39:06.451Z</time></trkpt><trkpt lat="43.0526293" lon="13.2033171"><ele>939.4285714285716</ele><time>2026-04-29T16:39:08.457Z</time></trkpt><trkpt lat="43.0527012" lon="13.2033574"><ele>941.7142857142857</ele><time>2026-04-29T16:39:11.451Z</time></trkpt><trkpt lat="43.0527608" lon="13.2033955"><ele>944.0</ele><time>2026-04-29T16:39:13.499Z</time></trkpt><trkpt lat="43.052854" lon="13.2034354"><ele>949.2</ele><time>2026-04-29T16:39:15.452Z</time></trkpt><trkpt lat="43.0529463" lon="13.2034951"><ele>954.4000000000001</ele><time>2026-04-29T16:39:17.504Z</time></trkpt><trkpt lat="43.053056" lon="13.2035603"><ele>959.6</ele><time>2026-04-29T16:39:19.491Z</time></trkpt><trkpt lat="43.0531325" lon="13.2035943"><ele>964.8</ele><time>2026-04-29T16:39:20.483Z</time></trkpt><trkpt lat="43.0532065" lon="13.2036294"><ele>970.0</ele><time>2026-04-29T16:39:21.483Z</time></trkpt><trkpt lat="43.0532734" lon="13.203677"><ele>971.1428571428573</ele><time>2026-04-29T16:39:22.459Z</time></trkpt><trkpt lat="43.0533495" lon="13.2037162"><ele>972.2857142857143</ele><time>2026-04-29T16:39:23.5Z</time></trkpt><trkpt lat="43.0534208" lon="13.2037557"><ele>973.4285714285716</ele><time>2026-04-29T16:39:24.431Z</time></trkpt><trkpt lat="43.05349" lon="13.2037848"><ele>974.5714285714287</ele><time>2026-04-29T16:39:25.43Z</time></trkpt><trkpt lat="43.0535565" lon="13.2038174"><ele>975.7142857142858</ele><time>2026-04-29T16:39:26.428Z</time></trkpt><trkpt lat="43.0536242" lon="13.2038454"><ele>976.8571428571429</ele><time>2026-04-29T16:39:27.438Z</time></trkpt><trkpt lat="43.0536979" lon="13.2038736"><ele>978.0</ele><time>2026-04-29T16:39:28.458Z</time></trkpt><trkpt lat="43.0537622" lon="13.2038969"><ele>978.0</ele><time>2026-04-29T16:39:29.45Z</time></trkpt><trkpt lat="43.0538307" lon="13.2039284"><ele>978.0</ele><time>2026-04-29T16:39:30.452Z</time></trkpt><trkpt lat="43.0538904" lon="13.2039649"><ele>978.0</ele><time>2026-04-29T16:39:31.455Z</time></trkpt><trkpt lat="43.0539958" lon="13.2040554"><ele>978.0</ele><time>2026-04-29T16:39:33.461Z</time></trkpt><trkpt lat="43.0540547" lon="13.2041129"><ele>978.0</ele><time>2026-04-29T16:39:34.459Z</time></trkpt><trkpt lat="43.0541479" lon="13.2042194"><ele>981.1666666666666</ele><time>2026-04-29T16:39:36.441Z</time></trkpt><trkpt lat="43.0541951" lon="13.2042777"><ele>984.3333333333333</ele><time>2026-04-29T16:39:37.473Z</time></trkpt><trkpt lat="43.0542495" lon="13.2043406"><ele>987.5</ele><time>2026-04-29T16:39:38.458Z</time></trkpt><trkpt lat="43.0543043" lon="13.2044082"><ele>990.6666666666666</ele><time>2026-04-29T16:39:39.468Z</time></trkpt><trkpt lat="43.0543621" lon="13.204479"><ele>993.8333333333333</ele><time>2026-04-29T16:39:40.482Z</time></trkpt><trkpt lat="43.05442" lon="13.2045587"><ele>997.0</ele><time>2026-04-29T16:39:41.458Z</time></trkpt><trkpt lat="43.054481" lon="13.2046514"><ele>997.0</ele><time>2026-04-29T16:39:42.496Z</time></trkpt><trkpt lat="43.0545448" lon="13.2047555"><ele>997.0</ele><time>2026-04-29T16:39:43.511Z</time></trkpt><trkpt lat="43.054606" lon="13.2048573"><ele>997.0</ele><time>2026-04-29T16:39:44.511Z</time></trkpt><trkpt lat="43.0546606" lon="13.2049542"><ele>997.0</ele><time>2026-04-29T16:39:45.51Z</time></trkpt><trkpt lat="43.0547111" lon="13.2050489"><ele>997.0</ele><time>2026-04-29T16:39:46.463Z</time></trkpt><trkpt lat="43.0547615" lon="13.2051489"><ele>998.4000000000001</ele><time>2026-04-29T16:39:47.484Z</time></trkpt><trkpt lat="43.0548191" lon="13.2052615"><ele>999.8000000000001</ele><time>2026-04-29T16:39:48.483Z</time></trkpt><trkpt lat="43.0548818" lon="13.2053905"><ele>1001.2</ele><time>2026-04-29T16:39:49.461Z</time></trkpt><trkpt lat="43.0549302" lon="13.2055056"><ele>1002.6</ele><time>2026-04-29T16:39:50.498Z</time></trkpt><trkpt lat="43.0549661" lon="13.2056103"><ele>1004.0</ele><time>2026-04-29T16:39:51.455Z</time></trkpt><trkpt lat="43.0549902" lon="13.20571"><ele>1004.6666666666667</ele><time>2026-04-29T16:39:52.502Z</time></trkpt><trkpt lat="43.0550107" lon="13.2058123"><ele>1005.3333333333334</ele><time>2026-04-29T16:39:53.496Z</time></trkpt><trkpt lat="43.0550316" lon="13.2059208"><ele>1006.0</ele><time>2026-04-29T16:39:54.513Z</time></trkpt><trkpt lat="43.0550619" lon="13.2060338"><ele>1006.6666666666667</ele><time>2026-04-29T16:39:55.5Z</time></trkpt><trkpt lat="43.0550939" lon="13.2061398"><ele>1007.3333333333334</ele><time>2026-04-29T16:39:56.454Z</time></trkpt><trkpt lat="43.0551173" lon="13.2062455"><ele>1008.0</ele><time>2026-04-29T16:39:57.507Z</time></trkpt><trkpt lat="43.055135" lon="13.2063553"><ele>1008.0</ele><time>2026-04-29T16:39:58.535Z</time></trkpt><trkpt lat="43.0551462" lon="13.2064664"><ele>1008.0</ele><time>2026-04-29T16:39:59.488Z</time></trkpt><trkpt lat="43.0551553" lon="13.2065699"><ele>1008.0</ele><time>2026-04-29T16:40:00.477Z</time></trkpt><trkpt lat="43.0551643" lon="13.2066753"><ele>1008.0</ele><time>2026-04-29T16:40:01.469Z</time></trkpt><trkpt lat="43.0551782" lon="13.20678"><ele>1008.0</ele><time>2026-04-29T16:40:02.505Z</time></trkpt><trkpt lat="43.0551933" lon="13.206886"><ele>1008.0</ele><time>2026-04-29T16:40:03.502Z</time></trkpt><trkpt lat="43.0552081" lon="13.2069907"><ele>1009.5</ele><time>2026-04-29T16:40:04.448Z</time></trkpt><trkpt lat="43.0552237" lon="13.2071014"><ele>1011.0</ele><time>2026-04-29T16:40:05.466Z</time></trkpt><trkpt lat="43.0552363" lon="13.2072101"><ele>1012.5</ele><time>2026-04-29T16:40:06.44Z</time></trkpt><trkpt lat="43.0552506" lon="13.2073471"><ele>1014.0</ele><time>2026-04-29T16:40:08.458Z</time></trkpt><trkpt lat="43.0552356" lon="13.2074419"><ele>1015.5</ele><time>2026-04-29T16:40:11.453Z</time></trkpt><trkpt lat="43.0551665" lon="13.2074871"><ele>1017.0</ele><time>2026-04-29T16:40:13.448Z</time></trkpt><trkpt lat="43.0550996" lon="13.2075145"><ele>1018.1666666666666</ele><time>2026-04-29T16:40:15.447Z</time></trkpt><trkpt lat="43.0550361" lon="13.2075509"><ele>1019.3333333333333</ele><time>2026-04-29T16:40:31.449Z</time></trkpt><trkpt lat="43.0549706" lon="13.2076598"><ele>1020.5</ele><time>2026-04-29T16:40:33.452Z</time></trkpt><trkpt lat="43.0549188" lon="13.2077525"><ele>1021.6666666666666</ele><time>2026-04-29T16:40:34.456Z</time></trkpt><trkpt lat="43.0548635" lon="13.2078553"><ele>1022.8333333333333</ele><time>2026-04-29T16:40:35.462Z</time></trkpt><trkpt lat="43.054811" lon="13.2079625"><ele>1024.0</ele><time>2026-04-29T16:40:36.459Z</time></trkpt><trkpt lat="43.0547518" lon="13.2080878"><ele>1023.75</ele><time>2026-04-29T16:40:37.468Z</time></trkpt><trkpt lat="43.0546858" lon="13.2082256"><ele>1023.5</ele><time>2026-04-29T16:40:38.446Z</time></trkpt><trkpt lat="43.0546065" lon="13.208389"><ele>1023.25</ele><time>2026-04-29T16:40:39.48Z</time></trkpt><trkpt lat="43.0545236" lon="13.2085555"><ele>1023.0</ele><time>2026-04-29T16:40:40.446Z</time></trkpt><trkpt lat="43.0544451" lon="13.2087109"><ele>1023.0</ele><time>2026-04-29T16:40:41.456Z</time></trkpt><trkpt lat="43.054367" lon="13.2088664"><ele>1023.0</ele><time>2026-04-29T16:40:42.475Z</time></trkpt><trkpt lat="43.054282" lon="13.2090381"><ele>1023.0</ele><time>2026-04-29T16:40:43.467Z</time></trkpt><trkpt lat="43.0541893" lon="13.2092278"><ele>1022.0</ele><time>2026-04-29T16:40:44.487Z</time></trkpt><trkpt lat="43.0541017" lon="13.2094054"><ele>1021.0</ele><time>2026-04-29T16:40:45.497Z</time></trkpt><trkpt lat="43.0540216" lon="13.2095547"><ele>1020.0</ele><time>2026-04-29T16:40:46.463Z</time></trkpt><trkpt lat="43.0539502" lon="13.2096894"><ele>1019.0</ele><time>2026-04-29T16:40:47.469Z</time></trkpt><trkpt lat="43.0538862" lon="13.2098096"><ele>1019.5000000000001</ele><time>2026-04-29T16:40:48.49Z</time></trkpt><trkpt lat="43.05383" lon="13.2099167"><ele>1020.0</ele><time>2026-04-29T16:40:49.498Z</time></trkpt><trkpt lat="43.053778" lon="13.2100077"><ele>1020.5</ele><time>2026-04-29T16:40:50.499Z</time></trkpt><trkpt lat="43.053739" lon="13.2100844"><ele>1021.0</ele><time>2026-04-29T16:40:51.498Z</time></trkpt><trkpt lat="43.0536952" lon="13.2102454"><ele>1021.5000000000001</ele><time>2026-04-29T16:40:53.511Z</time></trkpt><trkpt lat="43.0536888" lon="13.2103375"><ele>1022.0</ele><time>2026-04-29T16:40:54.497Z</time></trkpt><trkpt lat="43.0536826" lon="13.2104427"><ele>1022.0</ele><time>2026-04-29T16:40:55.502Z</time></trkpt><trkpt lat="43.0536629" lon="13.2105582"><ele>1022.0</ele><time>2026-04-29T16:40:56.47Z</time></trkpt><trkpt lat="43.0536438" lon="13.2106834"><ele>1022.0</ele><time>2026-04-29T16:40:57.496Z</time></trkpt><trkpt lat="43.0536225" lon="13.2108083"><ele>1022.0</ele><time>2026-04-29T16:40:58.498Z</time></trkpt><trkpt lat="43.0535945" lon="13.2109363"><ele>1022.0</ele><time>2026-04-29T16:40:59.458Z</time></trkpt><trkpt lat="43.0535696" lon="13.2110616"><ele>1022.5000000000001</ele><time>2026-04-29T16:41:00.459Z</time></trkpt><trkpt lat="43.0535494" lon="13.2111734"><ele>1023.0</ele><time>2026-04-29T16:41:01.474Z</time></trkpt><trkpt lat="43.0535393" lon="13.211272"><ele>1023.5</ele><time>2026-04-29T16:41:02.485Z</time></trkpt><trkpt lat="43.0535339" lon="13.2113642"><ele>1024.0</ele><time>2026-04-29T16:41:03.503Z</time></trkpt><trkpt lat="43.053523" lon="13.2114492"><ele>1024.5</ele><time>2026-04-29T16:41:04.509Z</time></trkpt><trkpt lat="43.0534989" lon="13.2115882"><ele>1025.0</ele><time>2026-04-29T16:41:06.474Z</time></trkpt><trkpt lat="43.0534199" lon="13.2117034"><ele>1026.1666666666667</ele><time>2026-04-29T16:41:08.504Z</time></trkpt><trkpt lat="43.0533725" lon="13.2118097"><ele>1027.3333333333335</ele><time>2026-04-29T16:41:10.482Z</time></trkpt><trkpt lat="43.0534144" lon="13.2118914"><ele>1028.5</ele><time>2026-04-29T16:41:12.47Z</time></trkpt><trkpt lat="43.0534782" lon="13.2119787"><ele>1029.6666666666667</ele><time>2026-04-29T16:41:14.483Z</time></trkpt><trkpt lat="43.0535089" lon="13.2120665"><ele>1030.8333333333333</ele><time>2026-04-29T16:41:15.511Z</time></trkpt><trkpt lat="43.0535498" lon="13.2122213"><ele>1032.0</ele><time>2026-04-29T16:41:17.49Z</time></trkpt><trkpt lat="43.0535808" lon="13.2123013"><ele>1032.5</ele><time>2026-04-29T16:41:18.456Z</time></trkpt><trkpt lat="43.0536113" lon="13.2123806"><ele>1033.0</ele><time>2026-04-29T16:41:19.464Z</time></trkpt><trkpt lat="43.0536638" lon="13.2124315"><ele>1033.5</ele><time>2026-04-29T16:41:20.473Z</time></trkpt><trkpt lat="43.0537289" lon="13.2125011"><ele>1034.0</ele><time>2026-04-29T16:41:22.469Z</time></trkpt><trkpt lat="43.0538155" lon="13.2125995"><ele>1034.5</ele><time>2026-04-29T16:41:24.492Z</time></trkpt><trkpt lat="43.0538945" lon="13.2126626"><ele>1035.0</ele><time>2026-04-29T16:41:26.495Z</time></trkpt><trkpt lat="43.0539831" lon="13.212699"><ele>1035.0</ele><time>2026-04-29T16:41:28.509Z</time></trkpt><trkpt lat="43.0540749" lon="13.212724"><ele>1035.0</ele><time>2026-04-29T16:41:30.522Z</time></trkpt><trkpt lat="43.0541582" lon="13.2126732"><ele>1035.0</ele><time>2026-04-29T16:41:32.504Z</time></trkpt><trkpt lat="43.0542225" lon="13.2126114"><ele>1035.0</ele><time>2026-04-29T16:41:33.503Z</time></trkpt><trkpt lat="43.054283" lon="13.2125159"><ele>1035.0</ele><time>2026-04-29T16:41:35.495Z</time></trkpt><trkpt lat="43.0543462" lon="13.2125127"><ele>1035.0</ele><time>2026-04-29T16:41:39.465Z</time></trkpt><trkpt lat="43.0543643" lon="13.2126237"><ele>1031.6</ele><time>2026-04-29T16:41:41.454Z</time></trkpt><trkpt lat="43.0544187" lon="13.2127628"><ele>1028.2</ele><time>2026-04-29T16:41:43.496Z</time></trkpt><trkpt lat="43.0544556" lon="13.2128882"><ele>1024.8</ele><time>2026-04-29T16:41:45.495Z</time></trkpt><trkpt lat="43.0545049" lon="13.2129882"><ele>1021.4</ele><time>2026-04-29T16:41:47.489Z</time></trkpt><trkpt lat="43.0545997" lon="13.2130806"><ele>1018.0</ele><time>2026-04-29T16:41:49.497Z</time></trkpt><trkpt lat="43.0546879" lon="13.2131841"><ele>1018.0</ele><time>2026-04-29T16:41:51.501Z</time></trkpt><trkpt lat="43.054756" lon="13.2132742"><ele>1018.0</ele><time>2026-04-29T16:41:53.507Z</time></trkpt><trkpt lat="43.0548103" lon="13.2133784"><ele>1018.0</ele><time>2026-04-29T16:41:55.461Z</time></trkpt><trkpt lat="43.0548434" lon="13.2135224"><ele>1018.0</ele><time>2026-04-29T16:41:57.483Z</time></trkpt><trkpt lat="43.0548971" lon="13.2136555"><ele>1018.0</ele><time>2026-04-29T16:41:59.515Z</time></trkpt><trkpt lat="43.0549541" lon="13.2137587"><ele>1014.1666666666666</ele><time>2026-04-29T16:42:01.497Z</time></trkpt><trkpt lat="43.055026" lon="13.213799"><ele>1010.3333333333333</ele><time>2026-04-29T16:42:03.475Z</time></trkpt><trkpt lat="43.0551071" lon="13.2138899"><ele>1006.5</ele><time>2026-04-29T16:42:05.49Z</time></trkpt><trkpt lat="43.0551626" lon="13.2139993"><ele>1002.6666666666667</ele><time>2026-04-29T16:42:07.502Z</time></trkpt><trkpt lat="43.0551754" lon="13.2140932"><ele>998.8333333333334</ele><time>2026-04-29T16:42:09.496Z</time></trkpt><trkpt lat="43.055169" lon="13.2141929"><ele>995.0</ele><time>2026-04-29T16:42:11.483Z</time></trkpt><trkpt lat="43.0551547" lon="13.2143076"><ele>994.6666666666667</ele><time>2026-04-29T16:42:13.482Z</time></trkpt><trkpt lat="43.0551465" lon="13.2144166"><ele>994.3333333333334</ele><time>2026-04-29T16:42:15.461Z</time></trkpt><trkpt lat="43.0551432" lon="13.2145069"><ele>994.0</ele><time>2026-04-29T16:42:17.485Z</time></trkpt><trkpt lat="43.055165" lon="13.2146237"><ele>993.6666666666667</ele><time>2026-04-29T16:42:19.493Z</time></trkpt><trkpt lat="43.0551822" lon="13.214732"><ele>993.3333333333334</ele><time>2026-04-29T16:42:21.481Z</time></trkpt><trkpt lat="43.0552508" lon="13.2148028"><ele>993.0</ele><time>2026-04-29T16:42:24.476Z</time></trkpt><trkpt lat="43.05531" lon="13.2148345"><ele>994.5</ele><time>2026-04-29T16:42:25.507Z</time></trkpt><trkpt lat="43.0553974" lon="13.2149313"><ele>996.0</ele><time>2026-04-29T16:42:32.455Z</time></trkpt><trkpt lat="43.0554685" lon="13.2149573"><ele>997.5</ele><time>2026-04-29T16:42:35.465Z</time></trkpt><trkpt lat="43.055526" lon="13.2150141"><ele>999.0</ele><time>2026-04-29T16:42:37.479Z</time></trkpt><trkpt lat="43.0555874" lon="13.2151105"><ele>1000.5</ele><time>2026-04-29T16:42:41.49Z</time></trkpt><trkpt lat="43.0556241" lon="13.2152182"><ele>1002.0</ele><time>2026-04-29T16:42:43.492Z</time></trkpt><trkpt lat="43.0556615" lon="13.2153678"><ele>1002.0</ele><time>2026-04-29T16:42:50.478Z</time></trkpt><trkpt lat="43.055707" lon="13.2154456"><ele>1002.0</ele><time>2026-04-29T16:42:54.509Z</time></trkpt><trkpt lat="43.0557232" lon="13.2155363"><ele>1002.0</ele><time>2026-04-29T16:42:57.491Z</time></trkpt><trkpt lat="43.0557921" lon="13.2157005"><ele>1002.0</ele><time>2026-04-29T16:43:04.487Z</time></trkpt><trkpt lat="43.05582" lon="13.2157831"><ele>1002.0</ele><time>2026-04-29T16:43:07.475Z</time></trkpt><trkpt lat="43.0558367" lon="13.2158872"><ele>1002.0</ele><time>2026-04-29T16:43:09.483Z</time></trkpt><trkpt lat="43.0558541" lon="13.2160049"><ele>995.8</ele><time>2026-04-29T16:43:11.482Z</time></trkpt><trkpt lat="43.0558768" lon="13.2161312"><ele>989.6</ele><time>2026-04-29T16:43:13.488Z</time></trkpt><trkpt lat="43.0559063" lon="13.2162133"><ele>983.3999999999999</ele><time>2026-04-29T16:43:15.45Z</time></trkpt><trkpt lat="43.0559382" lon="13.2163122"><ele>977.1999999999999</ele><time>2026-04-29T16:43:17.458Z</time></trkpt><trkpt lat="43.0560002" lon="13.2163804"><ele>971.0</ele><time>2026-04-29T16:43:21.451Z</time></trkpt><trkpt lat="43.0561268" lon="13.2164182"><ele>971.0</ele><time>2026-04-29T16:43:24.475Z</time></trkpt><trkpt lat="43.0562175" lon="13.2164569"><ele>970.9999999999999</ele><time>2026-04-29T16:43:25.488Z</time></trkpt><trkpt lat="43.0562785" lon="13.2165081"><ele>970.9999999999999</ele><time>2026-04-29T16:43:26.498Z</time></trkpt><trkpt lat="43.0563169" lon="13.216633"><ele>971.0</ele><time>2026-04-29T16:43:29.458Z</time></trkpt><trkpt lat="43.056352" lon="13.2167469"><ele>971.0</ele><time>2026-04-29T16:43:31.464Z</time></trkpt><trkpt lat="43.0563835" lon="13.2168716"><ele>969.8333333333334</ele><time>2026-04-29T16:43:33.491Z</time></trkpt><trkpt lat="43.056407" lon="13.2169687"><ele>968.6666666666667</ele><time>2026-04-29T16:43:35.483Z</time></trkpt><trkpt lat="43.0564201" lon="13.2170894"><ele>967.5</ele><time>2026-04-29T16:43:37.438Z</time></trkpt><trkpt lat="43.0564435" lon="13.2171828"><ele>966.3333333333333</ele><time>2026-04-29T16:43:40.482Z</time></trkpt><trkpt lat="43.056521" lon="13.2172827"><ele>965.1666666666666</ele><time>2026-04-29T16:43:43.475Z</time></trkpt><trkpt lat="43.0565829" lon="13.2173539"><ele>964.0</ele><time>2026-04-29T16:43:45.494Z</time></trkpt><trkpt lat="43.0566325" lon="13.2174325"><ele>959.0</ele><time>2026-04-29T16:43:47.444Z</time></trkpt><trkpt lat="43.0566784" lon="13.2175483"><ele>954.0000000000001</ele><time>2026-04-29T16:43:50.467Z</time></trkpt><trkpt lat="43.0567066" lon="13.2176735"><ele>949.0000000000001</ele><time>2026-04-29T16:43:53.499Z</time></trkpt><trkpt lat="43.056732" lon="13.217758"><ele>944.0</ele><time>2026-04-29T16:43:56.494Z</time></trkpt><trkpt lat="43.0568548" lon="13.2177993"><ele>939.0</ele><time>2026-04-29T16:43:57.45Z</time></trkpt><trkpt lat="43.0567876" lon="13.217834"><ele>939.0</ele><time>2026-04-29T16:44:02.451Z</time></trkpt><trkpt lat="43.0567242" lon="13.2178366"><ele>939.0</ele><time>2026-04-29T16:44:05.477Z</time></trkpt><trkpt lat="43.0566493" lon="13.2178421"><ele>939.0</ele><time>2026-04-29T16:44:08.504Z</time></trkpt><trkpt lat="43.0565864" lon="13.2178552"><ele>939.0</ele><time>2026-04-29T16:44:10.469Z</time></trkpt><trkpt lat="43.0565026" lon="13.2178729"><ele>939.0</ele><time>2026-04-29T16:44:12.451Z</time></trkpt><trkpt lat="43.0563933" lon="13.2178879"><ele>939.0</ele><time>2026-04-29T16:44:14.476Z</time></trkpt><trkpt lat="43.0563083" lon="13.2179085"><ele>945.25</ele><time>2026-04-29T16:44:16.477Z</time></trkpt><trkpt lat="43.0561948" lon="13.2179732"><ele>951.5</ele><time>2026-04-29T16:44:18.473Z</time></trkpt><trkpt lat="43.0560616" lon="13.2180222"><ele>957.75</ele><time>2026-04-29T16:44:20.496Z</time></trkpt><trkpt lat="43.0559422" lon="13.2180471"><ele>964.0</ele><time>2026-04-29T16:44:22.426Z</time></trkpt><trkpt lat="43.0558587" lon="13.2181041"><ele>959.2</ele><time>2026-04-29T16:44:24.48Z</time></trkpt><trkpt lat="43.0557296" lon="13.2181918"><ele>954.4000000000001</ele><time>2026-04-29T16:44:26.481Z</time></trkpt><trkpt lat="43.0556595" lon="13.2181968"><ele>949.6</ele><time>2026-04-29T16:44:27.476Z</time></trkpt><trkpt lat="43.0555511" lon="13.2182272"><ele>944.8</ele><time>2026-04-29T16:44:29.496Z</time></trkpt><trkpt lat="43.0554503" lon="13.2182591"><ele>940.0</ele><time>2026-04-29T16:44:31.473Z</time></trkpt><trkpt lat="43.055365" lon="13.2182765"><ele>939.9999999999999</ele><time>2026-04-29T16:44:33.497Z</time></trkpt><trkpt lat="43.0552972" lon="13.2182985"><ele>940.0</ele><time>2026-04-29T16:44:35.492Z</time></trkpt><trkpt lat="43.0552192" lon="13.2182771"><ele>940.0</ele><time>2026-04-29T16:44:38.489Z</time></trkpt><trkpt lat="43.0551381" lon="13.2182449"><ele>940.0</ele><time>2026-04-29T16:44:40.468Z</time></trkpt><trkpt lat="43.0550575" lon="13.2182307"><ele>939.9999999999999</ele><time>2026-04-29T16:44:42.482Z</time></trkpt><trkpt lat="43.0549656" lon="13.2182722"><ele>940.0</ele><time>2026-04-29T16:44:56.465Z</time></trkpt><trkpt lat="43.055001" lon="13.2183455"><ele>939.9999999999999</ele><time>2026-04-29T16:45:00.492Z</time></trkpt><trkpt lat="43.0550342" lon="13.2184472"><ele>940.0</ele><time>2026-04-29T16:45:03.51Z</time></trkpt><trkpt lat="43.0550689" lon="13.218549"><ele>940.0</ele><time>2026-04-29T16:45:06.461Z</time></trkpt><trkpt lat="43.0550988" lon="13.218627"><ele>940.0</ele><time>2026-04-29T16:45:09.477Z</time></trkpt><trkpt lat="43.0551725" lon="13.2187245"><ele>939.9999999999999</ele><time>2026-04-29T16:45:12.478Z</time></trkpt><trkpt lat="43.05527" lon="13.2188056"><ele>940.0</ele><time>2026-04-29T16:45:14.5Z</time></trkpt><trkpt lat="43.0553606" lon="13.2188735"><ele>940.0</ele><time>2026-04-29T16:45:16.491Z</time></trkpt><trkpt lat="43.0554546" lon="13.2189224"><ele>940.0</ele><time>2026-04-29T16:45:18.555Z</time></trkpt><trkpt lat="43.0555537" lon="13.2189664"><ele>940.0</ele><time>2026-04-29T16:45:20.488Z</time></trkpt><trkpt lat="43.0556307" lon="13.2190208"><ele>940.0</ele><time>2026-04-29T16:45:22.483Z</time></trkpt><trkpt lat="43.055704" lon="13.219087"><ele>940.0</ele><time>2026-04-29T16:45:24.422Z</time></trkpt><trkpt lat="43.0557755" lon="13.2191705"><ele>939.1428571428571</ele><time>2026-04-29T16:45:26.461Z</time></trkpt><trkpt lat="43.0558152" lon="13.2192411"><ele>938.2857142857142</ele><time>2026-04-29T16:45:28.459Z</time></trkpt><trkpt lat="43.0558826" lon="13.2193153"><ele>937.4285714285713</ele><time>2026-04-29T16:45:31.465Z</time></trkpt><trkpt lat="43.055943" lon="13.2193722"><ele>936.5714285714284</ele><time>2026-04-29T16:45:33.484Z</time></trkpt><trkpt lat="43.0559996" lon="13.2194276"><ele>935.7142857142857</ele><time>2026-04-29T16:45:35.49Z</time></trkpt><trkpt lat="43.0560518" lon="13.2194938"><ele>934.8571428571427</ele><time>2026-04-29T16:45:37.463Z</time></trkpt><trkpt lat="43.0561018" lon="13.2195566"><ele>933.9999999999999</ele><time>2026-04-29T16:45:39.473Z</time></trkpt><trkpt lat="43.0561607" lon="13.219648"><ele>933.9999999999999</ele><time>2026-04-29T16:45:42.502Z</time></trkpt><trkpt lat="43.0562088" lon="13.2197434"><ele>934.0</ele><time>2026-04-29T16:45:45.481Z</time></trkpt><trkpt lat="43.056258" lon="13.2198471"><ele>934.0</ele><time>2026-04-29T16:45:48.469Z</time></trkpt><trkpt lat="43.0563023" lon="13.2199504"><ele>934.0</ele><time>2026-04-29T16:45:50.496Z</time></trkpt><trkpt lat="43.0563603" lon="13.2200558"><ele>933.9999999999999</ele><time>2026-04-29T16:45:52.476Z</time></trkpt><trkpt lat="43.0563973" lon="13.2201425"><ele>934.0</ele><time>2026-04-29T16:45:54.479Z</time></trkpt><trkpt lat="43.0564348" lon="13.2202508"><ele>934.4999999999999</ele><time>2026-04-29T16:45:57.486Z</time></trkpt><trkpt lat="43.0564754" lon="13.2203386"><ele>935.0</ele><time>2026-04-29T16:45:59.492Z</time></trkpt><trkpt lat="43.0565171" lon="13.2204038"><ele>935.5</ele><time>2026-04-29T16:46:02.496Z</time></trkpt><trkpt lat="43.056583" lon="13.2204761"><ele>936.0</ele><time>2026-04-29T16:46:06.482Z</time></trkpt><trkpt lat="43.0566624" lon="13.2204974"><ele>936.4999999999999</ele><time>2026-04-29T16:46:07.48Z</time></trkpt><trkpt lat="43.0567153" lon="13.2205463"><ele>937.0</ele><time>2026-04-29T16:46:09.53Z</time></trkpt><trkpt lat="43.0567947" lon="13.2205996"><ele>943.0</ele><time>2026-04-29T16:46:11.459Z</time></trkpt><trkpt lat="43.0568968" lon="13.2206563"><ele>949.0</ele><time>2026-04-29T16:46:13.499Z</time></trkpt><trkpt lat="43.0569629" lon="13.2206815"><ele>955.0</ele><time>2026-04-29T16:46:14.466Z</time></trkpt><trkpt lat="43.0570996" lon="13.2207142"><ele>961.0</ele><time>2026-04-29T16:46:16.461Z</time></trkpt><trkpt lat="43.0571967" lon="13.2207369"><ele>967.0</ele><time>2026-04-29T16:46:17.48Z</time></trkpt><trkpt lat="43.0572827" lon="13.2207563"><ele>967.0</ele><time>2026-04-29T16:46:18.485Z</time></trkpt><trkpt lat="43.0573578" lon="13.2207754"><ele>967.0</ele><time>2026-04-29T16:46:19.473Z</time></trkpt><trkpt lat="43.0574713" lon="13.2208013"><ele>967.0</ele><time>2026-04-29T16:46:21.529Z</time></trkpt><trkpt lat="43.0575797" lon="13.2208238"><ele>967.0</ele><time>2026-04-29T16:46:23.465Z</time></trkpt><trkpt lat="43.0576938" lon="13.220841"><ele>967.0</ele><time>2026-04-29T16:46:25.502Z</time></trkpt><trkpt lat="43.0578009" lon="13.2208504"><ele>965.3333333333333</ele><time>2026-04-29T16:46:27.483Z</time></trkpt><trkpt lat="43.0578761" lon="13.2208981"><ele>963.6666666666666</ele><time>2026-04-29T16:46:29.431Z</time></trkpt><trkpt lat="43.0579246" lon="13.2210142"><ele>962.0</ele><time>2026-04-29T16:46:31.484Z</time></trkpt><trkpt lat="43.0579344" lon="13.2211276"><ele>960.3333333333333</ele><time>2026-04-29T16:46:33.449Z</time></trkpt><trkpt lat="43.0579434" lon="13.2212391"><ele>958.6666666666666</ele><time>2026-04-29T16:46:36.501Z</time></trkpt><trkpt lat="43.0580196" lon="13.2212992"><ele>957.0</ele><time>2026-04-29T16:49:53.503Z</time></trkpt><trkpt lat="43.0581406" lon="13.22133"><ele>957.0</ele><time>2026-04-29T16:49:55.5Z</time></trkpt><trkpt lat="43.0582192" lon="13.2213396"><ele>957.0</ele><time>2026-04-29T16:49:56.483Z</time></trkpt><trkpt lat="43.0582949" lon="13.2213627"><ele>957.0</ele><time>2026-04-29T16:49:57.494Z</time></trkpt><trkpt lat="43.0583759" lon="13.22141"><ele>957.0</ele><time>2026-04-29T16:49:58.512Z</time></trkpt><trkpt lat="43.0584721" lon="13.221493"><ele>957.0</ele><time>2026-04-29T16:49:59.494Z</time></trkpt><trkpt lat="43.0585673" lon="13.2215758"><ele>958.1666666666666</ele><time>2026-04-29T16:50:00.476Z</time></trkpt><trkpt lat="43.0586515" lon="13.2216472"><ele>959.3333333333333</ele><time>2026-04-29T16:50:01.493Z</time></trkpt><trkpt lat="43.0587297" lon="13.2217133"><ele>960.5</ele><time>2026-04-29T16:50:02.458Z</time></trkpt><trkpt lat="43.0587974" lon="13.221774"><ele>961.6666666666666</ele><time>2026-04-29T16:50:03.486Z</time></trkpt><trkpt lat="43.058857" lon="13.2218311"><ele>962.8333333333333</ele><time>2026-04-29T16:50:04.483Z</time></trkpt><trkpt lat="43.0589232" lon="13.2218959"><ele>964.0</ele><time>2026-04-29T16:50:05.456Z</time></trkpt><trkpt lat="43.0589897" lon="13.2219809"><ele>963.9999999999999</ele><time>2026-04-29T16:50:06.484Z</time></trkpt><trkpt lat="43.0590522" lon="13.222073"><ele>964.0</ele><time>2026-04-29T16:50:07.475Z</time></trkpt><trkpt lat="43.0591091" lon="13.2221545"><ele>964.0</ele><time>2026-04-29T16:50:08.485Z</time></trkpt><trkpt lat="43.0591796" lon="13.2222092"><ele>964.0</ele><time>2026-04-29T16:50:09.476Z</time></trkpt><trkpt lat="43.0592497" lon="13.2222577"><ele>963.9999999999999</ele><time>2026-04-29T16:50:10.469Z</time></trkpt><trkpt lat="43.0593178" lon="13.2223019"><ele>964.0</ele><time>2026-04-29T16:50:11.499Z</time></trkpt><trkpt lat="43.059389" lon="13.222358"><ele>963.4999999999999</ele><time>2026-04-29T16:50:12.479Z</time></trkpt><trkpt lat="43.0594624" lon="13.2224247"><ele>963.0</ele><time>2026-04-29T16:50:13.471Z</time></trkpt><trkpt lat="43.0595332" lon="13.222511"><ele>962.5</ele><time>2026-04-29T16:50:14.496Z</time></trkpt><trkpt lat="43.0595965" lon="13.2226025"><ele>962.0</ele><time>2026-04-29T16:50:15.466Z</time></trkpt><trkpt lat="43.0596659" lon="13.2226622"><ele>961.4999999999999</ele><time>2026-04-29T16:50:16.475Z</time></trkpt><trkpt lat="43.0597302" lon="13.222707"><ele>961.0</ele><time>2026-04-29T16:50:17.478Z</time></trkpt><trkpt lat="43.0598048" lon="13.2227051"><ele>960.9999999999999</ele><time>2026-04-29T16:50:18.478Z</time></trkpt><trkpt lat="43.0598855" lon="13.2227072"><ele>961.0</ele><time>2026-04-29T16:50:19.475Z</time></trkpt><trkpt lat="43.0599599" lon="13.222684"><ele>961.0</ele><time>2026-04-29T16:50:20.514Z</time></trkpt><trkpt lat="43.0600478" lon="13.2226451"><ele>961.0</ele><time>2026-04-29T16:50:21.482Z</time></trkpt><trkpt lat="43.060129" lon="13.2226058"><ele>960.9999999999999</ele><time>2026-04-29T16:50:22.485Z</time></trkpt><trkpt lat="43.0602056" lon="13.222561"><ele>961.0</ele><time>2026-04-29T16:50:23.484Z</time></trkpt><trkpt lat="43.0602736" lon="13.2225044"><ele>961.0</ele><time>2026-04-29T16:50:24.439Z</time></trkpt><trkpt lat="43.0603385" lon="13.222458"><ele>960.9999999999999</ele><time>2026-04-29T16:50:25.462Z</time></trkpt><trkpt lat="43.0603976" lon="13.2224002"><ele>961.0</ele><time>2026-04-29T16:50:26.529Z</time></trkpt><trkpt lat="43.0604596" lon="13.2223367"><ele>961.0</ele><time>2026-04-29T16:50:27.484Z</time></trkpt><trkpt lat="43.0605227" lon="13.2222746"><ele>960.9999999999999</ele><time>2026-04-29T16:50:28.476Z</time></trkpt><trkpt lat="43.0605799" lon="13.2222136"><ele>961.0</ele><time>2026-04-29T16:50:29.463Z</time></trkpt><trkpt lat="43.0606422" lon="13.2221597"><ele>961.0</ele><time>2026-04-29T16:50:30.477Z</time></trkpt><trkpt lat="43.0606988" lon="13.2221141"><ele>961.0</ele><time>2026-04-29T16:50:31.485Z</time></trkpt><trkpt lat="43.0607657" lon="13.2221081"><ele>960.9999999999999</ele><time>2026-04-29T16:50:32.474Z</time></trkpt><trkpt lat="43.0608301" lon="13.2221086"><ele>961.0</ele><time>2026-04-29T16:50:33.491Z</time></trkpt><trkpt lat="43.0609051" lon="13.2221372"><ele>961.0</ele><time>2026-04-29T16:50:34.451Z</time></trkpt><trkpt lat="43.0609647" lon="13.2221745"><ele>960.9999999999999</ele><time>2026-04-29T16:50:35.498Z</time></trkpt><trkpt lat="43.061011" lon="13.2222658"><ele>961.0</ele><time>2026-04-29T16:50:36.493Z</time></trkpt><trkpt lat="43.0610594" lon="13.222369"><ele>961.0</ele><time>2026-04-29T16:50:37.487Z</time></trkpt><trkpt lat="43.0610989" lon="13.2225153"><ele>959.1999999999999</ele><time>2026-04-29T16:50:38.486Z</time></trkpt><trkpt lat="43.0611298" lon="13.2226742"><ele>957.3999999999999</ele><time>2026-04-29T16:50:39.504Z</time></trkpt><trkpt lat="43.0611559" lon="13.2228149"><ele>955.6</ele><time>2026-04-29T16:50:40.493Z</time></trkpt><trkpt lat="43.0611699" lon="13.2229281"><ele>953.8</ele><time>2026-04-29T16:50:41.481Z</time></trkpt><trkpt lat="43.061182" lon="13.2230244"><ele>952.0</ele><time>2026-04-29T16:50:42.507Z</time></trkpt><trkpt lat="43.0612103" lon="13.2231114"><ele>950.3333333333333</ele><time>2026-04-29T16:50:43.503Z</time></trkpt><trkpt lat="43.0612555" lon="13.2231993"><ele>948.6666666666666</ele><time>2026-04-29T16:50:44.492Z</time></trkpt><trkpt lat="43.0613" lon="13.2232851"><ele>947.0</ele><time>2026-04-29T16:50:45.457Z</time></trkpt><trkpt lat="43.0613721" lon="13.2233793"><ele>945.3333333333333</ele><time>2026-04-29T16:50:46.486Z</time></trkpt><trkpt lat="43.0614547" lon="13.2234635"><ele>943.6666666666666</ele><time>2026-04-29T16:50:47.472Z</time></trkpt><trkpt lat="43.0615245" lon="13.2234959"><ele>942.0</ele><time>2026-04-29T16:50:48.481Z</time></trkpt><trkpt lat="43.0615858" lon="13.2235165"><ele>944.2</ele><time>2026-04-29T16:50:49.461Z</time></trkpt><trkpt lat="43.0616705" lon="13.2235852"><ele>946.4000000000001</ele><time>2026-04-29T16:50:51.49Z</time></trkpt><trkpt lat="43.0617285" lon="13.2236897"><ele>948.5999999999999</ele><time>2026-04-29T16:50:53.505Z</time></trkpt><trkpt lat="43.0617932" lon="13.2237903"><ele>950.8</ele><time>2026-04-29T16:50:55.466Z</time></trkpt><trkpt lat="43.0618832" lon="13.223866"><ele>953.0</ele><time>2026-04-29T16:50:57.441Z</time></trkpt><trkpt lat="43.0619404" lon="13.223912"><ele>951.0</ele><time>2026-04-29T16:50:58.472Z</time></trkpt><trkpt lat="43.0620279" lon="13.2239887"><ele>949.0</ele><time>2026-04-29T16:51:00.478Z</time></trkpt><trkpt lat="43.0621441" lon="13.2239871"><ele>947.0</ele><time>2026-04-29T16:51:02.49Z</time></trkpt><trkpt lat="43.0622456" lon="13.2239947"><ele>945.0</ele><time>2026-04-29T16:51:04.468Z</time></trkpt><trkpt lat="43.0623177" lon="13.2240492"><ele>943.0</ele><time>2026-04-29T16:51:06.54Z</time></trkpt><trkpt lat="43.0623509" lon="13.22421"><ele>942.9999999999999</ele><time>2026-04-29T16:51:08.475Z</time></trkpt><trkpt lat="43.0623782" lon="13.2243495"><ele>943.0</ele><time>2026-04-29T16:51:10.509Z</time></trkpt><trkpt lat="43.0624179" lon="13.2244834"><ele>943.0</ele><time>2026-04-29T16:51:12.505Z</time></trkpt><trkpt lat="43.0624587" lon="13.2245789"><ele>943.0</ele><time>2026-04-29T16:51:13.451Z</time></trkpt><trkpt lat="43.0624902" lon="13.2246798"><ele>942.9999999999999</ele><time>2026-04-29T16:51:14.469Z</time></trkpt><trkpt lat="43.0624936" lon="13.2247711"><ele>943.0</ele><time>2026-04-29T16:51:15.493Z</time></trkpt><trkpt lat="43.062484" lon="13.224881"><ele>943.9999999999999</ele><time>2026-04-29T16:51:16.451Z</time></trkpt><trkpt lat="43.0624744" lon="13.224986"><ele>945.0</ele><time>2026-04-29T16:51:17.497Z</time></trkpt><trkpt lat="43.0624678" lon="13.2250779"><ele>946.0</ele><time>2026-04-29T16:51:18.493Z</time></trkpt><trkpt lat="43.0624444" lon="13.2252095"><ele>947.0</ele><time>2026-04-29T16:51:20.461Z</time></trkpt><trkpt lat="43.0623978" lon="13.2252964"><ele>947.9999999999999</ele><time>2026-04-29T16:51:22.481Z</time></trkpt><trkpt lat="43.0623859" lon="13.2254165"><ele>949.0</ele><time>2026-04-29T16:51:25.449Z</time></trkpt><trkpt lat="43.062423" lon="13.2254957"><ele>948.9999999999999</ele><time>2026-04-29T16:51:27.501Z</time></trkpt><trkpt lat="43.0625014" lon="13.2254729"><ele>949.0</ele><time>2026-04-29T16:51:29.55Z</time></trkpt><trkpt lat="43.0625698" lon="13.2254632"><ele>949.0</ele><time>2026-04-29T16:51:30.455Z</time></trkpt><trkpt lat="43.0626413" lon="13.2254575"><ele>949.0</ele><time>2026-04-29T16:51:31.49Z</time></trkpt><trkpt lat="43.0627142" lon="13.2254814"><ele>948.9999999999999</ele><time>2026-04-29T16:51:32.465Z</time></trkpt><trkpt lat="43.0627773" lon="13.2255022"><ele>949.0</ele><time>2026-04-29T16:51:33.482Z</time></trkpt><trkpt lat="43.0628599" lon="13.2256018"><ele>948.2</ele><time>2026-04-29T16:51:35.445Z</time></trkpt><trkpt lat="43.0629347" lon="13.2257264"><ele>947.4000000000001</ele><time>2026-04-29T16:51:37.491Z</time></trkpt><trkpt lat="43.0630187" lon="13.2258513"><ele>946.6</ele><time>2026-04-29T16:51:39.502Z</time></trkpt><trkpt lat="43.0630643" lon="13.2259112"><ele>945.8</ele><time>2026-04-29T16:51:40.442Z</time></trkpt><trkpt lat="43.0631328" lon="13.2260197"><ele>945.0</ele><time>2026-04-29T16:51:42.506Z</time></trkpt><trkpt lat="43.0631596" lon="13.2261236"><ele>945.0</ele><time>2026-04-29T16:51:44.49Z</time></trkpt><trkpt lat="43.0631715" lon="13.2262604"><ele>945.0</ele><time>2026-04-29T16:51:46.463Z</time></trkpt><trkpt lat="43.0632197" lon="13.2264027"><ele>945.0</ele><time>2026-04-29T16:51:48.487Z</time></trkpt><trkpt lat="43.063299" lon="13.2264954"><ele>945.0</ele><time>2026-04-29T16:51:50.427Z</time></trkpt><trkpt lat="43.0633738" lon="13.2265418"><ele>945.0</ele><time>2026-04-29T16:51:52.483Z</time></trkpt><trkpt lat="43.0634392" lon="13.2265547"><ele>943.8</ele><time>2026-04-29T16:51:54.471Z</time></trkpt><trkpt lat="43.0635035" lon="13.2266355"><ele>942.6</ele><time>2026-04-29T16:51:56.488Z</time></trkpt><trkpt lat="43.0635755" lon="13.2267465"><ele>941.4000000000001</ele><time>2026-04-29T16:51:58.44Z</time></trkpt><trkpt lat="43.0636155" lon="13.2268206"><ele>940.2</ele><time>2026-04-29T16:51:59.472Z</time></trkpt><trkpt lat="43.063669" lon="13.2269397"><ele>939.0</ele><time>2026-04-29T16:52:01.432Z</time></trkpt><trkpt lat="43.063724" lon="13.2270298"><ele>939.0</ele><time>2026-04-29T16:52:04.473Z</time></trkpt><trkpt lat="43.0637862" lon="13.22715"><ele>939.0000000000001</ele><time>2026-04-29T16:52:07.486Z</time></trkpt><trkpt lat="43.0638335" lon="13.2272936"><ele>939.0000000000001</ele><time>2026-04-29T16:52:09.479Z</time></trkpt><trkpt lat="43.063852" lon="13.227398"><ele>939.0</ele><time>2026-04-29T16:52:11.473Z</time></trkpt><trkpt lat="43.0638822" lon="13.2274866"><ele>939.0</ele><time>2026-04-29T16:52:13.471Z</time></trkpt><trkpt lat="43.0639222" lon="13.2275782"><ele>937.8333333333334</ele><time>2026-04-29T16:52:15.473Z</time></trkpt><trkpt lat="43.0639622" lon="13.227676"><ele>936.6666666666667</ele><time>2026-04-29T16:52:18.474Z</time></trkpt><trkpt lat="43.0640325" lon="13.227709"><ele>935.5</ele><time>2026-04-29T16:52:21.486Z</time></trkpt><trkpt lat="43.0641198" lon="13.2276993"><ele>934.3333333333334</ele><time>2026-04-29T16:52:24.484Z</time></trkpt><trkpt lat="43.064186" lon="13.2277081"><ele>933.1666666666667</ele><time>2026-04-29T16:52:26.488Z</time></trkpt><trkpt lat="43.0642781" lon="13.2277178"><ele>932.0</ele><time>2026-04-29T16:52:30.48Z</time></trkpt><trkpt lat="43.0643465" lon="13.2277437"><ele>932.0000000000001</ele><time>2026-04-29T16:52:33.479Z</time></trkpt><trkpt lat="43.0644195" lon="13.2277902"><ele>932.0</ele><time>2026-04-29T16:52:36.486Z</time></trkpt><trkpt lat="43.0644924" lon="13.2278107"><ele>932.0</ele><time>2026-04-29T16:52:41.446Z</time></trkpt><trkpt lat="43.0645741" lon="13.2277908"><ele>932.0</ele><time>2026-04-29T16:52:44.455Z</time></trkpt><trkpt lat="43.0646702" lon="13.2277668"><ele>932.0000000000001</ele><time>2026-04-29T16:52:47.512Z</time></trkpt><trkpt lat="43.0647389" lon="13.2277477"><ele>932.0</ele><time>2026-04-29T16:52:50.474Z</time></trkpt><trkpt lat="43.0648296" lon="13.2277354"><ele>932.0000000000001</ele><time>2026-04-29T16:52:53.484Z</time></trkpt><trkpt lat="43.06491" lon="13.2277461"><ele>932.0</ele><time>2026-04-29T16:52:55.48Z</time></trkpt><trkpt lat="43.0649846" lon="13.2277393"><ele>932.0</ele><time>2026-04-29T16:52:58.473Z</time></trkpt><trkpt lat="43.0649897" lon="13.2278371"><ele>932.0</ele><time>2026-04-29T16:53:05.471Z</time></trkpt><trkpt lat="43.0649859" lon="13.227962"><ele>932.0000000000001</ele><time>2026-04-29T16:53:15.459Z</time></trkpt><trkpt lat="43.0650079" lon="13.2280599"><ele>932.0</ele><time>2026-04-29T16:53:19.488Z</time></trkpt><trkpt lat="43.0650093" lon="13.2282108"><ele>927.2857142857143</ele><time>2026-04-29T16:53:22.493Z</time></trkpt><trkpt lat="43.0650033" lon="13.2283359"><ele>922.5714285714284</ele><time>2026-04-29T16:53:24.501Z</time></trkpt><trkpt lat="43.0649856" lon="13.2284365"><ele>917.8571428571428</ele><time>2026-04-29T16:53:26.478Z</time></trkpt><trkpt lat="43.0649786" lon="13.2285292"><ele>913.1428571428571</ele><time>2026-04-29T16:53:28.511Z</time></trkpt><trkpt lat="43.0649782" lon="13.2286219"><ele>908.4285714285713</ele><time>2026-04-29T16:53:30.45Z</time></trkpt><trkpt lat="43.0649718" lon="13.2287118"><ele>903.7142857142856</ele><time>2026-04-29T16:53:33.479Z</time></trkpt><trkpt lat="43.0649405" lon="13.2288041"><ele>898.9999999999999</ele><time>2026-04-29T16:53:36.49Z</time></trkpt><trkpt lat="43.0648853" lon="13.2288639"><ele>898.9999999999999</ele><time>2026-04-29T16:53:38.484Z</time></trkpt><trkpt lat="43.0648267" lon="13.2289248"><ele>899.0</ele><time>2026-04-29T16:53:41.449Z</time></trkpt><trkpt lat="43.0647537" lon="13.2289146"><ele>898.9999999999999</ele><time>2026-04-29T16:53:44.488Z</time></trkpt><trkpt lat="43.0647367" lon="13.2290037"><ele>898.9999999999999</ele><time>2026-04-29T16:53:52.504Z</time></trkpt><trkpt lat="43.0647807" lon="13.2290679"><ele>899.0</ele><time>2026-04-29T16:53:54.498Z</time></trkpt><trkpt lat="43.0648351" lon="13.229161"><ele>898.9999999999999</ele><time>2026-04-29T16:53:57.46Z</time></trkpt><trkpt lat="43.0648825" lon="13.2292238"><ele>898.9999999999999</ele><time>2026-04-29T16:54:00.47Z</time></trkpt><trkpt lat="43.0649353" lon="13.2293366"><ele>891.0000000000001</ele><time>2026-04-29T16:54:02.507Z</time></trkpt><trkpt lat="43.0650032" lon="13.2294888"><ele>883.0</ele><time>2026-04-29T16:54:04.531Z</time></trkpt><trkpt lat="43.0650121" lon="13.2296455"><ele>875.0</ele><time>2026-04-29T16:54:07.508Z</time></trkpt><trkpt lat="43.0649872" lon="13.2297247"><ele>867.0</ele><time>2026-04-29T16:54:09.467Z</time></trkpt><trkpt lat="43.0649707" lon="13.2298243"><ele>859.0000000000001</ele><time>2026-04-29T16:54:13.466Z</time></trkpt><trkpt lat="43.0649477" lon="13.2299063"><ele>851.0</ele><time>2026-04-29T16:54:18.487Z</time></trkpt><trkpt lat="43.0649079" lon="13.2299844"><ele>844.4285714285714</ele><time>2026-04-29T16:54:22.482Z</time></trkpt><trkpt lat="43.0648399" lon="13.2300262"><ele>837.8571428571429</ele><time>2026-04-29T16:54:25.512Z</time></trkpt><trkpt lat="43.0647611" lon="13.2300665"><ele>831.2857142857142</ele><time>2026-04-29T16:54:27.479Z</time></trkpt><trkpt lat="43.0646896" lon="13.2300902"><ele>824.7142857142858</ele><time>2026-04-29T16:54:30.501Z</time></trkpt><trkpt lat="43.0646478" lon="13.2301825"><ele>818.1428571428571</ele><time>2026-04-29T16:54:33.503Z</time></trkpt><trkpt lat="43.0646825" lon="13.2302614"><ele>811.5714285714286</ele><time>2026-04-29T16:54:35.477Z</time></trkpt><trkpt lat="43.0647346" lon="13.2303247"><ele>805.0</ele><time>2026-04-29T16:54:37.483Z</time></trkpt><trkpt lat="43.0647829" lon="13.2303927"><ele>805.0</ele><time>2026-04-29T16:54:39.508Z</time></trkpt><trkpt lat="43.0648247" lon="13.2305062"><ele>805.0</ele><time>2026-04-29T16:54:41.448Z</time></trkpt><trkpt lat="43.0648501" lon="13.2306349"><ele>805.0</ele><time>2026-04-29T16:54:43.458Z</time></trkpt><trkpt lat="43.0648822" lon="13.2307879"><ele>805.0</ele><time>2026-04-29T16:54:45.481Z</time></trkpt><trkpt lat="43.0649327" lon="13.2309323"><ele>805.0</ele><time>2026-04-29T16:54:47.483Z</time></trkpt><trkpt lat="43.0649726" lon="13.2310765"><ele>801.9999999999999</ele><time>2026-04-29T16:54:49.479Z</time></trkpt><trkpt lat="43.0649995" lon="13.2311737"><ele>799.0</ele><time>2026-04-29T16:54:51.457Z</time></trkpt><trkpt lat="43.0650408" lon="13.2312497"><ele>796.0</ele><time>2026-04-29T16:54:53.488Z</time></trkpt><trkpt lat="43.0651043" lon="13.2313031"><ele>793.0</ele><time>2026-04-29T16:54:55.496Z</time></trkpt><trkpt lat="43.0651748" lon="13.2313548"><ele>789.9999999999999</ele><time>2026-04-29T16:54:57.467Z</time></trkpt><trkpt lat="43.065242" lon="13.2314092"><ele>787.0</ele><time>2026-04-29T16:54:59.508Z</time></trkpt><trkpt lat="43.0653197" lon="13.2314691"><ele>782.8</ele><time>2026-04-29T16:55:01.45Z</time></trkpt><trkpt lat="43.0653827" lon="13.2315244"><ele>778.6</ele><time>2026-04-29T16:55:03.496Z</time></trkpt><trkpt lat="43.0654186" lon="13.2316526"><ele>774.4</ele><time>2026-04-29T16:55:06.456Z</time></trkpt><trkpt lat="43.0654078" lon="13.231795"><ele>770.1999999999999</ele><time>2026-04-29T16:55:08.478Z</time></trkpt><trkpt lat="43.0653565" lon="13.231929"><ele>766.0</ele><time>2026-04-29T16:55:10.482Z</time></trkpt><trkpt lat="43.0652966" lon="13.2320619"><ele>766.0</ele><time>2026-04-29T16:55:12.472Z</time></trkpt><trkpt lat="43.0652359" lon="13.2322071"><ele>766.0</ele><time>2026-04-29T16:55:14.485Z</time></trkpt><trkpt lat="43.0651806" lon="13.2323512"><ele>766.0</ele><time>2026-04-29T16:55:16.456Z</time></trkpt><trkpt lat="43.0651232" lon="13.2324368"><ele>766.0</ele><time>2026-04-29T16:55:18.482Z</time></trkpt><trkpt lat="43.0650794" lon="13.2325012"><ele>766.0</ele><time>2026-04-29T16:55:20.501Z</time></trkpt><trkpt lat="43.0650479" lon="13.2326055"><ele>761.8</ele><time>2026-04-29T16:55:23.448Z</time></trkpt><trkpt lat="43.0651005" lon="13.2326704"><ele>757.5999999999999</ele><time>2026-04-29T16:55:25.478Z</time></trkpt><trkpt lat="43.06516" lon="13.2327032"><ele>753.4</ele><time>2026-04-29T16:55:26.447Z</time></trkpt><trkpt lat="43.0652492" lon="13.2327171"><ele>749.2</ele><time>2026-04-29T16:55:27.485Z</time></trkpt><trkpt lat="43.0653635" lon="13.2326995"><ele>745.0</ele><time>2026-04-29T16:55:28.458Z</time></trkpt><trkpt lat="43.0655016" lon="13.2326532"><ele>745.0</ele><time>2026-04-29T16:55:29.499Z</time></trkpt><trkpt lat="43.0656282" lon="13.2325872"><ele>745.0</ele><time>2026-04-29T16:55:30.454Z</time></trkpt><trkpt lat="43.0657422" lon="13.232536"><ele>745.0</ele><time>2026-04-29T16:55:31.433Z</time></trkpt><trkpt lat="43.0658552" lon="13.2324933"><ele>745.0</ele><time>2026-04-29T16:55:32.444Z</time></trkpt><trkpt lat="43.0659573" lon="13.2324502"><ele>746.2</ele><time>2026-04-29T16:55:33.483Z</time></trkpt><trkpt lat="43.0660502" lon="13.2323955"><ele>747.4</ele><time>2026-04-29T16:55:34.477Z</time></trkpt><trkpt lat="43.06614" lon="13.2323403"><ele>748.5999999999999</ele><time>2026-04-29T16:55:35.502Z</time></trkpt><trkpt lat="43.0662156" lon="13.2322641"><ele>749.8</ele><time>2026-04-29T16:55:36.448Z</time></trkpt><trkpt lat="43.066289" lon="13.2321844"><ele>751.0</ele><time>2026-04-29T16:55:37.491Z</time></trkpt><trkpt lat="43.0663615" lon="13.2321066"><ele>751.0</ele><time>2026-04-29T16:55:38.48Z</time></trkpt><trkpt lat="43.0664265" lon="13.2320335"><ele>751.0</ele><time>2026-04-29T16:55:39.514Z</time></trkpt><trkpt lat="43.0664821" lon="13.2319754"><ele>751.0</ele><time>2026-04-29T16:55:40.461Z</time></trkpt><trkpt lat="43.0665763" lon="13.2318972"><ele>751.0</ele><time>2026-04-29T16:55:42.467Z</time></trkpt><trkpt lat="43.0666468" lon="13.2318955"><ele>751.0</ele><time>2026-04-29T16:55:44.469Z</time></trkpt><trkpt lat="43.0666544" lon="13.2320067"><ele>751.0</ele><time>2026-04-29T16:55:47.44Z</time></trkpt><trkpt lat="43.0665685" lon="13.2321559"><ele>751.0</ele><time>2026-04-29T16:55:49.471Z</time></trkpt><trkpt lat="43.066477" lon="13.2322805"><ele>751.0</ele><time>2026-04-29T16:55:50.514Z</time></trkpt><trkpt lat="43.0663775" lon="13.2324305"><ele>751.0</ele><time>2026-04-29T16:55:51.471Z</time></trkpt><trkpt lat="43.0662899" lon="13.2325689"><ele>751.0</ele><time>2026-04-29T16:55:52.459Z</time></trkpt><trkpt lat="43.0662177" lon="13.232676"><ele>746.8</ele><time>2026-04-29T16:55:53.495Z</time></trkpt><trkpt lat="43.0661415" lon="13.2327836"><ele>742.5999999999999</ele><time>2026-04-29T16:55:54.496Z</time></trkpt><trkpt lat="43.0660824" lon="13.2328721"><ele>738.4</ele><time>2026-04-29T16:55:55.476Z</time></trkpt><trkpt lat="43.066038" lon="13.2329789"><ele>734.2</ele><time>2026-04-29T16:55:56.469Z</time></trkpt><trkpt lat="43.0660028" lon="13.2331023"><ele>730.0</ele><time>2026-04-29T16:55:57.491Z</time></trkpt><trkpt lat="43.0659544" lon="13.2332272"><ele>727.8</ele><time>2026-04-29T16:55:58.455Z</time></trkpt><trkpt lat="43.0659035" lon="13.2333566"><ele>725.6</ele><time>2026-04-29T16:55:59.478Z</time></trkpt><trkpt lat="43.065858" lon="13.2334719"><ele>723.4000000000001</ele><time>2026-04-29T16:56:00.494Z</time></trkpt><trkpt lat="43.0658187" lon="13.2335665"><ele>721.2</ele><time>2026-04-29T16:56:01.495Z</time></trkpt><trkpt lat="43.0658081" lon="13.2337097"><ele>719.0</ele><time>2026-04-29T16:56:03.461Z</time></trkpt><trkpt lat="43.065913" lon="13.2337977"><ele>719.0</ele><time>2026-04-29T16:56:05.481Z</time></trkpt><trkpt lat="43.0659968" lon="13.2338325"><ele>719.0</ele><time>2026-04-29T16:56:06.479Z</time></trkpt><trkpt lat="43.0661276" lon="13.2338319"><ele>719.0</ele><time>2026-04-29T16:56:07.47Z</time></trkpt><trkpt lat="43.0662483" lon="13.2338251"><ele>719.0</ele><time>2026-04-29T16:56:08.502Z</time></trkpt><trkpt lat="43.0663537" lon="13.2338275"><ele>719.0</ele><time>2026-04-29T16:56:09.495Z</time></trkpt><trkpt lat="43.0664443" lon="13.2338495"><ele>719.0</ele><time>2026-04-29T16:56:10.497Z</time></trkpt><trkpt lat="43.0665268" lon="13.2339082"><ele>719.0</ele><time>2026-04-29T16:56:11.505Z</time></trkpt><trkpt lat="43.0666198" lon="13.2339777"><ele>719.0</ele><time>2026-04-29T16:56:12.529Z</time></trkpt><trkpt lat="43.0667147" lon="13.234134"><ele>719.0</ele><time>2026-04-29T16:56:13.488Z</time></trkpt><trkpt lat="43.0667996" lon="13.2342831"><ele>713.4000000000001</ele><time>2026-04-29T16:56:14.471Z</time></trkpt><trkpt lat="43.0668752" lon="13.2344158"><ele>707.8</ele><time>2026-04-29T16:56:15.498Z</time></trkpt><trkpt lat="43.0669441" lon="13.2345374"><ele>702.2</ele><time>2026-04-29T16:56:16.479Z</time></trkpt><trkpt lat="43.0669989" lon="13.2346372"><ele>696.5999999999999</ele><time>2026-04-29T16:56:17.472Z</time></trkpt><trkpt lat="43.0670478" lon="13.2347238"><ele>691.0</ele><time>2026-04-29T16:56:18.482Z</time></trkpt><trkpt lat="43.0671635" lon="13.2347587"><ele>691.0</ele><time>2026-04-29T16:56:20.477Z</time></trkpt><trkpt lat="43.0672276" lon="13.2347048"><ele>691.0</ele><time>2026-04-29T16:56:21.511Z</time></trkpt><trkpt lat="43.0672795" lon="13.2346258"><ele>691.0</ele><time>2026-04-29T16:56:22.481Z</time></trkpt><trkpt lat="43.0673163" lon="13.2345162"><ele>691.0</ele><time>2026-04-29T16:56:23.48Z</time></trkpt><trkpt lat="43.0673519" lon="13.2343831"><ele>691.0</ele><time>2026-04-29T16:56:24.49Z</time></trkpt><trkpt lat="43.06741" lon="13.2342154"><ele>690.0</ele><time>2026-04-29T16:56:25.482Z</time></trkpt><trkpt lat="43.0674862" lon="13.2340624"><ele>689.0</ele><time>2026-04-29T16:56:26.477Z</time></trkpt><trkpt lat="43.0675573" lon="13.2339238"><ele>688.0</ele><time>2026-04-29T16:56:27.473Z</time></trkpt><trkpt lat="43.0676232" lon="13.2337941"><ele>687.0</ele><time>2026-04-29T16:56:28.488Z</time></trkpt><trkpt lat="43.0676875" lon="13.2336794"><ele>687.0</ele><time>2026-04-29T16:56:29.482Z</time></trkpt><trkpt lat="43.067749" lon="13.233568"><ele>687.0</ele><time>2026-04-29T16:56:30.497Z</time></trkpt><trkpt lat="43.067806" lon="13.2334636"><ele>687.0</ele><time>2026-04-29T16:56:31.462Z</time></trkpt><trkpt lat="43.0678574" lon="13.2333541"><ele>687.0</ele><time>2026-04-29T16:56:32.477Z</time></trkpt><trkpt lat="43.0679008" lon="13.2332359"><ele>687.0</ele><time>2026-04-29T16:56:33.472Z</time></trkpt><trkpt lat="43.0679268" lon="13.2330923"><ele>687.8</ele><time>2026-04-29T16:56:34.474Z</time></trkpt><trkpt lat="43.0679476" lon="13.2329601"><ele>688.6</ele><time>2026-04-29T16:56:35.487Z</time></trkpt><trkpt lat="43.0679689" lon="13.2328476"><ele>689.4</ele><time>2026-04-29T16:56:36.486Z</time></trkpt><trkpt lat="43.0680191" lon="13.2327559"><ele>690.1999999999999</ele><time>2026-04-29T16:56:37.492Z</time></trkpt><trkpt lat="43.068097" lon="13.2326816"><ele>691.0</ele><time>2026-04-29T16:56:38.481Z</time></trkpt><trkpt lat="43.0681921" lon="13.2326254"><ele>687.6666666666667</ele><time>2026-04-29T16:56:39.488Z</time></trkpt><trkpt lat="43.0682925" lon="13.2326067"><ele>684.3333333333334</ele><time>2026-04-29T16:56:40.46Z</time></trkpt><trkpt lat="43.068393" lon="13.2326055"><ele>681.0</ele><time>2026-04-29T16:56:41.465Z</time></trkpt><trkpt lat="43.0684902" lon="13.2326127"><ele>677.6666666666666</ele><time>2026-04-29T16:56:42.472Z</time></trkpt><trkpt lat="43.0685734" lon="13.2326204"><ele>674.3333333333333</ele><time>2026-04-29T16:56:43.502Z</time></trkpt><trkpt lat="43.0686371" lon="13.2326235"><ele>671.0</ele><time>2026-04-29T16:56:44.494Z</time></trkpt><trkpt lat="43.0687434" lon="13.2326107"><ele>671.0</ele><time>2026-04-29T16:56:46.489Z</time></trkpt><trkpt lat="43.0688448" lon="13.2326129"><ele>671.0</ele><time>2026-04-29T16:56:48.496Z</time></trkpt><trkpt lat="43.0689283" lon="13.2326676"><ele>671.0</ele><time>2026-04-29T16:56:50.488Z</time></trkpt><trkpt lat="43.0689738" lon="13.2327451"><ele>671.0</ele><time>2026-04-29T16:56:52.469Z</time></trkpt><trkpt lat="43.0689288" lon="13.2328317"><ele>671.0</ele><time>2026-04-29T16:56:55.484Z</time></trkpt><trkpt lat="43.0688524" lon="13.2328296"><ele>671.0</ele><time>2026-04-29T16:56:57.464Z</time></trkpt><trkpt lat="43.0687342" lon="13.2328335"><ele>671.0</ele><time>2026-04-29T16:56:59.479Z</time></trkpt><trkpt lat="43.0686191" lon="13.2329087"><ele>671.0</ele><time>2026-04-29T16:57:01.464Z</time></trkpt><trkpt lat="43.0685857" lon="13.2329833"><ele>671.0</ele><time>2026-04-29T16:57:02.486Z</time></trkpt><trkpt lat="43.0685539" lon="13.2331108"><ele>671.0</ele><time>2026-04-29T16:57:04.477Z</time></trkpt><trkpt lat="43.0685769" lon="13.2332541"><ele>671.0</ele><time>2026-04-29T16:57:06.502Z</time></trkpt><trkpt lat="43.0686706" lon="13.2334218"><ele>669.5999999999999</ele><time>2026-04-29T16:57:08.482Z</time></trkpt><trkpt lat="43.068759" lon="13.2335117"><ele>668.2</ele><time>2026-04-29T16:57:09.489Z</time></trkpt><trkpt lat="43.0688488" lon="13.2335995"><ele>666.8</ele><time>2026-04-29T16:57:10.475Z</time></trkpt><trkpt lat="43.0689417" lon="13.2336901"><ele>665.4000000000001</ele><time>2026-04-29T16:57:11.48Z</time></trkpt><trkpt lat="43.0690266" lon="13.2337852"><ele>664.0</ele><time>2026-04-29T16:57:12.492Z</time></trkpt><trkpt lat="43.0690821" lon="13.2338922"><ele>660.0</ele><time>2026-04-29T16:57:13.473Z</time></trkpt><trkpt lat="43.0691145" lon="13.234005"><ele>656.0</ele><time>2026-04-29T16:57:14.477Z</time></trkpt><trkpt lat="43.069127" lon="13.2341168"><ele>652.0</ele><time>2026-04-29T16:57:15.488Z</time></trkpt><trkpt lat="43.069133" lon="13.2342174"><ele>648.0</ele><time>2026-04-29T16:57:16.51Z</time></trkpt><trkpt lat="43.0691301" lon="13.2343072"><ele>644.0</ele><time>2026-04-29T16:57:17.48Z</time></trkpt><trkpt lat="43.0691428" lon="13.2344524"><ele>640.0</ele><time>2026-04-29T16:57:19.47Z</time></trkpt><trkpt lat="43.0692202" lon="13.234541"><ele>640.0</ele><time>2026-04-29T16:57:21.465Z</time></trkpt><trkpt lat="43.0692861" lon="13.2345712"><ele>640.0</ele><time>2026-04-29T16:57:22.469Z</time></trkpt><trkpt lat="43.0693703" lon="13.2346132"><ele>640.0</ele><time>2026-04-29T16:57:23.465Z</time></trkpt><trkpt lat="43.0694608" lon="13.2346228"><ele>640.0</ele><time>2026-04-29T16:57:24.495Z</time></trkpt><trkpt lat="43.0695685" lon="13.2346287"><ele>640.0</ele><time>2026-04-29T16:57:25.492Z</time></trkpt><trkpt lat="43.0696863" lon="13.2346053"><ele>640.0</ele><time>2026-04-29T16:57:26.51Z</time></trkpt><trkpt lat="43.0698069" lon="13.2345922"><ele>640.0</ele><time>2026-04-29T16:57:27.486Z</time></trkpt><trkpt lat="43.0698987" lon="13.2345834"><ele>640.0</ele><time>2026-04-29T16:57:28.468Z</time></trkpt><trkpt lat="43.0699644" lon="13.2345744"><ele>640.0</ele><time>2026-04-29T16:57:29.47Z</time></trkpt><trkpt lat="43.0700351" lon="13.2345714"><ele>640.0</ele><time>2026-04-29T16:57:30.484Z</time></trkpt><trkpt lat="43.0701101" lon="13.2346022"><ele>640.0</ele><time>2026-04-29T16:57:31.452Z</time></trkpt><trkpt lat="43.0701923" lon="13.2346593"><ele>638.6</ele><time>2026-04-29T16:57:32.45Z</time></trkpt><trkpt lat="43.0702698" lon="13.2347118"><ele>637.2</ele><time>2026-04-29T16:57:33.451Z</time></trkpt><trkpt lat="43.0703392" lon="13.2347935"><ele>635.8</ele><time>2026-04-29T16:57:34.455Z</time></trkpt><trkpt lat="43.0704067" lon="13.2348765"><ele>634.4</ele><time>2026-04-29T16:57:35.469Z</time></trkpt><trkpt lat="43.0704901" lon="13.2349758"><ele>633.0</ele><time>2026-04-29T16:57:36.434Z</time></trkpt><trkpt lat="43.0705708" lon="13.2350917"><ele>633.0</ele><time>2026-04-29T16:57:37.434Z</time></trkpt><trkpt lat="43.0706459" lon="13.2352057"><ele>633.0</ele><time>2026-04-29T16:57:38.429Z</time></trkpt><trkpt lat="43.0707107" lon="13.2353298"><ele>633.0</ele><time>2026-04-29T16:57:39.437Z</time></trkpt><trkpt lat="43.0707599" lon="13.2354561"><ele>633.0</ele><time>2026-04-29T16:57:40.448Z</time></trkpt><trkpt lat="43.0708025" lon="13.2355847"><ele>633.0</ele><time>2026-04-29T16:57:41.433Z</time></trkpt><trkpt lat="43.0708521" lon="13.2357089"><ele>623.5</ele><time>2026-04-29T16:57:42.433Z</time></trkpt><trkpt lat="43.0708928" lon="13.2358278"><ele>614.0</ele><time>2026-04-29T16:57:43.438Z</time></trkpt><trkpt lat="43.0709216" lon="13.2359555"><ele>604.5</ele><time>2026-04-29T16:57:44.442Z</time></trkpt><trkpt lat="43.0709601" lon="13.2361246"><ele>595.0</ele><time>2026-04-29T16:57:45.444Z</time></trkpt><trkpt lat="43.0709859" lon="13.2362948"><ele>595.0</ele><time>2026-04-29T16:57:46.444Z</time></trkpt><trkpt lat="43.0710047" lon="13.2364645"><ele>595.0</ele><time>2026-04-29T16:57:47.452Z</time></trkpt><trkpt lat="43.0710214" lon="13.2366755"><ele>595.0</ele><time>2026-04-29T16:57:48.452Z</time></trkpt><trkpt lat="43.0710315" lon="13.2368769"><ele>595.0</ele><time>2026-04-29T16:57:49.46Z</time></trkpt><trkpt lat="43.0710406" lon="13.2370876"><ele>593.0</ele><time>2026-04-29T16:57:50.444Z</time></trkpt><trkpt lat="43.0710452" lon="13.2373242"><ele>591.0</ele><time>2026-04-29T16:57:51.453Z</time></trkpt><trkpt lat="43.0710542" lon="13.2375352"><ele>589.0</ele><time>2026-04-29T16:57:52.451Z</time></trkpt><trkpt lat="43.0710625" lon="13.2377366"><ele>589.0</ele><time>2026-04-29T16:57:53.45Z</time></trkpt><trkpt lat="43.071063" lon="13.2379209"><ele>589.0</ele><time>2026-04-29T16:57:54.44Z</time></trkpt><trkpt lat="43.0710606" lon="13.2380768"><ele>589.0</ele><time>2026-04-29T16:57:55.452Z</time></trkpt><trkpt lat="43.0710516" lon="13.2382269"><ele>589.0</ele><time>2026-04-29T16:57:56.493Z</time></trkpt><trkpt lat="43.0710482" lon="13.2383704"><ele>586.3333333333334</ele><time>2026-04-29T16:57:57.458Z</time></trkpt><trkpt lat="43.0710256" lon="13.2384765"><ele>583.6666666666667</ele><time>2026-04-29T16:57:58.477Z</time></trkpt><trkpt lat="43.0710108" lon="13.2385672"><ele>581.0</ele><time>2026-04-29T16:57:59.471Z</time></trkpt><trkpt lat="43.0710207" lon="13.2386806"><ele>578.3333333333334</ele><time>2026-04-29T16:58:01.488Z</time></trkpt><trkpt lat="43.0710902" lon="13.2387274"><ele>575.6666666666666</ele><time>2026-04-29T16:58:04.477Z</time></trkpt><trkpt lat="43.0711214" lon="13.2386228"><ele>573.0</ele><time>2026-04-29T16:58:10.455Z</time></trkpt><trkpt lat="43.0711651" lon="13.238534"><ele>573.0</ele><time>2026-04-29T16:58:14.481Z</time></trkpt><trkpt lat="43.071207" lon="13.2384535"><ele>573.0</ele><time>2026-04-29T16:58:17.441Z</time></trkpt><trkpt lat="43.07126" lon="13.2383405"><ele>573.0</ele><time>2026-04-29T16:58:21.451Z</time></trkpt><trkpt lat="43.0712986" lon="13.2382622"><ele>573.0</ele><time>2026-04-29T16:58:23.467Z</time></trkpt><trkpt lat="43.0713577" lon="13.2381613"><ele>573.0</ele><time>2026-04-29T16:58:25.451Z</time></trkpt><trkpt lat="43.0714274" lon="13.2380215"><ele>576.1999999999999</ele><time>2026-04-29T16:58:27.453Z</time></trkpt><trkpt lat="43.071468" lon="13.2379346"><ele>579.4</ele><time>2026-04-29T16:58:28.468Z</time></trkpt><trkpt lat="43.0715214" lon="13.2378103"><ele>582.5999999999999</ele><time>2026-04-29T16:58:29.479Z</time></trkpt><trkpt lat="43.0715729" lon="13.2376665"><ele>585.8</ele><time>2026-04-29T16:58:30.464Z</time></trkpt><trkpt lat="43.0716132" lon="13.2375248"><ele>589.0</ele><time>2026-04-29T16:58:31.461Z</time></trkpt><trkpt lat="43.0716525" lon="13.2373961"><ele>578.6</ele><time>2026-04-29T16:58:32.448Z</time></trkpt><trkpt lat="43.0716928" lon="13.237267"><ele>568.2</ele><time>2026-04-29T16:58:33.466Z</time></trkpt><trkpt lat="43.0717325" lon="13.2371378"><ele>557.8000000000001</ele><time>2026-04-29T16:58:34.451Z</time></trkpt><trkpt lat="43.0717723" lon="13.2369877"><ele>547.4</ele><time>2026-04-29T16:58:35.473Z</time></trkpt><trkpt lat="43.0718083" lon="13.2368641"><ele>537.0</ele><time>2026-04-29T16:58:36.497Z</time></trkpt><trkpt lat="43.0718329" lon="13.2367472"><ele>537.0</ele><time>2026-04-29T16:58:37.462Z</time></trkpt><trkpt lat="43.0718511" lon="13.2366392"><ele>537.0</ele><time>2026-04-29T16:58:38.455Z</time></trkpt><trkpt lat="43.0718639" lon="13.2365472"><ele>537.0</ele><time>2026-04-29T16:58:39.519Z</time></trkpt><trkpt lat="43.0718762" lon="13.2364613"><ele>537.0</ele><time>2026-04-29T16:58:40.473Z</time></trkpt><trkpt lat="43.0719044" lon="13.2363222"><ele>537.0</ele><time>2026-04-29T16:58:42.453Z</time></trkpt><trkpt lat="43.0719798" lon="13.2363019"><ele>537.0</ele><time>2026-04-29T16:58:45.538Z</time></trkpt><trkpt lat="43.0720115" lon="13.2364383"><ele>537.0</ele><time>2026-04-29T16:58:47.455Z</time></trkpt><trkpt lat="43.0720309" lon="13.2365546"><ele>537.0</ele><time>2026-04-29T16:58:48.494Z</time></trkpt><trkpt lat="43.072056" lon="13.2367325"><ele>537.0</ele><time>2026-04-29T16:58:49.485Z</time></trkpt><trkpt lat="43.0720727" lon="13.2368948"><ele>537.0</ele><time>2026-04-29T16:58:50.477Z</time></trkpt><trkpt lat="43.072087" lon="13.2370658"><ele>537.0</ele><time>2026-04-29T16:58:51.473Z</time></trkpt><trkpt lat="43.0720805" lon="13.2372312"><ele>537.0</ele><time>2026-04-29T16:58:52.453Z</time></trkpt><trkpt lat="43.0720868" lon="13.2373754"><ele>537.0</ele><time>2026-04-29T16:58:53.487Z</time></trkpt><trkpt lat="43.0720862" lon="13.2374954"><ele>537.0</ele><time>2026-04-29T16:58:54.45Z</time></trkpt><trkpt lat="43.0720781" lon="13.23759"><ele>537.0</ele><time>2026-04-29T16:58:55.479Z</time></trkpt><trkpt lat="43.0720673" lon="13.2377421"><ele>536.1666666666666</ele><time>2026-04-29T16:58:57.457Z</time></trkpt><trkpt lat="43.0720971" lon="13.2378437"><ele>535.3333333333334</ele><time>2026-04-29T16:58:59.474Z</time></trkpt><trkpt lat="43.0721714" lon="13.2378526"><ele>534.5</ele><time>2026-04-29T16:59:01.473Z</time></trkpt><trkpt lat="43.07227" lon="13.2377691"><ele>533.6666666666667</ele><time>2026-04-29T16:59:03.489Z</time></trkpt><trkpt lat="43.0723298" lon="13.2377143"><ele>532.8333333333334</ele><time>2026-04-29T16:59:04.492Z</time></trkpt><trkpt lat="43.0724066" lon="13.2376429"><ele>532.0</ele><time>2026-04-29T16:59:05.491Z</time></trkpt><trkpt lat="43.0724602" lon="13.2375936"><ele>521.6</ele><time>2026-04-29T16:59:06.474Z</time></trkpt><trkpt lat="43.0725403" lon="13.2374888"><ele>511.20000000000005</ele><time>2026-04-29T16:59:08.471Z</time></trkpt><trkpt lat="43.0725934" lon="13.2373488"><ele>500.8</ele><time>2026-04-29T16:59:10.453Z</time></trkpt><trkpt lat="43.0726399" lon="13.2372494"><ele>490.4</ele><time>2026-04-29T16:59:12.49Z</time></trkpt><trkpt lat="43.0727044" lon="13.2372417"><ele>480.0</ele><time>2026-04-29T16:59:14.497Z</time></trkpt><trkpt lat="43.0727281" lon="13.2373487"><ele>480.0</ele><time>2026-04-29T16:59:16.497Z</time></trkpt><trkpt lat="43.0727089" lon="13.23751"><ele>480.0</ele><time>2026-04-29T16:59:18.472Z</time></trkpt><trkpt lat="43.0726787" lon="13.2376577"><ele>480.0</ele><time>2026-04-29T16:59:20.476Z</time></trkpt><trkpt lat="43.072682" lon="13.2377646"><ele>480.0</ele><time>2026-04-29T16:59:22.476Z</time></trkpt><trkpt lat="43.0727466" lon="13.2378295"><ele>480.0</ele><time>2026-04-29T16:59:24.518Z</time></trkpt><trkpt lat="43.0728353" lon="13.2378053"><ele>480.0</ele><time>2026-04-29T16:59:25.478Z</time></trkpt><trkpt lat="43.0729282" lon="13.2377723"><ele>480.0</ele><time>2026-04-29T16:59:26.47Z</time></trkpt><trkpt lat="43.0730171" lon="13.2377153"><ele>480.0</ele><time>2026-04-29T16:59:27.468Z</time></trkpt><trkpt lat="43.0730983" lon="13.2376491"><ele>480.0</ele><time>2026-04-29T16:59:28.478Z</time></trkpt><trkpt lat="43.0731672" lon="13.2375736"><ele>480.0</ele><time>2026-04-29T16:59:29.48Z</time></trkpt><trkpt lat="43.0732154" lon="13.237489"><ele>480.0</ele><time>2026-04-29T16:59:30.477Z</time></trkpt><trkpt lat="43.0732569" lon="13.2374028"><ele>480.0</ele><time>2026-04-29T16:59:31.479Z</time></trkpt><trkpt lat="43.073294" lon="13.237315"><ele>480.0</ele><time>2026-04-29T16:59:32.477Z</time></trkpt><trkpt lat="43.0733124" lon="13.2372239"><ele>480.0</ele><time>2026-04-29T16:59:33.499Z</time></trkpt><trkpt lat="43.073304" lon="13.2371187"><ele>480.0</ele><time>2026-04-29T16:59:34.456Z</time></trkpt><trkpt lat="43.0732748" lon="13.2369919"><ele>480.0</ele><time>2026-04-29T16:59:35.472Z</time></trkpt><trkpt lat="43.0732384" lon="13.2368581"><ele>478.4</ele><time>2026-04-29T16:59:36.467Z</time></trkpt><trkpt lat="43.0731784" lon="13.236716"><ele>476.8</ele><time>2026-04-29T16:59:37.482Z</time></trkpt><trkpt lat="43.0731169" lon="13.2365847"><ele>475.20000000000005</ele><time>2026-04-29T16:59:38.497Z</time></trkpt><trkpt lat="43.0730653" lon="13.2364711"><ele>473.6</ele><time>2026-04-29T16:59:39.467Z</time></trkpt><trkpt lat="43.0730461" lon="13.2363517"><ele>472.0</ele><time>2026-04-29T16:59:40.516Z</time></trkpt><trkpt lat="43.0730424" lon="13.236221"><ele>471.75</ele><time>2026-04-29T16:59:41.473Z</time></trkpt><trkpt lat="43.0730413" lon="13.2360837"><ele>471.5</ele><time>2026-04-29T16:59:42.483Z</time></trkpt><trkpt lat="43.0730699" lon="13.2359217"><ele>471.25</ele><time>2026-04-29T16:59:43.468Z</time></trkpt><trkpt lat="43.0731008" lon="13.2357244"><ele>471.0</ele><time>2026-04-29T16:59:44.47Z</time></trkpt><trkpt lat="43.0730987" lon="13.2354835"><ele>471.5</ele><time>2026-04-29T16:59:45.466Z</time></trkpt><trkpt lat="43.0730962" lon="13.2352904"><ele>472.0</ele><time>2026-04-29T16:59:46.456Z</time></trkpt><trkpt lat="43.0731131" lon="13.2350916"><ele>472.5</ele><time>2026-04-29T16:59:47.48Z</time></trkpt><trkpt lat="43.0731386" lon="13.2349228"><ele>473.0</ele><time>2026-04-29T16:59:48.484Z</time></trkpt><trkpt lat="43.0731731" lon="13.2347907"><ele>473.0</ele><time>2026-04-29T16:59:49.474Z</time></trkpt><trkpt lat="43.0732287" lon="13.2346809"><ele>472.99999999999994</ele><time>2026-04-29T16:59:50.469Z</time></trkpt><trkpt lat="43.0732948" lon="13.2345994"><ele>472.99999999999994</ele><time>2026-04-29T16:59:51.48Z</time></trkpt><trkpt lat="43.0733606" lon="13.2345252"><ele>473.0</ele><time>2026-04-29T16:59:52.53Z</time></trkpt><trkpt lat="43.0734453" lon="13.2344426"><ele>473.0</ele><time>2026-04-29T16:59:53.48Z</time></trkpt><trkpt lat="43.0735525" lon="13.2343544"><ele>479.3333333333333</ele><time>2026-04-29T16:59:54.471Z</time></trkpt><trkpt lat="43.0736904" lon="13.2342712"><ele>485.66666666666663</ele><time>2026-04-29T16:59:55.458Z</time></trkpt><trkpt lat="43.0738565" lon="13.2341702"><ele>492.0</ele><time>2026-04-29T16:59:56.476Z</time></trkpt><trkpt lat="43.0739839" lon="13.2340288"><ele>500.75</ele><time>2026-04-29T16:59:57.483Z</time></trkpt><trkpt lat="43.0741114" lon="13.2339004"><ele>509.5</ele><time>2026-04-29T16:59:58.54Z</time></trkpt><trkpt lat="43.0742195" lon="13.2338071"><ele>518.25</ele><time>2026-04-29T16:59:59.47Z</time></trkpt><trkpt lat="43.0743296" lon="13.2337447"><ele>527.0</ele><time>2026-04-29T17:00:00.475Z</time></trkpt><trkpt lat="43.074481" lon="13.2337258"><ele>527.0</ele><time>2026-04-29T17:00:01.477Z</time></trkpt><trkpt lat="43.0746154" lon="13.2336815"><ele>527.0</ele><time>2026-04-29T17:00:02.48Z</time></trkpt><trkpt lat="43.0747344" lon="13.2336503"><ele>527.0</ele><time>2026-04-29T17:00:03.484Z</time></trkpt><trkpt lat="43.0748474" lon="13.233609"><ele>527.0</ele><time>2026-04-29T17:00:04.522Z</time></trkpt><trkpt lat="43.0749742" lon="13.2335271"><ele>528.8000000000001</ele><time>2026-04-29T17:00:05.48Z</time></trkpt><trkpt lat="43.0750795" lon="13.2334638"><ele>530.6</ele><time>2026-04-29T17:00:06.484Z</time></trkpt><trkpt lat="43.0751662" lon="13.2334318"><ele>532.4000000000001</ele><time>2026-04-29T17:00:07.478Z</time></trkpt><trkpt lat="43.0752743" lon="13.2334181"><ele>534.2</ele><time>2026-04-29T17:00:08.482Z</time></trkpt><trkpt lat="43.0753806" lon="13.233388"><ele>536.0</ele><time>2026-04-29T17:00:09.481Z</time></trkpt><trkpt lat="43.0754878" lon="13.2333699"><ele>536.0</ele><time>2026-04-29T17:00:10.53Z</time></trkpt><trkpt lat="43.0756105" lon="13.2333219"><ele>536.0</ele><time>2026-04-29T17:00:11.488Z</time></trkpt><trkpt lat="43.0757288" lon="13.2332558"><ele>536.0</ele><time>2026-04-29T17:00:12.476Z</time></trkpt><trkpt lat="43.0758178" lon="13.2332102"><ele>536.0</ele><time>2026-04-29T17:00:13.47Z</time></trkpt><trkpt lat="43.0758831" lon="13.2332022"><ele>536.0</ele><time>2026-04-29T17:00:14.49Z</time></trkpt><trkpt lat="43.0759918" lon="13.2332685"><ele>539.75</ele><time>2026-04-29T17:00:16.472Z</time></trkpt><trkpt lat="43.0760042" lon="13.2334373"><ele>543.5</ele><time>2026-04-29T17:00:18.488Z</time></trkpt><trkpt lat="43.0759483" lon="13.2335565"><ele>547.25</ele><time>2026-04-29T17:00:19.499Z</time></trkpt><trkpt lat="43.0758781" lon="13.2336953"><ele>551.0</ele><time>2026-04-29T17:00:20.496Z</time></trkpt><trkpt lat="43.075781" lon="13.2338634"><ele>548.75</ele><time>2026-04-29T17:00:21.52Z</time></trkpt><trkpt lat="43.0756795" lon="13.2340282"><ele>546.5</ele><time>2026-04-29T17:00:22.482Z</time></trkpt><trkpt lat="43.0755853" lon="13.2341947"><ele>544.25</ele><time>2026-04-29T17:00:23.486Z</time></trkpt><trkpt lat="43.0755153" lon="13.2343492"><ele>542.0</ele><time>2026-04-29T17:00:24.473Z</time></trkpt><trkpt lat="43.0754632" lon="13.2344945"><ele>542.0</ele><time>2026-04-29T17:00:25.497Z</time></trkpt><trkpt lat="43.0754198" lon="13.2346458"><ele>542.0</ele><time>2026-04-29T17:00:26.472Z</time></trkpt><trkpt lat="43.0754033" lon="13.234767"><ele>542.0</ele><time>2026-04-29T17:00:27.488Z</time></trkpt><trkpt lat="43.0754174" lon="13.2348762"><ele>542.0</ele><time>2026-04-29T17:00:28.445Z</time></trkpt><trkpt lat="43.0754488" lon="13.2349862"><ele>542.0</ele><time>2026-04-29T17:00:29.485Z</time></trkpt><trkpt lat="43.0754928" lon="13.2350766"><ele>546.6</ele><time>2026-04-29T17:00:30.473Z</time></trkpt><trkpt lat="43.0755602" lon="13.2351388"><ele>551.2</ele><time>2026-04-29T17:00:31.486Z</time></trkpt><trkpt lat="43.0756476" lon="13.2351633"><ele>555.8</ele><time>2026-04-29T17:00:32.495Z</time></trkpt><trkpt lat="43.0757607" lon="13.2351603"><ele>560.4</ele><time>2026-04-29T17:00:33.475Z</time></trkpt><trkpt lat="43.0758744" lon="13.2351553"><ele>565.0</ele><time>2026-04-29T17:00:34.477Z</time></trkpt><trkpt lat="43.0759929" lon="13.2351201"><ele>567.5</ele><time>2026-04-29T17:00:35.48Z</time></trkpt><trkpt lat="43.0761195" lon="13.2350956"><ele>570.0</ele><time>2026-04-29T17:00:36.477Z</time></trkpt><trkpt lat="43.0762713" lon="13.2350622"><ele>572.5</ele><time>2026-04-29T17:00:37.45Z</time></trkpt><trkpt lat="43.07642" lon="13.2350436"><ele>575.0</ele><time>2026-04-29T17:00:38.481Z</time></trkpt><trkpt lat="43.0765567" lon="13.2350542"><ele>576.6</ele><time>2026-04-29T17:00:39.497Z</time></trkpt><trkpt lat="43.0766807" lon="13.2350588"><ele>578.2</ele><time>2026-04-29T17:00:40.482Z</time></trkpt><trkpt lat="43.076766" lon="13.2350391"><ele>579.8</ele><time>2026-04-29T17:00:41.474Z</time></trkpt><trkpt lat="43.0768474" lon="13.2349787"><ele>581.4</ele><time>2026-04-29T17:00:42.492Z</time></trkpt><trkpt lat="43.0769193" lon="13.2348497"><ele>583.0</ele><time>2026-04-29T17:00:43.534Z</time></trkpt><trkpt lat="43.0770008" lon="13.2347119"><ele>583.0</ele><time>2026-04-29T17:00:44.479Z</time></trkpt><trkpt lat="43.0770926" lon="13.2345841"><ele>583.0</ele><time>2026-04-29T17:00:45.493Z</time></trkpt><trkpt lat="43.077219" lon="13.2344589"><ele>583.0</ele><time>2026-04-29T17:00:46.46Z</time></trkpt><trkpt lat="43.0773406" lon="13.2343528"><ele>583.0</ele><time>2026-04-29T17:00:47.458Z</time></trkpt><trkpt lat="43.0774484" lon="13.2342671"><ele>587.4</ele><time>2026-04-29T17:00:48.483Z</time></trkpt><trkpt lat="43.0775403" lon="13.2342223"><ele>591.8</ele><time>2026-04-29T17:00:49.528Z</time></trkpt><trkpt lat="43.0776188" lon="13.2342157"><ele>596.2</ele><time>2026-04-29T17:00:50.45Z</time></trkpt><trkpt lat="43.0777004" lon="13.2342225"><ele>600.6</ele><time>2026-04-29T17:00:51.463Z</time></trkpt><trkpt lat="43.0778023" lon="13.2342221"><ele>605.0</ele><time>2026-04-29T17:00:52.448Z</time></trkpt><trkpt lat="43.0779121" lon="13.2342209"><ele>605.0</ele><time>2026-04-29T17:00:53.474Z</time></trkpt><trkpt lat="43.0780262" lon="13.2341758"><ele>605.0</ele><time>2026-04-29T17:00:54.466Z</time></trkpt><trkpt lat="43.0781437" lon="13.2340837"><ele>605.0</ele><time>2026-04-29T17:00:55.526Z</time></trkpt><trkpt lat="43.0782661" lon="13.2339527"><ele>605.0</ele><time>2026-04-29T17:00:56.479Z</time></trkpt><trkpt lat="43.0784093" lon="13.2338056"><ele>607.5</ele><time>2026-04-29T17:00:57.487Z</time></trkpt><trkpt lat="43.078527" lon="13.2336973"><ele>610.0</ele><time>2026-04-29T17:00:58.492Z</time></trkpt><trkpt lat="43.0786372" lon="13.2335966"><ele>612.5</ele><time>2026-04-29T17:00:59.504Z</time></trkpt><trkpt lat="43.0787532" lon="13.2335153"><ele>615.0</ele><time>2026-04-29T17:01:00.483Z</time></trkpt><trkpt lat="43.0788859" lon="13.233469"><ele>615.0</ele><time>2026-04-29T17:01:01.483Z</time></trkpt><trkpt lat="43.0790065" lon="13.2334337"><ele>615.0</ele><time>2026-04-29T17:01:02.475Z</time></trkpt><trkpt lat="43.0791073" lon="13.2334267"><ele>615.0</ele><time>2026-04-29T17:01:03.489Z</time></trkpt><trkpt lat="43.0792034" lon="13.233441"><ele>615.0</ele><time>2026-04-29T17:01:04.476Z</time></trkpt><trkpt lat="43.0793227" lon="13.233477"><ele>615.0</ele><time>2026-04-29T17:01:05.469Z</time></trkpt><trkpt lat="43.0794551" lon="13.233523"><ele>621.5</ele><time>2026-04-29T17:01:06.474Z</time></trkpt><trkpt lat="43.0796" lon="13.2335771"><ele>628.0</ele><time>2026-04-29T17:01:07.485Z</time></trkpt><trkpt lat="43.0797317" lon="13.2336261"><ele>634.5</ele><time>2026-04-29T17:01:08.47Z</time></trkpt><trkpt lat="43.0798335" lon="13.2336449"><ele>641.0</ele><time>2026-04-29T17:01:09.444Z</time></trkpt><trkpt lat="43.0799231" lon="13.2336583"><ele>645.1999999999999</ele><time>2026-04-29T17:01:10.483Z</time></trkpt><trkpt lat="43.0800085" lon="13.233642"><ele>649.4</ele><time>2026-04-29T17:01:11.436Z</time></trkpt><trkpt lat="43.0800951" lon="13.2335807"><ele>653.6</ele><time>2026-04-29T17:01:12.425Z</time></trkpt><trkpt lat="43.080188" lon="13.2335052"><ele>657.8</ele><time>2026-04-29T17:01:13.444Z</time></trkpt><trkpt lat="43.0802818" lon="13.233425"><ele>662.0</ele><time>2026-04-29T17:01:14.445Z</time></trkpt><trkpt lat="43.080368" lon="13.2333502"><ele>662.0</ele><time>2026-04-29T17:01:15.507Z</time></trkpt><trkpt lat="43.0804497" lon="13.2332835"><ele>662.0</ele><time>2026-04-29T17:01:16.488Z</time></trkpt><trkpt lat="43.0805481" lon="13.2332476"><ele>662.0</ele><time>2026-04-29T17:01:17.476Z</time></trkpt><trkpt lat="43.0806557" lon="13.2332088"><ele>662.0</ele><time>2026-04-29T17:01:18.483Z</time></trkpt><trkpt lat="43.0807884" lon="13.2331792"><ele>662.0</ele><time>2026-04-29T17:01:19.471Z</time></trkpt><trkpt lat="43.0809316" lon="13.2331361"><ele>671.0</ele><time>2026-04-29T17:01:20.462Z</time></trkpt><trkpt lat="43.0810873" lon="13.2330911"><ele>680.0</ele><time>2026-04-29T17:01:21.482Z</time></trkpt><trkpt lat="43.0812401" lon="13.2330507"><ele>689.0</ele><time>2026-04-29T17:01:22.479Z</time></trkpt><trkpt lat="43.0813759" lon="13.2329986"><ele>689.0</ele><time>2026-04-29T17:01:23.45Z</time></trkpt><trkpt lat="43.0815095" lon="13.2329384"><ele>689.0</ele><time>2026-04-29T17:01:24.473Z</time></trkpt><trkpt lat="43.0816335" lon="13.2328461"><ele>689.0</ele><time>2026-04-29T17:01:25.47Z</time></trkpt><trkpt lat="43.0817576" lon="13.2327585"><ele>689.0</ele><time>2026-04-29T17:01:26.484Z</time></trkpt><trkpt lat="43.0818712" lon="13.2326776"><ele>688.2</ele><time>2026-04-29T17:01:27.46Z</time></trkpt><trkpt lat="43.0819594" lon="13.2326206"><ele>687.4000000000001</ele><time>2026-04-29T17:01:28.445Z</time></trkpt><trkpt lat="43.0820348" lon="13.2325839"><ele>686.6</ele><time>2026-04-29T17:01:29.479Z</time></trkpt><trkpt lat="43.0821921" lon="13.2326017"><ele>685.8</ele><time>2026-04-29T17:01:31.482Z</time></trkpt><trkpt lat="43.0822782" lon="13.2326874"><ele>685.0</ele><time>2026-04-29T17:01:32.459Z</time></trkpt><trkpt lat="43.0823473" lon="13.2327749"><ele>685.0</ele><time>2026-04-29T17:01:33.424Z</time></trkpt><trkpt lat="43.0824213" lon="13.2328365"><ele>685.0</ele><time>2026-04-29T17:01:34.468Z</time></trkpt><trkpt lat="43.082509" lon="13.232866"><ele>685.0</ele><time>2026-04-29T17:01:35.481Z</time></trkpt><trkpt lat="43.0825935" lon="13.2328752"><ele>685.0</ele><time>2026-04-29T17:01:36.488Z</time></trkpt><trkpt lat="43.082677" lon="13.2328754"><ele>685.0</ele><time>2026-04-29T17:01:37.48Z</time></trkpt><trkpt lat="43.0827709" lon="13.2328328"><ele>685.0</ele><time>2026-04-29T17:01:38.455Z</time></trkpt><trkpt lat="43.0828827" lon="13.2327714"><ele>683.6</ele><time>2026-04-29T17:01:39.482Z</time></trkpt><trkpt lat="43.0829973" lon="13.2327186"><ele>682.2</ele><time>2026-04-29T17:01:40.47Z</time></trkpt><trkpt lat="43.0831005" lon="13.2326896"><ele>680.8</ele><time>2026-04-29T17:01:41.484Z</time></trkpt><trkpt lat="43.0832027" lon="13.2326958"><ele>679.4</ele><time>2026-04-29T17:01:42.483Z</time></trkpt><trkpt lat="43.0833131" lon="13.2327211"><ele>678.0</ele><time>2026-04-29T17:01:43.451Z</time></trkpt><trkpt lat="43.0834378" lon="13.23278"><ele>674.75</ele><time>2026-04-29T17:01:44.496Z</time></trkpt><trkpt lat="43.083559" lon="13.2328429"><ele>671.5</ele><time>2026-04-29T17:01:45.493Z</time></trkpt><trkpt lat="43.0836724" lon="13.2329032"><ele>668.25</ele><time>2026-04-29T17:01:46.478Z</time></trkpt><trkpt lat="43.0837923" lon="13.2329625"><ele>665.0</ele><time>2026-04-29T17:01:47.479Z</time></trkpt><trkpt lat="43.083908" lon="13.2330184"><ele>665.0</ele><time>2026-04-29T17:01:48.44Z</time></trkpt><trkpt lat="43.0840109" lon="13.2330725"><ele>665.0</ele><time>2026-04-29T17:01:49.477Z</time></trkpt><trkpt lat="43.0841178" lon="13.2331253"><ele>665.0</ele><time>2026-04-29T17:01:50.47Z</time></trkpt><trkpt lat="43.0842204" lon="13.2331632"><ele>665.0</ele><time>2026-04-29T17:01:51.471Z</time></trkpt><trkpt lat="43.0843322" lon="13.2331761"><ele>665.0</ele><time>2026-04-29T17:01:52.485Z</time></trkpt><trkpt lat="43.084446" lon="13.2331831"><ele>661.2</ele><time>2026-04-29T17:01:53.46Z</time></trkpt><trkpt lat="43.0845715" lon="13.2331903"><ele>657.4</ele><time>2026-04-29T17:01:54.466Z</time></trkpt><trkpt lat="43.0846882" lon="13.2331899"><ele>653.5999999999999</ele><time>2026-04-29T17:01:55.492Z</time></trkpt><trkpt lat="43.0847823" lon="13.2331822"><ele>649.8</ele><time>2026-04-29T17:01:56.482Z</time></trkpt><trkpt lat="43.0848644" lon="13.2331838"><ele>646.0</ele><time>2026-04-29T17:01:57.488Z</time></trkpt><trkpt lat="43.0849345" lon="13.2331819"><ele>643.8333333333334</ele><time>2026-04-29T17:01:58.454Z</time></trkpt><trkpt lat="43.0850027" lon="13.2331859"><ele>641.6666666666667</ele><time>2026-04-29T17:01:59.466Z</time></trkpt><trkpt lat="43.0850685" lon="13.2331846"><ele>639.5</ele><time>2026-04-29T17:02:00.476Z</time></trkpt><trkpt lat="43.085172" lon="13.2331677"><ele>637.3333333333334</ele><time>2026-04-29T17:02:02.487Z</time></trkpt><trkpt lat="43.0852313" lon="13.2331153"><ele>635.1666666666666</ele><time>2026-04-29T17:02:05.482Z</time></trkpt><trkpt lat="43.0851674" lon="13.2330827"><ele>633.0</ele><time>2026-04-29T17:02:14.473Z</time></trkpt><trkpt lat="43.0850182" lon="13.2331005"><ele>633.0</ele><time>2026-04-29T17:02:16.476Z</time></trkpt><trkpt lat="43.084945" lon="13.2331139"><ele>633.0</ele><time>2026-04-29T17:02:17.485Z</time></trkpt><trkpt lat="43.0848836" lon="13.2331432"><ele>633.0</ele><time>2026-04-29T17:02:19.488Z</time></trkpt><trkpt lat="43.0848846" lon="13.2332509"><ele>633.0</ele><time>2026-04-29T17:02:23.459Z</time></trkpt><trkpt lat="43.0849197" lon="13.2334243"><ele>633.0</ele><time>2026-04-29T17:02:25.538Z</time></trkpt><trkpt lat="43.0849521" lon="13.2335345"><ele>633.0</ele><time>2026-04-29T17:02:26.48Z</time></trkpt><trkpt lat="43.084999" lon="13.2336452"><ele>633.0</ele><time>2026-04-29T17:02:27.473Z</time></trkpt><trkpt lat="43.0850399" lon="13.2337958"><ele>633.0</ele><time>2026-04-29T17:02:28.472Z</time></trkpt><trkpt lat="43.0850711" lon="13.2339556"><ele>633.0</ele><time>2026-04-29T17:02:29.487Z</time></trkpt><trkpt lat="43.0850947" lon="13.2340794"><ele>633.0</ele><time>2026-04-29T17:02:30.466Z</time></trkpt><trkpt lat="43.0851161" lon="13.2342218"><ele>633.0</ele><time>2026-04-29T17:02:31.471Z</time></trkpt><trkpt lat="43.0851683" lon="13.2343504"><ele>634.4</ele><time>2026-04-29T17:02:32.47Z</time></trkpt><trkpt lat="43.0852156" lon="13.2344738"><ele>635.8</ele><time>2026-04-29T17:02:33.462Z</time></trkpt><trkpt lat="43.0852514" lon="13.2345773"><ele>637.2</ele><time>2026-04-29T17:02:34.496Z</time></trkpt><trkpt lat="43.0852575" lon="13.2346965"><ele>638.6</ele><time>2026-04-29T17:02:35.474Z</time></trkpt><trkpt lat="43.0852456" lon="13.2347852"><ele>640.0</ele><time>2026-04-29T17:02:36.476Z</time></trkpt><trkpt lat="43.0852249" lon="13.2349532"><ele>640.0</ele><time>2026-04-29T17:02:38.479Z</time></trkpt><trkpt lat="43.0852284" lon="13.2351164"><ele>640.0</ele><time>2026-04-29T17:02:40.471Z</time></trkpt><trkpt lat="43.0852304" lon="13.2352461"><ele>640.0</ele><time>2026-04-29T17:02:42.478Z</time></trkpt><trkpt lat="43.0852976" lon="13.2353668"><ele>640.0</ele><time>2026-04-29T17:02:44.461Z</time></trkpt><trkpt lat="43.0853605" lon="13.2354235"><ele>640.0</ele><time>2026-04-29T17:02:45.469Z</time></trkpt><trkpt lat="43.0854299" lon="13.2354815"><ele>640.0</ele><time>2026-04-29T17:02:46.483Z</time></trkpt><trkpt lat="43.0855152" lon="13.2355373"><ele>640.0</ele><time>2026-04-29T17:02:47.488Z</time></trkpt><trkpt lat="43.0856209" lon="13.2356068"><ele>640.0</ele><time>2026-04-29T17:02:48.441Z</time></trkpt><trkpt lat="43.0857226" lon="13.2356776"><ele>640.0</ele><time>2026-04-29T17:02:49.44Z</time></trkpt><trkpt lat="43.0858344" lon="13.2357545"><ele>636.75</ele><time>2026-04-29T17:02:50.45Z</time></trkpt><trkpt lat="43.0859559" lon="13.2358403"><ele>633.5</ele><time>2026-04-29T17:02:51.464Z</time></trkpt><trkpt lat="43.0860801" lon="13.235921"><ele>630.25</ele><time>2026-04-29T17:02:52.458Z</time></trkpt><trkpt lat="43.0861931" lon="13.2359959"><ele>627.0</ele><time>2026-04-29T17:02:53.481Z</time></trkpt><trkpt lat="43.0862901" lon="13.2360607"><ele>627.0</ele><time>2026-04-29T17:02:54.483Z</time></trkpt><trkpt lat="43.0863686" lon="13.2361122"><ele>627.0</ele><time>2026-04-29T17:02:55.483Z</time></trkpt><trkpt lat="43.0864376" lon="13.2361811"><ele>627.0</ele><time>2026-04-29T17:02:56.444Z</time></trkpt><trkpt lat="43.0864827" lon="13.2362573"><ele>627.0</ele><time>2026-04-29T17:02:57.474Z</time></trkpt><trkpt lat="43.0865295" lon="13.2363364"><ele>627.0</ele><time>2026-04-29T17:02:58.488Z</time></trkpt><trkpt lat="43.0865824" lon="13.2364433"><ele>627.0</ele><time>2026-04-29T17:02:59.467Z</time></trkpt><trkpt lat="43.0866546" lon="13.2365646"><ele>626.4</ele><time>2026-04-29T17:03:00.485Z</time></trkpt><trkpt lat="43.0867292" lon="13.236701"><ele>625.8000000000001</ele><time>2026-04-29T17:03:01.468Z</time></trkpt><trkpt lat="43.086797" lon="13.2368232"><ele>625.2</ele><time>2026-04-29T17:03:02.481Z</time></trkpt><trkpt lat="43.0868504" lon="13.2369171"><ele>624.6</ele><time>2026-04-29T17:03:03.525Z</time></trkpt><trkpt lat="43.0868927" lon="13.2369968"><ele>624.0</ele><time>2026-04-29T17:03:04.462Z</time></trkpt><trkpt lat="43.0869568" lon="13.2371069"><ele>624.0</ele><time>2026-04-29T17:03:06.493Z</time></trkpt><trkpt lat="43.0870235" lon="13.2371874"><ele>624.0</ele><time>2026-04-29T17:03:08.485Z</time></trkpt><trkpt lat="43.0870916" lon="13.2373078"><ele>624.0</ele><time>2026-04-29T17:03:10.472Z</time></trkpt><trkpt lat="43.0871643" lon="13.2374639"><ele>624.0</ele><time>2026-04-29T17:03:12.447Z</time></trkpt><trkpt lat="43.0872134" lon="13.2375759"><ele>624.0</ele><time>2026-04-29T17:03:13.469Z</time></trkpt><trkpt lat="43.0872603" lon="13.2376825"><ele>624.3333333333334</ele><time>2026-04-29T17:03:14.514Z</time></trkpt><trkpt lat="43.087296" lon="13.2377906"><ele>624.6666666666666</ele><time>2026-04-29T17:03:15.492Z</time></trkpt><trkpt lat="43.0873326" lon="13.2378976"><ele>625.0</ele><time>2026-04-29T17:03:16.474Z</time></trkpt><trkpt lat="43.0873688" lon="13.2380029"><ele>625.3333333333333</ele><time>2026-04-29T17:03:17.488Z</time></trkpt><trkpt lat="43.087396" lon="13.2380874"><ele>625.6666666666666</ele><time>2026-04-29T17:03:18.478Z</time></trkpt><trkpt lat="43.0874238" lon="13.2381675"><ele>626.0</ele><time>2026-04-29T17:03:19.475Z</time></trkpt><trkpt lat="43.0874388" lon="13.2382589"><ele>626.0</ele><time>2026-04-29T17:03:20.494Z</time></trkpt><trkpt lat="43.0874424" lon="13.2383659"><ele>626.0</ele><time>2026-04-29T17:03:21.487Z</time></trkpt><trkpt lat="43.0874456" lon="13.2384776"><ele>626.0</ele><time>2026-04-29T17:03:22.495Z</time></trkpt><trkpt lat="43.0874416" lon="13.2385956"><ele>626.0</ele><time>2026-04-29T17:03:23.462Z</time></trkpt><trkpt lat="43.0874454" lon="13.238717"><ele>626.0</ele><time>2026-04-29T17:03:24.457Z</time></trkpt><trkpt lat="43.0874641" lon="13.2388476"><ele>626.0</ele><time>2026-04-29T17:03:25.489Z</time></trkpt><trkpt lat="43.0874899" lon="13.238951"><ele>627.8333333333333</ele><time>2026-04-29T17:03:26.478Z</time></trkpt><trkpt lat="43.0875061" lon="13.2391071"><ele>629.6666666666666</ele><time>2026-04-29T17:03:28.479Z</time></trkpt><trkpt lat="43.0875065" lon="13.2392023"><ele>631.5</ele><time>2026-04-29T17:03:29.474Z</time></trkpt><trkpt lat="43.087527" lon="13.2392907"><ele>633.3333333333334</ele><time>2026-04-29T17:03:30.501Z</time></trkpt><trkpt lat="43.087562" lon="13.2393737"><ele>635.1666666666667</ele><time>2026-04-29T17:03:31.471Z</time></trkpt><trkpt lat="43.0875973" lon="13.2394453"><ele>637.0</ele><time>2026-04-29T17:03:32.509Z</time></trkpt><trkpt lat="43.087621" lon="13.2395358"><ele>637.0</ele><time>2026-04-29T17:03:33.477Z</time></trkpt><trkpt lat="43.0876141" lon="13.239633"><ele>637.0</ele><time>2026-04-29T17:03:34.476Z</time></trkpt><trkpt lat="43.0875949" lon="13.2397261"><ele>637.0</ele><time>2026-04-29T17:03:35.467Z</time></trkpt><trkpt lat="43.0875357" lon="13.2397908"><ele>637.0</ele><time>2026-04-29T17:03:36.469Z</time></trkpt><trkpt lat="43.0874795" lon="13.2398527"><ele>637.0</ele><time>2026-04-29T17:03:37.503Z</time></trkpt><trkpt lat="43.0874293" lon="13.2399336"><ele>637.0</ele><time>2026-04-29T17:03:38.528Z</time></trkpt><trkpt lat="43.0873849" lon="13.2400403"><ele>639.4000000000001</ele><time>2026-04-29T17:03:39.457Z</time></trkpt><trkpt lat="43.0873189" lon="13.2401634"><ele>641.8000000000001</ele><time>2026-04-29T17:03:41.444Z</time></trkpt><trkpt lat="43.0872698" lon="13.240315"><ele>644.2</ele><time>2026-04-29T17:03:43.489Z</time></trkpt><trkpt lat="43.0872593" lon="13.2404293"><ele>646.6</ele><time>2026-04-29T17:03:44.444Z</time></trkpt><trkpt lat="43.0872732" lon="13.2405791"><ele>649.0</ele><time>2026-04-29T17:03:45.487Z</time></trkpt><trkpt lat="43.0872506" lon="13.2407576"><ele>650.0</ele><time>2026-04-29T17:03:46.435Z</time></trkpt><trkpt lat="43.0872344" lon="13.2409112"><ele>651.0</ele><time>2026-04-29T17:03:47.473Z</time></trkpt><trkpt lat="43.0872196" lon="13.2410292"><ele>652.0</ele><time>2026-04-29T17:03:48.483Z</time></trkpt><trkpt lat="43.0872001" lon="13.2411725"><ele>653.0</ele><time>2026-04-29T17:03:50.477Z</time></trkpt><trkpt lat="43.0871555" lon="13.2413252"><ele>654.0</ele><time>2026-04-29T17:03:52.472Z</time></trkpt><trkpt lat="43.0871219" lon="13.2414239"><ele>653.3333333333334</ele><time>2026-04-29T17:03:53.485Z</time></trkpt><trkpt lat="43.0871007" lon="13.2415171"><ele>652.6666666666666</ele><time>2026-04-29T17:03:54.435Z</time></trkpt><trkpt lat="43.0870878" lon="13.2416068"><ele>652.0</ele><time>2026-04-29T17:03:55.488Z</time></trkpt><trkpt lat="43.0870753" lon="13.2417037"><ele>651.3333333333333</ele><time>2026-04-29T17:03:56.487Z</time></trkpt><trkpt lat="43.0870617" lon="13.2418225"><ele>650.6666666666666</ele><time>2026-04-29T17:03:57.481Z</time></trkpt><trkpt lat="43.0870507" lon="13.2419965"><ele>650.0</ele><time>2026-04-29T17:03:58.488Z</time></trkpt><trkpt lat="43.0870524" lon="13.2421784"><ele>648.8</ele><time>2026-04-29T17:03:59.446Z</time></trkpt><trkpt lat="43.0870538" lon="13.2423504"><ele>647.6</ele><time>2026-04-29T17:04:00.486Z</time></trkpt><trkpt lat="43.0870663" lon="13.2424697"><ele>646.4000000000001</ele><time>2026-04-29T17:04:01.461Z</time></trkpt><trkpt lat="43.0870791" lon="13.2425924"><ele>645.2</ele><time>2026-04-29T17:04:02.454Z</time></trkpt><trkpt lat="43.0870956" lon="13.2427262"><ele>644.0</ele><time>2026-04-29T17:04:03.444Z</time></trkpt><trkpt lat="43.0871125" lon="13.2428471"><ele>644.0</ele><time>2026-04-29T17:04:04.443Z</time></trkpt><trkpt lat="43.087134" lon="13.2429725"><ele>644.0</ele><time>2026-04-29T17:04:05.491Z</time></trkpt><trkpt lat="43.0871542" lon="13.24309"><ele>644.0</ele><time>2026-04-29T17:04:06.492Z</time></trkpt><trkpt lat="43.0871628" lon="13.2432094"><ele>644.0</ele><time>2026-04-29T17:04:07.497Z</time></trkpt><trkpt lat="43.0871568" lon="13.2433192"><ele>644.0</ele><time>2026-04-29T17:04:08.477Z</time></trkpt><trkpt lat="43.0871491" lon="13.2434105"><ele>644.0</ele><time>2026-04-29T17:04:09.452Z</time></trkpt><trkpt lat="43.0871322" lon="13.2435726"><ele>643.6666666666666</ele><time>2026-04-29T17:04:11.487Z</time></trkpt><trkpt lat="43.0871162" lon="13.2436592"><ele>643.3333333333333</ele><time>2026-04-29T17:04:12.454Z</time></trkpt><trkpt lat="43.087098" lon="13.2437516"><ele>643.0</ele><time>2026-04-29T17:04:13.454Z</time></trkpt><trkpt lat="43.0870729" lon="13.2438769"><ele>642.6666666666666</ele><time>2026-04-29T17:04:14.453Z</time></trkpt><trkpt lat="43.0870469" lon="13.2439774"><ele>642.3333333333334</ele><time>2026-04-29T17:04:15.47Z</time></trkpt><trkpt lat="43.0870117" lon="13.2441039"><ele>642.0</ele><time>2026-04-29T17:04:17.484Z</time></trkpt><trkpt lat="43.0870601" lon="13.2441912"><ele>641.9999999999999</ele><time>2026-04-29T17:05:00.477Z</time></trkpt><trkpt lat="43.087126" lon="13.2441457"><ele>642.0</ele><time>2026-04-29T17:05:03.458Z</time></trkpt><trkpt lat="43.087184" lon="13.2440652"><ele>642.0</ele><time>2026-04-29T17:05:05.476Z</time></trkpt><trkpt lat="43.0872405" lon="13.2440014"><ele>642.0</ele><time>2026-04-29T17:05:07.466Z</time></trkpt><trkpt lat="43.087288" lon="13.2439445"><ele>642.0</ele><time>2026-04-29T17:05:09.475Z</time></trkpt><trkpt lat="43.0873339" lon="13.2438823"><ele>641.9999999999999</ele><time>2026-04-29T17:05:11.464Z</time></trkpt><trkpt lat="43.0873846" lon="13.2438097"><ele>642.0</ele><time>2026-04-29T17:05:13.528Z</time></trkpt><trkpt lat="43.0874331" lon="13.2437165"><ele>641.2</ele><time>2026-04-29T17:05:15.481Z</time></trkpt><trkpt lat="43.0874806" lon="13.2436187"><ele>640.4000000000001</ele><time>2026-04-29T17:05:17.48Z</time></trkpt><trkpt lat="43.0875352" lon="13.243489"><ele>639.5999999999999</ele><time>2026-04-29T17:05:19.493Z</time></trkpt><trkpt lat="43.08759" lon="13.24333"><ele>638.8</ele><time>2026-04-29T17:05:21.478Z</time></trkpt><trkpt lat="43.0876179" lon="13.2432341"><ele>638.0</ele><time>2026-04-29T17:05:22.492Z</time></trkpt><trkpt lat="43.0876452" lon="13.2431306"><ele>638.0</ele><time>2026-04-29T17:05:23.47Z</time></trkpt><trkpt lat="43.0876723" lon="13.2430254"><ele>638.0</ele><time>2026-04-29T17:05:24.471Z</time></trkpt><trkpt lat="43.0876988" lon="13.2429172"><ele>638.0</ele><time>2026-04-29T17:05:25.474Z</time></trkpt><trkpt lat="43.087724" lon="13.2428101"><ele>638.0</ele><time>2026-04-29T17:05:26.477Z</time></trkpt><trkpt lat="43.0877498" lon="13.2426974"><ele>638.0</ele><time>2026-04-29T17:05:27.46Z</time></trkpt><trkpt lat="43.0877759" lon="13.2425841"><ele>638.0</ele><time>2026-04-29T17:05:28.468Z</time></trkpt><trkpt lat="43.0878018" lon="13.2424824"><ele>638.0</ele><time>2026-04-29T17:05:29.485Z</time></trkpt><trkpt lat="43.0878273" lon="13.2423867"><ele>638.0</ele><time>2026-04-29T17:05:30.493Z</time></trkpt><trkpt lat="43.0878511" lon="13.2423052"><ele>638.0</ele><time>2026-04-29T17:05:31.461Z</time></trkpt><trkpt lat="43.087888" lon="13.2421824"><ele>638.0</ele><time>2026-04-29T17:05:33.444Z</time></trkpt><trkpt lat="43.0879215" lon="13.2420764"><ele>638.0</ele><time>2026-04-29T17:05:35.465Z</time></trkpt><trkpt lat="43.0879523" lon="13.2419708"><ele>638.0</ele><time>2026-04-29T17:05:37.434Z</time></trkpt><trkpt lat="43.0879901" lon="13.2418707"><ele>638.5</ele><time>2026-04-29T17:05:39.455Z</time></trkpt><trkpt lat="43.088032" lon="13.2417657"><ele>639.0</ele><time>2026-04-29T17:05:41.459Z</time></trkpt><trkpt lat="43.0880777" lon="13.2416537"><ele>639.5</ele><time>2026-04-29T17:05:43.457Z</time></trkpt><trkpt lat="43.0881227" lon="13.2415484"><ele>640.0</ele><time>2026-04-29T17:05:45.476Z</time></trkpt><trkpt lat="43.0881688" lon="13.2414635"><ele>640.5</ele><time>2026-04-29T17:05:47.454Z</time></trkpt><trkpt lat="43.088212" lon="13.241387"><ele>641.0</ele><time>2026-04-29T17:05:49.445Z</time></trkpt><trkpt lat="43.0882759" lon="13.2413274"><ele>638.3333333333333</ele><time>2026-04-29T17:05:51.472Z</time></trkpt><trkpt lat="43.0883425" lon="13.2412558"><ele>635.6666666666666</ele><time>2026-04-29T17:05:53.474Z</time></trkpt><trkpt lat="43.0884132" lon="13.241196"><ele>633.0</ele><time>2026-04-29T17:05:55.461Z</time></trkpt><trkpt lat="43.0885013" lon="13.2411696"><ele>630.3333333333334</ele><time>2026-04-29T17:05:57.481Z</time></trkpt><trkpt lat="43.0885816" lon="13.241162"><ele>627.6666666666667</ele><time>2026-04-29T17:05:59.501Z</time></trkpt><trkpt lat="43.0886619" lon="13.2411722"><ele>625.0</ele><time>2026-04-29T17:06:01.459Z</time></trkpt><trkpt lat="43.088746" lon="13.2411718"><ele>625.0</ele><time>2026-04-29T17:06:03.493Z</time></trkpt><trkpt lat="43.0888385" lon="13.241159"><ele>625.0</ele><time>2026-04-29T17:06:05.461Z</time></trkpt><trkpt lat="43.088927" lon="13.2411436"><ele>625.0</ele><time>2026-04-29T17:06:07.485Z</time></trkpt><trkpt lat="43.0890095" lon="13.2410985"><ele>625.0</ele><time>2026-04-29T17:06:09.47Z</time></trkpt><trkpt lat="43.0890882" lon="13.2410341"><ele>625.0</ele><time>2026-04-29T17:06:12.46Z</time></trkpt><trkpt lat="43.0891737" lon="13.2409771"><ele>623.8</ele><time>2026-04-29T17:06:14.47Z</time></trkpt><trkpt lat="43.0892491" lon="13.2409345"><ele>622.6</ele><time>2026-04-29T17:06:15.457Z</time></trkpt><trkpt lat="43.0893492" lon="13.2408715"><ele>621.4</ele><time>2026-04-29T17:06:16.489Z</time></trkpt><trkpt lat="43.0894423" lon="13.240822"><ele>620.2</ele><time>2026-04-29T17:06:17.493Z</time></trkpt><trkpt lat="43.0895223" lon="13.2407762"><ele>619.0</ele><time>2026-04-29T17:06:18.48Z</time></trkpt><trkpt lat="43.0895885" lon="13.240711"><ele>619.0</ele><time>2026-04-29T17:06:19.477Z</time></trkpt><trkpt lat="43.0896414" lon="13.2406462"><ele>619.0</ele><time>2026-04-29T17:06:21.483Z</time></trkpt><trkpt lat="43.0896951" lon="13.2405692"><ele>619.0</ele><time>2026-04-29T17:06:24.475Z</time></trkpt><trkpt lat="43.0897773" lon="13.2405446"><ele>619.0</ele><time>2026-04-29T17:06:26.456Z</time></trkpt><trkpt lat="43.0898693" lon="13.2406118"><ele>619.0</ele><time>2026-04-29T17:06:28.475Z</time></trkpt><trkpt lat="43.0899579" lon="13.2407315"><ele>622.1428571428571</ele><time>2026-04-29T17:06:30.467Z</time></trkpt><trkpt lat="43.0900121" lon="13.2407944"><ele>625.2857142857143</ele><time>2026-04-29T17:06:31.442Z</time></trkpt><trkpt lat="43.0900628" lon="13.2408584"><ele>628.4285714285714</ele><time>2026-04-29T17:06:32.461Z</time></trkpt><trkpt lat="43.0901198" lon="13.2409268"><ele>631.5714285714286</ele><time>2026-04-29T17:06:33.468Z</time></trkpt><trkpt lat="43.090175" lon="13.240994"><ele>634.7142857142857</ele><time>2026-04-29T17:06:34.465Z</time></trkpt><trkpt lat="43.0902285" lon="13.2410653"><ele>637.8571428571429</ele><time>2026-04-29T17:06:35.435Z</time></trkpt><trkpt lat="43.0902722" lon="13.2411373"><ele>641.0</ele><time>2026-04-29T17:06:36.495Z</time></trkpt><trkpt lat="43.0903095" lon="13.2412145"><ele>641.0</ele><time>2026-04-29T17:06:37.463Z</time></trkpt><trkpt lat="43.0903578" lon="13.2412769"><ele>641.0</ele><time>2026-04-29T17:06:38.467Z</time></trkpt><trkpt lat="43.0904068" lon="13.2413407"><ele>641.0</ele><time>2026-04-29T17:06:39.472Z</time></trkpt><trkpt lat="43.0904855" lon="13.2414633"><ele>641.0</ele><time>2026-04-29T17:06:41.482Z</time></trkpt><trkpt lat="43.0905228" lon="13.2415401"><ele>641.0</ele><time>2026-04-29T17:06:42.461Z</time></trkpt><trkpt lat="43.0905657" lon="13.2416239"><ele>641.0</ele><time>2026-04-29T17:06:43.468Z</time></trkpt><trkpt lat="43.0906168" lon="13.2417165"><ele>639.8333333333333</ele><time>2026-04-29T17:06:44.467Z</time></trkpt><trkpt lat="43.0906679" lon="13.2418054"><ele>638.6666666666666</ele><time>2026-04-29T17:06:45.427Z</time></trkpt><trkpt lat="43.0907148" lon="13.2418825"><ele>637.5</ele><time>2026-04-29T17:06:46.478Z</time></trkpt><trkpt lat="43.0907667" lon="13.2419448"><ele>636.3333333333334</ele><time>2026-04-29T17:06:47.48Z</time></trkpt><trkpt lat="43.0908693" lon="13.2420145"><ele>635.1666666666667</ele><time>2026-04-29T17:06:49.466Z</time></trkpt><trkpt lat="43.090931" lon="13.2420417"><ele>634.0</ele><time>2026-04-29T17:06:50.429Z</time></trkpt><trkpt lat="43.0910034" lon="13.2420628"><ele>639.6</ele><time>2026-04-29T17:06:51.474Z</time></trkpt><trkpt lat="43.0910785" lon="13.2420927"><ele>645.2</ele><time>2026-04-29T17:06:52.474Z</time></trkpt><trkpt lat="43.0911665" lon="13.2421261"><ele>650.8000000000001</ele><time>2026-04-29T17:06:53.473Z</time></trkpt><trkpt lat="43.0912461" lon="13.2421488"><ele>656.4</ele><time>2026-04-29T17:06:54.454Z</time></trkpt><trkpt lat="43.0913637" lon="13.2421742"><ele>662.0</ele><time>2026-04-29T17:06:56.483Z</time></trkpt><trkpt lat="43.0914499" lon="13.2421604"><ele>662.0</ele><time>2026-04-29T17:06:58.469Z</time></trkpt><trkpt lat="43.0915466" lon="13.2420996"><ele>662.0</ele><time>2026-04-29T17:07:00.432Z</time></trkpt><trkpt lat="43.091619" lon="13.2420101"><ele>662.0</ele><time>2026-04-29T17:07:02.476Z</time></trkpt><trkpt lat="43.0917001" lon="13.2419894"><ele>662.0</ele><time>2026-04-29T17:07:04.503Z</time></trkpt><trkpt lat="43.0917783" lon="13.2419596"><ele>662.0</ele><time>2026-04-29T17:07:06.417Z</time></trkpt><trkpt lat="43.0918467" lon="13.2419327"><ele>662.0</ele><time>2026-04-29T17:07:08.458Z</time></trkpt><trkpt lat="43.0919273" lon="13.2419059"><ele>663.8333333333333</ele><time>2026-04-29T17:07:10.428Z</time></trkpt><trkpt lat="43.0919876" lon="13.2418336"><ele>665.6666666666666</ele><time>2026-04-29T17:07:13.513Z</time></trkpt><trkpt lat="43.0919384" lon="13.2417489"><ele>667.5</ele><time>2026-04-29T17:07:16.434Z</time></trkpt><trkpt lat="43.0918629" lon="13.2417422"><ele>669.3333333333334</ele><time>2026-04-29T17:07:18.467Z</time></trkpt><trkpt lat="43.0917913" lon="13.2417903"><ele>671.1666666666667</ele><time>2026-04-29T17:07:20.435Z</time></trkpt><trkpt lat="43.0917367" lon="13.2418923"><ele>673.0</ele><time>2026-04-29T17:07:22.455Z</time></trkpt><trkpt lat="43.0916749" lon="13.2419486"><ele>673.0</ele><time>2026-04-29T17:07:24.501Z</time></trkpt><trkpt lat="43.0915988" lon="13.2420044"><ele>673.0</ele><time>2026-04-29T17:07:27.451Z</time></trkpt><trkpt lat="43.0915792" lon="13.2420936"><ele>673.0</ele><time>2026-04-29T17:07:30.432Z</time></trkpt><trkpt lat="43.0915834" lon="13.2422173"><ele>673.0</ele><time>2026-04-29T17:07:32.454Z</time></trkpt><trkpt lat="43.0916094" lon="13.2423523"><ele>673.0</ele><time>2026-04-29T17:07:34.466Z</time></trkpt><trkpt lat="43.0916177" lon="13.2424583"><ele>673.0</ele><time>2026-04-29T17:07:36.487Z</time></trkpt><trkpt lat="43.091595" lon="13.2425621"><ele>673.0</ele><time>2026-04-29T17:07:40.419Z</time></trkpt><trkpt lat="43.0915212" lon="13.2425669"><ele>673.0</ele><time>2026-04-29T17:07:44.455Z</time></trkpt><trkpt lat="43.0915733" lon="13.2424943"><ele>673.0</ele><time>2026-04-29T17:07:47.482Z</time></trkpt><trkpt lat="43.0916346" lon="13.2424367"><ele>673.0</ele><time>2026-04-29T17:07:51.482Z</time></trkpt><trkpt lat="43.0916151" lon="13.2423316"><ele>673.0</ele><time>2026-04-29T17:07:54.456Z</time></trkpt><trkpt lat="43.0916013" lon="13.2422335"><ele>673.0</ele><time>2026-04-29T17:07:56.471Z</time></trkpt><trkpt lat="43.0916022" lon="13.2421264"><ele>673.0</ele><time>2026-04-29T17:07:58.488Z</time></trkpt><trkpt lat="43.0916332" lon="13.2420211"><ele>673.0</ele><time>2026-04-29T17:08:00.437Z</time></trkpt><trkpt lat="43.0916801" lon="13.2419509"><ele>673.0</ele><time>2026-04-29T17:08:02.466Z</time></trkpt><trkpt lat="43.0917554" lon="13.2418703"><ele>673.0</ele><time>2026-04-29T17:08:04.458Z</time></trkpt><trkpt lat="43.0918381" lon="13.2417492"><ele>673.0</ele><time>2026-04-29T17:08:06.452Z</time></trkpt><trkpt lat="43.0918847" lon="13.241673"><ele>673.0</ele><time>2026-04-29T17:08:07.467Z</time></trkpt><trkpt lat="43.0919341" lon="13.2415872"><ele>673.0</ele><time>2026-04-29T17:08:08.461Z</time></trkpt><trkpt lat="43.0919784" lon="13.2415044"><ele>673.0</ele><time>2026-04-29T17:08:09.476Z</time></trkpt><trkpt lat="43.0920141" lon="13.2414323"><ele>673.0</ele><time>2026-04-29T17:08:10.472Z</time></trkpt><trkpt lat="43.0920821" lon="13.2413237"><ele>673.0</ele><time>2026-04-29T17:08:12.455Z</time></trkpt><trkpt lat="43.0921664" lon="13.2412342"><ele>673.0</ele><time>2026-04-29T17:08:14.466Z</time></trkpt><trkpt lat="43.0922571" lon="13.2411288"><ele>673.3333333333334</ele><time>2026-04-29T17:08:16.493Z</time></trkpt><trkpt lat="43.0923053" lon="13.2410276"><ele>673.6666666666667</ele><time>2026-04-29T17:08:18.467Z</time></trkpt><trkpt lat="43.0923316" lon="13.2409435"><ele>674.0</ele><time>2026-04-29T17:08:20.511Z</time></trkpt><trkpt lat="43.0923671" lon="13.2408291"><ele>674.3333333333334</ele><time>2026-04-29T17:08:22.505Z</time></trkpt><trkpt lat="43.0923995" lon="13.2407197"><ele>674.6666666666666</ele><time>2026-04-29T17:08:24.47Z</time></trkpt><trkpt lat="43.0924475" lon="13.240595"><ele>675.0</ele><time>2026-04-29T17:08:26.474Z</time></trkpt><trkpt lat="43.0925484" lon="13.2405257"><ele>678.3333333333334</ele><time>2026-04-29T17:08:28.487Z</time></trkpt><trkpt lat="43.092624" lon="13.2404957"><ele>681.6666666666666</ele><time>2026-04-29T17:08:29.478Z</time></trkpt><trkpt lat="43.0927166" lon="13.2404561"><ele>685.0</ele><time>2026-04-29T17:08:30.478Z</time></trkpt><trkpt lat="43.0928237" lon="13.2404171"><ele>688.3333333333333</ele><time>2026-04-29T17:08:31.469Z</time></trkpt><trkpt lat="43.0928981" lon="13.2403857"><ele>691.6666666666666</ele><time>2026-04-29T17:08:32.458Z</time></trkpt><trkpt lat="43.0929587" lon="13.2403501"><ele>695.0</ele><time>2026-04-29T17:08:33.468Z</time></trkpt><trkpt lat="43.0930517" lon="13.2402976"><ele>695.0</ele><time>2026-04-29T17:08:35.469Z</time></trkpt><trkpt lat="43.0931257" lon="13.2402052"><ele>695.0</ele><time>2026-04-29T17:08:37.469Z</time></trkpt><trkpt lat="43.0931737" lon="13.24008"><ele>695.0</ele><time>2026-04-29T17:08:39.455Z</time></trkpt><trkpt lat="43.0931824" lon="13.2399683"><ele>695.0</ele><time>2026-04-29T17:08:41.469Z</time></trkpt><trkpt lat="43.09318" lon="13.2398459"><ele>695.0</ele><time>2026-04-29T17:08:43.502Z</time></trkpt><trkpt lat="43.0931684" lon="13.2396974"><ele>695.0</ele><time>2026-04-29T17:08:45.472Z</time></trkpt><trkpt lat="43.0931546" lon="13.2395574"><ele>695.0</ele><time>2026-04-29T17:08:47.447Z</time></trkpt><trkpt lat="43.0931439" lon="13.2394012"><ele>695.0</ele><time>2026-04-29T17:08:49.472Z</time></trkpt><trkpt lat="43.0931271" lon="13.2392435"><ele>695.0</ele><time>2026-04-29T17:08:51.481Z</time></trkpt><trkpt lat="43.0931152" lon="13.2391099"><ele>695.0</ele><time>2026-04-29T17:08:53.488Z</time></trkpt><trkpt lat="43.0931409" lon="13.2389744"><ele>693.6666666666666</ele><time>2026-04-29T17:08:55.483Z</time></trkpt><trkpt lat="43.0931739" lon="13.2388987"><ele>692.3333333333333</ele><time>2026-04-29T17:08:56.436Z</time></trkpt><trkpt lat="43.0932273" lon="13.2388146"><ele>691.0</ele><time>2026-04-29T17:08:57.439Z</time></trkpt><trkpt lat="43.0932982" lon="13.2387191"><ele>689.6666666666666</ele><time>2026-04-29T17:08:58.459Z</time></trkpt><trkpt lat="43.0933678" lon="13.2386299"><ele>688.3333333333334</ele><time>2026-04-29T17:08:59.491Z</time></trkpt><trkpt lat="43.0934313" lon="13.238543"><ele>687.0</ele><time>2026-04-29T17:09:00.469Z</time></trkpt><trkpt lat="43.0934915" lon="13.238461"><ele>686.3333333333334</ele><time>2026-04-29T17:09:01.475Z</time></trkpt><trkpt lat="43.0935509" lon="13.2383839"><ele>685.6666666666666</ele><time>2026-04-29T17:09:02.463Z</time></trkpt><trkpt lat="43.0936087" lon="13.2383174"><ele>685.0</ele><time>2026-04-29T17:09:03.458Z</time></trkpt><trkpt lat="43.093669" lon="13.2382486"><ele>684.3333333333333</ele><time>2026-04-29T17:09:04.477Z</time></trkpt><trkpt lat="43.0937308" lon="13.2381778"><ele>683.6666666666666</ele><time>2026-04-29T17:09:05.479Z</time></trkpt><trkpt lat="43.0937857" lon="13.2380959"><ele>683.0</ele><time>2026-04-29T17:09:06.444Z</time></trkpt><trkpt lat="43.09384" lon="13.2380196"><ele>680.6666666666666</ele><time>2026-04-29T17:09:07.511Z</time></trkpt><trkpt lat="43.0938917" lon="13.2379513"><ele>678.3333333333333</ele><time>2026-04-29T17:09:08.49Z</time></trkpt><trkpt lat="43.0939441" lon="13.2378943"><ele>676.0</ele><time>2026-04-29T17:09:09.487Z</time></trkpt><trkpt lat="43.0939987" lon="13.2378333"><ele>673.6666666666666</ele><time>2026-04-29T17:09:10.472Z</time></trkpt><trkpt lat="43.0940927" lon="13.2377364"><ele>671.3333333333334</ele><time>2026-04-29T17:09:12.476Z</time></trkpt><trkpt lat="43.0941697" lon="13.2377028"><ele>669.0</ele><time>2026-04-29T17:09:14.488Z</time></trkpt><trkpt lat="43.0942686" lon="13.2377612"><ele>668.8571428571429</ele><time>2026-04-29T17:09:16.481Z</time></trkpt><trkpt lat="43.0943091" lon="13.2378389"><ele>668.7142857142857</ele><time>2026-04-29T17:09:17.485Z</time></trkpt><trkpt lat="43.0943489" lon="13.237923"><ele>668.5714285714286</ele><time>2026-04-29T17:09:18.437Z</time></trkpt><trkpt lat="43.0943746" lon="13.2380277"><ele>668.4285714285714</ele><time>2026-04-29T17:09:19.469Z</time></trkpt><trkpt lat="43.0943985" lon="13.2381291"><ele>668.2857142857143</ele><time>2026-04-29T17:09:20.494Z</time></trkpt><trkpt lat="43.0944252" lon="13.2382222"><ele>668.1428571428571</ele><time>2026-04-29T17:09:21.484Z</time></trkpt><trkpt lat="43.094452" lon="13.2383006"><ele>668.0</ele><time>2026-04-29T17:09:22.53Z</time></trkpt><trkpt lat="43.0945231" lon="13.2384109"><ele>668.0</ele><time>2026-04-29T17:09:24.497Z</time></trkpt><trkpt lat="43.0946004" lon="13.2384818"><ele>668.0</ele><time>2026-04-29T17:09:26.467Z</time></trkpt><trkpt lat="43.0947077" lon="13.238565"><ele>668.0</ele><time>2026-04-29T17:09:28.489Z</time></trkpt><trkpt lat="43.094808" lon="13.2386652"><ele>668.0</ele><time>2026-04-29T17:09:30.448Z</time></trkpt><trkpt lat="43.0949132" lon="13.2387896"><ele>664.25</ele><time>2026-04-29T17:09:32.47Z</time></trkpt><trkpt lat="43.0950011" lon="13.2388784"><ele>660.5</ele><time>2026-04-29T17:09:33.435Z</time></trkpt><trkpt lat="43.0950954" lon="13.238977"><ele>656.75</ele><time>2026-04-29T17:09:34.44Z</time></trkpt><trkpt lat="43.0951893" lon="13.2390652"><ele>653.0</ele><time>2026-04-29T17:09:35.47Z</time></trkpt><trkpt lat="43.0952778" lon="13.2391552"><ele>651.0</ele><time>2026-04-29T17:09:36.457Z</time></trkpt><trkpt lat="43.0953664" lon="13.2392543"><ele>649.0</ele><time>2026-04-29T17:09:37.501Z</time></trkpt><trkpt lat="43.0954577" lon="13.239361"><ele>647.0</ele><time>2026-04-29T17:09:38.499Z</time></trkpt><trkpt lat="43.0955453" lon="13.2394667"><ele>645.0</ele><time>2026-04-29T17:09:39.501Z</time></trkpt><trkpt lat="43.0956321" lon="13.2395725"><ele>645.0</ele><time>2026-04-29T17:09:40.447Z</time></trkpt><trkpt lat="43.0957146" lon="13.2396751"><ele>645.0</ele><time>2026-04-29T17:09:41.46Z</time></trkpt><trkpt lat="43.0957953" lon="13.2397754"><ele>645.0</ele><time>2026-04-29T17:09:42.483Z</time></trkpt><trkpt lat="43.0958688" lon="13.239867"><ele>645.0</ele><time>2026-04-29T17:09:43.457Z</time></trkpt><trkpt lat="43.0959304" lon="13.239946"><ele>645.0</ele><time>2026-04-29T17:09:44.475Z</time></trkpt><trkpt lat="43.0959831" lon="13.2400243"><ele>642.3333333333334</ele><time>2026-04-29T17:09:45.496Z</time></trkpt><trkpt lat="43.0960215" lon="13.2401053"><ele>639.6666666666666</ele><time>2026-04-29T17:09:46.449Z</time></trkpt><trkpt lat="43.0960732" lon="13.2402526"><ele>637.0</ele><time>2026-04-29T17:09:48.471Z</time></trkpt><trkpt lat="43.0961122" lon="13.2403947"><ele>634.3333333333333</ele><time>2026-04-29T17:09:50.475Z</time></trkpt><trkpt lat="43.0961301" lon="13.2404822"><ele>631.6666666666666</ele><time>2026-04-29T17:09:51.429Z</time></trkpt><trkpt lat="43.0961399" lon="13.2405805"><ele>629.0</ele><time>2026-04-29T17:09:52.484Z</time></trkpt><trkpt lat="43.0961544" lon="13.2406878"><ele>628.4</ele><time>2026-04-29T17:09:53.476Z</time></trkpt><trkpt lat="43.096172" lon="13.2407945"><ele>627.8</ele><time>2026-04-29T17:09:54.475Z</time></trkpt><trkpt lat="43.0961861" lon="13.240894"><ele>627.2</ele><time>2026-04-29T17:09:55.492Z</time></trkpt><trkpt lat="43.096205" lon="13.2410383"><ele>626.6</ele><time>2026-04-29T17:09:57.48Z</time></trkpt><trkpt lat="43.0962129" lon="13.2411683"><ele>626.0</ele><time>2026-04-29T17:09:59.476Z</time></trkpt><trkpt lat="43.0962147" lon="13.2413054"><ele>626.0</ele><time>2026-04-29T17:10:01.429Z</time></trkpt><trkpt lat="43.096207" lon="13.2414523"><ele>626.0</ele><time>2026-04-29T17:10:03.465Z</time></trkpt><trkpt lat="43.0962267" lon="13.2416019"><ele>626.0</ele><time>2026-04-29T17:10:05.478Z</time></trkpt><trkpt lat="43.0962966" lon="13.2416849"><ele>626.0</ele><time>2026-04-29T17:10:07.461Z</time></trkpt><trkpt lat="43.0963975" lon="13.2417571"><ele>626.0</ele><time>2026-04-29T17:10:09.482Z</time></trkpt><trkpt lat="43.0964946" lon="13.2417973"><ele>624.1666666666666</ele><time>2026-04-29T17:10:11.429Z</time></trkpt><trkpt lat="43.0966156" lon="13.2418023"><ele>622.3333333333333</ele><time>2026-04-29T17:10:13.47Z</time></trkpt><trkpt lat="43.096688" lon="13.2417987"><ele>620.5</ele><time>2026-04-29T17:10:14.459Z</time></trkpt><trkpt lat="43.0967595" lon="13.2417827"><ele>618.6666666666666</ele><time>2026-04-29T17:10:15.47Z</time></trkpt><trkpt lat="43.0968271" lon="13.2417727"><ele>616.8333333333334</ele><time>2026-04-29T17:10:16.432Z</time></trkpt><trkpt lat="43.0969318" lon="13.2417609"><ele>615.0</ele><time>2026-04-29T17:10:18.5Z</time></trkpt><trkpt lat="43.0970408" lon="13.2417428"><ele>615.0</ele><time>2026-04-29T17:10:20.476Z</time></trkpt><trkpt lat="43.0971338" lon="13.2417287"><ele>615.0</ele><time>2026-04-29T17:10:22.445Z</time></trkpt><trkpt lat="43.0972103" lon="13.2417198"><ele>615.0</ele><time>2026-04-29T17:10:24.469Z</time></trkpt><trkpt lat="43.0973213" lon="13.2417112"><ele>615.0</ele><time>2026-04-29T17:10:27.449Z</time></trkpt><trkpt lat="43.0973943" lon="13.2417077"><ele>615.0</ele><time>2026-04-29T17:10:28.493Z</time></trkpt><trkpt lat="43.0974586" lon="13.2417069"><ele>615.0</ele><time>2026-04-29T17:10:29.475Z</time></trkpt><trkpt lat="43.0975725" lon="13.2416965"><ele>612.5714285714286</ele><time>2026-04-29T17:10:31.455Z</time></trkpt><trkpt lat="43.0976374" lon="13.2416911"><ele>610.1428571428572</ele><time>2026-04-29T17:10:32.462Z</time></trkpt><trkpt lat="43.0977021" lon="13.2416838"><ele>607.7142857142858</ele><time>2026-04-29T17:10:33.47Z</time></trkpt><trkpt lat="43.0977771" lon="13.2416451"><ele>605.2857142857142</ele><time>2026-04-29T17:10:34.428Z</time></trkpt><trkpt lat="43.0978512" lon="13.2416049"><ele>602.8571428571429</ele><time>2026-04-29T17:10:35.48Z</time></trkpt><trkpt lat="43.097922" lon="13.2415491"><ele>600.4285714285714</ele><time>2026-04-29T17:10:36.429Z</time></trkpt><trkpt lat="43.0979886" lon="13.2414985"><ele>598.0</ele><time>2026-04-29T17:10:37.448Z</time></trkpt><trkpt lat="43.0980575" lon="13.2414442"><ele>598.0</ele><time>2026-04-29T17:10:38.472Z</time></trkpt><trkpt lat="43.0981247" lon="13.2413898"><ele>598.0</ele><time>2026-04-29T17:10:39.471Z</time></trkpt><trkpt lat="43.0981908" lon="13.2413387"><ele>598.0</ele><time>2026-04-29T17:10:40.483Z</time></trkpt><trkpt lat="43.098253" lon="13.2412812"><ele>598.0</ele><time>2026-04-29T17:10:41.478Z</time></trkpt><trkpt lat="43.0983069" lon="13.2412075"><ele>598.0</ele><time>2026-04-29T17:10:42.46Z</time></trkpt><trkpt lat="43.0983592" lon="13.2411505"><ele>598.0</ele><time>2026-04-29T17:10:43.458Z</time></trkpt><trkpt lat="43.0984128" lon="13.2410911"><ele>598.0</ele><time>2026-04-29T17:10:44.462Z</time></trkpt><trkpt lat="43.0984665" lon="13.2410308"><ele>595.0</ele><time>2026-04-29T17:10:45.462Z</time></trkpt><trkpt lat="43.0985249" lon="13.2409503"><ele>592.0</ele><time>2026-04-29T17:10:46.465Z</time></trkpt><trkpt lat="43.0985762" lon="13.2408846"><ele>589.0</ele><time>2026-04-29T17:10:47.465Z</time></trkpt><trkpt lat="43.0986236" lon="13.2408263"><ele>586.0</ele><time>2026-04-29T17:10:48.474Z</time></trkpt><trkpt lat="43.098722" lon="13.2407226"><ele>583.0</ele><time>2026-04-29T17:10:50.467Z</time></trkpt><trkpt lat="43.0988173" lon="13.240631"><ele>582.1666666666667</ele><time>2026-04-29T17:10:52.454Z</time></trkpt><trkpt lat="43.0988761" lon="13.2405755"><ele>581.3333333333334</ele><time>2026-04-29T17:10:53.461Z</time></trkpt><trkpt lat="43.0989336" lon="13.2405241"><ele>580.5</ele><time>2026-04-29T17:10:54.453Z</time></trkpt><trkpt lat="43.0989882" lon="13.2404793"><ele>579.6666666666666</ele><time>2026-04-29T17:10:55.456Z</time></trkpt><trkpt lat="43.0990827" lon="13.2403763"><ele>578.8333333333333</ele><time>2026-04-29T17:10:57.481Z</time></trkpt><trkpt lat="43.0991627" lon="13.2402863"><ele>578.0</ele><time>2026-04-29T17:10:59.457Z</time></trkpt><trkpt lat="43.0992429" lon="13.2401586"><ele>577.6666666666666</ele><time>2026-04-29T17:11:01.459Z</time></trkpt><trkpt lat="43.0992875" lon="13.240074"><ele>577.3333333333333</ele><time>2026-04-29T17:11:02.457Z</time></trkpt><trkpt lat="43.0993558" lon="13.2399255"><ele>577.0</ele><time>2026-04-29T17:11:04.464Z</time></trkpt><trkpt lat="43.0993901" lon="13.2398514"><ele>576.6666666666666</ele><time>2026-04-29T17:11:05.457Z</time></trkpt><trkpt lat="43.0994293" lon="13.2397764"><ele>576.3333333333334</ele><time>2026-04-29T17:11:06.459Z</time></trkpt><trkpt lat="43.0994792" lon="13.239701"><ele>576.0</ele><time>2026-04-29T17:11:07.427Z</time></trkpt><trkpt lat="43.0995685" lon="13.2396019"><ele>573.6</ele><time>2026-04-29T17:11:09.425Z</time></trkpt><trkpt lat="43.0996702" lon="13.2395687"><ele>571.2</ele><time>2026-04-29T17:11:11.457Z</time></trkpt><trkpt lat="43.09977" lon="13.2395014"><ele>568.8</ele><time>2026-04-29T17:11:13.458Z</time></trkpt><trkpt lat="43.0998479" lon="13.2394505"><ele>566.4</ele><time>2026-04-29T17:11:15.475Z</time></trkpt><trkpt lat="43.0999656" lon="13.2394333"><ele>564.0</ele><time>2026-04-29T17:11:17.473Z</time></trkpt><trkpt lat="43.1000758" lon="13.2393819"><ele>562.4</ele><time>2026-04-29T17:11:18.451Z</time></trkpt><trkpt lat="43.10017" lon="13.2393141"><ele>560.8</ele><time>2026-04-29T17:11:19.45Z</time></trkpt><trkpt lat="43.100258" lon="13.2392515"><ele>559.2</ele><time>2026-04-29T17:11:20.482Z</time></trkpt><trkpt lat="43.1003303" lon="13.2391903"><ele>557.6</ele><time>2026-04-29T17:11:21.474Z</time></trkpt><trkpt lat="43.1003941" lon="13.2391416"><ele>556.0</ele><time>2026-04-29T17:11:22.478Z</time></trkpt><trkpt lat="43.1005057" lon="13.2390705"><ele>556.0</ele><time>2026-04-29T17:11:24.453Z</time></trkpt><trkpt lat="43.1006328" lon="13.2390362"><ele>556.0</ele><time>2026-04-29T17:11:26.459Z</time></trkpt><trkpt lat="43.1007059" lon="13.2390183"><ele>556.0</ele><time>2026-04-29T17:11:27.453Z</time></trkpt><trkpt lat="43.100774" lon="13.2389932"><ele>556.0</ele><time>2026-04-29T17:11:28.451Z</time></trkpt><trkpt lat="43.1008414" lon="13.238959"><ele>556.0</ele><time>2026-04-29T17:11:29.463Z</time></trkpt><trkpt lat="43.1009127" lon="13.238914"><ele>556.0</ele><time>2026-04-29T17:11:30.469Z</time></trkpt><trkpt lat="43.1009733" lon="13.2388761"><ele>553.3333333333334</ele><time>2026-04-29T17:11:31.461Z</time></trkpt><trkpt lat="43.10104" lon="13.2388407"><ele>550.6666666666667</ele><time>2026-04-29T17:11:32.459Z</time></trkpt><trkpt lat="43.1011068" lon="13.2388004"><ele>548.0</ele><time>2026-04-29T17:11:33.462Z</time></trkpt><trkpt lat="43.1011679" lon="13.2387626"><ele>545.3333333333334</ele><time>2026-04-29T17:11:34.463Z</time></trkpt><trkpt lat="43.101229" lon="13.2387236"><ele>542.6666666666666</ele><time>2026-04-29T17:11:35.469Z</time></trkpt><trkpt lat="43.1013251" lon="13.2386529"><ele>540.0</ele><time>2026-04-29T17:11:37.451Z</time></trkpt><trkpt lat="43.1014183" lon="13.2385771"><ele>540.0</ele><time>2026-04-29T17:11:39.459Z</time></trkpt><trkpt lat="43.101505" lon="13.2385101"><ele>540.0</ele><time>2026-04-29T17:11:41.484Z</time></trkpt><trkpt lat="43.1015854" lon="13.2384587"><ele>540.0</ele><time>2026-04-29T17:11:43.485Z</time></trkpt><trkpt lat="43.1016766" lon="13.2384112"><ele>540.0</ele><time>2026-04-29T17:11:45.476Z</time></trkpt><trkpt lat="43.1018134" lon="13.2383763"><ele>540.0</ele><time>2026-04-29T17:11:47.483Z</time></trkpt><trkpt lat="43.1018802" lon="13.2383631"><ele>525.0</ele><time>2026-04-29T17:11:48.488Z</time></trkpt><trkpt lat="43.1019717" lon="13.2383748"><ele>525.0</ele><time>2026-04-29T17:11:50.483Z</time></trkpt><trkpt lat="43.1020395" lon="13.2384353"><ele>525.0</ele><time>2026-04-29T17:11:52.471Z</time></trkpt><trkpt lat="43.1020534" lon="13.2385251"><ele>525.0</ele><time>2026-04-29T17:11:54.429Z</time></trkpt><trkpt lat="43.1020885" lon="13.2387201"><ele>525.0</ele><time>2026-04-29T17:13:04.426Z</time></trkpt><trkpt lat="43.1020885" lon="13.2387201"><ele>525.0</ele><time>2026-04-29T17:13:04.426Z</time></trkpt></trkseg><trkseg><trkpt lat="43.1020867" lon="13.2388085"><ele>525.0</ele><time>2026-04-29T17:27:51.258Z</time></trkpt><trkpt lat="43.1020931" lon="13.2389023"><ele>525.0</ele><time>2026-04-29T17:27:52.261Z</time></trkpt><trkpt lat="43.1021097" lon="13.2390357"><ele>525.0</ele><time>2026-04-29T17:27:53.236Z</time></trkpt><trkpt lat="43.1021443" lon="13.2391575"><ele>525.0</ele><time>2026-04-29T17:27:54.267Z</time></trkpt><trkpt lat="43.1021863" lon="13.2392703"><ele>525.0</ele><time>2026-04-29T17:27:55.258Z</time></trkpt><trkpt lat="43.102228" lon="13.2393541"><ele>525.0</ele><time>2026-04-29T17:27:56.251Z</time></trkpt><trkpt lat="43.1022924" lon="13.239432"><ele>523.4</ele><time>2026-04-29T17:27:57.275Z</time></trkpt><trkpt lat="43.1023626" lon="13.2395419"><ele>521.8</ele><time>2026-04-29T17:27:58.247Z</time></trkpt><trkpt lat="43.1024078" lon="13.2396586"><ele>520.2</ele><time>2026-04-29T17:27:59.279Z</time></trkpt><trkpt lat="43.1024431" lon="13.2398212"><ele>518.6</ele><time>2026-04-29T17:28:00.262Z</time></trkpt><trkpt lat="43.1024751" lon="13.23997"><ele>517.0</ele><time>2026-04-29T17:28:01.294Z</time></trkpt><trkpt lat="43.1025023" lon="13.2401057"><ele>517.0</ele><time>2026-04-29T17:28:02.263Z</time></trkpt><trkpt lat="43.1024897" lon="13.2402321"><ele>517.0</ele><time>2026-04-29T17:28:03.251Z</time></trkpt><trkpt lat="43.1024708" lon="13.2403679"><ele>517.0</ele><time>2026-04-29T17:28:04.266Z</time></trkpt><trkpt lat="43.1024377" lon="13.2404693"><ele>517.0</ele><time>2026-04-29T17:28:05.226Z</time></trkpt><trkpt lat="43.1024106" lon="13.2405703"><ele>517.0</ele><time>2026-04-29T17:28:06.272Z</time></trkpt><trkpt lat="43.1023886" lon="13.2406607"><ele>517.0</ele><time>2026-04-29T17:28:07.312Z</time></trkpt><trkpt lat="43.1023467" lon="13.2407648"><ele>525.25</ele><time>2026-04-29T17:28:08.234Z</time></trkpt><trkpt lat="43.1022959" lon="13.2408769"><ele>533.5</ele><time>2026-04-29T17:28:09.245Z</time></trkpt><trkpt lat="43.1022139" lon="13.2410109"><ele>541.75</ele><time>2026-04-29T17:28:10.29Z</time></trkpt><trkpt lat="43.1021399" lon="13.2411593"><ele>550.0</ele><time>2026-04-29T17:28:11.282Z</time></trkpt><trkpt lat="43.1020528" lon="13.2413231"><ele>544.25</ele><time>2026-04-29T17:28:12.292Z</time></trkpt><trkpt lat="43.1019696" lon="13.2414907"><ele>538.5</ele><time>2026-04-29T17:28:13.295Z</time></trkpt><trkpt lat="43.1018914" lon="13.2416357"><ele>532.75</ele><time>2026-04-29T17:28:14.279Z</time></trkpt><trkpt lat="43.1018245" lon="13.2417724"><ele>527.0</ele><time>2026-04-29T17:28:15.259Z</time></trkpt><trkpt lat="43.1017619" lon="13.2419097"><ele>527.0</ele><time>2026-04-29T17:28:16.279Z</time></trkpt><trkpt lat="43.1017221" lon="13.2420276"><ele>527.0</ele><time>2026-04-29T17:28:17.294Z</time></trkpt><trkpt lat="43.1016818" lon="13.2421421"><ele>527.0</ele><time>2026-04-29T17:28:18.282Z</time></trkpt><trkpt lat="43.1016283" lon="13.2422549"><ele>527.0</ele><time>2026-04-29T17:28:19.26Z</time></trkpt><trkpt lat="43.1015736" lon="13.2423699"><ele>527.0</ele><time>2026-04-29T17:28:20.263Z</time></trkpt><trkpt lat="43.1015021" lon="13.2424652"><ele>528.8000000000001</ele><time>2026-04-29T17:28:21.29Z</time></trkpt><trkpt lat="43.1014171" lon="13.2425533"><ele>530.6</ele><time>2026-04-29T17:28:22.28Z</time></trkpt><trkpt lat="43.1013358" lon="13.2426206"><ele>532.4000000000001</ele><time>2026-04-29T17:28:23.285Z</time></trkpt><trkpt lat="43.1012489" lon="13.2426683"><ele>534.2</ele><time>2026-04-29T17:28:24.282Z</time></trkpt><trkpt lat="43.1011556" lon="13.2427189"><ele>536.0</ele><time>2026-04-29T17:28:25.279Z</time></trkpt><trkpt lat="43.1010432" lon="13.2427457"><ele>536.0</ele><time>2026-04-29T17:28:26.293Z</time></trkpt><trkpt lat="43.1009184" lon="13.2427551"><ele>536.0</ele><time>2026-04-29T17:28:27.279Z</time></trkpt><trkpt lat="43.1007927" lon="13.2427661"><ele>536.0</ele><time>2026-04-29T17:28:28.334Z</time></trkpt><trkpt lat="43.1006647" lon="13.2427785"><ele>536.0</ele><time>2026-04-29T17:28:29.265Z</time></trkpt><trkpt lat="43.1005248" lon="13.2427813"><ele>539.0</ele><time>2026-04-29T17:28:30.259Z</time></trkpt><trkpt lat="43.1003874" lon="13.2427691"><ele>542.0</ele><time>2026-04-29T17:28:31.272Z</time></trkpt><trkpt lat="43.1002589" lon="13.2427463"><ele>545.0</ele><time>2026-04-29T17:28:32.223Z</time></trkpt><trkpt lat="43.1001417" lon="13.2427368"><ele>548.0</ele><time>2026-04-29T17:28:33.292Z</time></trkpt><trkpt lat="43.1000354" lon="13.2427242"><ele>548.0</ele><time>2026-04-29T17:28:34.266Z</time></trkpt><trkpt lat="43.0999395" lon="13.2427027"><ele>548.0</ele><time>2026-04-29T17:28:35.306Z</time></trkpt><trkpt lat="43.0998573" lon="13.2426916"><ele>548.0</ele><time>2026-04-29T17:28:36.278Z</time></trkpt><trkpt lat="43.0997843" lon="13.2426825"><ele>548.0</ele><time>2026-04-29T17:28:37.304Z</time></trkpt><trkpt lat="43.0996842" lon="13.2426932"><ele>548.0</ele><time>2026-04-29T17:28:39.281Z</time></trkpt><trkpt lat="43.0995985" lon="13.2427068"><ele>548.0</ele><time>2026-04-29T17:28:41.267Z</time></trkpt><trkpt lat="43.0995233" lon="13.2427474"><ele>549.6666666666666</ele><time>2026-04-29T17:28:43.283Z</time></trkpt><trkpt lat="43.0994622" lon="13.2427953"><ele>551.3333333333333</ele><time>2026-04-29T17:28:44.284Z</time></trkpt><trkpt lat="43.0993925" lon="13.2428555"><ele>553.0</ele><time>2026-04-29T17:28:45.285Z</time></trkpt><trkpt lat="43.0993105" lon="13.24292"><ele>554.6666666666666</ele><time>2026-04-29T17:28:46.258Z</time></trkpt><trkpt lat="43.0992296" lon="13.2429727"><ele>556.3333333333334</ele><time>2026-04-29T17:28:47.292Z</time></trkpt><trkpt lat="43.0991564" lon="13.2430138"><ele>558.0</ele><time>2026-04-29T17:28:48.294Z</time></trkpt><trkpt lat="43.0990829" lon="13.2430587"><ele>560.0</ele><time>2026-04-29T17:28:49.279Z</time></trkpt><trkpt lat="43.0990209" lon="13.2431034"><ele>562.0</ele><time>2026-04-29T17:28:50.25Z</time></trkpt><trkpt lat="43.0989622" lon="13.2431677"><ele>564.0</ele><time>2026-04-29T17:28:51.284Z</time></trkpt><trkpt lat="43.0989056" lon="13.2432242"><ele>566.0</ele><time>2026-04-29T17:28:52.3Z</time></trkpt><trkpt lat="43.0988458" lon="13.2432699"><ele>568.0</ele><time>2026-04-29T17:28:53.28Z</time></trkpt><trkpt lat="43.0987204" lon="13.243335"><ele>570.0</ele><time>2026-04-29T17:28:55.291Z</time></trkpt><trkpt lat="43.0986307" lon="13.2433765"><ele>564.8333333333334</ele><time>2026-04-29T17:28:56.265Z</time></trkpt><trkpt lat="43.0985424" lon="13.243427"><ele>559.6666666666666</ele><time>2026-04-29T17:28:57.285Z</time></trkpt><trkpt lat="43.0984727" lon="13.2434784"><ele>554.5</ele><time>2026-04-29T17:28:58.288Z</time></trkpt><trkpt lat="43.0984179" lon="13.2435473"><ele>549.3333333333333</ele><time>2026-04-29T17:28:59.26Z</time></trkpt><trkpt lat="43.0983595" lon="13.2436304"><ele>544.1666666666666</ele><time>2026-04-29T17:29:00.281Z</time></trkpt><trkpt lat="43.0983037" lon="13.243736"><ele>539.0</ele><time>2026-04-29T17:29:01.267Z</time></trkpt><trkpt lat="43.0982569" lon="13.2439002"><ele>538.0</ele><time>2026-04-29T17:29:02.333Z</time></trkpt><trkpt lat="43.0982272" lon="13.2440741"><ele>537.0</ele><time>2026-04-29T17:29:03.29Z</time></trkpt><trkpt lat="43.0981948" lon="13.2442609"><ele>536.0</ele><time>2026-04-29T17:29:04.312Z</time></trkpt><trkpt lat="43.0981635" lon="13.2444279"><ele>535.0</ele><time>2026-04-29T17:29:05.295Z</time></trkpt><trkpt lat="43.0981359" lon="13.2445537"><ele>535.0</ele><time>2026-04-29T17:29:06.303Z</time></trkpt><trkpt lat="43.098092" lon="13.2446724"><ele>535.0</ele><time>2026-04-29T17:29:07.282Z</time></trkpt><trkpt lat="43.0980491" lon="13.2447879"><ele>535.0</ele><time>2026-04-29T17:29:08.228Z</time></trkpt><trkpt lat="43.0979898" lon="13.2448901"><ele>535.0</ele><time>2026-04-29T17:29:09.24Z</time></trkpt><trkpt lat="43.0979331" lon="13.2449804"><ele>535.0</ele><time>2026-04-29T17:29:10.298Z</time></trkpt><trkpt lat="43.0978745" lon="13.2450621"><ele>533.8333333333334</ele><time>2026-04-29T17:29:11.293Z</time></trkpt><trkpt lat="43.0978121" lon="13.2451503"><ele>532.6666666666667</ele><time>2026-04-29T17:29:12.283Z</time></trkpt><trkpt lat="43.097751" lon="13.2452129"><ele>531.5</ele><time>2026-04-29T17:29:13.237Z</time></trkpt><trkpt lat="43.0976919" lon="13.2452572"><ele>530.3333333333334</ele><time>2026-04-29T17:29:14.245Z</time></trkpt><trkpt lat="43.097626" lon="13.2452854"><ele>529.1666666666666</ele><time>2026-04-29T17:29:15.29Z</time></trkpt><trkpt lat="43.0975519" lon="13.2453"><ele>528.0</ele><time>2026-04-29T17:29:16.272Z</time></trkpt><trkpt lat="43.0974787" lon="13.2453026"><ele>530.1666666666666</ele><time>2026-04-29T17:29:17.288Z</time></trkpt><trkpt lat="43.0974102" lon="13.2453004"><ele>532.3333333333334</ele><time>2026-04-29T17:29:18.284Z</time></trkpt><trkpt lat="43.0973464" lon="13.2452986"><ele>534.5</ele><time>2026-04-29T17:29:19.293Z</time></trkpt><trkpt lat="43.097247" lon="13.2452978"><ele>536.6666666666667</ele><time>2026-04-29T17:29:21.25Z</time></trkpt><trkpt lat="43.0971637" lon="13.2452962"><ele>538.8333333333334</ele><time>2026-04-29T17:29:23.251Z</time></trkpt><trkpt lat="43.097055" lon="13.2452711"><ele>541.0</ele><time>2026-04-29T17:29:25.281Z</time></trkpt><trkpt lat="43.0969892" lon="13.2452427"><ele>541.0</ele><time>2026-04-29T17:29:26.253Z</time></trkpt><trkpt lat="43.0969212" lon="13.2452136"><ele>541.0</ele><time>2026-04-29T17:29:27.28Z</time></trkpt><trkpt lat="43.0968494" lon="13.2451786"><ele>541.0</ele><time>2026-04-29T17:29:28.269Z</time></trkpt><trkpt lat="43.0967801" lon="13.245144"><ele>541.0</ele><time>2026-04-29T17:29:29.237Z</time></trkpt><trkpt lat="43.0967034" lon="13.2450955"><ele>541.0</ele><time>2026-04-29T17:29:30.254Z</time></trkpt><trkpt lat="43.0966298" lon="13.2450395"><ele>541.0</ele><time>2026-04-29T17:29:31.238Z</time></trkpt><trkpt lat="43.0965605" lon="13.2450065"><ele>546.6666666666667</ele><time>2026-04-29T17:29:32.271Z</time></trkpt><trkpt lat="43.0964436" lon="13.244971"><ele>552.3333333333334</ele><time>2026-04-29T17:29:34.237Z</time></trkpt><trkpt lat="43.096381" lon="13.2449856"><ele>558.0</ele><time>2026-04-29T17:29:35.266Z</time></trkpt><trkpt lat="43.0963179" lon="13.2449993"><ele>563.6666666666666</ele><time>2026-04-29T17:29:36.266Z</time></trkpt><trkpt lat="43.0962502" lon="13.2450052"><ele>569.3333333333333</ele><time>2026-04-29T17:29:37.294Z</time></trkpt><trkpt lat="43.0961462" lon="13.2450316"><ele>575.0</ele><time>2026-04-29T17:29:39.254Z</time></trkpt><trkpt lat="43.0960943" lon="13.2451365"><ele>575.0</ele><time>2026-04-29T17:29:41.29Z</time></trkpt><trkpt lat="43.0960656" lon="13.2452349"><ele>575.0</ele><time>2026-04-29T17:29:43.301Z</time></trkpt><trkpt lat="43.0959621" lon="13.2453206"><ele>575.0</ele><time>2026-04-29T17:29:45.255Z</time></trkpt><trkpt lat="43.0958999" lon="13.24537"><ele>575.0</ele><time>2026-04-29T17:29:46.287Z</time></trkpt><trkpt lat="43.095842" lon="13.245424"><ele>575.0</ele><time>2026-04-29T17:29:47.284Z</time></trkpt><trkpt lat="43.095777" lon="13.2454794"><ele>575.0</ele><time>2026-04-29T17:29:48.299Z</time></trkpt><trkpt lat="43.0957201" lon="13.2455492"><ele>581.8</ele><time>2026-04-29T17:29:49.291Z</time></trkpt><trkpt lat="43.0956567" lon="13.245639"><ele>588.6</ele><time>2026-04-29T17:29:50.32Z</time></trkpt><trkpt lat="43.0955911" lon="13.24575"><ele>595.4</ele><time>2026-04-29T17:29:51.303Z</time></trkpt><trkpt lat="43.0955385" lon="13.2458736"><ele>602.2</ele><time>2026-04-29T17:29:52.28Z</time></trkpt><trkpt lat="43.0954944" lon="13.2460069"><ele>609.0</ele><time>2026-04-29T17:29:53.282Z</time></trkpt><trkpt lat="43.0954265" lon="13.2461413"><ele>609.0</ele><time>2026-04-29T17:29:54.284Z</time></trkpt><trkpt lat="43.0953653" lon="13.2462491"><ele>609.0</ele><time>2026-04-29T17:29:55.29Z</time></trkpt><trkpt lat="43.0953073" lon="13.2463366"><ele>609.0</ele><time>2026-04-29T17:29:56.265Z</time></trkpt><trkpt lat="43.0952555" lon="13.2464094"><ele>609.0</ele><time>2026-04-29T17:29:57.287Z</time></trkpt><trkpt lat="43.0952017" lon="13.2464892"><ele>609.0</ele><time>2026-04-29T17:29:58.282Z</time></trkpt><trkpt lat="43.0951409" lon="13.2465854"><ele>609.0</ele><time>2026-04-29T17:29:59.304Z</time></trkpt><trkpt lat="43.095097" lon="13.2466833"><ele>607.0</ele><time>2026-04-29T17:30:00.269Z</time></trkpt><trkpt lat="43.0950605" lon="13.2467587"><ele>605.0</ele><time>2026-04-29T17:30:01.282Z</time></trkpt><trkpt lat="43.0950089" lon="13.2468358"><ele>603.0</ele><time>2026-04-29T17:30:02.279Z</time></trkpt><trkpt lat="43.0949593" lon="13.2469046"><ele>601.0</ele><time>2026-04-29T17:30:03.297Z</time></trkpt><trkpt lat="43.0948861" lon="13.2469732"><ele>599.0</ele><time>2026-04-29T17:30:04.287Z</time></trkpt><trkpt lat="43.0948057" lon="13.2470467"><ele>597.0</ele><time>2026-04-29T17:30:05.294Z</time></trkpt><trkpt lat="43.0947376" lon="13.2471107"><ele>600.2</ele><time>2026-04-29T17:30:06.286Z</time></trkpt><trkpt lat="43.0946733" lon="13.2471805"><ele>603.4000000000001</ele><time>2026-04-29T17:30:07.288Z</time></trkpt><trkpt lat="43.0946068" lon="13.24723"><ele>606.5999999999999</ele><time>2026-04-29T17:30:08.286Z</time></trkpt><trkpt lat="43.0945256" lon="13.2472728"><ele>609.8</ele><time>2026-04-29T17:30:09.255Z</time></trkpt><trkpt lat="43.0944321" lon="13.2473104"><ele>613.0</ele><time>2026-04-29T17:30:10.295Z</time></trkpt><trkpt lat="43.0943131" lon="13.2473433"><ele>613.0</ele><time>2026-04-29T17:30:11.295Z</time></trkpt><trkpt lat="43.0942063" lon="13.2473871"><ele>613.0</ele><time>2026-04-29T17:30:12.285Z</time></trkpt><trkpt lat="43.0941095" lon="13.2474514"><ele>613.0</ele><time>2026-04-29T17:30:13.284Z</time></trkpt><trkpt lat="43.0940182" lon="13.2475409"><ele>613.0</ele><time>2026-04-29T17:30:14.251Z</time></trkpt><trkpt lat="43.0939221" lon="13.2476249"><ele>613.0</ele><time>2026-04-29T17:30:15.312Z</time></trkpt><trkpt lat="43.0938401" lon="13.2476861"><ele>616.8333333333334</ele><time>2026-04-29T17:30:16.283Z</time></trkpt><trkpt lat="43.0937613" lon="13.2477435"><ele>620.6666666666667</ele><time>2026-04-29T17:30:17.296Z</time></trkpt><trkpt lat="43.0936829" lon="13.2477999"><ele>624.5</ele><time>2026-04-29T17:30:18.305Z</time></trkpt><trkpt lat="43.0935994" lon="13.2478638"><ele>628.3333333333334</ele><time>2026-04-29T17:30:19.286Z</time></trkpt><trkpt lat="43.0935166" lon="13.2479247"><ele>632.1666666666666</ele><time>2026-04-29T17:30:20.271Z</time></trkpt><trkpt lat="43.0934466" lon="13.2479713"><ele>636.0</ele><time>2026-04-29T17:30:21.296Z</time></trkpt><trkpt lat="43.0933796" lon="13.2479925"><ele>636.0</ele><time>2026-04-29T17:30:22.271Z</time></trkpt><trkpt lat="43.093303" lon="13.2479902"><ele>636.0</ele><time>2026-04-29T17:30:23.287Z</time></trkpt><trkpt lat="43.0932239" lon="13.2479818"><ele>636.0</ele><time>2026-04-29T17:30:24.251Z</time></trkpt><trkpt lat="43.0931311" lon="13.2479816"><ele>636.0</ele><time>2026-04-29T17:30:26.292Z</time></trkpt><trkpt lat="43.0930802" lon="13.2481347"><ele>636.0</ele><time>2026-04-29T17:30:29.259Z</time></trkpt><trkpt lat="43.0930603" lon="13.2482193"><ele>636.0</ele><time>2026-04-29T17:30:30.282Z</time></trkpt><trkpt lat="43.0930397" lon="13.248305"><ele>634.6</ele><time>2026-04-29T17:30:31.277Z</time></trkpt><trkpt lat="43.0929953" lon="13.2484567"><ele>633.2</ele><time>2026-04-29T17:30:33.292Z</time></trkpt><trkpt lat="43.0929411" lon="13.2485863"><ele>631.8</ele><time>2026-04-29T17:30:35.26Z</time></trkpt><trkpt lat="43.0929061" lon="13.2486641"><ele>630.4</ele><time>2026-04-29T17:30:36.311Z</time></trkpt><trkpt lat="43.0928853" lon="13.2488241"><ele>629.0</ele><time>2026-04-29T17:30:38.303Z</time></trkpt><trkpt lat="43.0928872" lon="13.2489659"><ele>629.0</ele><time>2026-04-29T17:30:40.306Z</time></trkpt><trkpt lat="43.0928829" lon="13.249099"><ele>629.0</ele><time>2026-04-29T17:30:42.326Z</time></trkpt><trkpt lat="43.092875" lon="13.2492353"><ele>629.0</ele><time>2026-04-29T17:30:44.275Z</time></trkpt><trkpt lat="43.0928333" lon="13.2493838"><ele>629.0</ele><time>2026-04-29T17:30:46.306Z</time></trkpt><trkpt lat="43.0927817" lon="13.2495193"><ele>629.0</ele><time>2026-04-29T17:30:48.268Z</time></trkpt><trkpt lat="43.0927578" lon="13.249623"><ele>629.0</ele><time>2026-04-29T17:30:50.321Z</time></trkpt><trkpt lat="43.0927398" lon="13.2497206"><ele>629.0</ele><time>2026-04-29T17:30:52.276Z</time></trkpt><trkpt lat="43.0927208" lon="13.2498176"><ele>629.0</ele><time>2026-04-29T17:30:54.323Z</time></trkpt><trkpt lat="43.0927013" lon="13.2499248"><ele>629.0</ele><time>2026-04-29T17:30:56.299Z</time></trkpt><trkpt lat="43.092659" lon="13.2500516"><ele>629.0</ele><time>2026-04-29T17:30:58.29Z</time></trkpt><trkpt lat="43.0926097" lon="13.2501429"><ele>629.0</ele><time>2026-04-29T17:31:00.287Z</time></trkpt><trkpt lat="43.0925437" lon="13.2502165"><ele>629.3333333333333</ele><time>2026-04-29T17:31:03.288Z</time></trkpt><trkpt lat="43.0924558" lon="13.2502084"><ele>629.6666666666666</ele><time>2026-04-29T17:31:06.301Z</time></trkpt><trkpt lat="43.0923855" lon="13.2501294"><ele>630.0</ele><time>2026-04-29T17:31:09.334Z</time></trkpt><trkpt lat="43.0923132" lon="13.250047"><ele>630.3333333333334</ele><time>2026-04-29T17:31:12.288Z</time></trkpt><trkpt lat="43.0922567" lon="13.2499842"><ele>630.6666666666667</ele><time>2026-04-29T17:31:14.295Z</time></trkpt><trkpt lat="43.0921906" lon="13.2499389"><ele>631.0</ele><time>2026-04-29T17:31:16.272Z</time></trkpt><trkpt lat="43.0921135" lon="13.2499649"><ele>627.8333333333334</ele><time>2026-04-29T17:31:17.263Z</time></trkpt><trkpt lat="43.092041" lon="13.2500055"><ele>624.6666666666667</ele><time>2026-04-29T17:31:18.289Z</time></trkpt><trkpt lat="43.0919684" lon="13.2500458"><ele>621.5</ele><time>2026-04-29T17:31:19.292Z</time></trkpt><trkpt lat="43.0919001" lon="13.2500975"><ele>618.3333333333334</ele><time>2026-04-29T17:31:20.276Z</time></trkpt><trkpt lat="43.0918432" lon="13.2501488"><ele>615.1666666666666</ele><time>2026-04-29T17:31:21.292Z</time></trkpt><trkpt lat="43.0917487" lon="13.2502235"><ele>612.0</ele><time>2026-04-29T17:31:23.34Z</time></trkpt><trkpt lat="43.0916594" lon="13.2503012"><ele>607.6</ele><time>2026-04-29T17:31:25.276Z</time></trkpt><trkpt lat="43.0915565" lon="13.250331"><ele>603.2</ele><time>2026-04-29T17:31:27.291Z</time></trkpt><trkpt lat="43.0914496" lon="13.2503629"><ele>598.8</ele><time>2026-04-29T17:31:29.291Z</time></trkpt><trkpt lat="43.0913707" lon="13.250389"><ele>594.4</ele><time>2026-04-29T17:31:31.29Z</time></trkpt><trkpt lat="43.0912528" lon="13.2504614"><ele>590.0</ele><time>2026-04-29T17:31:33.284Z</time></trkpt><trkpt lat="43.0911803" lon="13.250515"><ele>590.0</ele><time>2026-04-29T17:31:34.364Z</time></trkpt><trkpt lat="43.0911154" lon="13.2505585"><ele>590.0</ele><time>2026-04-29T17:31:35.276Z</time></trkpt><trkpt lat="43.0910391" lon="13.2506206"><ele>590.0</ele><time>2026-04-29T17:31:36.3Z</time></trkpt><trkpt lat="43.0909606" lon="13.2506765"><ele>590.0</ele><time>2026-04-29T17:31:37.28Z</time></trkpt><trkpt lat="43.0908901" lon="13.2507281"><ele>590.0</ele><time>2026-04-29T17:31:38.296Z</time></trkpt><trkpt lat="43.0907896" lon="13.2507964"><ele>590.0</ele><time>2026-04-29T17:31:40.303Z</time></trkpt><trkpt lat="43.0906752" lon="13.2508545"><ele>591.2</ele><time>2026-04-29T17:31:42.321Z</time></trkpt><trkpt lat="43.0905625" lon="13.2508979"><ele>592.4</ele><time>2026-04-29T17:31:44.292Z</time></trkpt><trkpt lat="43.0904684" lon="13.2509107"><ele>593.6</ele><time>2026-04-29T17:31:46.308Z</time></trkpt><trkpt lat="43.0903855" lon="13.2509366"><ele>594.8</ele><time>2026-04-29T17:31:48.312Z</time></trkpt><trkpt lat="43.0903138" lon="13.2509921"><ele>596.0</ele><time>2026-04-29T17:31:50.283Z</time></trkpt><trkpt lat="43.0902471" lon="13.251046"><ele>596.0</ele><time>2026-04-29T17:31:52.271Z</time></trkpt><trkpt lat="43.090162" lon="13.2511031"><ele>596.0</ele><time>2026-04-29T17:31:54.299Z</time></trkpt><trkpt lat="43.0901012" lon="13.2511648"><ele>596.0</ele><time>2026-04-29T17:31:56.301Z</time></trkpt><trkpt lat="43.0900513" lon="13.2512245"><ele>596.0</ele><time>2026-04-29T17:31:58.287Z</time></trkpt><trkpt lat="43.0900106" lon="13.2512953"><ele>596.0</ele><time>2026-04-29T17:32:00.284Z</time></trkpt><trkpt lat="43.0899437" lon="13.2513843"><ele>596.0</ele><time>2026-04-29T17:32:02.304Z</time></trkpt><trkpt lat="43.0898693" lon="13.2514732"><ele>595.2857142857142</ele><time>2026-04-29T17:32:04.307Z</time></trkpt><trkpt lat="43.0898122" lon="13.2515123"><ele>594.5714285714286</ele><time>2026-04-29T17:32:05.263Z</time></trkpt><trkpt lat="43.0897536" lon="13.2515519"><ele>593.8571428571429</ele><time>2026-04-29T17:32:06.263Z</time></trkpt><trkpt lat="43.0896923" lon="13.2516041"><ele>593.1428571428571</ele><time>2026-04-29T17:32:07.305Z</time></trkpt><trkpt lat="43.0896297" lon="13.2516591"><ele>592.4285714285714</ele><time>2026-04-29T17:32:08.294Z</time></trkpt><trkpt lat="43.0895703" lon="13.2517139"><ele>591.7142857142857</ele><time>2026-04-29T17:32:09.291Z</time></trkpt><trkpt lat="43.0895163" lon="13.2517646"><ele>591.0</ele><time>2026-04-29T17:32:10.254Z</time></trkpt><trkpt lat="43.0894157" lon="13.2518414"><ele>591.0</ele><time>2026-04-29T17:32:12.309Z</time></trkpt><trkpt lat="43.08932" lon="13.251895"><ele>591.0</ele><time>2026-04-29T17:32:14.292Z</time></trkpt><trkpt lat="43.0892154" lon="13.2519943"><ele>591.0</ele><time>2026-04-29T17:32:16.309Z</time></trkpt><trkpt lat="43.0891586" lon="13.2520477"><ele>591.0</ele><time>2026-04-29T17:32:17.304Z</time></trkpt><trkpt lat="43.0891009" lon="13.2520839"><ele>591.0</ele><time>2026-04-29T17:32:18.303Z</time></trkpt><trkpt lat="43.0890391" lon="13.2521211"><ele>591.0</ele><time>2026-04-29T17:32:19.29Z</time></trkpt><trkpt lat="43.088937" lon="13.2521704"><ele>588.8333333333334</ele><time>2026-04-29T17:32:21.288Z</time></trkpt><trkpt lat="43.088861" lon="13.2522163"><ele>586.6666666666666</ele><time>2026-04-29T17:32:23.289Z</time></trkpt><trkpt lat="43.0887889" lon="13.2522787"><ele>584.5</ele><time>2026-04-29T17:32:25.248Z</time></trkpt><trkpt lat="43.0887082" lon="13.2523274"><ele>582.3333333333333</ele><time>2026-04-29T17:32:27.28Z</time></trkpt><trkpt lat="43.0886274" lon="13.2523861"><ele>580.1666666666666</ele><time>2026-04-29T17:32:29.29Z</time></trkpt><trkpt lat="43.0885541" lon="13.2524374"><ele>578.0</ele><time>2026-04-29T17:32:31.307Z</time></trkpt><trkpt lat="43.088487" lon="13.2525032"><ele>578.0</ele><time>2026-04-29T17:32:33.291Z</time></trkpt><trkpt lat="43.0884257" lon="13.2526022"><ele>578.0</ele><time>2026-04-29T17:32:35.248Z</time></trkpt><trkpt lat="43.0883872" lon="13.2527057"><ele>578.0</ele><time>2026-04-29T17:32:37.282Z</time></trkpt><trkpt lat="43.0883573" lon="13.2528104"><ele>578.0</ele><time>2026-04-29T17:32:39.294Z</time></trkpt><trkpt lat="43.0882789" lon="13.2528868"><ele>578.0</ele><time>2026-04-29T17:32:41.319Z</time></trkpt><trkpt lat="43.0881904" lon="13.2529292"><ele>577.1666666666666</ele><time>2026-04-29T17:32:43.277Z</time></trkpt><trkpt lat="43.08812" lon="13.2529914"><ele>576.3333333333333</ele><time>2026-04-29T17:32:45.251Z</time></trkpt><trkpt lat="43.0880902" lon="13.2530691"><ele>575.5</ele><time>2026-04-29T17:32:47.303Z</time></trkpt><trkpt lat="43.0880588" lon="13.2531452"><ele>574.6666666666666</ele><time>2026-04-29T17:32:49.298Z</time></trkpt><trkpt lat="43.0879768" lon="13.2532235"><ele>573.8333333333334</ele><time>2026-04-29T17:32:52.302Z</time></trkpt><trkpt lat="43.0878906" lon="13.2532971"><ele>573.0</ele><time>2026-04-29T17:32:54.275Z</time></trkpt><trkpt lat="43.0877965" lon="13.2533809"><ele>573.0</ele><time>2026-04-29T17:32:56.261Z</time></trkpt><trkpt lat="43.0877238" lon="13.2534599"><ele>573.0</ele><time>2026-04-29T17:32:58.283Z</time></trkpt><trkpt lat="43.0876594" lon="13.2535274"><ele>573.0</ele><time>2026-04-29T17:33:00.267Z</time></trkpt><trkpt lat="43.0875701" lon="13.2535823"><ele>573.0</ele><time>2026-04-29T17:33:03.281Z</time></trkpt><trkpt lat="43.0874948" lon="13.2536005"><ele>573.0</ele><time>2026-04-29T17:33:05.261Z</time></trkpt><trkpt lat="43.0874124" lon="13.2536196"><ele>573.0</ele><time>2026-04-29T17:33:07.274Z</time></trkpt><trkpt lat="43.0873445" lon="13.2536243"><ele>568.8333333333334</ele><time>2026-04-29T17:33:09.281Z</time></trkpt><trkpt lat="43.0872872" lon="13.2536607"><ele>564.6666666666666</ele><time>2026-04-29T17:33:11.275Z</time></trkpt><trkpt lat="43.0872304" lon="13.2537432"><ele>560.5</ele><time>2026-04-29T17:33:14.308Z</time></trkpt><trkpt lat="43.0871408" lon="13.25379"><ele>556.3333333333333</ele><time>2026-04-29T17:33:17.285Z</time></trkpt><trkpt lat="43.0870617" lon="13.2537961"><ele>552.1666666666666</ele><time>2026-04-29T17:33:19.294Z</time></trkpt><trkpt lat="43.0869906" lon="13.2538373"><ele>548.0</ele><time>2026-04-29T17:33:21.265Z</time></trkpt><trkpt lat="43.086917" lon="13.2539117"><ele>546.6666666666666</ele><time>2026-04-29T17:33:23.296Z</time></trkpt><trkpt lat="43.0868569" lon="13.2539752"><ele>545.3333333333333</ele><time>2026-04-29T17:33:25.295Z</time></trkpt><trkpt lat="43.0868289" lon="13.2540617"><ele>544.0</ele><time>2026-04-29T17:33:28.314Z</time></trkpt><trkpt lat="43.086766" lon="13.2541564"><ele>542.6666666666666</ele><time>2026-04-29T17:33:31.27Z</time></trkpt><trkpt lat="43.0866746" lon="13.2542061"><ele>541.3333333333334</ele><time>2026-04-29T17:33:34.316Z</time></trkpt><trkpt lat="43.0866186" lon="13.2543343"><ele>540.0</ele><time>2026-04-29T17:33:37.298Z</time></trkpt><trkpt lat="43.0865826" lon="13.2544173"><ele>540.0</ele><time>2026-04-29T17:33:39.293Z</time></trkpt><trkpt lat="43.0865534" lon="13.2545028"><ele>540.0</ele><time>2026-04-29T17:33:42.302Z</time></trkpt><trkpt lat="43.0865632" lon="13.2546422"><ele>540.0</ele><time>2026-04-29T17:33:44.283Z</time></trkpt><trkpt lat="43.0865852" lon="13.254766"><ele>540.0</ele><time>2026-04-29T17:33:46.28Z</time></trkpt><trkpt lat="43.0866135" lon="13.2548681"><ele>540.0</ele><time>2026-04-29T17:33:48.308Z</time></trkpt><trkpt lat="43.0866577" lon="13.2549852"><ele>540.0</ele><time>2026-04-29T17:33:51.286Z</time></trkpt><trkpt lat="43.0866824" lon="13.2550728"><ele>542.0</ele><time>2026-04-29T17:33:53.303Z</time></trkpt><trkpt lat="43.0867127" lon="13.255171"><ele>544.0</ele><time>2026-04-29T17:33:55.279Z</time></trkpt><trkpt lat="43.0867495" lon="13.2552678"><ele>546.0</ele><time>2026-04-29T17:33:57.28Z</time></trkpt><trkpt lat="43.0867948" lon="13.2553437"><ele>548.0</ele><time>2026-04-29T17:33:59.327Z</time></trkpt><trkpt lat="43.0868785" lon="13.2553753"><ele>550.0</ele><time>2026-04-29T17:34:02.264Z</time></trkpt><trkpt lat="43.0869504" lon="13.2553994"><ele>552.0</ele><time>2026-04-29T17:34:04.289Z</time></trkpt><trkpt lat="43.0870262" lon="13.255462"><ele>552.0</ele><time>2026-04-29T17:34:06.286Z</time></trkpt><trkpt lat="43.0870879" lon="13.2555664"><ele>552.0</ele><time>2026-04-29T17:34:08.268Z</time></trkpt><trkpt lat="43.0871567" lon="13.2556824"><ele>552.0</ele><time>2026-04-29T17:34:10.305Z</time></trkpt><trkpt lat="43.0872178" lon="13.2557742"><ele>552.0</ele><time>2026-04-29T17:34:12.278Z</time></trkpt><trkpt lat="43.0872651" lon="13.2558333"><ele>552.0</ele><time>2026-04-29T17:34:14.271Z</time></trkpt><trkpt lat="43.0873302" lon="13.2558756"><ele>552.0</ele><time>2026-04-29T17:34:16.272Z</time></trkpt><trkpt lat="43.0874126" lon="13.2559007"><ele>550.5</ele><time>2026-04-29T17:34:18.294Z</time></trkpt><trkpt lat="43.0874828" lon="13.2558963"><ele>549.0</ele><time>2026-04-29T17:34:20.284Z</time></trkpt><trkpt lat="43.0875583" lon="13.2558945"><ele>547.5</ele><time>2026-04-29T17:34:22.297Z</time></trkpt><trkpt lat="43.0876452" lon="13.255873"><ele>546.0</ele><time>2026-04-29T17:34:24.284Z</time></trkpt><trkpt lat="43.0877207" lon="13.2558485"><ele>544.5</ele><time>2026-04-29T17:34:26.265Z</time></trkpt><trkpt lat="43.0878041" lon="13.2558161"><ele>543.0</ele><time>2026-04-29T17:34:28.271Z</time></trkpt><trkpt lat="43.0879012" lon="13.2557786"><ele>543.0</ele><time>2026-04-29T17:34:30.305Z</time></trkpt><trkpt lat="43.0879986" lon="13.2557271"><ele>543.0</ele><time>2026-04-29T17:34:32.31Z</time></trkpt><trkpt lat="43.0880892" lon="13.25569"><ele>543.0</ele><time>2026-04-29T17:34:34.298Z</time></trkpt><trkpt lat="43.088166" lon="13.2557084"><ele>543.0</ele><time>2026-04-29T17:34:37.289Z</time></trkpt><trkpt lat="43.088216" lon="13.255775"><ele>543.0</ele><time>2026-04-29T17:34:41.247Z</time></trkpt><trkpt lat="43.0883125" lon="13.2558005"><ele>543.0</ele><time>2026-04-29T17:34:45.301Z</time></trkpt><trkpt lat="43.0884145" lon="13.2558014"><ele>540.6</ele><time>2026-04-29T17:34:47.278Z</time></trkpt><trkpt lat="43.088545" lon="13.2557657"><ele>538.1999999999999</ele><time>2026-04-29T17:34:49.293Z</time></trkpt><trkpt lat="43.0886555" lon="13.2557438"><ele>535.8</ele><time>2026-04-29T17:34:50.285Z</time></trkpt><trkpt lat="43.0887802" lon="13.2557258"><ele>533.4</ele><time>2026-04-29T17:34:51.255Z</time></trkpt><trkpt lat="43.0888515" lon="13.2557001"><ele>531.0</ele><time>2026-04-29T17:34:52.262Z</time></trkpt><trkpt lat="43.0889215" lon="13.2556818"><ele>531.0</ele><time>2026-04-29T17:34:53.278Z</time></trkpt><trkpt lat="43.0890037" lon="13.2556482"><ele>531.0</ele><time>2026-04-29T17:34:54.304Z</time></trkpt><trkpt lat="43.0890737" lon="13.2556202"><ele>531.0</ele><time>2026-04-29T17:34:55.329Z</time></trkpt><trkpt lat="43.0891929" lon="13.2555927"><ele>531.0</ele><time>2026-04-29T17:34:56.252Z</time></trkpt><trkpt lat="43.0892901" lon="13.2555523"><ele>531.0</ele><time>2026-04-29T17:34:58.296Z</time></trkpt><trkpt lat="43.0894484" lon="13.255575"><ele>527.6666666666666</ele><time>2026-04-29T17:35:01.25Z</time></trkpt><trkpt lat="43.0895015" lon="13.2556422"><ele>524.3333333333334</ele><time>2026-04-29T17:35:02.282Z</time></trkpt><trkpt lat="43.089552" lon="13.2557115"><ele>521.0</ele><time>2026-04-29T17:35:03.3Z</time></trkpt><trkpt lat="43.0896252" lon="13.2558216"><ele>517.6666666666667</ele><time>2026-04-29T17:35:05.258Z</time></trkpt><trkpt lat="43.0896683" lon="13.2558876"><ele>514.3333333333334</ele><time>2026-04-29T17:35:06.264Z</time></trkpt><trkpt lat="43.0897132" lon="13.255954"><ele>511.0</ele><time>2026-04-29T17:35:07.287Z</time></trkpt><trkpt lat="43.0897707" lon="13.2560221"><ele>511.0</ele><time>2026-04-29T17:35:08.285Z</time></trkpt><trkpt lat="43.08985" lon="13.2560801"><ele>511.0</ele><time>2026-04-29T17:35:09.302Z</time></trkpt><trkpt lat="43.0899568" lon="13.256128"><ele>511.0</ele><time>2026-04-29T17:35:10.269Z</time></trkpt><trkpt lat="43.0900598" lon="13.2561737"><ele>511.0</ele><time>2026-04-29T17:35:11.25Z</time></trkpt><trkpt lat="43.0901386" lon="13.2562079"><ele>511.0</ele><time>2026-04-29T17:35:12.289Z</time></trkpt><trkpt lat="43.0902072" lon="13.2562377"><ele>509.1666666666667</ele><time>2026-04-29T17:35:13.264Z</time></trkpt><trkpt lat="43.0902768" lon="13.256263"><ele>507.33333333333337</ele><time>2026-04-29T17:35:14.29Z</time></trkpt><trkpt lat="43.0903451" lon="13.2562703"><ele>505.5</ele><time>2026-04-29T17:35:15.298Z</time></trkpt><trkpt lat="43.0904585" lon="13.256247"><ele>503.66666666666663</ele><time>2026-04-29T17:35:17.349Z</time></trkpt><trkpt lat="43.0905259" lon="13.2562158"><ele>501.8333333333333</ele><time>2026-04-29T17:35:18.269Z</time></trkpt><trkpt lat="43.0905911" lon="13.2561817"><ele>500.0</ele><time>2026-04-29T17:35:19.274Z</time></trkpt><trkpt lat="43.0906618" lon="13.2561331"><ele>500.0</ele><time>2026-04-29T17:35:20.288Z</time></trkpt><trkpt lat="43.0907255" lon="13.2561024"><ele>500.0</ele><time>2026-04-29T17:35:21.254Z</time></trkpt><trkpt lat="43.0907909" lon="13.2560866"><ele>500.0</ele><time>2026-04-29T17:35:22.28Z</time></trkpt><trkpt lat="43.0908976" lon="13.2561473"><ele>500.0</ele><time>2026-04-29T17:35:24.279Z</time></trkpt><trkpt lat="43.0909623" lon="13.2561912"><ele>500.0</ele><time>2026-04-29T17:35:25.301Z</time></trkpt><trkpt lat="43.0910501" lon="13.2563303"><ele>499.3333333333333</ele><time>2026-04-29T17:35:27.255Z</time></trkpt><trkpt lat="43.0910847" lon="13.2564376"><ele>498.66666666666663</ele><time>2026-04-29T17:35:28.269Z</time></trkpt><trkpt lat="43.0911011" lon="13.2565248"><ele>498.0</ele><time>2026-04-29T17:35:29.313Z</time></trkpt><trkpt lat="43.0911343" lon="13.2566443"><ele>497.33333333333337</ele><time>2026-04-29T17:35:31.298Z</time></trkpt><trkpt lat="43.0911616" lon="13.2567382"><ele>496.6666666666667</ele><time>2026-04-29T17:35:33.283Z</time></trkpt><trkpt lat="43.09114" lon="13.2568288"><ele>496.0</ele><time>2026-04-29T17:35:35.291Z</time></trkpt><trkpt lat="43.091081" lon="13.2569339"><ele>494.4</ele><time>2026-04-29T17:35:37.251Z</time></trkpt><trkpt lat="43.0910618" lon="13.2570331"><ele>492.8</ele><time>2026-04-29T17:35:39.29Z</time></trkpt><trkpt lat="43.091039" lon="13.2573264"><ele>491.19999999999993</ele><time>2026-04-29T17:35:41.254Z</time></trkpt><trkpt lat="43.0910421" lon="13.2574284"><ele>489.59999999999997</ele><time>2026-04-29T17:35:42.29Z</time></trkpt><trkpt lat="43.0910357" lon="13.2575149"><ele>488.0</ele><time>2026-04-29T17:35:43.284Z</time></trkpt><trkpt lat="43.091025" lon="13.2576022"><ele>486.16666666666663</ele><time>2026-04-29T17:35:44.289Z</time></trkpt><trkpt lat="43.0909964" lon="13.2577052"><ele>484.3333333333333</ele><time>2026-04-29T17:35:45.295Z</time></trkpt><trkpt lat="43.0909581" lon="13.2577981"><ele>482.5</ele><time>2026-04-29T17:35:46.283Z</time></trkpt><trkpt lat="43.0909143" lon="13.2579037"><ele>480.66666666666663</ele><time>2026-04-29T17:35:47.305Z</time></trkpt><trkpt lat="43.0908671" lon="13.2580022"><ele>478.8333333333333</ele><time>2026-04-29T17:35:48.266Z</time></trkpt><trkpt lat="43.0908256" lon="13.2580898"><ele>477.0</ele><time>2026-04-29T17:35:49.288Z</time></trkpt><trkpt lat="43.0907783" lon="13.258186"><ele>475.1666666666667</ele><time>2026-04-29T17:35:50.26Z</time></trkpt><trkpt lat="43.0907447" lon="13.2582664"><ele>473.33333333333337</ele><time>2026-04-29T17:35:51.309Z</time></trkpt><trkpt lat="43.0907259" lon="13.2583493"><ele>471.5</ele><time>2026-04-29T17:35:52.278Z</time></trkpt><trkpt lat="43.0907126" lon="13.2584336"><ele>469.6666666666667</ele><time>2026-04-29T17:35:53.278Z</time></trkpt><trkpt lat="43.0907128" lon="13.2585285"><ele>467.83333333333337</ele><time>2026-04-29T17:35:54.295Z</time></trkpt><trkpt lat="43.0907131" lon="13.2587169"><ele>466.0</ele><time>2026-04-29T17:35:55.281Z</time></trkpt><trkpt lat="43.0907226" lon="13.2588992"><ele>465.6</ele><time>2026-04-29T17:35:56.289Z</time></trkpt><trkpt lat="43.0907573" lon="13.25901"><ele>465.20000000000005</ele><time>2026-04-29T17:35:57.276Z</time></trkpt><trkpt lat="43.0908426" lon="13.2590744"><ele>464.79999999999995</ele><time>2026-04-29T17:35:58.287Z</time></trkpt><trkpt lat="43.0909192" lon="13.2591163"><ele>464.4</ele><time>2026-04-29T17:35:59.281Z</time></trkpt><trkpt lat="43.0909951" lon="13.2591924"><ele>464.0</ele><time>2026-04-29T17:36:00.283Z</time></trkpt><trkpt lat="43.0910623" lon="13.2592703"><ele>464.0</ele><time>2026-04-29T17:36:01.277Z</time></trkpt><trkpt lat="43.0911165" lon="13.2593582"><ele>464.0</ele><time>2026-04-29T17:36:02.293Z</time></trkpt><trkpt lat="43.091154" lon="13.2594576"><ele>464.0</ele><time>2026-04-29T17:36:04.264Z</time></trkpt><trkpt lat="43.0910731" lon="13.2595942"><ele>464.0</ele><time>2026-04-29T17:36:06.282Z</time></trkpt><trkpt lat="43.0910124" lon="13.25971"><ele>464.0</ele><time>2026-04-29T17:36:08.323Z</time></trkpt><trkpt lat="43.090998" lon="13.259803"><ele>463.4</ele><time>2026-04-29T17:36:10.304Z</time></trkpt><trkpt lat="43.0909999" lon="13.2599131"><ele>462.79999999999995</ele><time>2026-04-29T17:36:12.357Z</time></trkpt><trkpt lat="43.0910216" lon="13.2600165"><ele>462.20000000000005</ele><time>2026-04-29T17:36:13.303Z</time></trkpt><trkpt lat="43.0910573" lon="13.2601861"><ele>461.6</ele><time>2026-04-29T17:36:14.279Z</time></trkpt><trkpt lat="43.0910871" lon="13.2603269"><ele>461.0</ele><time>2026-04-29T17:36:15.303Z</time></trkpt><trkpt lat="43.0911241" lon="13.2604716"><ele>461.0</ele><time>2026-04-29T17:36:16.28Z</time></trkpt><trkpt lat="43.0911553" lon="13.2606155"><ele>461.0</ele><time>2026-04-29T17:36:17.252Z</time></trkpt><trkpt lat="43.0911932" lon="13.2607769"><ele>461.0</ele><time>2026-04-29T17:36:18.282Z</time></trkpt><trkpt lat="43.091224" lon="13.260949"><ele>461.0</ele><time>2026-04-29T17:36:19.307Z</time></trkpt><trkpt lat="43.0912527" lon="13.2610885"><ele>460.8333333333333</ele><time>2026-04-29T17:36:20.285Z</time></trkpt><trkpt lat="43.0912729" lon="13.2611893"><ele>460.66666666666663</ele><time>2026-04-29T17:36:21.29Z</time></trkpt><trkpt lat="43.0912972" lon="13.2613113"><ele>460.5</ele><time>2026-04-29T17:36:22.267Z</time></trkpt><trkpt lat="43.0913164" lon="13.2614166"><ele>460.33333333333337</ele><time>2026-04-29T17:36:23.243Z</time></trkpt><trkpt lat="43.0913352" lon="13.261503"><ele>460.1666666666667</ele><time>2026-04-29T17:36:24.284Z</time></trkpt><trkpt lat="43.0913557" lon="13.2616644"><ele>460.0</ele><time>2026-04-29T17:36:26.288Z</time></trkpt><trkpt lat="43.0913761" lon="13.2617687"><ele>458.83333333333337</ele><time>2026-04-29T17:36:27.278Z</time></trkpt><trkpt lat="43.0913972" lon="13.2619009"><ele>457.6666666666667</ele><time>2026-04-29T17:36:28.316Z</time></trkpt><trkpt lat="43.0914165" lon="13.2620304"><ele>456.5</ele><time>2026-04-29T17:36:29.282Z</time></trkpt><trkpt lat="43.0914458" lon="13.2621728"><ele>455.33333333333337</ele><time>2026-04-29T17:36:30.304Z</time></trkpt><trkpt lat="43.0914566" lon="13.262266"><ele>454.1666666666667</ele><time>2026-04-29T17:36:31.276Z</time></trkpt><trkpt lat="43.0914711" lon="13.2623506"><ele>453.0</ele><time>2026-04-29T17:36:32.296Z</time></trkpt><trkpt lat="43.0914831" lon="13.2624385"><ele>454.79999999999995</ele><time>2026-04-29T17:36:33.287Z</time></trkpt><trkpt lat="43.0915182" lon="13.2625832"><ele>456.59999999999997</ele><time>2026-04-29T17:36:35.26Z</time></trkpt><trkpt lat="43.0915502" lon="13.2627023"><ele>458.40000000000003</ele><time>2026-04-29T17:36:36.282Z</time></trkpt><trkpt lat="43.0915832" lon="13.262814"><ele>460.20000000000005</ele><time>2026-04-29T17:36:37.268Z</time></trkpt><trkpt lat="43.0916188" lon="13.2629297"><ele>462.0</ele><time>2026-04-29T17:36:38.311Z</time></trkpt><trkpt lat="43.0916538" lon="13.2630543"><ele>459.8</ele><time>2026-04-29T17:36:39.28Z</time></trkpt><trkpt lat="43.0916798" lon="13.2631333"><ele>457.6</ele><time>2026-04-29T17:36:40.305Z</time></trkpt><trkpt lat="43.0917227" lon="13.2632285"><ele>455.40000000000003</ele><time>2026-04-29T17:36:42.286Z</time></trkpt><trkpt lat="43.0917838" lon="13.2633271"><ele>453.20000000000005</ele><time>2026-04-29T17:36:44.281Z</time></trkpt><trkpt lat="43.0918699" lon="13.2634638"><ele>451.0</ele><time>2026-04-29T17:36:46.279Z</time></trkpt><trkpt lat="43.0919203" lon="13.263553"><ele>451.00000000000006</ele><time>2026-04-29T17:36:47.244Z</time></trkpt><trkpt lat="43.0919962" lon="13.2636613"><ele>451.0</ele><time>2026-04-29T17:36:48.296Z</time></trkpt><trkpt lat="43.0920705" lon="13.2637648"><ele>451.0</ele><time>2026-04-29T17:36:49.301Z</time></trkpt><trkpt lat="43.0921397" lon="13.2638562"><ele>451.0</ele><time>2026-04-29T17:36:50.295Z</time></trkpt><trkpt lat="43.0921903" lon="13.2639096"><ele>451.00000000000006</ele><time>2026-04-29T17:36:51.294Z</time></trkpt><trkpt lat="43.0922403" lon="13.2639681"><ele>451.0</ele><time>2026-04-29T17:36:52.254Z</time></trkpt><trkpt lat="43.0922946" lon="13.2640184"><ele>450.83333333333337</ele><time>2026-04-29T17:36:53.291Z</time></trkpt><trkpt lat="43.0923668" lon="13.2641292"><ele>450.6666666666667</ele><time>2026-04-29T17:36:55.325Z</time></trkpt><trkpt lat="43.0923893" lon="13.2642152"><ele>450.5</ele><time>2026-04-29T17:36:56.27Z</time></trkpt><trkpt lat="43.0924098" lon="13.2643059"><ele>450.33333333333337</ele><time>2026-04-29T17:36:57.254Z</time></trkpt><trkpt lat="43.0924528" lon="13.2644417"><ele>450.1666666666667</ele><time>2026-04-29T17:36:59.293Z</time></trkpt><trkpt lat="43.0924957" lon="13.2645287"><ele>450.0</ele><time>2026-04-29T17:37:01.309Z</time></trkpt><trkpt lat="43.0925359" lon="13.2646255"><ele>450.0</ele><time>2026-04-29T17:37:03.287Z</time></trkpt><trkpt lat="43.0925959" lon="13.2647389"><ele>450.0</ele><time>2026-04-29T17:37:06.311Z</time></trkpt><trkpt lat="43.0926456" lon="13.2648788"><ele>450.0</ele><time>2026-04-29T17:37:08.282Z</time></trkpt><trkpt lat="43.0926711" lon="13.2649897"><ele>450.0</ele><time>2026-04-29T17:37:10.282Z</time></trkpt><trkpt lat="43.0926976" lon="13.2651023"><ele>450.0</ele><time>2026-04-29T17:37:13.296Z</time></trkpt><trkpt lat="43.0928176" lon="13.2651971"><ele>448.2</ele><time>2026-04-29T17:37:15.288Z</time></trkpt><trkpt lat="43.0928925" lon="13.2652563"><ele>446.4</ele><time>2026-04-29T17:37:16.288Z</time></trkpt><trkpt lat="43.0929706" lon="13.2653129"><ele>444.6</ele><time>2026-04-29T17:37:17.263Z</time></trkpt><trkpt lat="43.0930458" lon="13.2654022"><ele>442.8</ele><time>2026-04-29T17:37:18.282Z</time></trkpt><trkpt lat="43.0931153" lon="13.2655022"><ele>441.0</ele><time>2026-04-29T17:37:19.306Z</time></trkpt><trkpt lat="43.09318" lon="13.2656054"><ele>438.5</ele><time>2026-04-29T17:37:20.305Z</time></trkpt><trkpt lat="43.0932704" lon="13.2656837"><ele>436.0</ele><time>2026-04-29T17:37:21.265Z</time></trkpt><trkpt lat="43.0933326" lon="13.2657375"><ele>433.5</ele><time>2026-04-29T17:37:22.26Z</time></trkpt><trkpt lat="43.0933901" lon="13.2657917"><ele>431.0</ele><time>2026-04-29T17:37:23.31Z</time></trkpt><trkpt lat="43.0934473" lon="13.2658437"><ele>428.5</ele><time>2026-04-29T17:37:24.276Z</time></trkpt><trkpt lat="43.0935104" lon="13.2659064"><ele>426.0</ele><time>2026-04-29T17:37:25.284Z</time></trkpt><trkpt lat="43.0935758" lon="13.2659873"><ele>426.0</ele><time>2026-04-29T17:37:26.291Z</time></trkpt><trkpt lat="43.0936383" lon="13.2660722"><ele>426.0</ele><time>2026-04-29T17:37:27.251Z</time></trkpt><trkpt lat="43.093712" lon="13.2662218"><ele>426.0</ele><time>2026-04-29T17:37:29.335Z</time></trkpt><trkpt lat="43.0937586" lon="13.2663287"><ele>426.0</ele><time>2026-04-29T17:37:31.285Z</time></trkpt><trkpt lat="43.0938322" lon="13.2664149"><ele>426.0</ele><time>2026-04-29T17:37:33.286Z</time></trkpt><trkpt lat="43.0938958" lon="13.2664069"><ele>426.0</ele><time>2026-04-29T17:37:34.279Z</time></trkpt><trkpt lat="43.0939588" lon="13.2663829"><ele>426.0</ele><time>2026-04-29T17:37:35.288Z</time></trkpt><trkpt lat="43.0940319" lon="13.2663416"><ele>426.0</ele><time>2026-04-29T17:37:36.295Z</time></trkpt><trkpt lat="43.0941218" lon="13.2662859"><ele>426.0</ele><time>2026-04-29T17:37:37.272Z</time></trkpt><trkpt lat="43.0942125" lon="13.266227"><ele>426.0</ele><time>2026-04-29T17:37:38.31Z</time></trkpt><trkpt lat="43.0942954" lon="13.2661675"><ele>426.0</ele><time>2026-04-29T17:37:39.279Z</time></trkpt><trkpt lat="43.0943748" lon="13.2661095"><ele>425.0</ele><time>2026-04-29T17:37:40.353Z</time></trkpt><trkpt lat="43.0944541" lon="13.266056"><ele>424.0</ele><time>2026-04-29T17:37:41.28Z</time></trkpt><trkpt lat="43.0945345" lon="13.2660174"><ele>423.0</ele><time>2026-04-29T17:37:42.271Z</time></trkpt><trkpt lat="43.0946383" lon="13.2659874"><ele>422.0</ele><time>2026-04-29T17:37:43.284Z</time></trkpt><trkpt lat="43.0947573" lon="13.2659703"><ele>421.0</ele><time>2026-04-29T17:37:44.289Z</time></trkpt><trkpt lat="43.0948622" lon="13.2659542"><ele>419.0</ele><time>2026-04-29T17:37:45.31Z</time></trkpt><trkpt lat="43.0949599" lon="13.2659334"><ele>417.0</ele><time>2026-04-29T17:37:46.279Z</time></trkpt><trkpt lat="43.0950524" lon="13.2659072"><ele>415.0</ele><time>2026-04-29T17:37:47.285Z</time></trkpt><trkpt lat="43.095139" lon="13.2658729"><ele>413.0</ele><time>2026-04-29T17:37:48.26Z</time></trkpt><trkpt lat="43.0952232" lon="13.2658396"><ele>411.0</ele><time>2026-04-29T17:37:49.288Z</time></trkpt><trkpt lat="43.0952963" lon="13.2657965"><ele>411.0</ele><time>2026-04-29T17:37:50.299Z</time></trkpt><trkpt lat="43.095368" lon="13.2657569"><ele>411.0</ele><time>2026-04-29T17:37:51.306Z</time></trkpt><trkpt lat="43.0954344" lon="13.2657183"><ele>411.0</ele><time>2026-04-29T17:37:52.295Z</time></trkpt><trkpt lat="43.0954952" lon="13.2656855"><ele>411.0</ele><time>2026-04-29T17:37:53.287Z</time></trkpt><trkpt lat="43.0956104" lon="13.2656398"><ele>411.0</ele><time>2026-04-29T17:37:55.282Z</time></trkpt><trkpt lat="43.0957333" lon="13.2656477"><ele>409.6</ele><time>2026-04-29T17:37:57.268Z</time></trkpt><trkpt lat="43.0957914" lon="13.2656971"><ele>408.20000000000005</ele><time>2026-04-29T17:37:58.271Z</time></trkpt><trkpt lat="43.0958735" lon="13.2657899"><ele>406.79999999999995</ele><time>2026-04-29T17:38:00.298Z</time></trkpt><trkpt lat="43.0959515" lon="13.265858"><ele>405.4</ele><time>2026-04-29T17:38:02.291Z</time></trkpt><trkpt lat="43.0960494" lon="13.2658991"><ele>404.0</ele><time>2026-04-29T17:38:04.305Z</time></trkpt><trkpt lat="43.096158" lon="13.2659362"><ele>404.0</ele><time>2026-04-29T17:38:06.288Z</time></trkpt><trkpt lat="43.0962218" lon="13.2659495"><ele>404.0</ele><time>2026-04-29T17:38:07.291Z</time></trkpt><trkpt lat="43.0963335" lon="13.2660131"><ele>404.0</ele><time>2026-04-29T17:38:09.301Z</time></trkpt><trkpt lat="43.0964622" lon="13.2660493"><ele>404.0</ele><time>2026-04-29T17:38:11.296Z</time></trkpt><trkpt lat="43.096545" lon="13.2660449"><ele>404.0</ele><time>2026-04-29T17:38:12.315Z</time></trkpt><trkpt lat="43.0966434" lon="13.2660329"><ele>403.75</ele><time>2026-04-29T17:38:13.284Z</time></trkpt><trkpt lat="43.0967448" lon="13.2660194"><ele>403.5</ele><time>2026-04-29T17:38:14.298Z</time></trkpt><trkpt lat="43.0968571" lon="13.2660055"><ele>403.25</ele><time>2026-04-29T17:38:15.3Z</time></trkpt><trkpt lat="43.0969796" lon="13.265979"><ele>403.0</ele><time>2026-04-29T17:38:16.26Z</time></trkpt><trkpt lat="43.0971057" lon="13.2659517"><ele>403.0</ele><time>2026-04-29T17:38:17.289Z</time></trkpt><trkpt lat="43.0972316" lon="13.2659152"><ele>403.0</ele><time>2026-04-29T17:38:18.277Z</time></trkpt><trkpt lat="43.097355" lon="13.2658797"><ele>403.0</ele><time>2026-04-29T17:38:19.336Z</time></trkpt><trkpt lat="43.0974745" lon="13.2658416"><ele>403.0</ele><time>2026-04-29T17:38:20.313Z</time></trkpt><trkpt lat="43.0975948" lon="13.265805"><ele>404.25</ele><time>2026-04-29T17:38:21.307Z</time></trkpt><trkpt lat="43.0977136" lon="13.2657687"><ele>405.5</ele><time>2026-04-29T17:38:22.301Z</time></trkpt><trkpt lat="43.097832" lon="13.26573"><ele>406.75</ele><time>2026-04-29T17:38:23.298Z</time></trkpt><trkpt lat="43.0979565" lon="13.2656752"><ele>408.0</ele><time>2026-04-29T17:38:24.286Z</time></trkpt><trkpt lat="43.0980566" lon="13.2655993"><ele>408.0</ele><time>2026-04-29T17:38:25.3Z</time></trkpt><trkpt lat="43.0981618" lon="13.2655162"><ele>408.0</ele><time>2026-04-29T17:38:26.284Z</time></trkpt><trkpt lat="43.0982656" lon="13.2654347"><ele>408.0</ele><time>2026-04-29T17:38:27.311Z</time></trkpt><trkpt lat="43.0983648" lon="13.2653593"><ele>408.0</ele><time>2026-04-29T17:38:28.293Z</time></trkpt><trkpt lat="43.0984635" lon="13.265281"><ele>406.5</ele><time>2026-04-29T17:38:29.304Z</time></trkpt><trkpt lat="43.0985636" lon="13.2651997"><ele>405.0</ele><time>2026-04-29T17:38:30.297Z</time></trkpt><trkpt lat="43.0986659" lon="13.2651163"><ele>403.5</ele><time>2026-04-29T17:38:31.303Z</time></trkpt><trkpt lat="43.0987754" lon="13.2650365"><ele>402.0</ele><time>2026-04-29T17:38:32.284Z</time></trkpt><trkpt lat="43.0988878" lon="13.2649702"><ele>402.0</ele><time>2026-04-29T17:38:33.276Z</time></trkpt><trkpt lat="43.0990152" lon="13.2648925"><ele>402.0</ele><time>2026-04-29T17:38:34.299Z</time></trkpt><trkpt lat="43.0991393" lon="13.2648199"><ele>402.0</ele><time>2026-04-29T17:38:35.307Z</time></trkpt><trkpt lat="43.0992596" lon="13.2647455"><ele>402.0</ele><time>2026-04-29T17:38:36.28Z</time></trkpt><trkpt lat="43.0993905" lon="13.2646618"><ele>402.5</ele><time>2026-04-29T17:38:37.287Z</time></trkpt><trkpt lat="43.099523" lon="13.2645741"><ele>403.0</ele><time>2026-04-29T17:38:38.317Z</time></trkpt><trkpt lat="43.0996441" lon="13.2644898"><ele>403.5</ele><time>2026-04-29T17:38:39.296Z</time></trkpt><trkpt lat="43.0997497" lon="13.264412"><ele>404.0</ele><time>2026-04-29T17:38:40.307Z</time></trkpt><trkpt lat="43.0998473" lon="13.2643469"><ele>402.6</ele><time>2026-04-29T17:38:41.291Z</time></trkpt><trkpt lat="43.0999366" lon="13.2642883"><ele>401.2</ele><time>2026-04-29T17:38:42.277Z</time></trkpt><trkpt lat="43.1000217" lon="13.2642373"><ele>399.8</ele><time>2026-04-29T17:38:43.314Z</time></trkpt><trkpt lat="43.1001093" lon="13.2641853"><ele>398.40000000000003</ele><time>2026-04-29T17:38:44.297Z</time></trkpt><trkpt lat="43.1002143" lon="13.2641477"><ele>397.0</ele><time>2026-04-29T17:38:45.3Z</time></trkpt><trkpt lat="43.1003142" lon="13.2641167"><ele>397.00000000000006</ele><time>2026-04-29T17:38:46.295Z</time></trkpt><trkpt lat="43.1004113" lon="13.2640967"><ele>397.0</ele><time>2026-04-29T17:38:47.306Z</time></trkpt><trkpt lat="43.1005035" lon="13.2640782"><ele>397.0</ele><time>2026-04-29T17:38:48.306Z</time></trkpt><trkpt lat="43.1005835" lon="13.2640639"><ele>397.0</ele><time>2026-04-29T17:38:49.288Z</time></trkpt><trkpt lat="43.1006601" lon="13.2640449"><ele>397.00000000000006</ele><time>2026-04-29T17:38:50.285Z</time></trkpt><trkpt lat="43.1007222" lon="13.2640214"><ele>397.0</ele><time>2026-04-29T17:38:51.277Z</time></trkpt><trkpt lat="43.1008189" lon="13.2639905"><ele>396.50000000000006</ele><time>2026-04-29T17:38:53.295Z</time></trkpt><trkpt lat="43.1008693" lon="13.2640976"><ele>396.0</ele><time>2026-04-29T17:38:56.286Z</time></trkpt><trkpt lat="43.1008701" lon="13.2641973"><ele>395.5</ele><time>2026-04-29T17:38:57.271Z</time></trkpt><trkpt lat="43.1008921" lon="13.2642934"><ele>395.0</ele><time>2026-04-29T17:38:58.277Z</time></trkpt><trkpt lat="43.1009239" lon="13.2643959"><ele>394.50000000000006</ele><time>2026-04-29T17:38:59.301Z</time></trkpt><trkpt lat="43.1009888" lon="13.2644671"><ele>394.0</ele><time>2026-04-29T17:39:00.28Z</time></trkpt><trkpt lat="43.1010873" lon="13.264492"><ele>394.0</ele><time>2026-04-29T17:39:01.286Z</time></trkpt><trkpt lat="43.1011859" lon="13.2645162"><ele>394.0</ele><time>2026-04-29T17:39:02.29Z</time></trkpt><trkpt lat="43.1013019" lon="13.2645543"><ele>394.0</ele><time>2026-04-29T17:39:03.264Z</time></trkpt><trkpt lat="43.1014151" lon="13.2645949"><ele>394.0</ele><time>2026-04-29T17:39:04.296Z</time></trkpt><trkpt lat="43.1015136" lon="13.2646272"><ele>394.0</ele><time>2026-04-29T17:39:05.282Z</time></trkpt><trkpt lat="43.101597" lon="13.264657"><ele>392.83333333333337</ele><time>2026-04-29T17:39:06.299Z</time></trkpt><trkpt lat="43.1016661" lon="13.2646921"><ele>391.6666666666667</ele><time>2026-04-29T17:39:07.292Z</time></trkpt><trkpt lat="43.1017399" lon="13.2648252"><ele>390.5</ele><time>2026-04-29T17:39:09.297Z</time></trkpt><trkpt lat="43.1017269" lon="13.2649099"><ele>389.33333333333337</ele><time>2026-04-29T17:39:10.338Z</time></trkpt><trkpt lat="43.1016712" lon="13.2649923"><ele>388.1666666666667</ele><time>2026-04-29T17:39:11.294Z</time></trkpt><trkpt lat="43.1016097" lon="13.2650773"><ele>387.0</ele><time>2026-04-29T17:39:12.307Z</time></trkpt><trkpt lat="43.101519" lon="13.2651298"><ele>387.0</ele><time>2026-04-29T17:39:13.296Z</time></trkpt><trkpt lat="43.101449" lon="13.2651821"><ele>387.0</ele><time>2026-04-29T17:39:14.297Z</time></trkpt><trkpt lat="43.1014045" lon="13.2652436"><ele>387.0</ele><time>2026-04-29T17:39:15.283Z</time></trkpt><trkpt lat="43.10137" lon="13.2653934"><ele>387.0</ele><time>2026-04-29T17:39:17.299Z</time></trkpt><trkpt lat="43.101423" lon="13.2655016"><ele>387.0</ele><time>2026-04-29T17:39:19.282Z</time></trkpt><trkpt lat="43.1015224" lon="13.2654966"><ele>385.20000000000005</ele><time>2026-04-29T17:39:20.283Z</time></trkpt><trkpt lat="43.1016307" lon="13.2654574"><ele>383.4</ele><time>2026-04-29T17:39:21.287Z</time></trkpt><trkpt lat="43.1017287" lon="13.2654105"><ele>381.6</ele><time>2026-04-29T17:39:22.292Z</time></trkpt><trkpt lat="43.1018052" lon="13.2653751"><ele>379.79999999999995</ele><time>2026-04-29T17:39:23.283Z</time></trkpt><trkpt lat="43.1018713" lon="13.2653488"><ele>378.0</ele><time>2026-04-29T17:39:24.274Z</time></trkpt><trkpt lat="43.1019628" lon="13.2653869"><ele>378.0</ele><time>2026-04-29T17:39:26.263Z</time></trkpt><trkpt lat="43.1019673" lon="13.2654854"><ele>378.0</ele><time>2026-04-29T17:39:28.281Z</time></trkpt><trkpt lat="43.1018414" lon="13.2655549"><ele>378.0</ele><time>2026-04-29T17:39:29.279Z</time></trkpt><trkpt lat="43.1017269" lon="13.2656091"><ele>378.0</ele><time>2026-04-29T17:39:30.271Z</time></trkpt><trkpt lat="43.1015998" lon="13.2656496"><ele>379.79999999999995</ele><time>2026-04-29T17:39:31.258Z</time></trkpt><trkpt lat="43.1014916" lon="13.2656814"><ele>381.6</ele><time>2026-04-29T17:39:32.253Z</time></trkpt><trkpt lat="43.1013886" lon="13.2656802"><ele>383.4</ele><time>2026-04-29T17:39:33.243Z</time></trkpt><trkpt lat="43.1012833" lon="13.2655968"><ele>385.20000000000005</ele><time>2026-04-29T17:39:34.249Z</time></trkpt><trkpt lat="43.1011891" lon="13.2655204"><ele>387.0</ele><time>2026-04-29T17:39:35.244Z</time></trkpt><trkpt lat="43.1011062" lon="13.2654698"><ele>387.0</ele><time>2026-04-29T17:39:36.281Z</time></trkpt><trkpt lat="43.1010258" lon="13.2654452"><ele>387.0</ele><time>2026-04-29T17:39:37.285Z</time></trkpt><trkpt lat="43.10096" lon="13.2654429"><ele>387.0</ele><time>2026-04-29T17:39:38.248Z</time></trkpt><trkpt lat="43.1008478" lon="13.2655426"><ele>387.0</ele><time>2026-04-29T17:39:40.298Z</time></trkpt><trkpt lat="43.1008261" lon="13.2657204"><ele>387.0</ele><time>2026-04-29T17:39:41.292Z</time></trkpt><trkpt lat="43.1007902" lon="13.2659184"><ele>383.0</ele><time>2026-04-29T17:39:42.301Z</time></trkpt><trkpt lat="43.100738" lon="13.2661225"><ele>379.0</ele><time>2026-04-29T17:39:43.25Z</time></trkpt><trkpt lat="43.1006717" lon="13.2663149"><ele>375.0</ele><time>2026-04-29T17:39:44.303Z</time></trkpt><trkpt lat="43.1005977" lon="13.2664978"><ele>369.6666666666667</ele><time>2026-04-29T17:39:45.285Z</time></trkpt><trkpt lat="43.1005125" lon="13.2666715"><ele>364.33333333333337</ele><time>2026-04-29T17:39:46.322Z</time></trkpt><trkpt lat="43.1004229" lon="13.2668494"><ele>359.0</ele><time>2026-04-29T17:39:47.298Z</time></trkpt><trkpt lat="43.1003306" lon="13.2670257"><ele>359.0</ele><time>2026-04-29T17:39:48.257Z</time></trkpt><trkpt lat="43.1002336" lon="13.2671999"><ele>359.0</ele><time>2026-04-29T17:39:49.281Z</time></trkpt><trkpt lat="43.1001256" lon="13.2673314"><ele>359.0</ele><time>2026-04-29T17:39:50.277Z</time></trkpt><trkpt lat="43.1000197" lon="13.267506"><ele>359.0</ele><time>2026-04-29T17:39:51.29Z</time></trkpt><trkpt lat="43.0999377" lon="13.2677227"><ele>359.0</ele><time>2026-04-29T17:39:52.308Z</time></trkpt><trkpt lat="43.0998652" lon="13.2679684"><ele>359.0</ele><time>2026-04-29T17:39:53.261Z</time></trkpt><trkpt lat="43.0998523" lon="13.2682189"><ele>358.0</ele><time>2026-04-29T17:39:54.302Z</time></trkpt><trkpt lat="43.0998481" lon="13.2684722"><ele>357.0</ele><time>2026-04-29T17:39:55.308Z</time></trkpt><trkpt lat="43.0998404" lon="13.2687013"><ele>356.0</ele><time>2026-04-29T17:39:56.3Z</time></trkpt><trkpt lat="43.099823" lon="13.2689241"><ele>358.0</ele><time>2026-04-29T17:39:57.29Z</time></trkpt><trkpt lat="43.0997892" lon="13.2691251"><ele>360.0</ele><time>2026-04-29T17:39:58.247Z</time></trkpt><trkpt lat="43.0997036" lon="13.2692912"><ele>362.0</ele><time>2026-04-29T17:39:59.282Z</time></trkpt><trkpt lat="43.0996292" lon="13.2693978"><ele>364.0</ele><time>2026-04-29T17:40:00.313Z</time></trkpt><trkpt lat="43.0995749" lon="13.2694662"><ele>364.0</ele><time>2026-04-29T17:40:01.292Z</time></trkpt><trkpt lat="43.0995245" lon="13.2695463"><ele>364.0</ele><time>2026-04-29T17:40:02.292Z</time></trkpt><trkpt lat="43.0995543" lon="13.2696717"><ele>364.0</ele><time>2026-04-29T17:40:04.288Z</time></trkpt><trkpt lat="43.0996404" lon="13.2696733"><ele>364.0</ele><time>2026-04-29T17:40:05.311Z</time></trkpt><trkpt lat="43.0997236" lon="13.269643"><ele>364.0</ele><time>2026-04-29T17:40:06.297Z</time></trkpt><trkpt lat="43.0997984" lon="13.2695642"><ele>364.0</ele><time>2026-04-29T17:40:07.318Z</time></trkpt><trkpt lat="43.0998899" lon="13.2693973"><ele>364.0</ele><time>2026-04-29T17:40:08.246Z</time></trkpt><trkpt lat="43.0999954" lon="13.2692471"><ele>364.0</ele><time>2026-04-29T17:40:09.3Z</time></trkpt><trkpt lat="43.1001064" lon="13.2691305"><ele>364.0</ele><time>2026-04-29T17:40:10.314Z</time></trkpt><trkpt lat="43.1002217" lon="13.2690156"><ele>364.0</ele><time>2026-04-29T17:40:11.288Z</time></trkpt><trkpt lat="43.1003437" lon="13.2688799"><ele>364.0</ele><time>2026-04-29T17:40:12.299Z</time></trkpt><trkpt lat="43.1004271" lon="13.2687563"><ele>364.0</ele><time>2026-04-29T17:40:13.264Z</time></trkpt><trkpt lat="43.1005138" lon="13.2686536"><ele>364.0</ele><time>2026-04-29T17:40:14.299Z</time></trkpt><trkpt lat="43.1005977" lon="13.2686475"><ele>364.0</ele><time>2026-04-29T17:40:15.253Z</time></trkpt><trkpt lat="43.10069" lon="13.268679"><ele>364.0</ele><time>2026-04-29T17:40:16.3Z</time></trkpt><trkpt lat="43.1007888" lon="13.2687549"><ele>367.66666666666663</ele><time>2026-04-29T17:40:17.278Z</time></trkpt><trkpt lat="43.1008965" lon="13.2688529"><ele>371.3333333333333</ele><time>2026-04-29T17:40:18.251Z</time></trkpt><trkpt lat="43.1010319" lon="13.2690124"><ele>375.0</ele><time>2026-04-29T17:40:19.288Z</time></trkpt><trkpt lat="43.1011536" lon="13.2691701"><ele>377.0</ele><time>2026-04-29T17:40:20.279Z</time></trkpt><trkpt lat="43.1012449" lon="13.269315"><ele>379.0</ele><time>2026-04-29T17:40:21.279Z</time></trkpt><trkpt lat="43.1012851" lon="13.2694653"><ele>381.0</ele><time>2026-04-29T17:40:22.282Z</time></trkpt><trkpt lat="43.1012874" lon="13.2696003"><ele>383.0</ele><time>2026-04-29T17:40:23.264Z</time></trkpt><trkpt lat="43.1012744" lon="13.2697119"><ele>385.0</ele><time>2026-04-29T17:40:24.279Z</time></trkpt><trkpt lat="43.1012629" lon="13.269803"><ele>385.83333333333337</ele><time>2026-04-29T17:40:25.295Z</time></trkpt><trkpt lat="43.1012189" lon="13.2699238"><ele>386.6666666666667</ele><time>2026-04-29T17:40:27.271Z</time></trkpt><trkpt lat="43.101183" lon="13.2700077"><ele>387.5</ele><time>2026-04-29T17:40:29.275Z</time></trkpt><trkpt lat="43.1012226" lon="13.2701055"><ele>388.33333333333337</ele><time>2026-04-29T17:40:31.291Z</time></trkpt><trkpt lat="43.1012252" lon="13.2702568"><ele>389.1666666666667</ele><time>2026-04-29T17:40:33.261Z</time></trkpt><trkpt lat="43.101229" lon="13.2703476"><ele>390.0</ele><time>2026-04-29T17:40:34.293Z</time></trkpt><trkpt lat="43.1012446" lon="13.2704404"><ele>390.0</ele><time>2026-04-29T17:40:35.29Z</time></trkpt><trkpt lat="43.1012713" lon="13.2705316"><ele>390.0</ele><time>2026-04-29T17:40:36.342Z</time></trkpt><trkpt lat="43.101306" lon="13.2706165"><ele>390.0</ele><time>2026-04-29T17:40:37.301Z</time></trkpt><trkpt lat="43.1013588" lon="13.2707521"><ele>390.0</ele><time>2026-04-29T17:40:39.31Z</time></trkpt><trkpt lat="43.1014137" lon="13.2709024"><ele>390.0</ele><time>2026-04-29T17:40:41.304Z</time></trkpt><trkpt lat="43.1014424" lon="13.2709966"><ele>391.8</ele><time>2026-04-29T17:40:42.311Z</time></trkpt><trkpt lat="43.101485" lon="13.2711252"><ele>393.6</ele><time>2026-04-29T17:40:43.3Z</time></trkpt><trkpt lat="43.1015198" lon="13.2712518"><ele>395.4</ele><time>2026-04-29T17:40:44.303Z</time></trkpt><trkpt lat="43.1015503" lon="13.2713637"><ele>397.2</ele><time>2026-04-29T17:40:45.302Z</time></trkpt><trkpt lat="43.1015828" lon="13.2714687"><ele>399.0</ele><time>2026-04-29T17:40:46.294Z</time></trkpt><trkpt lat="43.1016167" lon="13.2715639"><ele>399.79999999999995</ele><time>2026-04-29T17:40:47.292Z</time></trkpt><trkpt lat="43.1016679" lon="13.2716812"><ele>400.59999999999997</ele><time>2026-04-29T17:40:49.284Z</time></trkpt><trkpt lat="43.1017865" lon="13.27179"><ele>401.4</ele><time>2026-04-29T17:40:51.294Z</time></trkpt><trkpt lat="43.1018713" lon="13.2718345"><ele>402.2</ele><time>2026-04-29T17:40:52.283Z</time></trkpt><trkpt lat="43.1019504" lon="13.271885"><ele>403.0</ele><time>2026-04-29T17:40:53.308Z</time></trkpt><trkpt lat="43.1020251" lon="13.2719346"><ele>403.00000000000006</ele><time>2026-04-29T17:40:54.297Z</time></trkpt><trkpt lat="43.1020938" lon="13.2719728"><ele>403.0</ele><time>2026-04-29T17:40:55.293Z</time></trkpt><trkpt lat="43.1021573" lon="13.2720129"><ele>403.0</ele><time>2026-04-29T17:40:56.27Z</time></trkpt><trkpt lat="43.1022255" lon="13.272012"><ele>403.0</ele><time>2026-04-29T17:40:57.297Z</time></trkpt><trkpt lat="43.1023364" lon="13.2719836"><ele>403.00000000000006</ele><time>2026-04-29T17:40:59.307Z</time></trkpt><trkpt lat="43.1024232" lon="13.2719874"><ele>403.0</ele><time>2026-04-29T17:41:01.279Z</time></trkpt><trkpt lat="43.1024863" lon="13.2720456"><ele>404.4</ele><time>2026-04-29T17:41:03.321Z</time></trkpt><trkpt lat="43.1024435" lon="13.2721716"><ele>405.79999999999995</ele><time>2026-04-29T17:41:06.294Z</time></trkpt><trkpt lat="43.102359" lon="13.2722778"><ele>407.2</ele><time>2026-04-29T17:41:08.277Z</time></trkpt><trkpt lat="43.1022944" lon="13.2723782"><ele>408.6</ele><time>2026-04-29T17:41:10.285Z</time></trkpt><trkpt lat="43.1022048" lon="13.2724495"><ele>410.0</ele><time>2026-04-29T17:41:12.272Z</time></trkpt><trkpt lat="43.1021385" lon="13.2724801"><ele>411.0</ele><time>2026-04-29T17:41:13.269Z</time></trkpt><trkpt lat="43.102073" lon="13.2725059"><ele>412.0</ele><time>2026-04-29T17:41:14.253Z</time></trkpt><trkpt lat="43.101991" lon="13.2725123"><ele>413.0</ele><time>2026-04-29T17:41:15.268Z</time></trkpt><trkpt lat="43.1018611" lon="13.2725344"><ele>414.0</ele><time>2026-04-29T17:41:16.316Z</time></trkpt><trkpt lat="43.1017084" lon="13.272581"><ele>415.0</ele><time>2026-04-29T17:41:17.261Z</time></trkpt><trkpt lat="43.1015813" lon="13.2726158"><ele>416.6</ele><time>2026-04-29T17:41:18.305Z</time></trkpt><trkpt lat="43.1014861" lon="13.2726394"><ele>418.2</ele><time>2026-04-29T17:41:19.272Z</time></trkpt><trkpt lat="43.1013724" lon="13.2726656"><ele>419.79999999999995</ele><time>2026-04-29T17:41:20.25Z</time></trkpt><trkpt lat="43.1012523" lon="13.2726971"><ele>421.4</ele><time>2026-04-29T17:41:21.286Z</time></trkpt><trkpt lat="43.1011588" lon="13.2727177"><ele>423.0</ele><time>2026-04-29T17:41:22.296Z</time></trkpt><trkpt lat="43.1010756" lon="13.2727369"><ele>423.0</ele><time>2026-04-29T17:41:23.265Z</time></trkpt><trkpt lat="43.1009868" lon="13.272779"><ele>423.0</ele><time>2026-04-29T17:41:24.295Z</time></trkpt><trkpt lat="43.1008668" lon="13.2727851"><ele>423.0</ele><time>2026-04-29T17:41:26.308Z</time></trkpt><trkpt lat="43.1007872" lon="13.2728013"><ele>423.0</ele><time>2026-04-29T17:41:28.303Z</time></trkpt><trkpt lat="43.1006944" lon="13.2728521"><ele>423.0</ele><time>2026-04-29T17:41:30.287Z</time></trkpt><trkpt lat="43.1006072" lon="13.2728621"><ele>424.4</ele><time>2026-04-29T17:41:32.289Z</time></trkpt><trkpt lat="43.1004946" lon="13.2728563"><ele>425.79999999999995</ele><time>2026-04-29T17:41:34.281Z</time></trkpt><trkpt lat="43.1003707" lon="13.2728332"><ele>427.2</ele><time>2026-04-29T17:41:36.301Z</time></trkpt><trkpt lat="43.1002992" lon="13.2728282"><ele>428.6</ele><time>2026-04-29T17:41:37.314Z</time></trkpt><trkpt lat="43.1002237" lon="13.272835"><ele>430.0</ele><time>2026-04-29T17:41:38.292Z</time></trkpt><trkpt lat="43.1001456" lon="13.2728282"><ele>430.00000000000006</ele><time>2026-04-29T17:41:39.297Z</time></trkpt><trkpt lat="43.1000308" lon="13.2728189"><ele>430.0</ele><time>2026-04-29T17:41:41.302Z</time></trkpt><trkpt lat="43.0999421" lon="13.2728204"><ele>430.0</ele><time>2026-04-29T17:41:43.344Z</time></trkpt><trkpt lat="43.0998758" lon="13.2728763"><ele>430.0</ele><time>2026-04-29T17:41:45.304Z</time></trkpt><trkpt lat="43.0998236" lon="13.2729496"><ele>430.00000000000006</ele><time>2026-04-29T17:41:46.299Z</time></trkpt><trkpt lat="43.0997649" lon="13.273037"><ele>430.0</ele><time>2026-04-29T17:41:47.292Z</time></trkpt><trkpt lat="43.0997131" lon="13.2731162"><ele>430.83333333333337</ele><time>2026-04-29T17:41:48.288Z</time></trkpt><trkpt lat="43.099658" lon="13.2731879"><ele>431.6666666666667</ele><time>2026-04-29T17:41:49.293Z</time></trkpt><trkpt lat="43.0996111" lon="13.2732601"><ele>432.5</ele><time>2026-04-29T17:41:50.304Z</time></trkpt><trkpt lat="43.0995574" lon="13.2733316"><ele>433.33333333333337</ele><time>2026-04-29T17:41:51.289Z</time></trkpt><trkpt lat="43.0994988" lon="13.2734066"><ele>434.1666666666667</ele><time>2026-04-29T17:41:52.291Z</time></trkpt><trkpt lat="43.0994247" lon="13.2734787"><ele>435.0</ele><time>2026-04-29T17:41:53.304Z</time></trkpt><trkpt lat="43.0993451" lon="13.2735269"><ele>435.0</ele><time>2026-04-29T17:41:54.295Z</time></trkpt><trkpt lat="43.0992746" lon="13.2735635"><ele>435.0</ele><time>2026-04-29T17:41:55.298Z</time></trkpt><trkpt lat="43.0992139" lon="13.2736019"><ele>435.0</ele><time>2026-04-29T17:41:56.313Z</time></trkpt><trkpt lat="43.0990907" lon="13.2736695"><ele>435.0</ele><time>2026-04-29T17:41:58.294Z</time></trkpt><trkpt lat="43.099018" lon="13.2737072"><ele>435.0</ele><time>2026-04-29T17:41:59.245Z</time></trkpt><trkpt lat="43.0989475" lon="13.2737559"><ele>435.0</ele><time>2026-04-29T17:42:00.252Z</time></trkpt><trkpt lat="43.0988663" lon="13.2737912"><ele>434.8333333333333</ele><time>2026-04-29T17:42:01.269Z</time></trkpt><trkpt lat="43.0987842" lon="13.273825"><ele>434.66666666666663</ele><time>2026-04-29T17:42:02.311Z</time></trkpt><trkpt lat="43.0986993" lon="13.2738631"><ele>434.5</ele><time>2026-04-29T17:42:03.277Z</time></trkpt><trkpt lat="43.0986304" lon="13.2739122"><ele>434.3333333333333</ele><time>2026-04-29T17:42:04.32Z</time></trkpt><trkpt lat="43.0985634" lon="13.273956"><ele>434.16666666666663</ele><time>2026-04-29T17:42:05.25Z</time></trkpt><trkpt lat="43.0984653" lon="13.2740131"><ele>434.0</ele><time>2026-04-29T17:42:07.301Z</time></trkpt><trkpt lat="43.0983855" lon="13.2740572"><ele>433.99999999999994</ele><time>2026-04-29T17:42:09.311Z</time></trkpt><trkpt lat="43.0983588" lon="13.2741698"><ele>434.0</ele><time>2026-04-29T17:42:14.305Z</time></trkpt><trkpt lat="43.0984476" lon="13.2741669"><ele>434.0</ele><time>2026-04-29T17:42:17.307Z</time></trkpt><trkpt lat="43.0985475" lon="13.2741574"><ele>434.0</ele><time>2026-04-29T17:43:07.292Z</time></trkpt><trkpt lat="43.0986089" lon="13.2741061"><ele>433.99999999999994</ele><time>2026-04-29T17:43:11.295Z</time></trkpt><trkpt lat="43.0986094" lon="13.2739957"><ele>434.0</ele><time>2026-04-29T17:43:15.284Z</time></trkpt><trkpt lat="43.0985564" lon="13.2739345"><ele>433.99999999999994</ele><time>2026-04-29T17:43:17.287Z</time></trkpt><trkpt lat="43.0985077" lon="13.273857"><ele>434.0</ele><time>2026-04-29T17:43:19.274Z</time></trkpt><trkpt lat="43.0984621" lon="13.273797"><ele>434.0</ele><time>2026-04-29T17:43:21.314Z</time></trkpt><trkpt lat="43.0983836" lon="13.2737999"><ele>434.0</ele><time>2026-04-29T17:43:24.296Z</time></trkpt><trkpt lat="43.0983118" lon="13.2738609"><ele>433.99999999999994</ele><time>2026-04-29T17:43:26.3Z</time></trkpt><trkpt lat="43.0982548" lon="13.273919"><ele>434.0</ele><time>2026-04-29T17:43:27.29Z</time></trkpt><trkpt lat="43.0981609" lon="13.2740036"><ele>434.16666666666663</ele><time>2026-04-29T17:43:29.29Z</time></trkpt><trkpt lat="43.098061" lon="13.2740705"><ele>434.3333333333333</ele><time>2026-04-29T17:43:31.303Z</time></trkpt><trkpt lat="43.0979872" lon="13.2741237"><ele>434.5</ele><time>2026-04-29T17:43:33.284Z</time></trkpt><trkpt lat="43.0979189" lon="13.2740565"><ele>434.66666666666663</ele><time>2026-04-29T17:43:36.282Z</time></trkpt><trkpt lat="43.0978784" lon="13.2739611"><ele>434.8333333333333</ele><time>2026-04-29T17:43:38.283Z</time></trkpt><trkpt lat="43.0978333" lon="13.2738567"><ele>435.0</ele><time>2026-04-29T17:43:40.271Z</time></trkpt><trkpt lat="43.0977883" lon="13.273747"><ele>435.00000000000006</ele><time>2026-04-29T17:43:42.305Z</time></trkpt><trkpt lat="43.0977536" lon="13.2736612"><ele>435.0</ele><time>2026-04-29T17:43:44.272Z</time></trkpt><trkpt lat="43.0977279" lon="13.2735818"><ele>435.0</ele><time>2026-04-29T17:43:46.302Z</time></trkpt><trkpt lat="43.0976473" lon="13.2735457"><ele>435.0</ele><time>2026-04-29T17:43:49.277Z</time></trkpt><trkpt lat="43.0975875" lon="13.2736021"><ele>435.0</ele><time>2026-04-29T17:43:51.308Z</time></trkpt><trkpt lat="43.0975367" lon="13.2736539"><ele>435.00000000000006</ele><time>2026-04-29T17:43:52.27Z</time></trkpt><trkpt lat="43.0974618" lon="13.2737131"><ele>435.0</ele><time>2026-04-29T17:43:53.287Z</time></trkpt><trkpt lat="43.0973641" lon="13.2737818"><ele>434.75</ele><time>2026-04-29T17:43:54.293Z</time></trkpt><trkpt lat="43.0972613" lon="13.2738563"><ele>434.5</ele><time>2026-04-29T17:43:55.282Z</time></trkpt><trkpt lat="43.0971543" lon="13.2739302"><ele>434.25</ele><time>2026-04-29T17:43:56.278Z</time></trkpt><trkpt lat="43.0970516" lon="13.2739742"><ele>434.0</ele><time>2026-04-29T17:43:57.269Z</time></trkpt><trkpt lat="43.0969425" lon="13.2740101"><ele>437.0</ele><time>2026-04-29T17:43:58.288Z</time></trkpt><trkpt lat="43.0968231" lon="13.2740372"><ele>440.0</ele><time>2026-04-29T17:43:59.281Z</time></trkpt><trkpt lat="43.0967086" lon="13.2740588"><ele>443.0</ele><time>2026-04-29T17:44:00.272Z</time></trkpt><trkpt lat="43.0965985" lon="13.2740882"><ele>446.0</ele><time>2026-04-29T17:44:01.3Z</time></trkpt><trkpt lat="43.0964964" lon="13.2741222"><ele>446.66666666666663</ele><time>2026-04-29T17:44:02.29Z</time></trkpt><trkpt lat="43.0964108" lon="13.2741534"><ele>447.3333333333333</ele><time>2026-04-29T17:44:03.291Z</time></trkpt><trkpt lat="43.096334" lon="13.2741802"><ele>448.0</ele><time>2026-04-29T17:44:04.287Z</time></trkpt><trkpt lat="43.0962543" lon="13.2741894"><ele>448.66666666666663</ele><time>2026-04-29T17:44:05.283Z</time></trkpt><trkpt lat="43.0961796" lon="13.2741567"><ele>449.3333333333333</ele><time>2026-04-29T17:44:06.284Z</time></trkpt><trkpt lat="43.0961074" lon="13.2741227"><ele>450.0</ele><time>2026-04-29T17:44:07.297Z</time></trkpt><trkpt lat="43.096039" lon="13.2741021"><ele>450.0</ele><time>2026-04-29T17:44:08.294Z</time></trkpt><trkpt lat="43.0959753" lon="13.2740894"><ele>450.0</ele><time>2026-04-29T17:44:09.28Z</time></trkpt><trkpt lat="43.0958976" lon="13.2740849"><ele>450.0</ele><time>2026-04-29T17:44:10.33Z</time></trkpt><trkpt lat="43.0957789" lon="13.2740929"><ele>450.0</ele><time>2026-04-29T17:44:11.274Z</time></trkpt><trkpt lat="43.0956518" lon="13.2740956"><ele>450.0</ele><time>2026-04-29T17:44:12.288Z</time></trkpt><trkpt lat="43.095526" lon="13.2740927"><ele>450.75</ele><time>2026-04-29T17:44:13.271Z</time></trkpt><trkpt lat="43.0954085" lon="13.274093"><ele>451.5</ele><time>2026-04-29T17:44:14.282Z</time></trkpt><trkpt lat="43.0952851" lon="13.2740924"><ele>452.25</ele><time>2026-04-29T17:44:15.274Z</time></trkpt><trkpt lat="43.0951734" lon="13.2740908"><ele>453.0</ele><time>2026-04-29T17:44:16.332Z</time></trkpt><trkpt lat="43.0950662" lon="13.2740968"><ele>453.0</ele><time>2026-04-29T17:44:17.274Z</time></trkpt><trkpt lat="43.0949294" lon="13.2741138"><ele>453.0</ele><time>2026-04-29T17:44:18.291Z</time></trkpt><trkpt lat="43.0948001" lon="13.2741238"><ele>453.0</ele><time>2026-04-29T17:44:19.295Z</time></trkpt><trkpt lat="43.0946886" lon="13.2741339"><ele>453.0</ele><time>2026-04-29T17:44:20.241Z</time></trkpt><trkpt lat="43.0946003" lon="13.2741567"><ele>453.59999999999997</ele><time>2026-04-29T17:44:21.291Z</time></trkpt><trkpt lat="43.0945138" lon="13.2741932"><ele>454.19999999999993</ele><time>2026-04-29T17:44:22.279Z</time></trkpt><trkpt lat="43.0944419" lon="13.2742477"><ele>454.8</ele><time>2026-04-29T17:44:23.278Z</time></trkpt><trkpt lat="43.0943627" lon="13.2743118"><ele>455.4</ele><time>2026-04-29T17:44:24.275Z</time></trkpt><trkpt lat="43.0942757" lon="13.274368"><ele>456.0</ele><time>2026-04-29T17:44:25.282Z</time></trkpt><trkpt lat="43.0941888" lon="13.2744094"><ele>456.5</ele><time>2026-04-29T17:44:26.272Z</time></trkpt><trkpt lat="43.0940853" lon="13.2744528"><ele>457.0</ele><time>2026-04-29T17:44:27.271Z</time></trkpt><trkpt lat="43.0939608" lon="13.2745366"><ele>457.5</ele><time>2026-04-29T17:44:28.295Z</time></trkpt><trkpt lat="43.0938549" lon="13.2746142"><ele>458.0</ele><time>2026-04-29T17:44:29.291Z</time></trkpt><trkpt lat="43.0937814" lon="13.2746716"><ele>458.0</ele><time>2026-04-29T17:44:30.282Z</time></trkpt><trkpt lat="43.0937304" lon="13.274725"><ele>457.99999999999994</ele><time>2026-04-29T17:44:31.284Z</time></trkpt><trkpt lat="43.0936298" lon="13.2748124"><ele>457.99999999999994</ele><time>2026-04-29T17:44:33.288Z</time></trkpt><trkpt lat="43.0935616" lon="13.2748258"><ele>458.0</ele><time>2026-04-29T17:44:34.275Z</time></trkpt><trkpt lat="43.0934577" lon="13.2748365"><ele>458.0</ele><time>2026-04-29T17:44:35.272Z</time></trkpt><trkpt lat="43.0933229" lon="13.2748425"><ele>460.79999999999995</ele><time>2026-04-29T17:44:36.291Z</time></trkpt><trkpt lat="43.0932099" lon="13.2748488"><ele>463.59999999999997</ele><time>2026-04-29T17:44:37.289Z</time></trkpt><trkpt lat="43.0931304" lon="13.2748441"><ele>466.40000000000003</ele><time>2026-04-29T17:44:38.269Z</time></trkpt><trkpt lat="43.0930645" lon="13.2748454"><ele>469.20000000000005</ele><time>2026-04-29T17:44:39.307Z</time></trkpt><trkpt lat="43.093" lon="13.2748784"><ele>472.0</ele><time>2026-04-29T17:44:40.298Z</time></trkpt><trkpt lat="43.0929059" lon="13.2749897"><ele>472.00000000000006</ele><time>2026-04-29T17:44:42.294Z</time></trkpt><trkpt lat="43.092865" lon="13.2750726"><ele>472.0</ele><time>2026-04-29T17:44:43.277Z</time></trkpt><trkpt lat="43.0928207" lon="13.2751528"><ele>472.0</ele><time>2026-04-29T17:44:44.287Z</time></trkpt><trkpt lat="43.0927712" lon="13.2752258"><ele>472.0</ele><time>2026-04-29T17:44:45.287Z</time></trkpt><trkpt lat="43.0927161" lon="13.2752964"><ele>472.00000000000006</ele><time>2026-04-29T17:44:46.246Z</time></trkpt><trkpt lat="43.0926743" lon="13.2753843"><ele>472.0</ele><time>2026-04-29T17:44:47.304Z</time></trkpt><trkpt lat="43.0926394" lon="13.2755097"><ele>472.6</ele><time>2026-04-29T17:44:48.292Z</time></trkpt><trkpt lat="43.0926124" lon="13.2756465"><ele>473.20000000000005</ele><time>2026-04-29T17:44:49.315Z</time></trkpt><trkpt lat="43.0925914" lon="13.2757599"><ele>473.8</ele><time>2026-04-29T17:44:50.312Z</time></trkpt><trkpt lat="43.0925779" lon="13.2759221"><ele>474.4</ele><time>2026-04-29T17:44:52.294Z</time></trkpt><trkpt lat="43.0925954" lon="13.2760528"><ele>475.0</ele><time>2026-04-29T17:44:54.258Z</time></trkpt><trkpt lat="43.0925763" lon="13.2761663"><ele>475.0</ele><time>2026-04-29T17:44:55.29Z</time></trkpt><trkpt lat="43.0925446" lon="13.2762952"><ele>475.0</ele><time>2026-04-29T17:44:56.294Z</time></trkpt><trkpt lat="43.0925044" lon="13.2764183"><ele>475.0</ele><time>2026-04-29T17:44:57.305Z</time></trkpt><trkpt lat="43.0924607" lon="13.2765257"><ele>475.0</ele><time>2026-04-29T17:44:58.298Z</time></trkpt><trkpt lat="43.09241" lon="13.2766248"><ele>475.0</ele><time>2026-04-29T17:44:59.289Z</time></trkpt><trkpt lat="43.0923508" lon="13.2767308"><ele>476.0</ele><time>2026-04-29T17:45:00.309Z</time></trkpt><trkpt lat="43.0922891" lon="13.2768423"><ele>477.0</ele><time>2026-04-29T17:45:01.291Z</time></trkpt><trkpt lat="43.0922274" lon="13.2769573"><ele>478.0</ele><time>2026-04-29T17:45:02.288Z</time></trkpt><trkpt lat="43.0921509" lon="13.2770736"><ele>479.0</ele><time>2026-04-29T17:45:03.282Z</time></trkpt><trkpt lat="43.0920699" lon="13.2771863"><ele>480.0</ele><time>2026-04-29T17:45:04.3Z</time></trkpt><trkpt lat="43.0919889" lon="13.2772965"><ele>482.75</ele><time>2026-04-29T17:45:05.294Z</time></trkpt><trkpt lat="43.0919087" lon="13.277408"><ele>485.5</ele><time>2026-04-29T17:45:06.302Z</time></trkpt><trkpt lat="43.0918152" lon="13.2775248"><ele>488.25</ele><time>2026-04-29T17:45:07.29Z</time></trkpt><trkpt lat="43.091719" lon="13.2776478"><ele>491.0</ele><time>2026-04-29T17:45:08.307Z</time></trkpt><trkpt lat="43.0916125" lon="13.27779"><ele>493.6</ele><time>2026-04-29T17:45:09.296Z</time></trkpt><trkpt lat="43.0915145" lon="13.2779208"><ele>496.20000000000005</ele><time>2026-04-29T17:45:10.28Z</time></trkpt><trkpt lat="43.0914354" lon="13.2780272"><ele>498.79999999999995</ele><time>2026-04-29T17:45:11.243Z</time></trkpt><trkpt lat="43.0913748" lon="13.2781098"><ele>501.4</ele><time>2026-04-29T17:45:12.286Z</time></trkpt><trkpt lat="43.0913185" lon="13.2781926"><ele>504.0</ele><time>2026-04-29T17:45:13.271Z</time></trkpt><trkpt lat="43.0912422" lon="13.2782758"><ele>505.0</ele><time>2026-04-29T17:45:14.303Z</time></trkpt><trkpt lat="43.0911553" lon="13.2783349"><ele>506.0</ele><time>2026-04-29T17:45:15.285Z</time></trkpt><trkpt lat="43.0910764" lon="13.2783954"><ele>507.0</ele><time>2026-04-29T17:45:16.278Z</time></trkpt><trkpt lat="43.0910123" lon="13.278456"><ele>508.0</ele><time>2026-04-29T17:45:17.278Z</time></trkpt><trkpt lat="43.0909412" lon="13.2785285"><ele>509.0</ele><time>2026-04-29T17:45:19.267Z</time></trkpt><trkpt lat="43.0908409" lon="13.2786412"><ele>508.99999999999994</ele><time>2026-04-29T17:45:21.271Z</time></trkpt><trkpt lat="43.0907743" lon="13.2786962"><ele>509.0</ele><time>2026-04-29T17:45:22.273Z</time></trkpt><trkpt lat="43.0907123" lon="13.2787435"><ele>509.0</ele><time>2026-04-29T17:45:23.273Z</time></trkpt><trkpt lat="43.0906497" lon="13.2787826"><ele>509.0</ele><time>2026-04-29T17:45:24.318Z</time></trkpt><trkpt lat="43.0905433" lon="13.2788356"><ele>508.99999999999994</ele><time>2026-04-29T17:45:26.275Z</time></trkpt><trkpt lat="43.0904379" lon="13.2788744"><ele>509.0</ele><time>2026-04-29T17:45:28.285Z</time></trkpt><trkpt lat="43.0903695" lon="13.2789056"><ele>512.0</ele><time>2026-04-29T17:45:34.307Z</time></trkpt><trkpt lat="43.0903004" lon="13.2789006"><ele>515.0</ele><time>2026-04-29T17:46:14.244Z</time></trkpt><trkpt lat="43.0901973" lon="13.2789421"><ele>518.0</ele><time>2026-04-29T17:46:18.292Z</time></trkpt><trkpt lat="43.0901133" lon="13.2789939"><ele>521.0</ele><time>2026-04-29T17:46:20.313Z</time></trkpt><trkpt lat="43.0899953" lon="13.2790534"><ele>524.0</ele><time>2026-04-29T17:46:22.281Z</time></trkpt><trkpt lat="43.0899296" lon="13.2790664"><ele>527.8333333333333</ele><time>2026-04-29T17:46:23.263Z</time></trkpt><trkpt lat="43.0898481" lon="13.2790773"><ele>531.6666666666666</ele><time>2026-04-29T17:46:24.279Z</time></trkpt><trkpt lat="43.0897629" lon="13.2790848"><ele>535.5</ele><time>2026-04-29T17:46:25.278Z</time></trkpt><trkpt lat="43.0896744" lon="13.2790869"><ele>539.3333333333334</ele><time>2026-04-29T17:46:26.257Z</time></trkpt><trkpt lat="43.0895972" lon="13.2790949"><ele>543.1666666666667</ele><time>2026-04-29T17:46:27.253Z</time></trkpt><trkpt lat="43.0895302" lon="13.2790931"><ele>547.0</ele><time>2026-04-29T17:46:28.268Z</time></trkpt><trkpt lat="43.0894217" lon="13.2790843"><ele>547.0</ele><time>2026-04-29T17:46:30.251Z</time></trkpt><trkpt lat="43.0893412" lon="13.2791078"><ele>547.0</ele><time>2026-04-29T17:46:32.267Z</time></trkpt><trkpt lat="43.0892738" lon="13.2792168"><ele>547.0</ele><time>2026-04-29T17:46:34.273Z</time></trkpt><trkpt lat="43.0891737" lon="13.2793114"><ele>547.0</ele><time>2026-04-29T17:46:36.276Z</time></trkpt><trkpt lat="43.0890989" lon="13.2793574"><ele>547.0</ele><time>2026-04-29T17:46:37.278Z</time></trkpt><trkpt lat="43.0889938" lon="13.2794054"><ele>549.1666666666667</ele><time>2026-04-29T17:46:38.295Z</time></trkpt><trkpt lat="43.0888934" lon="13.2794513"><ele>551.3333333333334</ele><time>2026-04-29T17:46:39.264Z</time></trkpt><trkpt lat="43.0888056" lon="13.2794965"><ele>553.5</ele><time>2026-04-29T17:46:40.277Z</time></trkpt><trkpt lat="43.0887409" lon="13.2795363"><ele>555.6666666666666</ele><time>2026-04-29T17:46:41.247Z</time></trkpt><trkpt lat="43.0886873" lon="13.2795899"><ele>557.8333333333333</ele><time>2026-04-29T17:46:42.338Z</time></trkpt><trkpt lat="43.0886315" lon="13.2796566"><ele>560.0</ele><time>2026-04-29T17:46:43.296Z</time></trkpt><trkpt lat="43.0885413" lon="13.279768"><ele>560.0</ele><time>2026-04-29T17:46:44.278Z</time></trkpt><trkpt lat="43.0884564" lon="13.2798798"><ele>560.0</ele><time>2026-04-29T17:46:45.315Z</time></trkpt><trkpt lat="43.0883909" lon="13.2799571"><ele>560.0</ele><time>2026-04-29T17:46:46.253Z</time></trkpt><trkpt lat="43.0883261" lon="13.2800265"><ele>560.0</ele><time>2026-04-29T17:46:47.286Z</time></trkpt><trkpt lat="43.088252" lon="13.2801037"><ele>560.0</ele><time>2026-04-29T17:46:48.359Z</time></trkpt><trkpt lat="43.0881745" lon="13.2801812"><ele>559.8333333333333</ele><time>2026-04-29T17:46:49.309Z</time></trkpt><trkpt lat="43.0881043" lon="13.2802569"><ele>559.6666666666666</ele><time>2026-04-29T17:46:50.291Z</time></trkpt><trkpt lat="43.0880367" lon="13.2803454"><ele>559.5</ele><time>2026-04-29T17:46:51.24Z</time></trkpt><trkpt lat="43.0879844" lon="13.2804506"><ele>559.3333333333334</ele><time>2026-04-29T17:46:52.252Z</time></trkpt><trkpt lat="43.0879394" lon="13.2805421"><ele>559.1666666666667</ele><time>2026-04-29T17:46:53.25Z</time></trkpt><trkpt lat="43.0878866" lon="13.2806186"><ele>559.0</ele><time>2026-04-29T17:46:55.283Z</time></trkpt><trkpt lat="43.0878261" lon="13.2805179"><ele>559.0</ele><time>2026-04-29T17:46:58.272Z</time></trkpt><trkpt lat="43.0877756" lon="13.2803931"><ele>559.0</ele><time>2026-04-29T17:46:59.287Z</time></trkpt><trkpt lat="43.0877042" lon="13.2802546"><ele>559.0</ele><time>2026-04-29T17:47:00.278Z</time></trkpt><trkpt lat="43.0876347" lon="13.2801174"><ele>559.0</ele><time>2026-04-29T17:47:01.247Z</time></trkpt><trkpt lat="43.0875582" lon="13.2799644"><ele>559.0</ele><time>2026-04-29T17:47:02.294Z</time></trkpt><trkpt lat="43.0874934" lon="13.2798314"><ele>559.0</ele><time>2026-04-29T17:47:03.301Z</time></trkpt><trkpt lat="43.0874265" lon="13.2797001"><ele>559.0</ele><time>2026-04-29T17:47:04.31Z</time></trkpt><trkpt lat="43.0873595" lon="13.279558"><ele>559.0</ele><time>2026-04-29T17:47:05.274Z</time></trkpt><trkpt lat="43.0873006" lon="13.2794319"><ele>558.5</ele><time>2026-04-29T17:47:06.289Z</time></trkpt><trkpt lat="43.0872505" lon="13.2793251"><ele>558.0</ele><time>2026-04-29T17:47:07.268Z</time></trkpt><trkpt lat="43.0872061" lon="13.2792342"><ele>557.5</ele><time>2026-04-29T17:47:08.24Z</time></trkpt><trkpt lat="43.0871654" lon="13.279143"><ele>557.0</ele><time>2026-04-29T17:47:09.242Z</time></trkpt><trkpt lat="43.0871191" lon="13.2790355"><ele>556.5</ele><time>2026-04-29T17:47:10.288Z</time></trkpt><trkpt lat="43.0870714" lon="13.2789231"><ele>556.0</ele><time>2026-04-29T17:47:11.275Z</time></trkpt><trkpt lat="43.0870224" lon="13.2788053"><ele>556.0</ele><time>2026-04-29T17:47:12.28Z</time></trkpt><trkpt lat="43.0869721" lon="13.2786854"><ele>556.0</ele><time>2026-04-29T17:47:13.253Z</time></trkpt><trkpt lat="43.0869215" lon="13.2785589"><ele>556.0</ele><time>2026-04-29T17:47:14.266Z</time></trkpt><trkpt lat="43.0868754" lon="13.2784194"><ele>556.0</ele><time>2026-04-29T17:47:15.272Z</time></trkpt><trkpt lat="43.0868349" lon="13.2782712"><ele>556.0</ele><time>2026-04-29T17:47:16.26Z</time></trkpt><trkpt lat="43.0868055" lon="13.2781297"><ele>555.8</ele><time>2026-04-29T17:47:17.271Z</time></trkpt><trkpt lat="43.0867832" lon="13.2780051"><ele>555.6</ele><time>2026-04-29T17:47:18.275Z</time></trkpt><trkpt lat="43.0867586" lon="13.2778811"><ele>555.4</ele><time>2026-04-29T17:47:19.291Z</time></trkpt><trkpt lat="43.0867332" lon="13.2777576"><ele>555.2</ele><time>2026-04-29T17:47:20.297Z</time></trkpt><trkpt lat="43.0866988" lon="13.2776341"><ele>555.0</ele><time>2026-04-29T17:47:21.231Z</time></trkpt><trkpt lat="43.0866427" lon="13.2775096"><ele>552.75</ele><time>2026-04-29T17:47:22.258Z</time></trkpt><trkpt lat="43.0865857" lon="13.2773849"><ele>550.5</ele><time>2026-04-29T17:47:23.335Z</time></trkpt><trkpt lat="43.086523" lon="13.2772627"><ele>548.25</ele><time>2026-04-29T17:47:24.276Z</time></trkpt><trkpt lat="43.086453" lon="13.2771335"><ele>546.0</ele><time>2026-04-29T17:47:25.296Z</time></trkpt><trkpt lat="43.0863613" lon="13.2770007"><ele>546.0</ele><time>2026-04-29T17:47:26.241Z</time></trkpt><trkpt lat="43.0862671" lon="13.2768818"><ele>546.0</ele><time>2026-04-29T17:47:27.265Z</time></trkpt><trkpt lat="43.0861712" lon="13.2767598"><ele>546.0</ele><time>2026-04-29T17:47:28.276Z</time></trkpt><trkpt lat="43.0860735" lon="13.2766445"><ele>546.0</ele><time>2026-04-29T17:47:29.268Z</time></trkpt><trkpt lat="43.0859635" lon="13.2765347"><ele>542.0</ele><time>2026-04-29T17:47:30.271Z</time></trkpt><trkpt lat="43.0858584" lon="13.2764316"><ele>538.0</ele><time>2026-04-29T17:47:31.247Z</time></trkpt><trkpt lat="43.0857585" lon="13.2763482"><ele>534.0</ele><time>2026-04-29T17:47:32.274Z</time></trkpt><trkpt lat="43.0856675" lon="13.2762852"><ele>530.0</ele><time>2026-04-29T17:47:33.283Z</time></trkpt><trkpt lat="43.0855823" lon="13.2762198"><ele>526.0</ele><time>2026-04-29T17:47:34.264Z</time></trkpt><trkpt lat="43.0854992" lon="13.2761563"><ele>526.0</ele><time>2026-04-29T17:47:35.289Z</time></trkpt><trkpt lat="43.0854096" lon="13.2760982"><ele>526.0</ele><time>2026-04-29T17:47:36.262Z</time></trkpt><trkpt lat="43.0853059" lon="13.2760477"><ele>526.0</ele><time>2026-04-29T17:47:37.292Z</time></trkpt><trkpt lat="43.0851888" lon="13.2760035"><ele>526.0</ele><time>2026-04-29T17:47:38.283Z</time></trkpt><trkpt lat="43.0850722" lon="13.2759631"><ele>526.0</ele><time>2026-04-29T17:47:39.301Z</time></trkpt><trkpt lat="43.0849512" lon="13.2759439"><ele>526.0</ele><time>2026-04-29T17:47:40.29Z</time></trkpt><trkpt lat="43.0848383" lon="13.275922"><ele>526.0</ele><time>2026-04-29T17:47:41.247Z</time></trkpt><trkpt lat="43.0847344" lon="13.2759006"><ele>526.0</ele><time>2026-04-29T17:47:42.282Z</time></trkpt><trkpt lat="43.0846374" lon="13.2758822"><ele>526.0</ele><time>2026-04-29T17:47:43.275Z</time></trkpt><trkpt lat="43.084551" lon="13.2758649"><ele>525.1666666666667</ele><time>2026-04-29T17:47:44.26Z</time></trkpt><trkpt lat="43.0844697" lon="13.2758605"><ele>524.3333333333334</ele><time>2026-04-29T17:47:45.282Z</time></trkpt><trkpt lat="43.0843848" lon="13.2758575"><ele>523.5</ele><time>2026-04-29T17:47:46.244Z</time></trkpt><trkpt lat="43.0842933" lon="13.2758552"><ele>522.6666666666666</ele><time>2026-04-29T17:47:47.289Z</time></trkpt><trkpt lat="43.0842087" lon="13.2758439"><ele>521.8333333333333</ele><time>2026-04-29T17:47:48.279Z</time></trkpt><trkpt lat="43.084128" lon="13.2758315"><ele>521.0</ele><time>2026-04-29T17:47:49.297Z</time></trkpt><trkpt lat="43.084046" lon="13.2758337"><ele>519.1666666666666</ele><time>2026-04-29T17:47:50.288Z</time></trkpt><trkpt lat="43.0839696" lon="13.2758329"><ele>517.3333333333333</ele><time>2026-04-29T17:47:51.25Z</time></trkpt><trkpt lat="43.0838639" lon="13.275824"><ele>515.5</ele><time>2026-04-29T17:47:53.275Z</time></trkpt><trkpt lat="43.0837863" lon="13.2758015"><ele>513.6666666666666</ele><time>2026-04-29T17:47:55.28Z</time></trkpt><trkpt lat="43.0837175" lon="13.2757936"><ele>511.8333333333333</ele><time>2026-04-29T17:47:57.282Z</time></trkpt><trkpt lat="43.0836253" lon="13.2757887"><ele>510.0</ele><time>2026-04-29T17:48:00.291Z</time></trkpt><trkpt lat="43.0835469" lon="13.2757435"><ele>510.0</ele><time>2026-04-29T17:48:03.243Z</time></trkpt><trkpt lat="43.0834891" lon="13.2756869"><ele>510.0</ele><time>2026-04-29T17:48:05.247Z</time></trkpt><trkpt lat="43.0833949" lon="13.2756849"><ele>510.0</ele><time>2026-04-29T17:48:07.269Z</time></trkpt><trkpt lat="43.0832908" lon="13.2756452"><ele>510.0</ele><time>2026-04-29T17:48:09.305Z</time></trkpt><trkpt lat="43.0831946" lon="13.2755939"><ele>510.0</ele><time>2026-04-29T17:48:11.265Z</time></trkpt><trkpt lat="43.0831106" lon="13.2755198"><ele>506.5</ele><time>2026-04-29T17:48:13.299Z</time></trkpt><trkpt lat="43.083039" lon="13.2753902"><ele>503.0</ele><time>2026-04-29T17:48:15.276Z</time></trkpt><trkpt lat="43.0830041" lon="13.2753153"><ele>499.5</ele><time>2026-04-29T17:48:16.249Z</time></trkpt><trkpt lat="43.0829682" lon="13.275236"><ele>496.0</ele><time>2026-04-29T17:48:17.256Z</time></trkpt><trkpt lat="43.0829299" lon="13.2751541"><ele>492.5</ele><time>2026-04-29T17:48:18.279Z</time></trkpt><trkpt lat="43.0828952" lon="13.2750717"><ele>489.0</ele><time>2026-04-29T17:48:19.25Z</time></trkpt><trkpt lat="43.082859" lon="13.2749844"><ele>489.0</ele><time>2026-04-29T17:48:20.263Z</time></trkpt><trkpt lat="43.0828042" lon="13.2749081"><ele>489.0</ele><time>2026-04-29T17:48:21.266Z</time></trkpt><trkpt lat="43.0827531" lon="13.2748407"><ele>489.0</ele><time>2026-04-29T17:48:22.257Z</time></trkpt><trkpt lat="43.0827037" lon="13.2747741"><ele>489.0</ele><time>2026-04-29T17:48:23.279Z</time></trkpt><trkpt lat="43.0826503" lon="13.2747003"><ele>489.0</ele><time>2026-04-29T17:48:24.29Z</time></trkpt><trkpt lat="43.0825932" lon="13.2746186"><ele>489.0</ele><time>2026-04-29T17:48:25.254Z</time></trkpt><trkpt lat="43.082537" lon="13.2745411"><ele>488.28571428571433</ele><time>2026-04-29T17:48:26.295Z</time></trkpt><trkpt lat="43.0824812" lon="13.274461"><ele>487.5714285714286</ele><time>2026-04-29T17:48:27.259Z</time></trkpt><trkpt lat="43.082428" lon="13.2743866"><ele>486.8571428571429</ele><time>2026-04-29T17:48:28.304Z</time></trkpt><trkpt lat="43.0823779" lon="13.274315"><ele>486.1428571428571</ele><time>2026-04-29T17:48:29.326Z</time></trkpt><trkpt lat="43.0823294" lon="13.2742435"><ele>485.4285714285714</ele><time>2026-04-29T17:48:30.294Z</time></trkpt><trkpt lat="43.0822829" lon="13.2741723"><ele>484.71428571428567</ele><time>2026-04-29T17:48:31.313Z</time></trkpt><trkpt lat="43.0822362" lon="13.2741032"><ele>484.0</ele><time>2026-04-29T17:48:32.279Z</time></trkpt><trkpt lat="43.0821915" lon="13.2740412"><ele>483.25</ele><time>2026-04-29T17:48:33.275Z</time></trkpt><trkpt lat="43.0821073" lon="13.2739251"><ele>482.5</ele><time>2026-04-29T17:48:35.298Z</time></trkpt><trkpt lat="43.0820302" lon="13.2738196"><ele>481.75</ele><time>2026-04-29T17:48:37.286Z</time></trkpt><trkpt lat="43.081952" lon="13.2737068"><ele>481.0</ele><time>2026-04-29T17:48:39.297Z</time></trkpt><trkpt lat="43.0818711" lon="13.273599"><ele>481.0</ele><time>2026-04-29T17:48:41.276Z</time></trkpt><trkpt lat="43.0818217" lon="13.2735359"><ele>481.0</ele><time>2026-04-29T17:48:42.236Z</time></trkpt><trkpt lat="43.0817612" lon="13.273459"><ele>481.0</ele><time>2026-04-29T17:48:43.234Z</time></trkpt><trkpt lat="43.0816846" lon="13.2733658"><ele>481.0</ele><time>2026-04-29T17:48:44.276Z</time></trkpt><trkpt lat="43.0816071" lon="13.2732653"><ele>481.0</ele><time>2026-04-29T17:48:45.266Z</time></trkpt><trkpt lat="43.0815396" lon="13.2731742"><ele>480.50000000000006</ele><time>2026-04-29T17:48:46.245Z</time></trkpt><trkpt lat="43.0814842" lon="13.2730936"><ele>480.0</ele><time>2026-04-29T17:48:47.263Z</time></trkpt><trkpt lat="43.0814368" lon="13.2730263"><ele>479.5</ele><time>2026-04-29T17:48:48.251Z</time></trkpt><trkpt lat="43.0813686" lon="13.272939"><ele>479.0</ele><time>2026-04-29T17:48:50.306Z</time></trkpt><trkpt lat="43.0813099" lon="13.2728761"><ele>478.50000000000006</ele><time>2026-04-29T17:48:51.261Z</time></trkpt><trkpt lat="43.0812433" lon="13.2728007"><ele>478.0</ele><time>2026-04-29T17:48:52.273Z</time></trkpt><trkpt lat="43.0811787" lon="13.2727295"><ele>478.00000000000006</ele><time>2026-04-29T17:48:53.287Z</time></trkpt><trkpt lat="43.0811107" lon="13.2726613"><ele>478.0</ele><time>2026-04-29T17:48:54.28Z</time></trkpt><trkpt lat="43.0810477" lon="13.2725991"><ele>478.0</ele><time>2026-04-29T17:48:55.292Z</time></trkpt><trkpt lat="43.0809815" lon="13.272577"><ele>478.0</ele><time>2026-04-29T17:48:56.274Z</time></trkpt><trkpt lat="43.0809083" lon="13.2725757"><ele>478.00000000000006</ele><time>2026-04-29T17:48:57.252Z</time></trkpt><trkpt lat="43.0808311" lon="13.2725894"><ele>478.0</ele><time>2026-04-29T17:48:58.257Z</time></trkpt><trkpt lat="43.0807573" lon="13.2726213"><ele>478.33333333333337</ele><time>2026-04-29T17:48:59.299Z</time></trkpt><trkpt lat="43.080691" lon="13.2726538"><ele>478.6666666666667</ele><time>2026-04-29T17:49:00.289Z</time></trkpt><trkpt lat="43.0806229" lon="13.2726857"><ele>479.0</ele><time>2026-04-29T17:49:01.27Z</time></trkpt><trkpt lat="43.0805499" lon="13.272717"><ele>479.33333333333337</ele><time>2026-04-29T17:49:02.242Z</time></trkpt><trkpt lat="43.0804692" lon="13.2727484"><ele>479.6666666666667</ele><time>2026-04-29T17:49:03.283Z</time></trkpt><trkpt lat="43.0803848" lon="13.2727741"><ele>480.0</ele><time>2026-04-29T17:49:04.344Z</time></trkpt><trkpt lat="43.0803007" lon="13.2728009"><ele>480.0</ele><time>2026-04-29T17:49:05.299Z</time></trkpt><trkpt lat="43.0802173" lon="13.272827"><ele>480.0</ele><time>2026-04-29T17:49:06.286Z</time></trkpt><trkpt lat="43.0801376" lon="13.2728503"><ele>480.0</ele><time>2026-04-29T17:49:07.239Z</time></trkpt><trkpt lat="43.0800641" lon="13.2728619"><ele>480.0</ele><time>2026-04-29T17:49:08.277Z</time></trkpt><trkpt lat="43.079987" lon="13.2728769"><ele>480.0</ele><time>2026-04-29T17:49:09.29Z</time></trkpt><trkpt lat="43.079911" lon="13.2729014"><ele>480.0</ele><time>2026-04-29T17:49:10.281Z</time></trkpt><trkpt lat="43.0798376" lon="13.2729242"><ele>479.57142857142856</ele><time>2026-04-29T17:49:11.294Z</time></trkpt><trkpt lat="43.079771" lon="13.2729508"><ele>479.1428571428571</ele><time>2026-04-29T17:49:12.248Z</time></trkpt><trkpt lat="43.0797057" lon="13.2729787"><ele>478.71428571428567</ele><time>2026-04-29T17:49:13.286Z</time></trkpt><trkpt lat="43.0796436" lon="13.2730084"><ele>478.2857142857143</ele><time>2026-04-29T17:49:14.305Z</time></trkpt><trkpt lat="43.0795794" lon="13.27304"><ele>477.8571428571428</ele><time>2026-04-29T17:49:15.303Z</time></trkpt><trkpt lat="43.0795167" lon="13.2730719"><ele>477.4285714285714</ele><time>2026-04-29T17:49:16.261Z</time></trkpt><trkpt lat="43.0794126" lon="13.2731219"><ele>477.0</ele><time>2026-04-29T17:49:18.291Z</time></trkpt><trkpt lat="43.0793353" lon="13.273129"><ele>477.0</ele><time>2026-04-29T17:49:21.269Z</time></trkpt><trkpt lat="43.0792972" lon="13.2730192"><ele>477.00000000000006</ele><time>2026-04-29T17:49:23.273Z</time></trkpt><trkpt lat="43.0792915" lon="13.2729074"><ele>477.00000000000006</ele><time>2026-04-29T17:49:24.295Z</time></trkpt><trkpt lat="43.0792833" lon="13.2727567"><ele>477.0</ele><time>2026-04-29T17:49:25.284Z</time></trkpt><trkpt lat="43.0792622" lon="13.2725631"><ele>477.0</ele><time>2026-04-29T17:49:26.305Z</time></trkpt><trkpt lat="43.0792396" lon="13.2723592"><ele>477.0</ele><time>2026-04-29T17:49:27.286Z</time></trkpt><trkpt lat="43.0792043" lon="13.2721598"><ele>477.0</ele><time>2026-04-29T17:49:28.276Z</time></trkpt><trkpt lat="43.0791529" lon="13.2719724"><ele>477.0</ele><time>2026-04-29T17:49:29.294Z</time></trkpt><trkpt lat="43.0790949" lon="13.2717984"><ele>477.0</ele><time>2026-04-29T17:49:30.311Z</time></trkpt><trkpt lat="43.0790348" lon="13.2716563"><ele>477.0</ele><time>2026-04-29T17:49:31.306Z</time></trkpt><trkpt lat="43.0789773" lon="13.2715324"><ele>477.0</ele><time>2026-04-29T17:49:32.25Z</time></trkpt><trkpt lat="43.0789258" lon="13.2714258"><ele>477.0</ele><time>2026-04-29T17:49:33.309Z</time></trkpt><trkpt lat="43.0788789" lon="13.2713313"><ele>477.0</ele><time>2026-04-29T17:49:34.309Z</time></trkpt><trkpt lat="43.0788366" lon="13.2712518"><ele>477.0</ele><time>2026-04-29T17:49:35.265Z</time></trkpt><trkpt lat="43.078792" lon="13.2711908"><ele>477.0</ele><time>2026-04-29T17:49:36.314Z</time></trkpt><trkpt lat="43.0787352" lon="13.2711438"><ele>477.40000000000003</ele><time>2026-04-29T17:49:37.262Z</time></trkpt><trkpt lat="43.0786601" lon="13.2711019"><ele>477.80000000000007</ele><time>2026-04-29T17:49:38.361Z</time></trkpt><trkpt lat="43.0785712" lon="13.2710598"><ele>478.2</ele><time>2026-04-29T17:49:39.292Z</time></trkpt><trkpt lat="43.0784577" lon="13.2710118"><ele>478.6</ele><time>2026-04-29T17:49:40.275Z</time></trkpt><trkpt lat="43.078335" lon="13.270955"><ele>479.0</ele><time>2026-04-29T17:49:41.257Z</time></trkpt><trkpt lat="43.0782119" lon="13.2708949"><ele>479.0</ele><time>2026-04-29T17:49:42.25Z</time></trkpt><trkpt lat="43.0780862" lon="13.2708311"><ele>479.0</ele><time>2026-04-29T17:49:43.24Z</time></trkpt><trkpt lat="43.0779635" lon="13.2707593"><ele>479.0</ele><time>2026-04-29T17:49:44.24Z</time></trkpt><trkpt lat="43.077843" lon="13.2706793"><ele>479.0</ele><time>2026-04-29T17:49:45.251Z</time></trkpt><trkpt lat="43.0777206" lon="13.270597"><ele>479.0</ele><time>2026-04-29T17:49:46.297Z</time></trkpt><trkpt lat="43.0776023" lon="13.2705135"><ele>479.0</ele><time>2026-04-29T17:49:47.238Z</time></trkpt><trkpt lat="43.0774873" lon="13.2704284"><ele>479.0</ele><time>2026-04-29T17:49:48.298Z</time></trkpt><trkpt lat="43.0773657" lon="13.270342"><ele>479.0</ele><time>2026-04-29T17:49:49.278Z</time></trkpt><trkpt lat="43.077229" lon="13.270249"><ele>479.25</ele><time>2026-04-29T17:49:50.305Z</time></trkpt><trkpt lat="43.0770979" lon="13.2701612"><ele>479.5</ele><time>2026-04-29T17:49:51.284Z</time></trkpt><trkpt lat="43.0769668" lon="13.2700818"><ele>479.75</ele><time>2026-04-29T17:49:52.245Z</time></trkpt><trkpt lat="43.0768394" lon="13.2700064"><ele>480.0</ele><time>2026-04-29T17:49:53.272Z</time></trkpt><trkpt lat="43.0767216" lon="13.2699332"><ele>480.0</ele><time>2026-04-29T17:49:54.295Z</time></trkpt><trkpt lat="43.076605" lon="13.2698623"><ele>480.0</ele><time>2026-04-29T17:49:55.256Z</time></trkpt><trkpt lat="43.0764924" lon="13.2697975"><ele>480.0</ele><time>2026-04-29T17:49:56.31Z</time></trkpt><trkpt lat="43.0763834" lon="13.2697355"><ele>480.0</ele><time>2026-04-29T17:49:57.25Z</time></trkpt><trkpt lat="43.0762749" lon="13.2696835"><ele>480.5</ele><time>2026-04-29T17:49:58.297Z</time></trkpt><trkpt lat="43.0761567" lon="13.269624"><ele>481.0</ele><time>2026-04-29T17:49:59.293Z</time></trkpt><trkpt lat="43.0760342" lon="13.2695638"><ele>481.5</ele><time>2026-04-29T17:50:00.267Z</time></trkpt><trkpt lat="43.0759129" lon="13.2695053"><ele>482.0</ele><time>2026-04-29T17:50:01.286Z</time></trkpt><trkpt lat="43.0757934" lon="13.2694498"><ele>482.0</ele><time>2026-04-29T17:50:02.247Z</time></trkpt><trkpt lat="43.0756671" lon="13.269403"><ele>482.0</ele><time>2026-04-29T17:50:03.276Z</time></trkpt><trkpt lat="43.0755394" lon="13.2693534"><ele>482.0</ele><time>2026-04-29T17:50:04.279Z</time></trkpt><trkpt lat="43.0754068" lon="13.269301"><ele>482.0</ele><time>2026-04-29T17:50:05.269Z</time></trkpt><trkpt lat="43.0752678" lon="13.2692298"><ele>482.0</ele><time>2026-04-29T17:50:06.274Z</time></trkpt><trkpt lat="43.0751313" lon="13.2691589"><ele>482.0</ele><time>2026-04-29T17:50:07.249Z</time></trkpt><trkpt lat="43.075012" lon="13.2690887"><ele>482.0</ele><time>2026-04-29T17:50:08.281Z</time></trkpt><trkpt lat="43.0748998" lon="13.2690196"><ele>482.0</ele><time>2026-04-29T17:50:09.275Z</time></trkpt><trkpt lat="43.0747862" lon="13.2689467"><ele>482.25</ele><time>2026-04-29T17:50:10.27Z</time></trkpt><trkpt lat="43.0746763" lon="13.2688771"><ele>482.5</ele><time>2026-04-29T17:50:11.291Z</time></trkpt><trkpt lat="43.0745669" lon="13.2688128"><ele>482.75</ele><time>2026-04-29T17:50:12.281Z</time></trkpt><trkpt lat="43.0744581" lon="13.2687496"><ele>483.0</ele><time>2026-04-29T17:50:13.292Z</time></trkpt><trkpt lat="43.0743491" lon="13.268688"><ele>483.0</ele><time>2026-04-29T17:50:14.305Z</time></trkpt><trkpt lat="43.0742381" lon="13.2686283"><ele>482.99999999999994</ele><time>2026-04-29T17:50:15.281Z</time></trkpt><trkpt lat="43.0741319" lon="13.2685725"><ele>482.99999999999994</ele><time>2026-04-29T17:50:16.283Z</time></trkpt><trkpt lat="43.0740323" lon="13.2685142"><ele>483.0</ele><time>2026-04-29T17:50:17.322Z</time></trkpt><trkpt lat="43.0739329" lon="13.2684582"><ele>483.0</ele><time>2026-04-29T17:50:18.299Z</time></trkpt><trkpt lat="43.0738323" lon="13.2684071"><ele>483.4</ele><time>2026-04-29T17:50:19.292Z</time></trkpt><trkpt lat="43.073734" lon="13.2683593"><ele>483.79999999999995</ele><time>2026-04-29T17:50:20.289Z</time></trkpt><trkpt lat="43.0736337" lon="13.2683144"><ele>484.2</ele><time>2026-04-29T17:50:21.289Z</time></trkpt><trkpt lat="43.0735377" lon="13.2682777"><ele>484.6</ele><time>2026-04-29T17:50:22.298Z</time></trkpt><trkpt lat="43.0734525" lon="13.2682553"><ele>485.0</ele><time>2026-04-29T17:50:23.282Z</time></trkpt><trkpt lat="43.0733705" lon="13.2682294"><ele>485.0</ele><time>2026-04-29T17:50:24.244Z</time></trkpt><trkpt lat="43.0732877" lon="13.2681938"><ele>485.0</ele><time>2026-04-29T17:50:25.275Z</time></trkpt><trkpt lat="43.0731992" lon="13.2681487"><ele>485.0</ele><time>2026-04-29T17:50:26.276Z</time></trkpt><trkpt lat="43.0731067" lon="13.2681026"><ele>485.0</ele><time>2026-04-29T17:50:27.307Z</time></trkpt><trkpt lat="43.0730167" lon="13.268057"><ele>485.0</ele><time>2026-04-29T17:50:28.28Z</time></trkpt><trkpt lat="43.0729332" lon="13.2680145"><ele>485.8</ele><time>2026-04-29T17:50:29.231Z</time></trkpt><trkpt lat="43.0728517" lon="13.267969"><ele>486.6</ele><time>2026-04-29T17:50:30.239Z</time></trkpt><trkpt lat="43.0727674" lon="13.2679224"><ele>487.4</ele><time>2026-04-29T17:50:31.271Z</time></trkpt><trkpt lat="43.0726748" lon="13.2678737"><ele>488.2</ele><time>2026-04-29T17:50:32.298Z</time></trkpt><trkpt lat="43.0725778" lon="13.2678216"><ele>489.0</ele><time>2026-04-29T17:50:33.26Z</time></trkpt><trkpt lat="43.0724856" lon="13.2677728"><ele>488.6666666666667</ele><time>2026-04-29T17:50:34.283Z</time></trkpt><trkpt lat="43.0724079" lon="13.2677307"><ele>488.33333333333337</ele><time>2026-04-29T17:50:35.288Z</time></trkpt><trkpt lat="43.0723486" lon="13.2676981"><ele>488.0</ele><time>2026-04-29T17:50:36.258Z</time></trkpt><trkpt lat="43.0722552" lon="13.2676725"><ele>487.6666666666667</ele><time>2026-04-29T17:50:38.254Z</time></trkpt><trkpt lat="43.0721913" lon="13.2676912"><ele>487.33333333333337</ele><time>2026-04-29T17:50:39.282Z</time></trkpt><trkpt lat="43.0720926" lon="13.2677239"><ele>487.0</ele><time>2026-04-29T17:50:40.268Z</time></trkpt><trkpt lat="43.0719846" lon="13.2677608"><ele>487.0</ele><time>2026-04-29T17:50:41.299Z</time></trkpt><trkpt lat="43.0718468" lon="13.2678054"><ele>487.0</ele><time>2026-04-29T17:50:42.281Z</time></trkpt><trkpt lat="43.0716955" lon="13.2678299"><ele>487.0</ele><time>2026-04-29T17:50:43.246Z</time></trkpt><trkpt lat="43.0715062" lon="13.2678304"><ele>488.0</ele><time>2026-04-29T17:50:44.267Z</time></trkpt><trkpt lat="43.0713254" lon="13.2678297"><ele>489.0</ele><time>2026-04-29T17:50:45.295Z</time></trkpt><trkpt lat="43.0711465" lon="13.2678239"><ele>490.0</ele><time>2026-04-29T17:50:46.303Z</time></trkpt><trkpt lat="43.0709639" lon="13.2678069"><ele>490.0</ele><time>2026-04-29T17:50:47.28Z</time></trkpt><trkpt lat="43.0707886" lon="13.2677929"><ele>490.0</ele><time>2026-04-29T17:50:48.255Z</time></trkpt><trkpt lat="43.0706338" lon="13.267778"><ele>490.0</ele><time>2026-04-29T17:50:49.275Z</time></trkpt><trkpt lat="43.0704958" lon="13.2677617"><ele>491.25</ele><time>2026-04-29T17:50:50.296Z</time></trkpt><trkpt lat="43.0703697" lon="13.2677271"><ele>492.5</ele><time>2026-04-29T17:50:51.299Z</time></trkpt><trkpt lat="43.0702562" lon="13.2676977"><ele>493.75</ele><time>2026-04-29T17:50:52.294Z</time></trkpt><trkpt lat="43.0701578" lon="13.2676403"><ele>495.0</ele><time>2026-04-29T17:50:53.247Z</time></trkpt><trkpt lat="43.0700597" lon="13.267572"><ele>495.0</ele><time>2026-04-29T17:50:54.261Z</time></trkpt><trkpt lat="43.069963" lon="13.267508"><ele>495.0</ele><time>2026-04-29T17:50:55.275Z</time></trkpt><trkpt lat="43.0698654" lon="13.2674672"><ele>495.0</ele><time>2026-04-29T17:50:56.284Z</time></trkpt><trkpt lat="43.0697568" lon="13.2674118"><ele>495.0</ele><time>2026-04-29T17:50:57.285Z</time></trkpt><trkpt lat="43.0696317" lon="13.2673818"><ele>495.25</ele><time>2026-04-29T17:50:58.237Z</time></trkpt><trkpt lat="43.0694826" lon="13.2673563"><ele>495.5</ele><time>2026-04-29T17:50:59.288Z</time></trkpt><trkpt lat="43.0693356" lon="13.2673533"><ele>495.75</ele><time>2026-04-29T17:51:00.28Z</time></trkpt><trkpt lat="43.0692093" lon="13.2673428"><ele>496.0</ele><time>2026-04-29T17:51:01.285Z</time></trkpt><trkpt lat="43.0690851" lon="13.2673368"><ele>496.0</ele><time>2026-04-29T17:51:02.27Z</time></trkpt><trkpt lat="43.0689444" lon="13.2673251"><ele>496.0</ele><time>2026-04-29T17:51:03.257Z</time></trkpt><trkpt lat="43.0688181" lon="13.2673172"><ele>496.0</ele><time>2026-04-29T17:51:04.329Z</time></trkpt><trkpt lat="43.0687079" lon="13.2672906"><ele>496.0</ele><time>2026-04-29T17:51:05.278Z</time></trkpt><trkpt lat="43.0686185" lon="13.2672549"><ele>496.1666666666667</ele><time>2026-04-29T17:51:06.296Z</time></trkpt><trkpt lat="43.0685637" lon="13.2671966"><ele>496.33333333333337</ele><time>2026-04-29T17:51:07.27Z</time></trkpt><trkpt lat="43.0685071" lon="13.2671353"><ele>496.5</ele><time>2026-04-29T17:51:08.249Z</time></trkpt><trkpt lat="43.0684082" lon="13.2670326"><ele>496.66666666666663</ele><time>2026-04-29T17:51:10.282Z</time></trkpt><trkpt lat="43.0683225" lon="13.2670419"><ele>496.8333333333333</ele><time>2026-04-29T17:51:11.268Z</time></trkpt><trkpt lat="43.0682348" lon="13.2670634"><ele>497.0</ele><time>2026-04-29T17:51:12.276Z</time></trkpt><trkpt lat="43.0681503" lon="13.2670974"><ele>497.75</ele><time>2026-04-29T17:51:13.248Z</time></trkpt><trkpt lat="43.0680505" lon="13.2671548"><ele>498.5</ele><time>2026-04-29T17:51:14.27Z</time></trkpt><trkpt lat="43.0679407" lon="13.2672478"><ele>499.25</ele><time>2026-04-29T17:51:15.263Z</time></trkpt><trkpt lat="43.0678062" lon="13.2673061"><ele>500.0</ele><time>2026-04-29T17:51:16.278Z</time></trkpt><trkpt lat="43.0676749" lon="13.2673637"><ele>500.0</ele><time>2026-04-29T17:51:17.274Z</time></trkpt><trkpt lat="43.0675635" lon="13.2674125"><ele>500.0</ele><time>2026-04-29T17:51:18.27Z</time></trkpt><trkpt lat="43.0674393" lon="13.2674649"><ele>500.0</ele><time>2026-04-29T17:51:19.291Z</time></trkpt><trkpt lat="43.0673042" lon="13.2675366"><ele>500.0</ele><time>2026-04-29T17:51:20.276Z</time></trkpt><trkpt lat="43.0671569" lon="13.2676022"><ele>501.25</ele><time>2026-04-29T17:51:21.329Z</time></trkpt><trkpt lat="43.0670117" lon="13.2676762"><ele>502.5</ele><time>2026-04-29T17:51:22.303Z</time></trkpt><trkpt lat="43.0668762" lon="13.2677437"><ele>503.75</ele><time>2026-04-29T17:51:23.254Z</time></trkpt><trkpt lat="43.0667521" lon="13.267811"><ele>505.0</ele><time>2026-04-29T17:51:24.253Z</time></trkpt><trkpt lat="43.0666214" lon="13.2678666"><ele>505.25</ele><time>2026-04-29T17:51:25.275Z</time></trkpt><trkpt lat="43.0664967" lon="13.2679198"><ele>505.5</ele><time>2026-04-29T17:51:26.298Z</time></trkpt><trkpt lat="43.0663824" lon="13.2679691"><ele>505.75</ele><time>2026-04-29T17:51:27.28Z</time></trkpt><trkpt lat="43.0662755" lon="13.2680151"><ele>506.0</ele><time>2026-04-29T17:51:28.248Z</time></trkpt><trkpt lat="43.0661723" lon="13.2680532"><ele>506.0</ele><time>2026-04-29T17:51:29.265Z</time></trkpt><trkpt lat="43.0660807" lon="13.2680956"><ele>506.0</ele><time>2026-04-29T17:51:30.272Z</time></trkpt><trkpt lat="43.0659875" lon="13.2681139"><ele>506.0</ele><time>2026-04-29T17:51:31.288Z</time></trkpt><trkpt lat="43.0658863" lon="13.2681606"><ele>506.0</ele><time>2026-04-29T17:51:32.259Z</time></trkpt><trkpt lat="43.065785" lon="13.268217"><ele>506.0</ele><time>2026-04-29T17:51:33.255Z</time></trkpt><trkpt lat="43.0656663" lon="13.2682996"><ele>507.5</ele><time>2026-04-29T17:51:34.286Z</time></trkpt><trkpt lat="43.0655568" lon="13.2683731"><ele>509.0</ele><time>2026-04-29T17:51:35.282Z</time></trkpt><trkpt lat="43.0654599" lon="13.268453"><ele>510.5</ele><time>2026-04-29T17:51:36.271Z</time></trkpt><trkpt lat="43.0653681" lon="13.2685168"><ele>512.0</ele><time>2026-04-29T17:51:37.291Z</time></trkpt><trkpt lat="43.0652701" lon="13.2685972"><ele>512.0</ele><time>2026-04-29T17:51:38.278Z</time></trkpt><trkpt lat="43.0651801" lon="13.2686634"><ele>512.0</ele><time>2026-04-29T17:51:39.285Z</time></trkpt><trkpt lat="43.0650864" lon="13.2687338"><ele>512.0</ele><time>2026-04-29T17:51:40.276Z</time></trkpt><trkpt lat="43.0649936" lon="13.2688041"><ele>512.0</ele><time>2026-04-29T17:51:41.297Z</time></trkpt><trkpt lat="43.0648978" lon="13.2688763"><ele>512.0</ele><time>2026-04-29T17:51:42.273Z</time></trkpt><trkpt lat="43.0648028" lon="13.2689458"><ele>512.6</ele><time>2026-04-29T17:51:43.272Z</time></trkpt><trkpt lat="43.0647183" lon="13.2690076"><ele>513.2</ele><time>2026-04-29T17:51:44.285Z</time></trkpt><trkpt lat="43.0646285" lon="13.2690746"><ele>513.8</ele><time>2026-04-29T17:51:45.292Z</time></trkpt><trkpt lat="43.0645464" lon="13.2691294"><ele>514.4</ele><time>2026-04-29T17:51:46.302Z</time></trkpt><trkpt lat="43.0644752" lon="13.2692029"><ele>515.0</ele><time>2026-04-29T17:51:47.272Z</time></trkpt><trkpt lat="43.0643893" lon="13.2692679"><ele>515.0</ele><time>2026-04-29T17:51:48.291Z</time></trkpt><trkpt lat="43.0642871" lon="13.2693441"><ele>515.0</ele><time>2026-04-29T17:51:49.286Z</time></trkpt><trkpt lat="43.0641776" lon="13.2694101"><ele>515.0</ele><time>2026-04-29T17:51:50.287Z</time></trkpt><trkpt lat="43.0640836" lon="13.2694754"><ele>515.0</ele><time>2026-04-29T17:51:51.299Z</time></trkpt><trkpt lat="43.0639835" lon="13.2695305"><ele>515.0</ele><time>2026-04-29T17:51:52.292Z</time></trkpt><trkpt lat="43.0639062" lon="13.2695782"><ele>515.8333333333333</ele><time>2026-04-29T17:51:53.267Z</time></trkpt><trkpt lat="43.0638358" lon="13.2696215"><ele>516.6666666666666</ele><time>2026-04-29T17:51:54.331Z</time></trkpt><trkpt lat="43.0637684" lon="13.2696927"><ele>517.5</ele><time>2026-04-29T17:51:55.284Z</time></trkpt><trkpt lat="43.0637136" lon="13.2697844"><ele>518.3333333333334</ele><time>2026-04-29T17:51:56.255Z</time></trkpt><trkpt lat="43.0636532" lon="13.2698654"><ele>519.1666666666667</ele><time>2026-04-29T17:51:57.29Z</time></trkpt><trkpt lat="43.063592" lon="13.2699221"><ele>520.0</ele><time>2026-04-29T17:51:58.321Z</time></trkpt><trkpt lat="43.0635047" lon="13.2699547"><ele>520.25</ele><time>2026-04-29T17:51:59.302Z</time></trkpt><trkpt lat="43.0633823" lon="13.2699704"><ele>520.5</ele><time>2026-04-29T17:52:00.262Z</time></trkpt><trkpt lat="43.063247" lon="13.2699878"><ele>520.75</ele><time>2026-04-29T17:52:01.294Z</time></trkpt><trkpt lat="43.0631025" lon="13.2700012"><ele>521.0</ele><time>2026-04-29T17:52:02.255Z</time></trkpt><trkpt lat="43.0629513" lon="13.2700219"><ele>521.6</ele><time>2026-04-29T17:52:03.278Z</time></trkpt><trkpt lat="43.0628088" lon="13.2700546"><ele>522.2</ele><time>2026-04-29T17:52:04.288Z</time></trkpt><trkpt lat="43.0626935" lon="13.2700827"><ele>522.8</ele><time>2026-04-29T17:52:05.291Z</time></trkpt><trkpt lat="43.0626047" lon="13.2700984"><ele>523.4</ele><time>2026-04-29T17:52:06.292Z</time></trkpt><trkpt lat="43.0625086" lon="13.2700922"><ele>524.0</ele><time>2026-04-29T17:52:07.279Z</time></trkpt><trkpt lat="43.0623934" lon="13.2700912"><ele>525.4</ele><time>2026-04-29T17:52:08.327Z</time></trkpt><trkpt lat="43.0622766" lon="13.2700736"><ele>526.8</ele><time>2026-04-29T17:52:09.275Z</time></trkpt><trkpt lat="43.0621556" lon="13.270046"><ele>528.2</ele><time>2026-04-29T17:52:10.301Z</time></trkpt><trkpt lat="43.0620563" lon="13.2700174"><ele>529.6</ele><time>2026-04-29T17:52:11.283Z</time></trkpt><trkpt lat="43.0619507" lon="13.2699897"><ele>531.0</ele><time>2026-04-29T17:52:12.278Z</time></trkpt><trkpt lat="43.0618179" lon="13.2699316"><ele>531.0</ele><time>2026-04-29T17:52:13.294Z</time></trkpt><trkpt lat="43.0617061" lon="13.2698961"><ele>531.0</ele><time>2026-04-29T17:52:14.29Z</time></trkpt><trkpt lat="43.0616156" lon="13.2698747"><ele>531.0</ele><time>2026-04-29T17:52:15.286Z</time></trkpt><trkpt lat="43.0615482" lon="13.2698636"><ele>531.0</ele><time>2026-04-29T17:52:16.283Z</time></trkpt><trkpt lat="43.0614428" lon="13.26985"><ele>531.0</ele><time>2026-04-29T17:52:18.282Z</time></trkpt><trkpt lat="43.0613509" lon="13.2698975"><ele>532.0</ele><time>2026-04-29T17:52:21.286Z</time></trkpt><trkpt lat="43.0613014" lon="13.2700089"><ele>533.0</ele><time>2026-04-29T17:52:23.271Z</time></trkpt><trkpt lat="43.0612752" lon="13.270104"><ele>534.0</ele><time>2026-04-29T17:52:24.267Z</time></trkpt><trkpt lat="43.0612465" lon="13.2702551"><ele>535.0</ele><time>2026-04-29T17:52:26.276Z</time></trkpt><trkpt lat="43.061154" lon="13.2702741"><ele>536.0</ele><time>2026-04-29T17:52:28.308Z</time></trkpt><trkpt lat="43.0610629" lon="13.2702506"><ele>536.0</ele><time>2026-04-29T17:52:29.291Z</time></trkpt><trkpt lat="43.0609402" lon="13.2702218"><ele>536.0</ele><time>2026-04-29T17:52:30.317Z</time></trkpt><trkpt lat="43.0608227" lon="13.2701869"><ele>536.0</ele><time>2026-04-29T17:52:31.283Z</time></trkpt><trkpt lat="43.0606993" lon="13.2701462"><ele>536.0</ele><time>2026-04-29T17:52:32.29Z</time></trkpt><trkpt lat="43.0605801" lon="13.2701154"><ele>537.0</ele><time>2026-04-29T17:52:33.285Z</time></trkpt><trkpt lat="43.0604488" lon="13.2700885"><ele>538.0</ele><time>2026-04-29T17:52:34.276Z</time></trkpt><trkpt lat="43.0602831" lon="13.2700438"><ele>539.0</ele><time>2026-04-29T17:52:35.277Z</time></trkpt><trkpt lat="43.0600971" lon="13.2699971"><ele>540.6666666666666</ele><time>2026-04-29T17:52:36.275Z</time></trkpt><trkpt lat="43.0599009" lon="13.2699468"><ele>542.3333333333334</ele><time>2026-04-29T17:52:37.303Z</time></trkpt><trkpt lat="43.0596987" lon="13.2698954"><ele>544.0</ele><time>2026-04-29T17:52:38.28Z</time></trkpt><trkpt lat="43.0594954" lon="13.2698402"><ele>544.0</ele><time>2026-04-29T17:52:39.304Z</time></trkpt><trkpt lat="43.0592913" lon="13.269784"><ele>544.0</ele><time>2026-04-29T17:52:40.308Z</time></trkpt><trkpt lat="43.0590814" lon="13.2697301"><ele>544.0</ele><time>2026-04-29T17:52:41.324Z</time></trkpt><trkpt lat="43.0588625" lon="13.2696725"><ele>545.5</ele><time>2026-04-29T17:52:42.258Z</time></trkpt><trkpt lat="43.058633" lon="13.2696096"><ele>547.0</ele><time>2026-04-29T17:52:43.304Z</time></trkpt><trkpt lat="43.0583964" lon="13.2695464"><ele>548.5</ele><time>2026-04-29T17:52:44.296Z</time></trkpt><trkpt lat="43.0581691" lon="13.269486"><ele>550.0</ele><time>2026-04-29T17:52:45.285Z</time></trkpt><trkpt lat="43.0579547" lon="13.2694272"><ele>550.0</ele><time>2026-04-29T17:52:46.282Z</time></trkpt><trkpt lat="43.0577507" lon="13.2693747"><ele>550.0</ele><time>2026-04-29T17:52:47.313Z</time></trkpt><trkpt lat="43.0575566" lon="13.2693237"><ele>550.0</ele><time>2026-04-29T17:52:48.285Z</time></trkpt><trkpt lat="43.0573804" lon="13.2692768"><ele>553.0</ele><time>2026-04-29T17:52:49.282Z</time></trkpt><trkpt lat="43.0572208" lon="13.2692318"><ele>556.0</ele><time>2026-04-29T17:52:50.272Z</time></trkpt><trkpt lat="43.0570691" lon="13.2691872"><ele>559.0</ele><time>2026-04-29T17:52:51.351Z</time></trkpt><trkpt lat="43.0569229" lon="13.2691492"><ele>559.0</ele><time>2026-04-29T17:52:52.301Z</time></trkpt><trkpt lat="43.0567836" lon="13.2691135"><ele>559.0</ele><time>2026-04-29T17:52:53.301Z</time></trkpt><trkpt lat="43.0566524" lon="13.2690791"><ele>559.0</ele><time>2026-04-29T17:52:54.293Z</time></trkpt><trkpt lat="43.0565227" lon="13.2690432"><ele>559.0</ele><time>2026-04-29T17:52:55.305Z</time></trkpt><trkpt lat="43.0564034" lon="13.2690106"><ele>559.6</ele><time>2026-04-29T17:52:56.271Z</time></trkpt><trkpt lat="43.0562981" lon="13.2689816"><ele>560.2</ele><time>2026-04-29T17:52:57.284Z</time></trkpt><trkpt lat="43.0562014" lon="13.2689558"><ele>560.8000000000001</ele><time>2026-04-29T17:52:58.271Z</time></trkpt><trkpt lat="43.0561073" lon="13.2689291"><ele>561.4</ele><time>2026-04-29T17:52:59.3Z</time></trkpt><trkpt lat="43.0560064" lon="13.2689133"><ele>562.0</ele><time>2026-04-29T17:53:00.3Z</time></trkpt><trkpt lat="43.0559204" lon="13.2688997"><ele>562.0</ele><time>2026-04-29T17:53:01.302Z</time></trkpt><trkpt lat="43.055848" lon="13.2688734"><ele>562.0</ele><time>2026-04-29T17:53:02.255Z</time></trkpt><trkpt lat="43.055785" lon="13.2688568"><ele>562.0</ele><time>2026-04-29T17:53:03.292Z</time></trkpt><trkpt lat="43.0557048" lon="13.2687676"><ele>562.0</ele><time>2026-04-29T17:53:05.28Z</time></trkpt><trkpt lat="43.0556111" lon="13.2687202"><ele>562.0</ele><time>2026-04-29T17:53:07.271Z</time></trkpt><trkpt lat="43.055547" lon="13.2687375"><ele>562.0</ele><time>2026-04-29T17:53:08.338Z</time></trkpt><trkpt lat="43.055467" lon="13.2687626"><ele>562.75</ele><time>2026-04-29T17:53:09.269Z</time></trkpt><trkpt lat="43.0553705" lon="13.2688009"><ele>563.5</ele><time>2026-04-29T17:53:10.272Z</time></trkpt><trkpt lat="43.0552376" lon="13.2688698"><ele>564.25</ele><time>2026-04-29T17:53:11.262Z</time></trkpt><trkpt lat="43.0551025" lon="13.2689736"><ele>565.0</ele><time>2026-04-29T17:53:12.311Z</time></trkpt><trkpt lat="43.0549903" lon="13.2690938"><ele>566.25</ele><time>2026-04-29T17:53:13.302Z</time></trkpt><trkpt lat="43.0548759" lon="13.2691929"><ele>567.5</ele><time>2026-04-29T17:53:14.241Z</time></trkpt><trkpt lat="43.0547578" lon="13.2692563"><ele>568.75</ele><time>2026-04-29T17:53:15.286Z</time></trkpt><trkpt lat="43.0546486" lon="13.2693314"><ele>570.0</ele><time>2026-04-29T17:53:16.288Z</time></trkpt><trkpt lat="43.0545533" lon="13.2693879"><ele>570.0</ele><time>2026-04-29T17:53:17.292Z</time></trkpt><trkpt lat="43.0544519" lon="13.2694871"><ele>570.0</ele><time>2026-04-29T17:53:18.276Z</time></trkpt><trkpt lat="43.0543377" lon="13.2696405"><ele>570.0</ele><time>2026-04-29T17:53:19.27Z</time></trkpt><trkpt lat="43.0542407" lon="13.2697964"><ele>570.0</ele><time>2026-04-29T17:53:20.309Z</time></trkpt><trkpt lat="43.054156" lon="13.2699216"><ele>569.0</ele><time>2026-04-29T17:53:21.285Z</time></trkpt><trkpt lat="43.0540844" lon="13.2700414"><ele>568.0</ele><time>2026-04-29T17:53:22.294Z</time></trkpt><trkpt lat="43.0540052" lon="13.270149"><ele>567.0</ele><time>2026-04-29T17:53:23.281Z</time></trkpt><trkpt lat="43.0539221" lon="13.2702511"><ele>566.0</ele><time>2026-04-29T17:53:24.254Z</time></trkpt><trkpt lat="43.0538449" lon="13.2703524"><ele>565.0</ele><time>2026-04-29T17:53:25.298Z</time></trkpt><trkpt lat="43.0537697" lon="13.2704541"><ele>565.0</ele><time>2026-04-29T17:53:26.294Z</time></trkpt><trkpt lat="43.0537195" lon="13.2705577"><ele>565.0</ele><time>2026-04-29T17:53:27.299Z</time></trkpt><trkpt lat="43.0536862" lon="13.2706667"><ele>565.0</ele><time>2026-04-29T17:53:28.3Z</time></trkpt><trkpt lat="43.0536489" lon="13.2707422"><ele>565.0</ele><time>2026-04-29T17:53:29.259Z</time></trkpt><trkpt lat="43.053604" lon="13.2708068"><ele>565.0</ele><time>2026-04-29T17:53:30.272Z</time></trkpt><trkpt lat="43.0535505" lon="13.270884"><ele>565.0</ele><time>2026-04-29T17:53:31.29Z</time></trkpt><trkpt lat="43.0534844" lon="13.2709391"><ele>563.4</ele><time>2026-04-29T17:53:32.276Z</time></trkpt><trkpt lat="43.0534299" lon="13.2710051"><ele>561.8</ele><time>2026-04-29T17:53:33.306Z</time></trkpt><trkpt lat="43.0533709" lon="13.271063"><ele>560.2</ele><time>2026-04-29T17:53:34.253Z</time></trkpt><trkpt lat="43.0532895" lon="13.2711072"><ele>558.6</ele><time>2026-04-29T17:53:35.28Z</time></trkpt><trkpt lat="43.0531667" lon="13.2712041"><ele>557.0</ele><time>2026-04-29T17:53:36.29Z</time></trkpt><trkpt lat="43.053075" lon="13.2712967"><ele>555.5</ele><time>2026-04-29T17:53:37.268Z</time></trkpt><trkpt lat="43.0529895" lon="13.2713726"><ele>554.0</ele><time>2026-04-29T17:53:38.312Z</time></trkpt><trkpt lat="43.0528912" lon="13.2714689"><ele>552.5</ele><time>2026-04-29T17:53:39.254Z</time></trkpt><trkpt lat="43.0527793" lon="13.2715649"><ele>551.0</ele><time>2026-04-29T17:53:40.295Z</time></trkpt><trkpt lat="43.0526532" lon="13.2716848"><ele>549.6666666666666</ele><time>2026-04-29T17:53:41.283Z</time></trkpt><trkpt lat="43.0525097" lon="13.2717976"><ele>548.3333333333334</ele><time>2026-04-29T17:53:42.273Z</time></trkpt><trkpt lat="43.0523772" lon="13.271903"><ele>547.0</ele><time>2026-04-29T17:53:43.287Z</time></trkpt><trkpt lat="43.0522512" lon="13.2720083"><ele>547.0</ele><time>2026-04-29T17:53:44.281Z</time></trkpt><trkpt lat="43.0521309" lon="13.2721097"><ele>547.0</ele><time>2026-04-29T17:53:45.287Z</time></trkpt><trkpt lat="43.0520161" lon="13.2722102"><ele>547.0</ele><time>2026-04-29T17:53:46.302Z</time></trkpt><trkpt lat="43.0519133" lon="13.2722954"><ele>547.0</ele><time>2026-04-29T17:53:47.321Z</time></trkpt><trkpt lat="43.0518202" lon="13.2723761"><ele>546.4</ele><time>2026-04-29T17:53:48.307Z</time></trkpt><trkpt lat="43.0517387" lon="13.2724469"><ele>545.8000000000001</ele><time>2026-04-29T17:53:49.279Z</time></trkpt><trkpt lat="43.0516788" lon="13.272501"><ele>545.2</ele><time>2026-04-29T17:53:50.282Z</time></trkpt><trkpt lat="43.0516268" lon="13.2726188"><ele>544.6</ele><time>2026-04-29T17:53:52.281Z</time></trkpt><trkpt lat="43.0516339" lon="13.2727821"><ele>544.0</ele><time>2026-04-29T17:53:54.283Z</time></trkpt><trkpt lat="43.0516505" lon="13.2728904"><ele>544.0</ele><time>2026-04-29T17:53:55.294Z</time></trkpt><trkpt lat="43.0516565" lon="13.2729891"><ele>544.0</ele><time>2026-04-29T17:53:56.284Z</time></trkpt><trkpt lat="43.0516479" lon="13.2731248"><ele>544.0</ele><time>2026-04-29T17:53:58.292Z</time></trkpt><trkpt lat="43.0516078" lon="13.2732264"><ele>544.0</ele><time>2026-04-29T17:54:00.276Z</time></trkpt><trkpt lat="43.0515025" lon="13.2733508"><ele>544.0</ele><time>2026-04-29T17:54:02.288Z</time></trkpt><trkpt lat="43.0514336" lon="13.2734243"><ele>543.25</ele><time>2026-04-29T17:54:03.282Z</time></trkpt><trkpt lat="43.051371" lon="13.2735246"><ele>542.5</ele><time>2026-04-29T17:54:04.309Z</time></trkpt><trkpt lat="43.0513102" lon="13.2736649"><ele>541.75</ele><time>2026-04-29T17:54:05.312Z</time></trkpt><trkpt lat="43.0512569" lon="13.2738429"><ele>541.0</ele><time>2026-04-29T17:54:06.258Z</time></trkpt><trkpt lat="43.0512047" lon="13.2740344"><ele>540.75</ele><time>2026-04-29T17:54:07.292Z</time></trkpt><trkpt lat="43.0511667" lon="13.2742279"><ele>540.5</ele><time>2026-04-29T17:54:08.284Z</time></trkpt><trkpt lat="43.0511308" lon="13.274394"><ele>540.25</ele><time>2026-04-29T17:54:09.279Z</time></trkpt><trkpt lat="43.0510926" lon="13.274563"><ele>540.0</ele><time>2026-04-29T17:54:10.246Z</time></trkpt><trkpt lat="43.0510424" lon="13.2747109"><ele>539.5</ele><time>2026-04-29T17:54:11.232Z</time></trkpt><trkpt lat="43.0509634" lon="13.2748511"><ele>539.0</ele><time>2026-04-29T17:54:12.245Z</time></trkpt><trkpt lat="43.0508707" lon="13.2749822"><ele>538.5</ele><time>2026-04-29T17:54:13.253Z</time></trkpt><trkpt lat="43.0507629" lon="13.275116"><ele>538.0</ele><time>2026-04-29T17:54:14.294Z</time></trkpt><trkpt lat="43.0506341" lon="13.2752685"><ele>538.0</ele><time>2026-04-29T17:54:15.275Z</time></trkpt><trkpt lat="43.0505083" lon="13.2754256"><ele>538.0</ele><time>2026-04-29T17:54:16.287Z</time></trkpt><trkpt lat="43.0503905" lon="13.2755769"><ele>538.0</ele><time>2026-04-29T17:54:17.289Z</time></trkpt><trkpt lat="43.0502723" lon="13.2757257"><ele>537.6666666666667</ele><time>2026-04-29T17:54:18.29Z</time></trkpt><trkpt lat="43.0501529" lon="13.2758695"><ele>537.3333333333334</ele><time>2026-04-29T17:54:19.301Z</time></trkpt><trkpt lat="43.0500402" lon="13.2760087"><ele>537.0</ele><time>2026-04-29T17:54:20.313Z</time></trkpt><trkpt lat="43.0499302" lon="13.2761468"><ele>536.0</ele><time>2026-04-29T17:54:21.283Z</time></trkpt><trkpt lat="43.0498179" lon="13.276293"><ele>535.0</ele><time>2026-04-29T17:54:22.286Z</time></trkpt><trkpt lat="43.0497015" lon="13.2764396"><ele>534.0</ele><time>2026-04-29T17:54:23.274Z</time></trkpt><trkpt lat="43.0495901" lon="13.2765824"><ele>534.0</ele><time>2026-04-29T17:54:24.287Z</time></trkpt><trkpt lat="43.0494838" lon="13.2767217"><ele>534.0</ele><time>2026-04-29T17:54:25.291Z</time></trkpt><trkpt lat="43.0493801" lon="13.2768601"><ele>534.0</ele><time>2026-04-29T17:54:26.282Z</time></trkpt><trkpt lat="43.0492793" lon="13.2769906"><ele>534.0</ele><time>2026-04-29T17:54:27.278Z</time></trkpt><trkpt lat="43.0491866" lon="13.2771126"><ele>534.0</ele><time>2026-04-29T17:54:28.292Z</time></trkpt><trkpt lat="43.0490993" lon="13.2772232"><ele>534.0</ele><time>2026-04-29T17:54:29.292Z</time></trkpt><trkpt lat="43.0490175" lon="13.277327"><ele>534.0</ele><time>2026-04-29T17:54:30.292Z</time></trkpt><trkpt lat="43.0489457" lon="13.2774238"><ele>534.0</ele><time>2026-04-29T17:54:31.293Z</time></trkpt><trkpt lat="43.0488763" lon="13.2775222"><ele>534.0</ele><time>2026-04-29T17:54:32.314Z</time></trkpt><trkpt lat="43.0488095" lon="13.2776105"><ele>534.4</ele><time>2026-04-29T17:54:33.29Z</time></trkpt><trkpt lat="43.048733" lon="13.2776819"><ele>534.8</ele><time>2026-04-29T17:54:34.286Z</time></trkpt><trkpt lat="43.0486708" lon="13.277712"><ele>535.2</ele><time>2026-04-29T17:54:35.284Z</time></trkpt><trkpt lat="43.0485886" lon="13.277751"><ele>535.6</ele><time>2026-04-29T17:54:37.282Z</time></trkpt><trkpt lat="43.0485119" lon="13.2777768"><ele>536.0</ele><time>2026-04-29T17:54:39.296Z</time></trkpt><trkpt lat="43.0483871" lon="13.2777974"><ele>536.0</ele><time>2026-04-29T17:54:41.27Z</time></trkpt><trkpt lat="43.0483075" lon="13.2777958"><ele>536.0</ele><time>2026-04-29T17:54:42.293Z</time></trkpt><trkpt lat="43.0482256" lon="13.277774"><ele>536.0</ele><time>2026-04-29T17:54:43.3Z</time></trkpt><trkpt lat="43.0481459" lon="13.2777236"><ele>536.0</ele><time>2026-04-29T17:54:44.271Z</time></trkpt><trkpt lat="43.0480633" lon="13.2776509"><ele>536.0</ele><time>2026-04-29T17:54:45.278Z</time></trkpt><trkpt lat="43.0479789" lon="13.2775118"><ele>535.3333333333333</ele><time>2026-04-29T17:54:46.295Z</time></trkpt><trkpt lat="43.0478856" lon="13.2773413"><ele>534.6666666666666</ele><time>2026-04-29T17:54:47.292Z</time></trkpt><trkpt lat="43.0477904" lon="13.2771657"><ele>534.0</ele><time>2026-04-29T17:54:48.28Z</time></trkpt><trkpt lat="43.0476934" lon="13.277012"><ele>533.75</ele><time>2026-04-29T17:54:49.32Z</time></trkpt><trkpt lat="43.0475997" lon="13.2768774"><ele>533.5</ele><time>2026-04-29T17:54:50.288Z</time></trkpt><trkpt lat="43.0475115" lon="13.2767539"><ele>533.25</ele><time>2026-04-29T17:54:51.288Z</time></trkpt><trkpt lat="43.0474331" lon="13.2766457"><ele>533.0</ele><time>2026-04-29T17:54:52.285Z</time></trkpt><trkpt lat="43.0473674" lon="13.2765628"><ele>531.6666666666666</ele><time>2026-04-29T17:54:53.289Z</time></trkpt><trkpt lat="43.047313" lon="13.2764983"><ele>530.3333333333333</ele><time>2026-04-29T17:54:54.316Z</time></trkpt><trkpt lat="43.0472572" lon="13.2764358"><ele>529.0</ele><time>2026-04-29T17:54:55.265Z</time></trkpt><trkpt lat="43.0471954" lon="13.2763661"><ele>527.6666666666666</ele><time>2026-04-29T17:54:56.3Z</time></trkpt><trkpt lat="43.0471286" lon="13.2762871"><ele>526.3333333333334</ele><time>2026-04-29T17:54:57.307Z</time></trkpt><trkpt lat="43.0470627" lon="13.2761996"><ele>525.0</ele><time>2026-04-29T17:54:58.283Z</time></trkpt><trkpt lat="43.0470021" lon="13.2761024"><ele>525.0</ele><time>2026-04-29T17:54:59.3Z</time></trkpt><trkpt lat="43.0469457" lon="13.2760016"><ele>525.0</ele><time>2026-04-29T17:55:00.331Z</time></trkpt><trkpt lat="43.0468944" lon="13.2759065"><ele>525.0</ele><time>2026-04-29T17:55:01.313Z</time></trkpt><trkpt lat="43.0468392" lon="13.2758045"><ele>525.0</ele><time>2026-04-29T17:55:02.294Z</time></trkpt><trkpt lat="43.0467795" lon="13.2756946"><ele>525.0</ele><time>2026-04-29T17:55:03.282Z</time></trkpt><trkpt lat="43.0467125" lon="13.2755707"><ele>525.75</ele><time>2026-04-29T17:55:04.333Z</time></trkpt><trkpt lat="43.0466353" lon="13.2754313"><ele>526.5</ele><time>2026-04-29T17:55:05.295Z</time></trkpt><trkpt lat="43.0465341" lon="13.2752667"><ele>527.25</ele><time>2026-04-29T17:55:06.279Z</time></trkpt><trkpt lat="43.0464424" lon="13.2750934"><ele>528.0</ele><time>2026-04-29T17:55:07.292Z</time></trkpt><trkpt lat="43.0462889" lon="13.2749059"><ele>533.6666666666666</ele><time>2026-04-29T17:55:08.303Z</time></trkpt><trkpt lat="43.046157" lon="13.274744"><ele>539.3333333333333</ele><time>2026-04-29T17:55:09.291Z</time></trkpt><trkpt lat="43.0460243" lon="13.2745959"><ele>545.0</ele><time>2026-04-29T17:55:10.299Z</time></trkpt><trkpt lat="43.0458847" lon="13.2744542"><ele>540.6666666666666</ele><time>2026-04-29T17:55:11.331Z</time></trkpt><trkpt lat="43.0457421" lon="13.2743193"><ele>536.3333333333334</ele><time>2026-04-29T17:55:12.304Z</time></trkpt><trkpt lat="43.045618" lon="13.274212"><ele>532.0</ele><time>2026-04-29T17:55:13.313Z</time></trkpt><trkpt lat="43.0454994" lon="13.2741091"><ele>532.0</ele><time>2026-04-29T17:55:14.283Z</time></trkpt><trkpt lat="43.045391" lon="13.2740222"><ele>532.0</ele><time>2026-04-29T17:55:15.291Z</time></trkpt><trkpt lat="43.0452846" lon="13.2739338"><ele>532.0</ele><time>2026-04-29T17:55:16.303Z</time></trkpt><trkpt lat="43.0452043" lon="13.2738314"><ele>532.0</ele><time>2026-04-29T17:55:17.307Z</time></trkpt><trkpt lat="43.045139" lon="13.2737121"><ele>532.6</ele><time>2026-04-29T17:55:18.282Z</time></trkpt><trkpt lat="43.045094" lon="13.2735928"><ele>533.2</ele><time>2026-04-29T17:55:19.306Z</time></trkpt><trkpt lat="43.0450581" lon="13.2734916"><ele>533.8</ele><time>2026-04-29T17:55:20.281Z</time></trkpt><trkpt lat="43.0450219" lon="13.2734096"><ele>534.4</ele><time>2026-04-29T17:55:21.268Z</time></trkpt><trkpt lat="43.0449507" lon="13.2732876"><ele>535.0</ele><time>2026-04-29T17:55:23.286Z</time></trkpt><trkpt lat="43.0448494" lon="13.2732748"><ele>535.0</ele><time>2026-04-29T17:55:25.256Z</time></trkpt><trkpt lat="43.0447693" lon="13.2733191"><ele>535.0</ele><time>2026-04-29T17:55:26.275Z</time></trkpt><trkpt lat="43.0446964" lon="13.2734002"><ele>535.0</ele><time>2026-04-29T17:55:27.251Z</time></trkpt><trkpt lat="43.0446336" lon="13.273499"><ele>535.0</ele><time>2026-04-29T17:55:28.237Z</time></trkpt><trkpt lat="43.0445721" lon="13.2735949"><ele>535.0</ele><time>2026-04-29T17:55:29.283Z</time></trkpt><trkpt lat="43.0445433" lon="13.2737216"><ele>535.0</ele><time>2026-04-29T17:55:30.291Z</time></trkpt><trkpt lat="43.0445073" lon="13.2738826"><ele>535.0</ele><time>2026-04-29T17:55:31.286Z</time></trkpt><trkpt lat="43.0444952" lon="13.2740719"><ele>535.0</ele><time>2026-04-29T17:55:32.251Z</time></trkpt><trkpt lat="43.0444967" lon="13.274277"><ele>535.0</ele><time>2026-04-29T17:55:33.28Z</time></trkpt><trkpt lat="43.0444904" lon="13.274502"><ele>537.5</ele><time>2026-04-29T17:55:34.271Z</time></trkpt><trkpt lat="43.0444826" lon="13.2747061"><ele>540.0</ele><time>2026-04-29T17:55:35.258Z</time></trkpt><trkpt lat="43.0444511" lon="13.2748898"><ele>542.5</ele><time>2026-04-29T17:55:36.275Z</time></trkpt><trkpt lat="43.0444487" lon="13.2750407"><ele>545.0</ele><time>2026-04-29T17:55:37.262Z</time></trkpt><trkpt lat="43.0444483" lon="13.2751907"><ele>546.4</ele><time>2026-04-29T17:55:38.3Z</time></trkpt><trkpt lat="43.0444781" lon="13.2753325"><ele>547.8</ele><time>2026-04-29T17:55:39.294Z</time></trkpt><trkpt lat="43.0445171" lon="13.2754447"><ele>549.2</ele><time>2026-04-29T17:55:40.246Z</time></trkpt><trkpt lat="43.044583" lon="13.2755061"><ele>550.6</ele><time>2026-04-29T17:55:41.296Z</time></trkpt><trkpt lat="43.0446812" lon="13.2755364"><ele>552.0</ele><time>2026-04-29T17:55:42.266Z</time></trkpt><trkpt lat="43.0447969" lon="13.2755648"><ele>552.0</ele><time>2026-04-29T17:55:43.289Z</time></trkpt><trkpt lat="43.0448898" lon="13.2756001"><ele>552.0</ele><time>2026-04-29T17:55:44.286Z</time></trkpt><trkpt lat="43.0449941" lon="13.2756522"><ele>552.0</ele><time>2026-04-29T17:55:45.276Z</time></trkpt><trkpt lat="43.0450614" lon="13.2757357"><ele>552.0</ele><time>2026-04-29T17:55:46.291Z</time></trkpt><trkpt lat="43.0451023" lon="13.2758158"><ele>552.0</ele><time>2026-04-29T17:55:47.291Z</time></trkpt><trkpt lat="43.0451131" lon="13.2759158"><ele>552.0</ele><time>2026-04-29T17:55:48.288Z</time></trkpt><trkpt lat="43.0450985" lon="13.2760142"><ele>553.5</ele><time>2026-04-29T17:55:49.304Z</time></trkpt><trkpt lat="43.0450558" lon="13.2761168"><ele>555.0</ele><time>2026-04-29T17:55:50.255Z</time></trkpt><trkpt lat="43.0450027" lon="13.2762425"><ele>556.5</ele><time>2026-04-29T17:55:51.34Z</time></trkpt><trkpt lat="43.0449192" lon="13.2763925"><ele>558.0</ele><time>2026-04-29T17:55:52.294Z</time></trkpt><trkpt lat="43.0448103" lon="13.2765576"><ele>560.6666666666666</ele><time>2026-04-29T17:55:53.28Z</time></trkpt><trkpt lat="43.0446815" lon="13.2767423"><ele>563.3333333333333</ele><time>2026-04-29T17:55:54.282Z</time></trkpt><trkpt lat="43.0445472" lon="13.276932"><ele>566.0</ele><time>2026-04-29T17:55:55.241Z</time></trkpt><trkpt lat="43.0444164" lon="13.2771113"><ele>568.3333333333333</ele><time>2026-04-29T17:55:56.284Z</time></trkpt><trkpt lat="43.044298" lon="13.2772929"><ele>570.6666666666666</ele><time>2026-04-29T17:55:57.338Z</time></trkpt><trkpt lat="43.0441839" lon="13.2774673"><ele>573.0</ele><time>2026-04-29T17:55:58.318Z</time></trkpt><trkpt lat="43.0440599" lon="13.2776603"><ele>573.0</ele><time>2026-04-29T17:55:59.281Z</time></trkpt><trkpt lat="43.0439402" lon="13.2778435"><ele>573.0</ele><time>2026-04-29T17:56:00.249Z</time></trkpt><trkpt lat="43.0438282" lon="13.2780089"><ele>573.0</ele><time>2026-04-29T17:56:01.29Z</time></trkpt><trkpt lat="43.043718" lon="13.2781738"><ele>566.3333333333334</ele><time>2026-04-29T17:56:02.285Z</time></trkpt><trkpt lat="43.0436069" lon="13.2783523"><ele>559.6666666666667</ele><time>2026-04-29T17:56:03.319Z</time></trkpt><trkpt lat="43.0434984" lon="13.2785241"><ele>553.0</ele><time>2026-04-29T17:56:04.288Z</time></trkpt><trkpt lat="43.0433965" lon="13.2786907"><ele>550.0</ele><time>2026-04-29T17:56:05.246Z</time></trkpt><trkpt lat="43.0432889" lon="13.2788625"><ele>547.0</ele><time>2026-04-29T17:56:06.305Z</time></trkpt><trkpt lat="43.0431776" lon="13.2790378"><ele>544.0</ele><time>2026-04-29T17:56:07.28Z</time></trkpt><trkpt lat="43.0430616" lon="13.2792029"><ele>544.0</ele><time>2026-04-29T17:56:08.234Z</time></trkpt><trkpt lat="43.0429664" lon="13.2793602"><ele>544.0</ele><time>2026-04-29T17:56:09.252Z</time></trkpt><trkpt lat="43.0428627" lon="13.2795202"><ele>544.0</ele><time>2026-04-29T17:56:10.237Z</time></trkpt><trkpt lat="43.0427544" lon="13.2796788"><ele>541.25</ele><time>2026-04-29T17:56:11.297Z</time></trkpt><trkpt lat="43.0426558" lon="13.2798329"><ele>538.5</ele><time>2026-04-29T17:56:12.301Z</time></trkpt><trkpt lat="43.0425683" lon="13.2799757"><ele>535.75</ele><time>2026-04-29T17:56:13.264Z</time></trkpt><trkpt lat="43.0424905" lon="13.2801117"><ele>533.0</ele><time>2026-04-29T17:56:14.309Z</time></trkpt><trkpt lat="43.042426" lon="13.2802478"><ele>533.0</ele><time>2026-04-29T17:56:15.252Z</time></trkpt><trkpt lat="43.0423749" lon="13.2803927"><ele>533.0</ele><time>2026-04-29T17:56:16.298Z</time></trkpt><trkpt lat="43.0423267" lon="13.2805526"><ele>533.0</ele><time>2026-04-29T17:56:17.281Z</time></trkpt><trkpt lat="43.0422923" lon="13.2807443"><ele>533.0</ele><time>2026-04-29T17:56:18.283Z</time></trkpt><trkpt lat="43.0422526" lon="13.280973"><ele>530.0</ele><time>2026-04-29T17:56:19.293Z</time></trkpt><trkpt lat="43.0422114" lon="13.2812415"><ele>527.0</ele><time>2026-04-29T17:56:20.258Z</time></trkpt><trkpt lat="43.0421626" lon="13.2814914"><ele>524.0</ele><time>2026-04-29T17:56:21.284Z</time></trkpt><trkpt lat="43.0421163" lon="13.2817281"><ele>523.0</ele><time>2026-04-29T17:56:22.282Z</time></trkpt><trkpt lat="43.0420757" lon="13.2819381"><ele>522.0</ele><time>2026-04-29T17:56:23.307Z</time></trkpt><trkpt lat="43.0420351" lon="13.2821327"><ele>521.0</ele><time>2026-04-29T17:56:24.289Z</time></trkpt><trkpt lat="43.042" lon="13.2823106"><ele>520.0</ele><time>2026-04-29T17:56:25.262Z</time></trkpt><trkpt lat="43.041969" lon="13.2824759"><ele>519.4</ele><time>2026-04-29T17:56:26.28Z</time></trkpt><trkpt lat="43.0419359" lon="13.2826321"><ele>518.8</ele><time>2026-04-29T17:56:27.291Z</time></trkpt><trkpt lat="43.0419059" lon="13.2827773"><ele>518.2</ele><time>2026-04-29T17:56:28.312Z</time></trkpt><trkpt lat="43.0418816" lon="13.2828997"><ele>517.6</ele><time>2026-04-29T17:56:29.303Z</time></trkpt><trkpt lat="43.0418633" lon="13.2830066"><ele>517.0</ele><time>2026-04-29T17:56:30.303Z</time></trkpt><trkpt lat="43.0418449" lon="13.2830936"><ele>517.5</ele><time>2026-04-29T17:56:31.286Z</time></trkpt><trkpt lat="43.0417909" lon="13.2832014"><ele>518.0</ele><time>2026-04-29T17:56:33.278Z</time></trkpt><trkpt lat="43.0416653" lon="13.2831868"><ele>518.5</ele><time>2026-04-29T17:56:35.28Z</time></trkpt><trkpt lat="43.0415677" lon="13.2831573"><ele>519.0</ele><time>2026-04-29T17:56:36.297Z</time></trkpt><trkpt lat="43.0414319" lon="13.2830906"><ele>521.0</ele><time>2026-04-29T17:56:37.287Z</time></trkpt><trkpt lat="43.0412588" lon="13.2830298"><ele>523.0</ele><time>2026-04-29T17:56:38.292Z</time></trkpt><trkpt lat="43.0410852" lon="13.2830123"><ele>525.0</ele><time>2026-04-29T17:56:39.296Z</time></trkpt><trkpt lat="43.0409188" lon="13.2829885"><ele>527.0</ele><time>2026-04-29T17:56:40.285Z</time></trkpt><trkpt lat="43.0407558" lon="13.28296"><ele>529.0</ele><time>2026-04-29T17:56:41.266Z</time></trkpt><trkpt lat="43.0405763" lon="13.2829206"><ele>531.0</ele><time>2026-04-29T17:56:42.283Z</time></trkpt><trkpt lat="43.0404113" lon="13.2828784"><ele>531.0</ele><time>2026-04-29T17:56:43.284Z</time></trkpt><trkpt lat="43.0402713" lon="13.2828437"><ele>531.0</ele><time>2026-04-29T17:56:44.283Z</time></trkpt><trkpt lat="43.0401527" lon="13.2828124"><ele>531.0</ele><time>2026-04-29T17:56:45.297Z</time></trkpt><trkpt lat="43.0400447" lon="13.2827962"><ele>531.0</ele><time>2026-04-29T17:56:46.298Z</time></trkpt><trkpt lat="43.0399455" lon="13.2828048"><ele>532.75</ele><time>2026-04-29T17:56:47.328Z</time></trkpt><trkpt lat="43.0398428" lon="13.2828527"><ele>534.5</ele><time>2026-04-29T17:56:48.284Z</time></trkpt><trkpt lat="43.0397329" lon="13.28292"><ele>536.25</ele><time>2026-04-29T17:56:49.282Z</time></trkpt><trkpt lat="43.0396049" lon="13.282994"><ele>538.0</ele><time>2026-04-29T17:56:50.302Z</time></trkpt><trkpt lat="43.0394601" lon="13.2830771"><ele>536.5</ele><time>2026-04-29T17:56:51.286Z</time></trkpt><trkpt lat="43.0393247" lon="13.2831582"><ele>535.0</ele><time>2026-04-29T17:56:52.281Z</time></trkpt><trkpt lat="43.0392012" lon="13.283232"><ele>533.5</ele><time>2026-04-29T17:56:53.337Z</time></trkpt><trkpt lat="43.0390784" lon="13.2833021"><ele>532.0</ele><time>2026-04-29T17:56:54.279Z</time></trkpt><trkpt lat="43.0389505" lon="13.2833631"><ele>532.0</ele><time>2026-04-29T17:56:55.297Z</time></trkpt><trkpt lat="43.0388164" lon="13.2833896"><ele>532.0</ele><time>2026-04-29T17:56:56.315Z</time></trkpt><trkpt lat="43.0386816" lon="13.2833861"><ele>532.0</ele><time>2026-04-29T17:56:57.296Z</time></trkpt><trkpt lat="43.0385559" lon="13.2833869"><ele>532.0</ele><time>2026-04-29T17:56:58.261Z</time></trkpt><trkpt lat="43.0384493" lon="13.2833988"><ele>532.0</ele><time>2026-04-29T17:56:59.277Z</time></trkpt><trkpt lat="43.0383333" lon="13.2834277"><ele>532.0</ele><time>2026-04-29T17:57:00.298Z</time></trkpt><trkpt lat="43.0382277" lon="13.2834861"><ele>532.0</ele><time>2026-04-29T17:57:01.29Z</time></trkpt><trkpt lat="43.0381047" lon="13.2836468"><ele>532.0</ele><time>2026-04-29T17:57:02.284Z</time></trkpt><trkpt lat="43.0379736" lon="13.283807"><ele>537.3333333333334</ele><time>2026-04-29T17:57:03.276Z</time></trkpt><trkpt lat="43.0378402" lon="13.2839565"><ele>542.6666666666666</ele><time>2026-04-29T17:57:04.285Z</time></trkpt><trkpt lat="43.03771" lon="13.2840751"><ele>548.0</ele><time>2026-04-29T17:57:05.287Z</time></trkpt><trkpt lat="43.0375822" lon="13.2841635"><ele>548.0</ele><time>2026-04-29T17:57:06.285Z</time></trkpt><trkpt lat="43.0374703" lon="13.2842651"><ele>548.0</ele><time>2026-04-29T17:57:07.28Z</time></trkpt><trkpt lat="43.0373725" lon="13.2843681"><ele>548.0</ele><time>2026-04-29T17:57:08.286Z</time></trkpt><trkpt lat="43.0372734" lon="13.2844935"><ele>548.0</ele><time>2026-04-29T17:57:09.247Z</time></trkpt><trkpt lat="43.0371963" lon="13.2846554"><ele>551.5</ele><time>2026-04-29T17:57:10.293Z</time></trkpt><trkpt lat="43.0371345" lon="13.2848102"><ele>555.0</ele><time>2026-04-29T17:57:11.28Z</time></trkpt><trkpt lat="43.0370717" lon="13.2849409"><ele>558.5</ele><time>2026-04-29T17:57:12.27Z</time></trkpt><trkpt lat="43.0370075" lon="13.2850593"><ele>562.0</ele><time>2026-04-29T17:57:13.257Z</time></trkpt><trkpt lat="43.0369503" lon="13.2851798"><ele>562.0</ele><time>2026-04-29T17:57:14.298Z</time></trkpt><trkpt lat="43.0368655" lon="13.2852575"><ele>562.0</ele><time>2026-04-29T17:57:15.278Z</time></trkpt><trkpt lat="43.0367554" lon="13.2853212"><ele>562.0</ele><time>2026-04-29T17:57:16.327Z</time></trkpt><trkpt lat="43.0366421" lon="13.2854145"><ele>562.0</ele><time>2026-04-29T17:57:17.285Z</time></trkpt><trkpt lat="43.0365182" lon="13.2855521"><ele>565.0</ele><time>2026-04-29T17:57:18.278Z</time></trkpt><trkpt lat="43.0364215" lon="13.2856755"><ele>568.0</ele><time>2026-04-29T17:57:19.285Z</time></trkpt><trkpt lat="43.0363309" lon="13.2857744"><ele>571.0</ele><time>2026-04-29T17:57:20.298Z</time></trkpt><trkpt lat="43.0362428" lon="13.2858531"><ele>574.0</ele><time>2026-04-29T17:57:21.321Z</time></trkpt><trkpt lat="43.0361429" lon="13.285895"><ele>574.0</ele><time>2026-04-29T17:57:22.261Z</time></trkpt><trkpt lat="43.0360275" lon="13.2859095"><ele>574.0</ele><time>2026-04-29T17:57:23.285Z</time></trkpt><trkpt lat="43.0358725" lon="13.2859384"><ele>574.0</ele><time>2026-04-29T17:57:24.287Z</time></trkpt><trkpt lat="43.0357035" lon="13.2859935"><ele>574.0</ele><time>2026-04-29T17:57:25.295Z</time></trkpt><trkpt lat="43.0355141" lon="13.2860635"><ele>580.0</ele><time>2026-04-29T17:57:26.282Z</time></trkpt><trkpt lat="43.0353457" lon="13.2861359"><ele>586.0</ele><time>2026-04-29T17:57:27.291Z</time></trkpt><trkpt lat="43.0351884" lon="13.2862025"><ele>592.0</ele><time>2026-04-29T17:57:28.327Z</time></trkpt><trkpt lat="43.035078" lon="13.286272"><ele>592.0</ele><time>2026-04-29T17:57:29.282Z</time></trkpt><trkpt lat="43.0349763" lon="13.2863407"><ele>592.0</ele><time>2026-04-29T17:57:30.278Z</time></trkpt><trkpt lat="43.0348871" lon="13.2864015"><ele>592.0</ele><time>2026-04-29T17:57:31.292Z</time></trkpt><trkpt lat="43.0348158" lon="13.2864795"><ele>592.0</ele><time>2026-04-29T17:57:32.287Z</time></trkpt><trkpt lat="43.0347586" lon="13.2865846"><ele>592.0</ele><time>2026-04-29T17:57:33.28Z</time></trkpt><trkpt lat="43.0346986" lon="13.2867048"><ele>592.25</ele><time>2026-04-29T17:57:34.277Z</time></trkpt><trkpt lat="43.0346442" lon="13.2868564"><ele>592.5</ele><time>2026-04-29T17:57:35.284Z</time></trkpt><trkpt lat="43.0345809" lon="13.287027"><ele>592.75</ele><time>2026-04-29T17:57:36.319Z</time></trkpt><trkpt lat="43.0345297" lon="13.2871933"><ele>593.0</ele><time>2026-04-29T17:57:37.288Z</time></trkpt><trkpt lat="43.0344897" lon="13.2873496"><ele>591.8</ele><time>2026-04-29T17:57:38.29Z</time></trkpt><trkpt lat="43.0344571" lon="13.2874923"><ele>590.5999999999999</ele><time>2026-04-29T17:57:39.245Z</time></trkpt><trkpt lat="43.034448" lon="13.2876164"><ele>589.4000000000001</ele><time>2026-04-29T17:57:40.335Z</time></trkpt><trkpt lat="43.0344324" lon="13.2877217"><ele>588.2</ele><time>2026-04-29T17:57:41.284Z</time></trkpt><trkpt lat="43.0344255" lon="13.2878446"><ele>587.0</ele><time>2026-04-29T17:57:42.291Z</time></trkpt><trkpt lat="43.0344447" lon="13.2879927"><ele>588.3333333333333</ele><time>2026-04-29T17:57:43.305Z</time></trkpt><trkpt lat="43.0344791" lon="13.2881772"><ele>589.6666666666666</ele><time>2026-04-29T17:57:44.287Z</time></trkpt><trkpt lat="43.0345112" lon="13.2883879"><ele>591.0</ele><time>2026-04-29T17:57:45.305Z</time></trkpt><trkpt lat="43.0345528" lon="13.2886365"><ele>591.0</ele><time>2026-04-29T17:57:46.292Z</time></trkpt><trkpt lat="43.0345879" lon="13.2888796"><ele>591.0</ele><time>2026-04-29T17:57:47.285Z</time></trkpt><trkpt lat="43.0346199" lon="13.2891149"><ele>591.0</ele><time>2026-04-29T17:57:48.27Z</time></trkpt><trkpt lat="43.0346459" lon="13.2893612"><ele>592.3333333333334</ele><time>2026-04-29T17:57:49.295Z</time></trkpt><trkpt lat="43.0346692" lon="13.289596"><ele>593.6666666666667</ele><time>2026-04-29T17:57:50.313Z</time></trkpt><trkpt lat="43.0346868" lon="13.2898044"><ele>595.0</ele><time>2026-04-29T17:57:51.291Z</time></trkpt><trkpt lat="43.0346986" lon="13.289997"><ele>595.5</ele><time>2026-04-29T17:57:52.236Z</time></trkpt><trkpt lat="43.0347001" lon="13.2901747"><ele>596.0</ele><time>2026-04-29T17:57:53.274Z</time></trkpt><trkpt lat="43.0347078" lon="13.2903625"><ele>596.5</ele><time>2026-04-29T17:57:54.306Z</time></trkpt><trkpt lat="43.0347183" lon="13.2905538"><ele>597.0</ele><time>2026-04-29T17:57:55.288Z</time></trkpt><trkpt lat="43.0347233" lon="13.2907584"><ele>595.75</ele><time>2026-04-29T17:57:56.306Z</time></trkpt><trkpt lat="43.0347245" lon="13.2909465"><ele>594.5</ele><time>2026-04-29T17:57:57.288Z</time></trkpt><trkpt lat="43.0347141" lon="13.291123"><ele>593.25</ele><time>2026-04-29T17:57:58.298Z</time></trkpt><trkpt lat="43.0347092" lon="13.291285"><ele>592.0</ele><time>2026-04-29T17:57:59.31Z</time></trkpt><trkpt lat="43.0347095" lon="13.2914289"><ele>590.4</ele><time>2026-04-29T17:58:00.294Z</time></trkpt><trkpt lat="43.0347095" lon="13.2915694"><ele>588.8000000000001</ele><time>2026-04-29T17:58:01.259Z</time></trkpt><trkpt lat="43.034713" lon="13.2916998"><ele>587.2</ele><time>2026-04-29T17:58:02.337Z</time></trkpt><trkpt lat="43.0347159" lon="13.2918236"><ele>585.6</ele><time>2026-04-29T17:58:03.291Z</time></trkpt><trkpt lat="43.034717" lon="13.2919419"><ele>584.0</ele><time>2026-04-29T17:58:04.286Z</time></trkpt><trkpt lat="43.0347174" lon="13.2920571"><ele>584.0</ele><time>2026-04-29T17:58:05.3Z</time></trkpt><trkpt lat="43.0347203" lon="13.2921647"><ele>584.0</ele><time>2026-04-29T17:58:06.267Z</time></trkpt><trkpt lat="43.0347241" lon="13.2922745"><ele>584.0</ele><time>2026-04-29T17:58:07.288Z</time></trkpt><trkpt lat="43.0347297" lon="13.2923942"><ele>584.0</ele><time>2026-04-29T17:58:08.295Z</time></trkpt><trkpt lat="43.0347393" lon="13.2925039"><ele>584.0</ele><time>2026-04-29T17:58:09.303Z</time></trkpt><trkpt lat="43.0347448" lon="13.2926082"><ele>584.0</ele><time>2026-04-29T17:58:10.28Z</time></trkpt><trkpt lat="43.0347575" lon="13.2927149"><ele>582.6666666666666</ele><time>2026-04-29T17:58:11.286Z</time></trkpt><trkpt lat="43.0347643" lon="13.2928171"><ele>581.3333333333333</ele><time>2026-04-29T17:58:12.306Z</time></trkpt><trkpt lat="43.0347736" lon="13.2929206"><ele>580.0</ele><time>2026-04-29T17:58:13.34Z</time></trkpt><trkpt lat="43.0347823" lon="13.2930297"><ele>578.6666666666666</ele><time>2026-04-29T17:58:14.304Z</time></trkpt><trkpt lat="43.0347749" lon="13.2931351"><ele>577.3333333333334</ele><time>2026-04-29T17:58:15.295Z</time></trkpt><trkpt lat="43.0347555" lon="13.2932277"><ele>576.0</ele><time>2026-04-29T17:58:16.27Z</time></trkpt><trkpt lat="43.0347183" lon="13.2933784"><ele>574.2</ele><time>2026-04-29T17:58:18.289Z</time></trkpt><trkpt lat="43.0346908" lon="13.2935278"><ele>572.4000000000001</ele><time>2026-04-29T17:58:20.296Z</time></trkpt><trkpt lat="43.0346561" lon="13.2936436"><ele>570.6</ele><time>2026-04-29T17:58:22.258Z</time></trkpt><trkpt lat="43.0346335" lon="13.2937626"><ele>568.8000000000001</ele><time>2026-04-29T17:58:24.281Z</time></trkpt><trkpt lat="43.0346167" lon="13.293881"><ele>567.0</ele><time>2026-04-29T17:58:26.286Z</time></trkpt><trkpt lat="43.0346017" lon="13.294008"><ele>564.8000000000001</ele><time>2026-04-29T17:58:28.32Z</time></trkpt><trkpt lat="43.0346041" lon="13.2941622"><ele>562.6</ele><time>2026-04-29T17:58:30.296Z</time></trkpt><trkpt lat="43.0345761" lon="13.2943286"><ele>560.4000000000001</ele><time>2026-04-29T17:58:32.272Z</time></trkpt><trkpt lat="43.0345001" lon="13.2944834"><ele>558.2</ele><time>2026-04-29T17:58:34.299Z</time></trkpt><trkpt lat="43.0344468" lon="13.2945478"><ele>556.0</ele><time>2026-04-29T17:58:35.291Z</time></trkpt><trkpt lat="43.0343931" lon="13.2946224"><ele>556.0</ele><time>2026-04-29T17:58:36.278Z</time></trkpt><trkpt lat="43.0343516" lon="13.2947082"><ele>556.0</ele><time>2026-04-29T17:58:37.28Z</time></trkpt><trkpt lat="43.034378" lon="13.2948751"><ele>556.0</ele><time>2026-04-29T17:58:39.284Z</time></trkpt><trkpt lat="43.034415" lon="13.2949756"><ele>556.0</ele><time>2026-04-29T17:58:40.281Z</time></trkpt><trkpt lat="43.0344477" lon="13.2950564"><ele>556.0</ele><time>2026-04-29T17:58:41.237Z</time></trkpt><trkpt lat="43.034493" lon="13.2951729"><ele>556.0</ele><time>2026-04-29T17:58:43.284Z</time></trkpt><trkpt lat="43.0344962" lon="13.2953027"><ele>554.6</ele><time>2026-04-29T17:58:45.296Z</time></trkpt><trkpt lat="43.0344054" lon="13.2954012"><ele>553.2</ele><time>2026-04-29T17:58:47.239Z</time></trkpt><trkpt lat="43.0343282" lon="13.2954321"><ele>551.8</ele><time>2026-04-29T17:58:48.291Z</time></trkpt><trkpt lat="43.0342358" lon="13.2954452"><ele>550.4</ele><time>2026-04-29T17:58:49.285Z</time></trkpt><trkpt lat="43.0341309" lon="13.2954569"><ele>549.0</ele><time>2026-04-29T17:58:50.295Z</time></trkpt><trkpt lat="43.0340195" lon="13.2954666"><ele>546.0</ele><time>2026-04-29T17:58:51.26Z</time></trkpt><trkpt lat="43.033918" lon="13.2954685"><ele>543.0</ele><time>2026-04-29T17:58:52.304Z</time></trkpt><trkpt lat="43.033818" lon="13.2954583"><ele>540.0</ele><time>2026-04-29T17:58:53.286Z</time></trkpt><trkpt lat="43.0337249" lon="13.2954265"><ele>537.0</ele><time>2026-04-29T17:58:54.301Z</time></trkpt><trkpt lat="43.0336335" lon="13.2953795"><ele>534.0</ele><time>2026-04-29T17:58:55.273Z</time></trkpt><trkpt lat="43.0335453" lon="13.2952953"><ele>534.0</ele><time>2026-04-29T17:58:56.25Z</time></trkpt><trkpt lat="43.0334581" lon="13.2951945"><ele>534.0</ele><time>2026-04-29T17:58:57.288Z</time></trkpt><trkpt lat="43.0333796" lon="13.2951048"><ele>534.0</ele><time>2026-04-29T17:58:58.249Z</time></trkpt><trkpt lat="43.0333182" lon="13.2950288"><ele>534.0</ele><time>2026-04-29T17:58:59.308Z</time></trkpt><trkpt lat="43.0332538" lon="13.2949736"><ele>534.0</ele><time>2026-04-29T17:59:00.315Z</time></trkpt><trkpt lat="43.0331923" lon="13.2949438"><ele>534.0</ele><time>2026-04-29T17:59:01.253Z</time></trkpt><trkpt lat="43.0330798" lon="13.2949366"><ele>532.6666666666666</ele><time>2026-04-29T17:59:03.273Z</time></trkpt><trkpt lat="43.0330256" lon="13.2949867"><ele>531.3333333333334</ele><time>2026-04-29T17:59:04.288Z</time></trkpt><trkpt lat="43.0329586" lon="13.2951049"><ele>530.0</ele><time>2026-04-29T17:59:06.268Z</time></trkpt><trkpt lat="43.0329256" lon="13.2951829"><ele>528.6666666666667</ele><time>2026-04-29T17:59:08.298Z</time></trkpt><trkpt lat="43.0328439" lon="13.2952835"><ele>527.3333333333334</ele><time>2026-04-29T17:59:11.263Z</time></trkpt><trkpt lat="43.0327718" lon="13.2953345"><ele>526.0</ele><time>2026-04-29T17:59:12.294Z</time></trkpt><trkpt lat="43.0326889" lon="13.2953917"><ele>526.0</ele><time>2026-04-29T17:59:13.278Z</time></trkpt><trkpt lat="43.0325573" lon="13.2954417"><ele>526.0</ele><time>2026-04-29T17:59:14.287Z</time></trkpt><trkpt lat="43.0324247" lon="13.2955012"><ele>526.0</ele><time>2026-04-29T17:59:15.279Z</time></trkpt><trkpt lat="43.0323077" lon="13.2955653"><ele>526.0</ele><time>2026-04-29T17:59:16.241Z</time></trkpt><trkpt lat="43.032196" lon="13.2956318"><ele>523.25</ele><time>2026-04-29T17:59:17.272Z</time></trkpt><trkpt lat="43.0320996" lon="13.2957018"><ele>520.5</ele><time>2026-04-29T17:59:18.294Z</time></trkpt><trkpt lat="43.0320108" lon="13.2957901"><ele>517.75</ele><time>2026-04-29T17:59:19.288Z</time></trkpt><trkpt lat="43.031914" lon="13.2958832"><ele>515.0</ele><time>2026-04-29T17:59:20.246Z</time></trkpt><trkpt lat="43.0318283" lon="13.2960431"><ele>515.0</ele><time>2026-04-29T17:59:21.243Z</time></trkpt><trkpt lat="43.0317313" lon="13.2962079"><ele>515.0</ele><time>2026-04-29T17:59:22.277Z</time></trkpt><trkpt lat="43.031648" lon="13.2963424"><ele>515.0</ele><time>2026-04-29T17:59:23.281Z</time></trkpt><trkpt lat="43.0315786" lon="13.2964399"><ele>515.0</ele><time>2026-04-29T17:59:24.258Z</time></trkpt><trkpt lat="43.0315281" lon="13.2965577"><ele>511.99999999999994</ele><time>2026-04-29T17:59:25.243Z</time></trkpt><trkpt lat="43.0314822" lon="13.296653"><ele>509.0</ele><time>2026-04-29T17:59:26.258Z</time></trkpt><trkpt lat="43.0314373" lon="13.2967243"><ele>506.0</ele><time>2026-04-29T17:59:27.279Z</time></trkpt><trkpt lat="43.0313876" lon="13.2968348"><ele>503.0</ele><time>2026-04-29T17:59:29.292Z</time></trkpt><trkpt lat="43.0313059" lon="13.2968898"><ele>499.99999999999994</ele><time>2026-04-29T17:59:31.241Z</time></trkpt><trkpt lat="43.0312286" lon="13.2968945"><ele>497.0</ele><time>2026-04-29T17:59:33.267Z</time></trkpt><trkpt lat="43.0311781" lon="13.2968272"><ele>497.0</ele><time>2026-04-29T17:59:34.277Z</time></trkpt><trkpt lat="43.0311277" lon="13.2967174"><ele>497.00000000000006</ele><time>2026-04-29T17:59:35.3Z</time></trkpt><trkpt lat="43.0310698" lon="13.296606"><ele>497.00000000000006</ele><time>2026-04-29T17:59:36.262Z</time></trkpt><trkpt lat="43.031014" lon="13.2964967"><ele>497.0</ele><time>2026-04-29T17:59:37.277Z</time></trkpt><trkpt lat="43.0309467" lon="13.2964077"><ele>497.0</ele><time>2026-04-29T17:59:38.273Z</time></trkpt><trkpt lat="43.0308649" lon="13.2963628"><ele>496.20000000000005</ele><time>2026-04-29T17:59:39.274Z</time></trkpt><trkpt lat="43.0307655" lon="13.2963819"><ele>495.40000000000003</ele><time>2026-04-29T17:59:40.267Z</time></trkpt><trkpt lat="43.0306528" lon="13.2964095"><ele>494.59999999999997</ele><time>2026-04-29T17:59:41.286Z</time></trkpt><trkpt lat="43.0305368" lon="13.2964564"><ele>493.79999999999995</ele><time>2026-04-29T17:59:42.285Z</time></trkpt><trkpt lat="43.0304313" lon="13.2964967"><ele>493.0</ele><time>2026-04-29T17:59:43.28Z</time></trkpt><trkpt lat="43.0303496" lon="13.2965428"><ele>493.00000000000006</ele><time>2026-04-29T17:59:44.283Z</time></trkpt><trkpt lat="43.0302825" lon="13.2965789"><ele>493.0</ele><time>2026-04-29T17:59:45.272Z</time></trkpt><trkpt lat="43.0302201" lon="13.2966074"><ele>493.0</ele><time>2026-04-29T17:59:46.282Z</time></trkpt><trkpt lat="43.0301199" lon="13.2966283"><ele>493.0</ele><time>2026-04-29T17:59:48.303Z</time></trkpt><trkpt lat="43.03006" lon="13.2965866"><ele>493.00000000000006</ele><time>2026-04-29T17:59:50.275Z</time></trkpt><trkpt lat="43.0300496" lon="13.2964662"><ele>493.0</ele><time>2026-04-29T17:59:53.24Z</time></trkpt><trkpt lat="43.0300608" lon="13.2963417"><ele>503.0</ele><time>2026-04-29T17:59:57.251Z</time></trkpt></trkseg></trk></gpx>